GFSSE_sfc_wetblb_000.txt.gz
Wetbulb
68.32 69.92 71.38 72.34 72.41 71.97 71.46 71.05 70.99 71.01 71.03 70.83 70.71 70.22 69.95 69.68 69.78 69.75 69.97 70.45 70.03 69.01 69.08 68.92 68.82 68.87 68.85 68.90 68.94 69.15 69.35 69.30 69.59 69.64 70.22 69.75 69.24 69.45 69.30 69.19 69.18 67.56 69.51
69.62 70.29 71.10 72.05 72.31 72.11 71.79 71.29 71.10 71.30 71.06 70.27 70.17 69.95 69.53 69.27 69.27 69.28 68.92 68.51 68.11 67.46 67.34 67.44 67.38 67.29 67.74 67.87 68.23 68.36 68.40 68.43 68.64 68.65 68.87 68.61 68.26 68.78 68.96 68.78 68.39 68.53 69.21
69.75 70.88 70.87 71.18 71.94 72.00 71.78 71.51 71.71 71.52 70.46 70.22 70.16 69.74 69.17 68.73 68.53 68.31 67.85 68.22 67.38 66.86 66.82 66.49 66.47 66.50 66.45 66.63 66.80 66.92 67.07 67.15 67.03 67.39 67.41 64.11 64.55 67.88 68.98 68.81 68.63 68.90 68.78
70.27 70.60 70.82 70.90 71.51 71.73 71.65 71.68 71.52 71.04 70.61 70.33 70.18 69.37 68.63 68.26 67.64 67.22 67.07 67.24 66.52 66.15 65.91 65.48 65.10 64.65 64.55 64.66 64.77 64.84 64.73 64.85 65.46 65.37 62.80 63.22 64.04 67.31 68.80 68.75 68.53 68.27 67.54
69.49 69.53 70.61 70.91 71.24 71.69 71.69 71.36 71.16 71.18 70.90 70.64 69.88 68.91 68.21 67.61 66.89 66.07 66.02 65.69 65.38 65.15 64.83 64.53 63.96 63.37 63.24 63.62 63.84 63.71 63.53 63.89 64.16 61.58 60.08 62.12 64.91 66.30 68.34 68.73 68.41 68.29 68.17
68.38 68.68 68.70 69.83 70.89 71.30 71.31 71.30 71.28 70.86 70.18 70.07 69.54 68.47 67.83 67.01 66.19 65.20 65.01 64.25 63.99 63.84 63.22 63.21 63.01 62.73 62.75 62.95 63.12 63.23 63.33 63.68 62.81 57.93 58.28 60.32 63.51 67.15 68.72 68.55 68.50 68.22 67.94
68.66 69.18 69.56 69.76 70.79 71.22 71.41 71.26 70.76 69.99 69.28 69.39 69.13 68.21 67.25 66.44 65.57 64.74 63.89 63.42 63.18 62.94 63.23 63.09 62.97 62.97 62.84 62.94 62.87 63.24 63.25 63.27 60.85 57.19 57.18 60.37 63.15 67.73 68.62 68.34 68.18 67.22 67.26
68.71 70.18 69.99 70.61 70.52 70.18 70.30 70.11 69.66 69.13 68.99 68.84 68.51 67.64 66.72 66.18 65.35 64.28 63.42 63.34 63.06 62.71 62.90 63.31 63.24 63.34 63.49 63.39 63.51 63.84 63.20 63.64 60.14 57.07 57.17 58.88 63.99 67.46 67.71 66.97 67.89 66.69 66.69
69.85 69.60 69.59 69.38 69.80 69.10 68.32 68.34 68.25 68.49 68.51 68.38 67.99 67.44 67.00 66.28 65.82 64.36 64.02 64.06 63.89 63.32 63.70 64.05 64.33 64.22 64.04 63.98 63.94 63.45 62.94 62.68 56.39 56.89 57.50 58.65 64.81 66.80 67.12 67.06 67.61 67.75 66.99
67.58 68.19 68.19 69.06 69.68 67.28 66.53 67.33 67.35 67.24 67.37 67.46 67.39 66.68 65.96 65.80 65.65 65.26 64.91 63.85 64.59 64.58 64.56 64.72 64.53 64.48 64.23 64.16 63.53 63.34 62.98 58.74 53.95 54.60 55.29 57.16 64.56 65.97 66.45 66.36 66.46 66.54 66.26
66.59 67.08 67.56 67.41 67.14 65.40 64.82 66.16 67.04 67.51 66.90 66.61 66.39 65.94 64.23 61.93 61.27 61.53 64.02 65.12 64.99 64.65 64.64 64.97 64.97 64.58 64.04 63.40 62.61 62.65 62.29 54.38 52.86 53.69 53.58 58.74 62.93 63.85 64.67 65.90 66.35 66.21 65.74
64.24 65.05 65.49 63.93 63.55 63.49 66.01 64.12 63.16 63.68 63.42 63.17 63.58 63.01 62.30 61.56 61.20 62.90 63.19 64.35 65.06 64.99 65.34 65.21 65.08 64.86 63.68 59.69 58.66 59.91 56.99 55.52 52.81 52.38 53.25 59.59 62.03 63.02 63.50 64.58 65.92 65.66 65.12
63.58 62.95 62.28 62.01 62.17 62.10 62.73 61.77 61.45 61.77 61.44 61.83 61.91 61.25 61.09 61.78 60.92 60.69 60.56 59.63 59.10 62.08 59.95 59.80 59.51 59.16 58.57 58.08 57.76 57.10 56.79 56.01 53.44 52.44 53.43 59.36 60.98 62.94 63.49 63.32 64.77 65.15 64.85
60.11 61.34 61.45 60.99 60.74 60.44 60.38 60.69 60.10 60.51 60.77 61.03 61.54 61.45 60.18 59.53 58.32 57.26 57.22 55.68 54.67 54.64 54.02 54.62 55.31 55.92 56.16 55.08 53.82 54.23 54.87 54.52 53.28 52.26 52.48 57.92 59.37 61.39 63.18 63.54 63.80 65.14 64.84
58.88 59.28 59.62 60.00 59.67 59.78 59.47 59.88 59.52 60.22 61.18 61.20 61.20 61.22 59.26 57.73 54.83 54.56 53.56 53.71 53.54 53.66 53.31 52.67 52.69 52.63 52.32 52.28 51.97 52.09 52.20 52.11 51.68 51.35 51.34 55.69 57.94 58.90 60.83 62.31 62.76 63.68 65.17
58.73 58.90 59.65 60.02 58.61 57.89 58.03 58.96 59.10 59.50 60.45 61.36 60.62 58.83 57.52 55.76 54.58 53.76 52.08 51.41 51.02 51.59 51.06 51.03 51.36 50.82 49.95 49.72 49.03 50.04 49.92 49.83 50.35 50.85 51.06 51.00 55.28 56.13 57.58 59.26 61.03 61.95 62.87
57.71 58.32 58.93 59.02 59.25 59.11 58.73 58.81 58.99 58.97 59.59 59.27 57.27 56.00 55.83 54.26 51.86 50.27 48.95 48.64 48.78 49.53 48.96 48.46 48.34 46.78 46.30 46.75 46.46 47.30 47.09 48.01 48.27 50.85 50.88 50.70 50.62 53.15 55.11 56.11 57.31 58.36 59.05
57.42 59.77 60.51 61.81 61.44 60.36 58.51 58.44 57.02 55.61 56.12 55.69 55.01 53.76 52.35 50.61 49.72 48.19 48.72 47.78 47.88 47.37 45.96 46.18 46.17 44.26 44.62 44.11 43.52 44.36 44.44 46.12 46.54 50.10 49.28 49.04 48.72 48.25 49.60 52.73 53.21 54.06 55.87
59.79 60.17 59.85 61.00 60.03 58.65 57.04 55.29 54.46 52.67 51.73 51.68 51.28 49.24 48.92 48.72 48.53 47.38 47.38 46.92 45.96 44.50 44.13 44.30 43.97 43.79 43.21 43.03 44.15 44.06 42.88 43.83 45.33 49.69 48.10 47.36 46.89 46.76 46.67 49.00 50.22 50.33 51.28
57.48 58.11 57.41 56.96 55.52 54.46 53.76 54.36 54.11 51.95 50.85 51.24 49.38 47.79 48.94 48.72 49.15 48.46 45.94 45.08 44.38 43.28 42.73 42.73 42.37 42.51 42.55 42.58 44.78 43.62 42.29 42.52 45.34 46.57 45.92 46.57 45.89 45.41 45.25 45.52 45.25 45.06 47.44
53.86 54.15 54.27 54.49 54.59 52.86 50.32 50.63 51.17 49.98 51.54 48.50 47.00 46.71 46.19 45.98 45.22 44.60 44.36 44.04 43.72 42.59 41.66 42.59 41.78 41.25 41.48 42.65 41.04 41.17 41.43 42.29 43.22 44.98 45.00 44.41 44.67 45.41 45.20 44.82 44.72 43.84 43.18
50.96 51.96 50.97 50.57 50.13 50.37 50.27 49.55 51.37 50.96 48.16 46.57 45.56 43.65 44.08 44.02 43.95 45.01 43.92 43.34 42.73 42.02 41.65 41.39 41.06 40.73 40.83 41.85 40.10 39.42 36.94 39.32 40.96 41.67 41.84 42.92 41.24 42.88 42.73 43.02 43.62 43.94 42.93
46.66 46.42 47.08 47.11 47.45 48.15 49.85 48.74 45.97 45.61 45.52 43.44 43.00 41.10 42.17 43.08 43.23 43.10 43.60 42.93 41.80 41.60 41.21 40.57 40.41 39.79 39.01 39.67 39.63 38.64 34.81 33.27 35.93 38.93 39.31 39.24 39.10 39.59 40.34 41.50 42.21 43.23 42.58
43.17 44.14 45.35 46.27 46.07 46.32 45.82 45.54 44.62 43.16 41.94 41.86 40.52 39.62 40.65 42.27 42.50 42.93 42.73 41.82 41.02 40.95 41.41 40.93 40.09 38.66 38.67 34.97 37.75 38.72 37.52 36.32 32.77 32.47 36.33 37.81 38.01 38.70 38.80 39.47 40.51 41.59 42.14
45.12 44.44 43.82 45.27 45.37 44.79 44.36 44.36 43.01 40.32 40.72 40.60 39.38 39.97 40.07 41.45 41.84 41.66 41.81 41.31 41.25 40.00 39.27 38.59 36.96 35.91 36.36 34.86 34.74 34.92 35.06 35.01 35.20 32.95 29.72 32.22 36.29 36.70 38.19 38.34 39.09 40.04 40.84
44.03 43.14 43.36 43.95 42.78 43.03 42.17 41.96 40.95 40.38 39.50 39.36 40.07 40.00 40.43 40.16 40.58 41.00 41.11 39.51 39.21 38.37 37.60 36.59 35.65 35.31 34.57 34.31 34.43 34.28 33.98 32.54 31.57 31.81 29.67 29.83 30.18 34.22 34.15 37.32 38.06 39.07 39.75

GFSSE_sfc_wetblb_003.txt.gz
Wetbulb
69.28 71.12 71.42 71.58 71.74 71.89 71.56 71.15 71.06 71.10 71.41 71.62 71.45 70.67 70.36 70.18 70.08 70.16 70.08 70.30 69.82 68.50 68.32 68.30 68.39 68.48 68.62 68.67 68.79 68.66 68.70 68.55 68.44 68.78 69.07 69.57 69.18 69.09 69.29 68.27 69.10 68.14 69.52
70.87 71.52 70.89 71.17 71.52 71.92 71.45 71.18 71.24 71.37 71.54 71.26 70.89 70.35 69.91 69.64 69.76 69.40 68.62 68.94 68.83 67.62 67.40 67.42 67.28 67.28 67.17 67.06 67.08 66.98 66.97 66.89 67.09 67.40 67.45 67.49 67.46 68.35 69.25 68.60 69.22 67.93 69.18
70.91 71.72 71.31 70.49 71.21 71.72 71.59 71.58 71.68 71.58 71.04 70.77 70.44 70.03 69.45 69.20 68.81 68.44 67.99 68.81 68.00 66.99 66.78 66.11 65.75 65.08 65.06 65.24 64.90 64.64 64.66 64.83 65.34 65.35 65.58 66.95 67.26 67.73 69.23 69.06 69.25 69.13 68.40
71.20 71.56 70.77 70.20 70.85 71.51 71.26 71.61 71.48 71.37 70.87 70.74 70.36 69.69 69.03 68.59 68.11 67.79 67.45 67.93 66.83 66.15 65.58 64.87 64.20 63.92 64.02 64.21 64.06 64.17 64.21 64.47 63.75 62.92 64.61 65.68 67.48 67.69 68.16 68.57 68.11 68.03 67.57
71.03 71.36 70.74 70.03 70.41 70.97 71.14 70.76 71.31 71.20 71.12 71.09 70.24 69.12 68.64 67.94 67.02 66.83 66.39 66.49 65.33 64.71 64.14 64.03 63.65 63.42 63.61 63.89 64.22 64.41 64.27 64.21 63.22 63.35 64.35 66.37 68.19 67.68 68.60 68.74 68.31 68.12 67.63
70.35 70.89 70.04 69.35 69.99 70.64 71.05 71.44 71.41 71.07 70.70 70.60 69.90 68.82 68.11 67.09 66.44 65.70 65.03 64.50 63.88 63.73 64.25 64.13 64.09 63.71 63.78 64.25 64.58 64.30 64.21 64.23 63.09 63.35 63.91 64.64 66.93 68.20 68.38 68.08 67.51 67.50 67.83
70.01 70.87 70.80 68.43 69.31 70.25 71.04 71.26 70.89 70.28 69.94 69.96 69.61 68.66 67.50 66.74 65.80 64.76 64.14 63.71 63.58 63.84 64.40 64.29 63.90 63.97 64.14 64.59 64.76 64.63 63.69 64.08 62.66 62.48 62.77 63.71 65.81 67.62 67.91 67.67 67.57 67.04 67.24
69.40 70.31 70.56 70.01 69.87 70.33 70.60 70.36 69.68 69.20 69.34 69.24 68.82 67.88 67.09 66.56 65.50 64.45 64.37 64.02 63.76 63.64 63.99 64.44 64.11 64.31 64.62 64.82 64.89 64.92 64.20 63.43 60.34 60.30 60.92 62.20 65.11 67.06 67.63 67.30 68.01 67.97 67.79
70.13 70.28 70.74 70.99 70.89 69.08 68.37 68.43 68.27 68.40 68.63 68.47 68.15 67.60 66.77 65.95 65.50 64.79 64.77 65.12 65.09 64.70 64.91 65.24 65.19 65.32 65.17 65.30 65.05 64.57 64.39 62.11 61.19 60.58 59.62 60.41 64.00 65.64 66.53 67.02 66.92 66.85 66.40
70.08 70.02 70.01 70.73 70.59 70.77 70.75 67.58 67.96 67.98 67.78 67.73 67.44 66.79 65.79 65.85 65.29 65.19 64.91 64.22 65.47 65.68 65.61 65.93 65.79 65.56 65.48 65.35 64.62 63.80 64.08 62.17 62.40 61.49 60.88 60.73 63.21 64.40 64.71 65.72 66.06 65.65 65.31
67.70 68.48 69.11 68.88 69.69 70.31 70.23 69.38 68.13 67.62 67.29 66.91 66.85 66.14 65.74 66.70 65.98 65.63 64.84 65.34 65.75 65.25 65.67 65.98 65.76 65.48 65.22 64.66 63.69 63.58 63.19 63.38 63.28 62.36 61.70 60.19 62.09 63.73 64.21 65.10 66.61 66.10 64.83
65.52 66.54 67.76 68.00 68.53 68.57 68.74 68.75 68.38 67.60 67.24 66.92 66.68 66.61 67.02 66.70 66.85 65.86 65.57 64.84 65.48 65.02 65.72 65.19 64.82 64.62 64.88 64.91 64.51 62.72 62.43 62.80 62.54 62.26 61.96 60.60 61.50 62.95 63.89 65.43 66.08 66.34 66.12
65.01 65.41 66.23 67.08 68.00 67.65 67.41 67.35 66.71 66.15 65.86 66.08 66.02 65.98 66.47 66.27 67.04 67.46 67.13 66.76 66.47 63.89 63.67 61.93 62.27 63.04 63.31 63.02 61.37 60.71 60.28 60.00 59.74 59.43 59.63 59.28 60.43 62.51 63.37 63.67 65.53 65.97 65.99
65.06 65.58 66.83 66.01 66.08 65.65 65.65 65.34 64.67 64.44 64.72 64.86 65.62 66.12 66.15 65.74 65.55 64.16 63.43 62.42 61.84 61.75 61.06 60.47 60.56 60.70 60.38 58.96 58.38 58.34 57.03 55.76 54.68 55.89 57.70 58.31 58.63 60.57 62.21 63.22 63.75 64.55 65.49
63.37 64.07 63.71 63.56 63.48 63.48 63.33 63.75 63.80 63.90 64.52 65.17 65.65 66.03 65.86 64.83 63.77 62.72 60.92 59.87 59.38 59.37 58.59 58.64 58.69 57.64 56.70 55.87 55.96 55.20 54.17 54.02 54.28 54.80 56.15 56.85 57.44 59.31 60.92 62.04 62.45 62.92 63.29
62.51 62.73 62.47 61.73 62.58 62.88 62.50 63.19 63.05 61.33 62.17 63.91 63.93 60.94 60.83 62.06 61.50 58.22 57.01 56.71 56.75 56.88 56.78 56.70 55.65 54.34 53.47 53.09 53.01 53.82 52.73 53.06 53.28 55.83 56.42 57.18 54.50 55.65 56.51 57.73 59.04 60.19 61.00
61.62 61.93 61.76 62.11 63.12 62.80 62.64 63.18 61.99 59.42 59.44 58.86 59.29 59.17 57.36 56.64 57.00 56.12 56.53 55.46 55.30 55.35 55.05 54.50 53.10 53.65 52.39 51.41 51.15 51.55 51.69 52.33 52.51 55.21 54.97 54.70 54.12 52.43 53.11 53.67 54.11 54.64 55.63
61.45 61.80 61.89 62.75 62.18 60.75 60.24 57.61 56.15 55.68 56.71 56.69 57.06 56.81 55.80 55.15 55.97 55.70 54.81 54.05 53.34 53.11 53.21 52.84 52.05 51.44 50.83 50.10 49.58 50.53 50.74 51.20 54.76 54.58 53.36 53.26 52.87 52.64 52.60 51.04 51.18 51.25 52.21
62.48 62.06 62.01 61.43 60.35 56.94 56.30 54.11 53.87 54.63 53.52 53.47 54.02 52.82 52.86 52.55 53.30 54.22 53.53 52.50 52.64 52.15 51.65 50.92 50.16 49.59 48.94 48.38 47.54 49.42 49.25 50.08 53.99 53.78 52.46 52.18 51.89 52.02 51.60 50.55 49.48 49.36 49.72
62.32 61.49 59.86 59.41 56.21 55.24 57.49 55.97 56.17 55.02 53.82 53.30 51.44 50.95 51.68 51.93 52.66 53.10 52.42 52.25 52.15 51.32 50.48 50.07 48.88 48.76 48.83 48.05 46.36 47.49 48.50 50.56 54.17 52.91 51.39 50.83 50.68 50.60 50.49 49.91 49.90 49.52 49.06
60.87 59.54 58.83 57.57 56.78 56.81 55.46 55.88 56.27 55.78 54.35 51.15 51.04 51.12 51.16 51.50 51.98 52.49 51.64 51.53 51.49 50.44 50.23 49.66 49.06 46.82 46.92 48.00 46.38 45.69 46.28 49.99 50.81 50.58 49.68 49.06 48.51 48.30 48.99 48.69 48.47 47.86 48.32
60.75 60.83 59.08 57.85 55.84 56.05 56.48 56.96 56.68 55.51 52.87 50.58 49.95 50.15 50.17 50.62 50.82 50.62 51.26 51.20 51.30 50.64 50.09 49.30 47.50 45.94 46.64 47.08 43.04 42.77 40.53 43.15 46.41 47.67 46.94 46.61 46.62 46.91 46.69 46.77 46.80 46.64 46.97
56.91 56.44 56.93 55.94 55.39 54.79 54.45 53.99 52.59 52.33 52.29 50.93 49.69 49.45 49.70 50.37 50.68 51.13 51.48 51.39 51.00 50.49 49.58 48.68 47.31 45.43 43.54 45.44 45.16 41.75 37.94 36.88 39.90 43.93 43.72 44.76 44.54 43.79 44.62 44.62 44.96 44.45 45.61
51.67 52.53 53.21 52.41 52.06 51.06 51.48 51.69 51.08 49.90 49.19 48.98 48.68 49.47 50.16 50.47 50.65 50.32 50.41 50.26 50.24 50.16 48.27 47.21 46.39 45.15 43.91 40.61 42.26 42.99 42.03 40.63 35.27 34.07 40.12 40.77 41.67 40.59 41.45 42.84 41.97 43.21 44.59
50.84 51.00 50.71 50.34 49.30 49.38 50.05 49.89 49.22 48.55 48.77 49.24 49.26 48.92 49.12 49.52 49.37 48.85 48.98 48.71 48.97 47.94 47.25 46.24 44.97 43.24 42.08 39.92 39.09 38.56 38.17 37.70 37.76 34.55 30.98 34.55 37.72 38.98 40.13 39.20 41.00 41.65 42.38
49.56 49.87 49.36 48.28 47.35 48.00 48.13 47.93 48.12 47.36 46.92 47.07 47.32 47.26 47.94 48.34 48.83 49.00 48.18 47.66 47.69 46.89 45.95 44.58 43.18 41.52 40.56 39.93 39.49 38.31 36.04 34.27 33.57 33.78 32.31 33.08 32.97 35.52 37.52 38.56 38.84 39.47 39.92

GFSSE_sfc_wetblb_006.txt.gz
Wetbulb
70.97 71.71 71.43 72.00 72.02 72.11 71.47 71.21 71.17 71.36 71.65 71.71 71.52 70.83 70.39 70.14 70.14 69.63 69.29 69.80 69.35 68.05 68.01 68.08 67.99 67.80 67.59 67.56 67.30 67.05 67.12 66.91 67.39 67.66 67.58 67.92 68.34 69.05 68.90 67.94 69.16 68.25 69.21
71.99 71.82 70.67 71.33 71.61 71.79 71.60 71.34 71.47 71.64 71.82 71.07 70.93 70.39 69.92 69.85 69.31 68.70 68.82 69.09 68.75 67.48 67.16 66.51 65.88 65.38 65.17 64.98 64.56 64.69 64.86 65.22 65.27 65.92 66.59 67.68 68.58 68.53 68.84 67.78 69.24 68.51 68.55
71.31 71.62 71.17 70.82 71.28 71.55 71.64 71.75 71.80 71.79 71.15 70.83 70.48 69.90 69.46 68.85 68.51 68.44 68.27 68.43 67.39 66.68 66.01 65.01 64.45 64.31 63.98 64.21 64.46 64.68 64.70 64.53 64.14 63.98 65.59 67.69 68.32 68.90 68.77 68.44 68.87 68.29 67.85
71.54 72.18 71.56 70.32 70.80 71.39 71.43 71.42 71.56 71.46 70.95 70.75 69.90 69.36 68.78 68.14 68.00 67.83 67.25 67.34 66.19 65.24 64.53 64.05 63.71 63.41 63.75 64.46 64.55 64.69 64.54 64.67 63.82 64.70 64.62 67.05 67.99 68.16 67.93 67.51 68.01 67.55 66.90
71.41 71.62 71.38 70.20 70.42 70.60 70.95 70.73 70.91 71.34 71.33 70.45 69.69 68.92 68.29 67.39 67.22 66.64 66.13 65.62 64.45 64.32 64.40 64.47 64.30 63.80 64.32 64.86 64.95 64.16 64.24 64.44 64.65 65.20 64.31 66.14 67.58 68.34 67.72 67.21 68.35 67.58 67.29
70.97 71.52 69.03 69.23 69.39 69.53 70.50 70.40 71.32 71.32 71.03 70.48 69.83 68.58 67.71 66.73 65.91 65.41 64.88 64.08 64.46 64.89 64.88 64.77 64.56 64.44 64.75 65.17 65.08 64.13 63.83 64.00 63.68 63.49 64.46 65.30 66.75 68.04 68.07 67.59 67.08 66.71 67.68
69.74 70.90 70.22 68.18 68.72 69.67 70.22 70.75 71.10 70.61 70.47 69.90 68.85 68.17 67.24 66.02 64.76 64.38 64.19 64.04 64.38 64.83 64.69 64.63 64.68 64.81 64.91 65.32 65.24 64.95 64.24 63.70 61.40 60.55 60.90 63.09 65.19 67.07 67.71 66.97 66.22 66.52 66.54
69.75 70.27 69.99 69.37 69.39 68.81 69.17 70.10 69.85 69.51 69.64 69.04 68.42 67.49 66.77 65.62 64.82 64.65 64.51 64.56 64.29 64.36 64.53 64.58 64.62 64.80 65.19 65.21 64.98 64.65 64.82 63.06 62.54 61.51 60.92 61.39 64.84 65.84 66.72 66.83 66.55 66.26 65.83
71.01 70.58 70.52 70.37 70.24 68.72 68.63 68.63 68.36 68.66 68.71 68.20 67.76 67.05 65.96 65.34 65.08 64.93 65.04 65.21 65.26 64.83 64.90 65.09 65.09 65.35 65.57 65.45 64.98 64.51 64.18 63.07 63.42 62.26 60.95 61.33 63.62 64.39 64.77 65.95 66.16 65.80 65.25
70.20 70.28 70.48 70.83 71.31 71.30 71.19 68.14 68.34 68.25 68.00 67.74 66.91 66.17 65.73 65.81 64.98 65.18 64.31 65.31 65.52 65.45 65.48 65.78 66.24 66.24 65.73 65.72 64.81 63.96 63.54 63.90 63.05 62.57 62.46 62.78 62.89 63.95 64.45 64.53 65.78 64.88 64.57
68.77 69.19 69.74 69.98 70.28 70.18 70.53 69.59 68.20 67.75 67.11 66.73 66.66 65.92 65.82 67.93 67.31 65.75 64.71 64.82 65.68 65.80 66.09 66.13 65.71 65.30 64.97 65.21 64.60 63.27 62.76 62.09 62.49 62.17 62.33 61.96 62.29 63.58 63.78 64.30 64.97 64.97 64.39
67.35 67.49 68.79 69.32 68.89 69.76 68.58 68.84 67.82 66.82 67.45 67.36 67.50 68.02 68.85 68.24 68.26 66.70 65.77 65.21 65.33 64.85 65.31 63.64 63.02 63.27 64.62 64.01 63.56 63.42 61.61 62.04 61.48 61.62 61.56 60.15 61.57 63.25 63.89 63.66 65.65 66.16 66.02
65.70 66.45 67.22 67.53 68.12 68.45 67.53 66.86 65.83 65.90 66.77 67.52 67.77 68.41 68.43 68.48 68.54 67.64 66.65 67.04 67.25 63.44 65.05 63.60 63.56 62.74 63.34 62.69 61.67 61.86 60.76 59.92 59.05 59.19 60.46 58.95 60.48 62.16 62.96 63.44 63.82 64.25 65.44
65.90 66.69 66.85 67.24 67.59 67.49 65.85 65.27 65.71 65.92 67.19 67.59 67.98 68.76 68.44 67.32 67.08 65.29 65.15 65.50 65.63 64.94 62.55 62.40 62.24 62.11 61.53 60.38 60.41 59.59 58.88 58.25 57.82 58.03 59.71 58.38 60.31 61.33 62.33 62.66 63.03 63.09 63.11
64.40 65.78 65.99 66.17 65.61 65.36 65.73 66.18 66.82 67.46 67.89 68.91 69.88 68.56 67.35 63.87 63.50 64.29 64.34 63.60 63.04 63.12 62.05 61.11 60.41 59.38 58.54 57.91 58.43 57.94 57.00 57.06 56.90 57.57 58.68 56.27 57.10 58.27 59.33 60.01 60.08 60.12 60.44
64.58 64.87 65.02 64.43 65.62 66.74 66.97 67.24 65.24 65.00 65.13 65.61 68.08 66.54 63.79 63.29 61.46 61.95 61.42 60.73 61.36 61.41 61.03 59.30 57.91 56.82 56.58 56.66 55.98 56.35 56.05 55.89 55.58 57.00 56.87 57.72 54.40 54.90 55.57 56.24 56.52 56.80 57.14
64.84 64.99 64.42 65.37 66.59 65.56 65.05 64.94 64.14 63.79 62.65 64.73 66.41 65.17 63.38 62.30 60.67 59.54 59.38 60.20 60.11 59.73 58.41 57.61 56.87 56.52 55.69 55.36 55.17 55.17 55.24 55.22 54.75 56.52 56.61 56.28 55.89 52.97 52.48 52.62 53.10 53.35 53.92
65.00 64.42 64.23 64.63 65.05 64.15 63.17 59.40 58.68 60.09 62.14 63.23 61.41 61.06 60.37 56.82 58.57 58.96 58.40 56.76 55.66 55.81 55.61 55.66 55.27 54.58 54.32 54.17 53.70 53.45 54.27 53.88 53.92 56.44 56.00 55.94 55.62 55.20 53.43 51.28 50.64 50.53 51.35
65.13 64.80 64.39 64.66 62.34 60.00 60.36 58.84 59.74 58.75 58.39 57.98 57.28 56.73 55.18 54.97 55.69 57.12 56.67 56.55 56.99 56.28 55.56 54.47 53.95 52.99 52.00 52.29 51.79 51.88 52.77 53.10 53.59 53.81 54.72 54.96 54.97 54.61 54.36 52.96 51.45 49.67 49.60
65.58 65.35 64.39 63.84 63.79 64.19 64.46 61.36 59.88 58.72 57.98 57.66 56.81 56.33 55.95 56.60 56.38 58.04 57.10 56.18 55.49 54.54 53.89 53.29 52.62 52.96 52.05 51.76 50.57 50.84 52.39 51.85 52.31 53.28 53.35 53.43 53.12 52.56 52.58 52.25 52.21 52.15 51.02
65.26 64.52 64.24 63.19 63.55 64.31 62.45 61.12 59.78 59.50 58.29 56.77 56.42 55.64 55.30 55.24 54.93 55.12 55.37 55.15 54.70 53.77 53.57 53.52 52.56 51.50 50.72 51.50 48.50 48.36 48.49 49.41 50.89 51.24 52.07 50.65 50.69 50.77 50.57 50.33 49.87 49.23 49.06
63.49 63.72 63.55 63.14 63.40 62.19 61.36 60.78 61.16 61.41 58.03 55.92 56.03 55.27 54.79 54.20 54.07 54.10 54.62 54.25 54.05 53.20 53.28 52.86 51.29 49.23 48.98 49.97 46.28 45.20 42.46 44.61 47.13 49.15 48.98 48.47 48.59 48.79 47.63 47.67 47.50 47.38 47.11
63.48 63.82 63.18 62.37 60.41 59.53 58.72 59.14 57.83 57.70 56.90 57.34 55.92 55.52 54.53 54.60 54.14 53.86 53.91 53.77 53.48 52.88 51.54 51.52 50.40 48.69 46.49 47.65 47.10 44.07 40.28 38.78 41.66 44.99 46.41 45.65 46.69 45.30 45.40 44.99 45.42 44.73 45.19
63.48 63.09 61.23 59.07 57.76 56.27 56.15 56.47 55.63 54.50 53.71 53.29 53.74 54.45 54.14 54.37 53.90 53.40 53.09 53.20 52.82 51.96 51.08 50.59 49.52 48.16 46.32 43.62 45.03 45.00 44.37 42.58 38.24 36.83 42.52 43.61 43.31 42.79 43.24 43.01 44.20 43.07 43.47
58.16 57.79 57.39 56.01 54.98 55.44 55.30 55.58 54.51 53.18 53.16 53.41 53.07 52.09 52.64 53.01 53.03 52.40 52.21 52.20 51.67 50.98 50.78 50.14 48.62 46.53 45.82 44.09 43.15 42.32 42.07 41.29 40.68 37.29 34.61 37.76 40.78 41.67 41.68 41.82 41.91 42.91 42.75
56.10 55.84 55.62 54.54 53.63 53.85 53.61 53.45 52.80 51.67 50.15 48.69 47.61 47.01 46.77 46.73 47.29 48.09 48.44 50.67 51.50 51.06 50.36 49.28 48.06 45.57 44.47 43.40 42.23 41.06 39.57 37.87 37.13 36.58 35.27 36.14 36.27 38.90 40.60 41.12 41.32 41.36 41.79

GFSSE_sfc_wetblb_009.txt.gz
Wetbulb
69.89 71.19 71.84 72.08 72.17 71.85 71.43 71.19 71.11 71.32 71.73 71.69 71.37 70.61 70.32 70.02 69.29 69.53 69.71 69.58 69.22 68.10 67.45 66.58 65.84 65.61 65.21 64.70 64.71 64.92 65.21 65.37 65.83 66.50 66.86 67.33 68.43 69.26 68.39 68.96 69.73 67.23 68.89
71.03 71.38 70.88 71.78 71.87 71.51 71.15 71.32 71.45 71.76 71.80 70.86 70.51 70.22 69.61 68.90 68.72 68.68 68.92 69.09 68.25 66.77 66.17 65.42 65.18 64.42 64.53 64.73 64.83 64.91 64.79 64.41 64.20 64.94 66.86 67.65 69.15 69.41 68.57 68.81 69.56 67.81 68.14
71.19 71.35 70.74 70.96 71.55 71.45 71.30 71.66 71.86 71.97 70.95 70.61 69.98 69.44 68.68 68.12 68.34 68.12 68.19 68.51 66.92 65.77 64.91 64.57 64.07 64.69 65.06 65.01 64.87 64.77 64.85 64.75 65.01 65.42 66.25 67.67 68.29 68.97 67.82 67.73 68.62 67.68 67.15
71.05 70.59 69.59 70.69 71.13 71.31 71.23 71.24 71.12 71.22 71.03 70.22 69.39 68.78 68.07 67.82 67.44 67.25 67.05 67.39 65.82 65.02 64.76 64.41 64.47 64.95 64.83 64.51 64.18 64.23 64.27 64.79 65.62 66.64 64.97 64.28 67.97 67.93 67.53 67.58 67.37 67.24 67.21
71.45 70.53 69.81 70.35 70.16 70.59 70.31 70.49 70.32 70.91 71.06 70.37 69.51 68.24 67.53 66.92 66.53 66.22 65.97 66.01 65.47 65.62 65.57 65.19 65.04 65.13 65.30 65.44 65.25 64.22 64.15 65.16 65.44 64.89 64.23 64.51 66.54 68.24 68.06 67.56 68.33 67.42 67.93
71.38 70.85 69.13 69.26 69.37 70.06 69.98 70.12 70.05 70.73 70.48 70.05 69.39 67.76 67.07 65.84 65.15 64.81 64.89 65.45 65.72 65.44 65.32 65.27 65.26 65.04 65.42 65.89 65.65 65.37 65.12 65.22 63.94 60.58 61.84 65.27 65.52 67.84 68.03 66.80 66.81 66.76 67.35
68.62 68.88 69.36 67.54 68.43 69.72 69.88 69.97 70.08 70.55 70.02 69.57 68.31 67.41 66.21 64.74 64.11 64.18 64.84 65.15 65.17 65.14 64.92 64.81 64.80 65.15 65.49 65.49 65.22 65.14 65.19 65.30 63.79 61.84 61.01 62.88 64.47 66.67 67.81 66.46 65.66 65.72 65.70
68.28 68.87 68.78 68.44 69.07 68.97 69.20 69.56 69.46 69.68 69.40 68.83 67.81 66.85 65.49 64.94 64.92 64.77 64.99 65.06 64.80 64.77 64.94 65.01 65.25 65.48 65.70 65.72 65.39 65.19 64.85 64.91 63.86 62.41 61.68 62.06 65.42 65.67 65.99 66.88 65.94 65.78 65.08
64.79 68.67 68.87 69.54 69.60 68.22 67.35 68.19 68.26 68.57 68.58 68.00 67.18 66.43 65.33 65.31 65.36 65.28 65.59 65.82 65.70 65.54 65.49 65.87 66.00 65.98 65.93 65.65 65.27 64.56 64.06 64.83 63.88 62.31 61.99 62.00 63.99 64.77 64.71 64.97 65.82 65.70 64.78
68.19 69.34 69.75 69.99 69.97 70.13 69.36 67.62 67.66 67.77 67.63 67.38 66.38 65.55 65.44 65.57 65.37 65.08 64.80 65.88 66.02 65.82 65.95 66.44 66.29 65.77 65.56 65.63 65.06 63.75 63.44 63.70 61.63 61.63 63.13 62.52 63.72 64.17 64.22 64.30 64.22 64.63 64.60
68.59 69.13 69.42 69.25 69.44 69.50 69.08 68.41 67.57 67.68 67.33 66.62 66.33 65.71 65.51 66.90 66.62 65.92 64.97 65.32 65.72 65.74 65.70 65.85 64.39 63.72 64.24 65.06 65.49 63.34 63.02 60.81 60.81 60.30 61.10 62.08 62.87 64.04 64.36 64.25 64.48 64.93 64.61
66.35 67.34 68.55 68.88 68.68 69.08 67.12 67.59 66.73 65.56 65.89 66.21 67.00 66.95 66.86 67.16 66.71 64.34 64.77 65.49 65.88 65.29 65.18 65.04 63.51 63.99 63.63 62.54 62.64 64.94 60.51 60.15 59.26 58.88 59.47 61.50 61.76 62.62 63.30 63.93 64.32 64.39 65.11
67.26 67.32 67.88 68.60 68.66 67.94 66.56 65.45 64.66 64.15 65.28 66.99 68.07 67.58 67.84 67.40 67.31 66.44 65.69 65.91 66.49 64.42 64.47 63.72 63.58 62.88 62.77 61.91 60.92 60.86 59.99 59.45 58.09 57.96 59.84 61.13 61.17 61.59 62.56 63.13 63.35 63.62 63.64
66.38 67.05 67.20 66.95 67.13 66.68 65.14 64.59 64.81 66.11 66.62 66.55 67.48 67.68 67.61 66.65 66.42 65.61 65.10 65.22 65.38 64.37 63.62 63.10 62.52 62.57 61.45 60.14 59.36 59.24 58.66 57.79 57.23 57.22 59.54 60.03 59.74 59.38 60.24 61.08 61.13 61.36 61.30
64.82 65.34 65.84 66.34 66.10 65.98 66.00 66.46 66.99 67.13 66.83 68.01 68.09 67.96 67.00 66.01 64.39 63.70 62.75 62.31 63.75 63.02 62.64 62.32 61.66 59.64 58.58 58.47 57.77 57.32 56.76 57.03 57.09 56.34 57.62 58.09 58.14 57.76 58.18 58.65 58.95 58.97 58.78
64.86 65.32 65.36 64.53 65.82 66.94 67.40 67.10 65.77 65.76 66.19 66.04 67.55 67.92 66.49 65.61 64.15 63.21 62.97 62.39 61.87 61.92 61.45 59.93 58.45 57.30 56.62 57.19 56.69 57.46 55.91 56.14 56.38 56.48 56.36 57.82 56.98 56.68 55.87 55.39 55.87 56.55 56.85
64.43 64.52 64.50 66.38 67.38 66.73 65.99 65.07 64.68 63.92 63.15 64.74 65.60 66.83 66.97 65.96 64.55 62.87 59.91 60.13 60.45 59.43 58.31 57.69 57.37 56.72 56.12 55.88 55.67 55.44 55.16 55.32 55.43 55.17 55.95 56.68 56.29 54.85 54.45 53.77 53.28 53.15 53.86
64.72 64.13 65.33 66.22 66.04 65.36 64.13 60.84 61.95 62.99 63.25 62.36 61.56 62.02 60.15 58.52 58.87 59.22 58.92 58.44 57.53 57.88 57.30 56.67 56.05 55.08 54.88 54.22 54.20 54.11 53.87 53.92 54.38 55.29 54.75 55.61 55.92 55.28 54.41 52.02 51.00 50.42 50.72
65.50 64.73 64.52 65.76 64.82 64.37 63.08 64.26 63.58 62.94 60.89 59.78 58.87 58.95 58.79 58.27 58.30 59.48 59.02 58.64 58.11 57.09 56.65 55.73 54.95 54.65 53.61 53.42 53.18 53.25 53.72 53.65 53.94 52.64 52.34 54.74 55.69 54.76 53.58 54.93 53.90 53.56 49.37
65.79 65.54 65.37 64.98 64.48 64.48 65.46 63.56 61.70 60.71 60.24 59.85 58.68 58.28 58.39 58.28 57.99 58.26 58.26 57.38 56.56 55.80 55.56 55.56 54.73 54.61 53.67 52.97 51.42 51.03 52.47 51.10 51.68 51.69 51.87 52.80 53.00 52.43 52.30 51.66 51.13 50.98 52.07
65.82 65.58 65.25 64.50 64.54 64.99 63.22 61.71 60.38 59.78 59.42 58.55 58.01 57.63 57.43 57.14 56.47 56.57 56.52 56.58 56.56 55.08 54.86 54.90 53.91 52.85 51.62 51.86 49.12 48.62 48.30 50.37 51.29 49.78 50.55 51.07 50.56 50.08 50.32 49.96 49.18 48.15 48.10
65.21 65.46 64.92 64.56 64.46 63.24 62.24 61.28 61.66 61.14 58.97 57.64 57.67 57.19 56.88 56.65 56.57 55.97 55.93 55.14 55.20 54.03 53.81 53.59 52.86 50.86 49.55 49.58 46.25 45.82 41.80 43.58 46.36 48.04 47.87 47.92 49.63 48.13 47.83 47.35 46.75 46.14 46.50
64.43 64.50 64.32 64.06 62.91 61.66 61.44 60.52 59.13 58.85 58.11 57.50 56.72 56.51 56.08 56.02 55.62 55.22 54.87 54.25 53.83 53.15 51.14 52.23 51.22 49.90 46.56 47.52 48.02 44.19 39.61 38.12 41.24 44.39 45.05 45.96 47.75 46.28 46.08 45.38 44.99 44.50 44.87
64.06 64.74 63.54 62.25 60.61 59.36 58.53 58.40 57.68 56.28 55.02 55.02 55.22 55.34 54.77 54.85 53.95 52.86 52.10 52.13 52.31 51.88 51.00 50.49 50.61 49.33 47.63 44.61 45.81 45.87 45.39 43.27 38.10 37.29 41.75 42.70 43.84 43.65 45.52 44.29 43.43 43.41 43.32
63.72 62.96 61.60 59.97 57.74 57.77 57.87 57.98 56.51 55.19 54.74 54.54 52.50 50.54 50.30 49.75 49.06 48.19 48.37 49.22 50.23 50.34 50.97 50.60 50.14 48.88 47.15 45.41 44.27 43.12 42.40 41.66 41.11 37.76 34.95 37.64 40.66 41.76 42.51 43.31 42.67 42.60 42.89
60.94 59.99 58.82 57.00 56.22 56.75 56.74 56.16 55.05 52.30 50.06 48.87 47.81 46.89 46.71 47.10 47.29 47.96 48.04 48.48 48.79 49.10 50.15 50.23 49.44 47.57 46.04 44.88 43.78 42.41 40.14 38.51 37.42 36.88 35.50 36.19 37.14 39.19 40.77 41.81 42.75 42.59 43.26

GFSSE_sfc_wetblb_012.txt.gz
Wetbulb
67.75 70.19 71.61 72.04 71.87 71.63 71.29 71.05 71.28 71.46 71.77 71.93 71.59 71.07 70.51 69.80 70.14 69.97 69.71 69.24 68.66 67.26 66.24 65.73 65.17 65.25 65.32 65.50 65.45 65.39 65.06 64.81 65.01 65.70 67.08 67.88 68.89 69.00 68.95 70.09 69.12 66.39 69.61
68.78 69.79 70.97 71.48 71.49 71.38 71.29 71.32 71.64 71.68 71.70 71.53 70.92 70.29 69.95 69.78 69.73 69.58 69.17 68.60 67.95 66.18 65.49 65.01 65.80 65.68 65.44 65.10 65.08 65.25 65.27 65.94 66.62 66.94 66.54 67.53 69.06 69.17 68.60 69.48 69.38 67.53 69.39
68.44 69.58 69.97 71.06 71.22 71.39 71.44 71.75 71.80 71.87 71.44 70.83 70.04 69.58 69.09 68.56 68.27 68.75 68.41 67.43 67.27 65.86 65.06 65.41 65.38 65.08 64.62 64.39 64.60 64.56 65.16 66.37 66.69 67.09 67.41 65.87 66.74 68.53 67.90 69.44 69.07 68.89 68.99
68.75 68.44 69.41 70.88 70.82 70.95 71.15 71.36 71.12 71.46 70.83 70.16 69.53 68.66 68.58 67.63 67.23 67.27 67.25 67.08 67.46 66.24 65.89 65.67 65.82 65.75 65.73 65.67 65.71 65.73 66.09 66.32 66.30 66.33 61.96 65.43 66.47 68.62 68.09 68.69 68.65 67.67 68.63
68.52 68.79 70.07 70.36 69.73 70.12 70.65 70.43 70.49 70.55 70.31 69.59 68.90 67.90 66.91 66.47 65.98 65.75 67.22 67.25 66.79 66.15 65.94 66.14 65.96 65.92 66.04 66.67 66.48 66.40 66.37 66.03 65.51 64.08 61.97 63.00 63.76 67.88 67.69 67.49 67.41 67.39 67.99
69.43 68.84 68.96 68.80 68.79 69.78 69.71 70.46 70.57 70.14 69.45 68.87 68.54 67.81 65.88 65.21 64.83 65.84 66.98 67.10 66.17 66.04 65.99 65.73 65.73 65.89 66.57 66.28 66.01 65.94 65.74 65.35 65.19 58.14 59.90 63.53 63.76 68.10 67.64 66.61 67.34 67.41 67.20
67.51 67.73 67.99 67.13 68.56 69.21 69.42 70.36 70.08 69.69 69.05 68.57 68.15 67.05 66.21 64.81 64.82 65.80 66.70 66.45 65.66 65.53 65.51 65.49 65.73 66.43 66.70 66.32 66.06 65.59 64.98 64.59 61.76 58.15 58.83 60.89 63.18 67.09 67.23 66.96 67.10 67.01 66.18
67.04 67.69 67.16 67.59 68.19 68.35 68.98 69.32 68.91 68.74 68.50 68.16 67.45 66.30 65.87 66.25 66.41 66.51 66.79 66.67 66.50 66.52 66.54 66.71 66.78 66.67 66.52 66.20 65.69 65.00 63.93 64.14 61.47 60.17 59.56 60.89 65.82 65.84 65.01 66.17 67.29 67.01 66.23
67.83 67.24 66.51 66.99 68.66 68.25 67.71 67.69 67.73 67.90 67.69 67.52 66.81 66.19 66.32 66.26 66.33 66.74 66.99 67.03 66.78 66.75 66.92 67.11 66.78 66.47 66.40 66.22 65.40 64.57 63.88 63.79 60.22 59.21 60.99 60.62 65.96 65.29 64.92 64.97 66.25 66.36 66.16
65.35 67.04 66.53 67.11 67.51 68.03 67.21 66.88 66.92 66.92 66.67 66.49 65.95 65.49 65.39 65.77 66.01 66.03 66.55 66.66 66.58 66.20 66.16 66.26 65.33 64.65 65.30 65.21 64.89 64.62 63.52 62.82 56.37 57.37 58.42 60.86 65.18 64.75 65.16 64.75 65.52 66.38 66.19
63.30 66.11 66.81 66.59 67.49 67.85 67.25 66.79 66.93 67.14 66.17 66.07 65.26 65.15 64.02 64.22 64.58 65.01 65.56 65.78 65.86 65.19 65.36 65.41 64.03 63.88 64.02 64.04 65.07 65.19 64.57 56.63 56.38 55.69 55.83 62.76 63.81 63.26 63.87 64.53 64.96 65.86 66.02
62.53 65.05 66.21 66.86 66.57 66.90 66.18 66.15 64.91 64.68 63.58 64.18 64.41 64.27 64.87 65.48 62.84 63.30 65.18 65.48 65.98 64.95 64.57 64.98 64.34 64.44 63.78 59.09 58.97 62.68 56.82 56.90 55.54 54.69 56.59 62.16 63.06 62.07 62.85 63.58 63.91 64.06 64.17
64.46 65.66 66.59 66.76 67.18 66.38 65.00 64.60 63.19 64.19 64.29 66.05 65.91 66.28 65.70 66.08 65.34 64.63 64.22 64.65 63.75 64.24 62.75 62.54 61.75 60.97 59.55 58.11 56.95 56.56 56.44 54.69 53.64 53.72 58.31 60.99 61.62 60.28 60.79 61.34 61.52 61.79 61.60
64.71 65.27 66.11 66.23 65.00 64.07 63.07 62.72 63.29 64.18 65.31 65.20 66.04 65.57 65.55 65.36 64.47 63.89 62.65 61.75 60.95 61.58 61.17 60.60 59.41 59.83 57.42 57.20 55.72 55.56 55.05 53.57 53.17 53.07 56.98 59.41 60.37 58.55 58.40 58.81 59.33 59.35 59.45
63.68 63.77 64.08 65.14 64.83 65.00 64.40 65.65 66.00 65.73 65.98 66.34 66.25 66.19 65.58 63.86 62.33 61.60 60.94 60.69 61.14 61.11 60.00 57.65 55.99 55.39 54.35 54.22 54.19 54.39 53.45 53.13 53.22 53.07 52.35 57.92 58.84 58.22 57.32 58.26 58.42 58.32 58.09
63.09 63.57 64.32 63.61 65.10 65.90 65.94 64.84 64.37 64.44 64.39 64.37 65.66 66.12 65.11 63.80 62.31 60.96 60.39 57.83 58.26 56.68 56.36 55.99 55.08 53.74 53.67 53.59 53.30 54.38 53.63 53.01 53.01 53.59 51.96 53.71 57.27 58.01 56.73 56.71 56.37 55.76 55.72
63.42 63.55 62.85 63.72 66.67 65.55 64.99 64.31 63.23 60.94 62.13 63.32 64.18 64.78 64.81 60.18 59.53 57.78 56.70 57.73 56.16 56.13 55.60 54.59 53.53 52.61 51.90 52.60 51.66 52.11 51.98 51.24 51.22 51.94 52.07 51.32 53.80 56.42 56.03 54.54 53.61 53.23 53.16
62.92 62.54 63.79 65.55 65.35 64.18 61.66 61.12 61.75 62.96 62.05 59.88 60.09 58.73 58.05 57.47 57.42 57.15 56.80 55.86 55.52 54.62 53.61 52.88 52.51 51.36 50.77 50.59 50.04 49.92 50.25 50.04 49.59 50.48 51.18 49.78 50.18 52.85 53.84 53.97 52.74 52.34 51.33
62.71 63.23 64.46 64.93 63.60 61.68 62.67 62.34 62.80 61.67 58.57 57.70 57.79 57.31 57.30 56.85 57.44 56.77 56.14 56.11 54.85 54.36 53.52 53.16 52.14 51.18 50.04 49.53 50.35 48.22 47.90 47.25 48.03 49.04 47.87 48.59 49.62 51.20 50.98 54.59 54.88 53.83 51.79
63.57 63.58 64.40 64.42 63.79 62.75 63.71 61.48 60.84 59.31 58.77 58.12 56.97 56.78 56.91 56.13 56.61 55.25 55.75 54.09 53.59 53.05 52.27 52.24 51.10 51.10 49.96 48.53 48.53 47.16 46.32 46.21 46.13 46.54 46.19 47.84 46.89 47.77 47.71 48.16 46.64 46.24 50.61
63.94 63.52 63.74 63.32 63.11 63.37 62.12 58.96 58.32 57.22 57.21 56.31 55.74 56.46 55.42 55.48 55.19 54.46 53.78 53.63 53.32 51.75 51.35 51.01 49.90 48.57 47.62 47.06 43.47 43.22 43.62 44.15 43.22 43.59 43.34 43.15 44.09 45.34 47.04 46.26 43.56 42.40 43.22
63.53 63.47 63.59 63.19 63.43 63.45 61.55 60.51 60.30 57.82 56.40 55.77 55.90 55.29 55.33 54.93 54.20 53.22 53.04 51.74 51.93 50.32 50.10 49.46 47.53 46.18 45.78 45.81 41.05 40.62 37.04 39.07 41.28 42.73 42.05 42.36 40.58 42.90 43.56 43.44 43.06 42.36 41.35
62.65 62.80 63.58 62.09 63.33 61.37 60.09 59.11 57.58 56.73 55.92 55.24 54.75 54.19 54.54 54.47 53.07 51.94 51.21 50.53 49.92 49.15 47.78 47.44 46.25 45.93 43.00 43.29 43.49 39.40 35.80 33.27 36.77 39.71 39.25 39.93 40.02 40.10 40.64 41.58 41.69 41.87 40.36
61.77 63.23 62.92 62.87 59.72 59.90 59.43 57.25 56.17 54.13 52.05 53.00 52.74 51.57 50.46 50.15 48.43 47.12 47.17 47.24 46.47 47.65 47.35 47.16 46.93 45.54 44.15 40.49 41.33 43.61 39.85 37.52 33.22 32.13 35.96 36.92 37.91 38.78 38.27 38.97 38.83 39.90 39.78
61.73 62.87 62.12 59.41 57.83 57.77 57.61 56.97 54.95 53.10 52.74 51.02 48.67 47.61 47.40 46.94 47.41 46.97 46.40 46.31 45.68 45.61 45.68 46.88 46.95 45.25 43.86 41.28 39.43 38.32 37.09 36.63 35.85 32.21 30.16 31.96 35.57 36.94 38.11 38.02 37.61 37.74 39.19
62.18 61.19 58.83 56.61 55.85 56.67 55.75 54.60 52.25 49.69 47.85 46.58 45.57 44.99 44.89 45.30 45.26 45.99 46.60 45.82 46.26 46.13 45.92 46.72 45.17 43.32 42.64 41.06 40.71 40.14 36.99 34.48 32.86 31.87 30.55 31.09 31.66 34.26 35.89 37.27 36.44 37.02 37.87

GFSSE_sfc_wetblb_015.txt.gz
Wetbulb
68.18 70.78 71.61 72.22 71.96 71.40 71.25 71.20 71.33 71.54 71.65 71.37 70.81 70.62 70.26 69.97 69.89 69.19 68.72 68.07 67.52 67.08 66.45 66.63 66.04 65.67 65.41 65.13 65.21 65.60 65.88 66.37 66.85 66.71 68.11 69.10 68.93 69.11 68.79 69.67 68.94 67.33 69.38
69.49 70.52 70.96 71.35 71.36 71.30 71.46 71.42 71.38 71.44 71.28 70.81 70.54 70.30 69.86 69.35 69.23 68.62 68.15 67.60 67.27 66.35 66.29 65.65 65.31 65.02 65.08 64.91 65.36 65.65 65.91 67.08 66.98 67.10 67.46 68.72 68.80 68.42 68.82 69.45 69.58 68.31 69.60
68.67 70.14 70.32 70.57 71.00 71.25 71.74 71.78 71.49 71.41 70.64 69.87 69.45 69.45 69.09 68.11 67.46 67.94 67.70 67.52 67.51 66.63 66.21 66.36 66.28 66.32 65.99 65.87 65.91 66.18 66.68 66.91 66.98 67.42 67.84 66.41 65.70 68.34 68.85 68.54 68.88 68.92 69.28
68.73 69.13 69.37 70.47 70.69 71.04 71.33 71.43 70.92 70.55 69.77 69.67 69.13 68.62 68.53 67.72 66.87 67.68 67.89 67.80 67.75 66.61 66.59 66.68 66.38 66.08 65.65 65.58 66.31 66.61 66.65 66.41 66.97 66.04 63.61 63.91 65.77 67.87 67.83 67.87 67.53 67.12 67.60
67.50 68.68 69.70 70.08 69.97 70.55 71.07 70.88 70.36 69.86 69.38 68.96 68.43 68.01 67.35 66.70 66.69 67.12 67.85 67.60 67.38 66.59 66.43 66.37 65.93 65.65 65.42 66.31 66.19 66.32 66.17 65.84 65.34 62.27 60.42 62.27 64.03 66.82 67.20 66.68 66.28 66.06 66.89
68.17 68.79 68.28 68.65 68.84 70.09 70.25 70.34 69.81 69.28 68.42 68.11 67.48 67.19 66.31 66.13 66.51 66.76 67.36 67.29 66.30 66.18 65.96 66.03 65.67 65.72 66.37 65.94 66.03 66.04 65.36 65.19 62.36 56.38 60.02 64.12 63.70 67.74 67.16 66.78 67.19 66.63 66.23
66.85 66.93 67.02 67.44 68.27 69.14 69.55 69.81 69.29 68.69 68.22 67.56 67.01 66.71 66.52 66.40 66.06 66.67 67.11 66.94 66.11 65.91 65.79 65.68 65.81 66.39 66.16 65.90 66.23 65.75 64.62 64.17 57.88 56.55 58.76 61.05 62.85 66.49 65.76 66.46 66.49 66.39 66.00
65.84 66.69 67.27 68.44 68.41 68.08 68.19 68.86 68.21 67.88 67.64 66.94 66.91 66.83 66.68 66.87 67.01 67.15 67.17 67.11 66.80 66.79 66.82 66.75 66.34 66.17 65.89 65.92 65.51 65.14 64.25 64.06 58.74 57.19 59.27 60.93 66.00 65.90 65.32 65.20 66.87 66.56 66.37
65.86 64.80 66.25 67.27 66.06 67.47 67.02 67.16 66.98 67.29 66.85 66.17 66.32 66.52 66.38 66.37 66.70 67.25 67.28 67.20 66.77 66.28 66.08 65.92 65.43 65.08 65.43 65.19 64.79 64.45 63.95 63.68 55.80 57.54 60.48 60.73 66.51 65.54 65.30 65.09 65.87 66.75 66.59
63.88 63.61 64.83 66.01 66.60 66.35 66.32 66.22 66.15 65.82 65.52 65.32 65.40 65.27 65.08 65.59 66.23 66.40 66.18 66.48 65.90 65.29 65.13 65.65 64.38 64.02 64.39 64.22 64.07 64.21 63.82 60.11 52.89 54.64 57.40 60.32 65.36 64.32 64.69 64.88 65.19 65.36 65.69
63.32 62.61 64.20 63.81 65.37 65.15 65.42 65.88 65.92 66.13 65.19 64.88 64.90 64.70 63.67 62.68 63.12 64.70 64.62 65.28 65.03 64.25 63.93 64.84 64.03 63.67 63.53 62.66 63.75 63.76 61.86 53.68 52.88 53.54 56.43 62.85 64.39 63.32 63.88 63.84 63.93 63.62 63.65
61.19 61.96 61.82 63.98 65.12 65.51 65.48 64.07 63.19 63.95 63.01 61.93 62.10 62.48 61.97 62.06 61.72 63.17 63.91 64.81 64.79 64.36 64.05 63.90 63.73 63.77 62.25 55.82 55.37 58.27 53.76 52.46 51.87 53.48 56.35 61.98 63.18 61.49 62.16 61.90 61.76 61.22 60.72
62.74 63.65 63.26 64.62 65.34 64.19 63.49 63.06 61.29 60.85 61.48 62.52 62.25 62.09 62.57 62.92 62.62 62.09 61.08 61.15 61.29 62.81 60.57 60.86 58.17 56.79 54.70 53.51 53.20 52.93 52.31 51.08 50.71 51.21 57.44 60.01 61.28 59.43 59.84 60.02 59.78 60.00 59.46
62.46 63.83 64.17 65.15 65.08 62.25 63.81 61.98 60.24 60.73 62.44 62.70 62.89 63.05 62.90 61.60 60.17 59.12 58.84 58.54 58.25 58.51 55.72 55.50 55.64 54.83 52.80 52.87 51.83 51.85 51.15 50.17 50.62 50.14 55.69 58.70 59.87 58.05 57.93 58.45 58.83 58.73 58.37
62.98 63.54 62.89 61.59 61.17 60.28 61.31 63.18 62.88 62.44 63.14 63.84 63.80 63.53 62.47 60.39 58.66 58.78 57.79 57.00 55.63 54.38 53.73 52.72 53.32 51.67 50.89 51.52 50.97 51.71 51.19 50.22 50.30 50.52 51.04 58.01 58.19 58.23 57.41 58.28 58.15 57.56 56.78
61.38 60.84 60.48 60.51 61.27 63.03 61.38 60.88 59.63 60.28 60.46 62.01 63.23 62.76 61.59 60.58 59.23 56.36 54.61 54.77 52.91 52.56 52.36 51.39 50.28 49.35 49.46 49.58 49.82 50.37 49.99 49.14 48.25 48.30 49.06 50.38 57.34 58.40 57.30 56.53 55.33 54.90 54.77
60.78 60.63 59.59 60.44 62.04 61.27 60.50 59.96 58.22 59.31 60.37 60.47 58.08 58.11 58.24 57.28 55.06 53.43 54.12 52.49 51.74 51.21 50.42 50.46 49.68 49.73 49.05 50.00 48.99 49.54 48.70 47.75 47.53 47.19 47.95 48.04 53.02 56.51 56.68 54.63 53.48 53.02 53.53
59.54 59.00 59.72 64.34 61.27 59.89 58.25 57.85 58.87 58.93 56.68 56.15 55.25 54.79 54.49 54.64 54.45 53.12 52.19 51.40 51.11 51.35 50.91 50.06 49.52 48.76 48.41 48.02 46.88 46.47 46.01 46.23 45.78 45.63 46.45 46.01 46.34 51.60 54.52 55.11 54.13 52.58 52.11
59.40 58.98 61.49 60.75 58.53 57.65 58.20 59.36 58.11 54.76 53.93 53.82 53.67 52.87 53.03 53.75 53.78 52.69 52.17 51.07 50.54 50.36 50.22 49.92 48.70 47.97 46.94 46.53 45.87 43.52 43.71 43.65 43.25 46.17 43.52 43.63 44.25 45.10 48.06 53.59 52.99 52.16 49.48
60.10 60.65 61.63 60.11 58.61 59.16 59.47 57.29 56.13 53.80 53.26 52.85 51.81 52.12 52.38 52.21 52.39 51.36 51.51 50.80 50.40 49.39 48.52 47.68 47.00 47.28 47.00 44.72 46.50 43.81 41.89 42.13 42.09 41.13 41.01 43.22 42.53 42.50 43.36 43.64 43.31 45.18 49.24
60.13 61.61 61.15 60.24 58.85 59.71 57.04 55.41 53.47 52.25 50.91 50.89 51.31 51.55 51.73 51.71 51.77 50.03 49.51 49.02 48.96 47.47 46.73 47.05 46.06 44.01 43.48 43.24 40.33 39.46 40.07 40.40 39.86 39.21 39.99 39.59 40.18 41.53 41.92 41.53 43.24 41.87 42.33
59.47 61.05 60.29 60.45 59.70 60.42 58.92 54.35 53.98 52.72 50.71 50.88 50.94 51.14 51.37 51.11 50.41 50.50 48.16 47.45 46.83 46.18 45.64 45.05 43.55 42.09 42.69 41.38 38.56 36.94 34.13 36.22 38.20 39.29 37.78 38.71 36.61 38.65 40.04 41.54 40.87 40.02 38.02
59.17 60.11 60.36 60.02 59.88 59.27 57.27 54.71 52.35 51.18 50.38 50.02 49.51 49.34 49.12 46.86 44.76 44.08 44.27 43.16 42.60 43.58 43.83 43.47 42.99 42.59 40.04 40.51 39.65 37.20 32.59 30.44 32.46 35.73 36.27 35.93 35.47 35.78 36.32 37.58 38.55 38.89 38.25
59.70 61.42 61.56 61.22 57.73 55.86 54.34 52.73 51.15 49.08 47.94 47.65 46.49 44.30 43.21 44.05 43.75 43.58 43.85 42.74 42.06 42.21 41.27 42.61 45.27 42.23 40.43 37.56 38.55 40.08 36.21 34.66 29.68 28.40 32.79 33.93 35.06 36.06 34.83 35.21 36.75 37.27 37.41
61.55 60.84 60.84 56.98 55.24 53.32 52.56 51.44 50.38 48.48 45.75 43.42 42.62 41.66 41.64 42.48 43.11 43.43 43.21 42.11 42.43 42.70 42.09 42.52 41.46 40.74 39.94 37.77 36.95 35.90 34.40 33.57 32.15 29.45 26.76 29.17 32.25 33.89 34.68 34.50 34.75 35.19 37.01
60.50 57.78 55.97 54.08 52.18 51.60 50.59 48.58 46.17 44.21 41.94 40.91 40.17 40.22 40.34 40.98 41.62 42.56 43.25 42.18 42.46 42.43 42.60 41.89 41.13 40.66 39.48 38.55 38.80 36.83 34.71 32.08 30.95 29.61 27.81 27.98 28.52 31.17 32.70 33.79 33.69 34.21 34.66

GFSSE_sfc_wetblb_018.txt.gz
Wetbulb
69.27 71.09 71.46 71.88 71.63 71.41 71.23 71.44 71.29 70.98 70.68 70.64 70.47 70.18 69.60 68.99 68.63 68.26 67.88 67.85 68.11 67.04 65.96 65.83 65.83 65.85 66.23 66.33 66.31 66.10 66.31 66.30 66.61 68.06 69.62 69.53 68.75 69.16 68.60 68.67 68.83 67.53 69.11
69.70 70.71 70.77 71.15 71.43 71.51 71.75 71.48 71.20 70.77 70.64 70.32 70.05 69.74 69.16 68.60 68.43 68.06 67.81 68.02 67.82 66.72 66.81 66.61 66.35 66.21 66.14 66.02 66.23 66.57 66.69 66.79 67.12 68.07 69.43 68.67 68.56 69.15 68.38 68.30 69.13 67.56 68.38
69.37 70.32 70.29 70.37 70.97 71.48 71.99 71.55 71.03 70.61 69.89 69.14 68.87 68.87 68.31 67.60 67.80 68.09 67.85 67.72 68.09 67.28 66.75 66.38 66.06 65.98 65.81 65.76 66.78 67.00 67.78 68.17 67.59 68.28 68.47 64.00 64.61 68.33 68.04 67.80 68.32 67.78 68.04
68.86 69.37 69.37 70.40 70.75 71.55 71.34 70.93 70.21 69.58 68.97 68.89 68.26 67.63 67.87 67.50 67.63 68.31 67.90 67.77 68.15 66.88 66.43 66.14 65.95 65.73 65.62 66.08 66.81 66.46 66.97 66.34 66.50 66.26 62.59 63.98 64.87 67.18 67.04 66.46 65.85 65.56 66.23
67.62 68.28 69.27 70.10 70.56 71.06 70.75 70.11 69.59 69.45 69.21 68.78 68.31 67.52 67.50 67.43 67.15 67.63 67.82 67.80 67.66 66.54 66.13 66.04 65.80 65.68 66.24 66.32 66.36 65.78 65.87 64.98 64.03 62.43 61.55 63.23 63.37 65.94 66.63 66.33 65.56 64.84 64.48
67.41 68.44 68.43 69.17 70.23 70.23 70.18 69.80 69.19 68.75 68.08 67.81 67.58 67.73 67.70 67.16 67.04 67.99 67.63 67.65 66.44 66.11 65.87 65.80 65.54 65.85 66.26 66.02 66.08 65.57 65.14 63.62 61.19 58.22 59.81 63.42 63.15 66.60 65.91 66.09 65.63 65.03 65.45
66.70 67.20 67.34 67.80 68.45 68.87 69.64 69.35 68.86 68.18 67.58 67.08 67.09 67.50 67.67 67.65 67.12 67.78 67.32 67.29 66.71 66.03 65.72 65.60 65.68 66.42 65.82 66.02 66.01 65.02 64.38 62.56 57.56 58.13 59.53 61.18 62.53 65.52 65.33 65.26 65.10 64.96 64.60
65.74 66.67 67.07 67.96 67.57 67.58 67.71 68.34 67.72 67.33 66.89 66.50 66.71 67.36 67.54 67.31 67.22 67.26 67.26 67.17 66.98 66.82 66.39 65.94 65.51 65.51 65.33 65.37 65.54 64.48 62.98 61.68 57.96 57.62 59.34 60.44 65.92 65.54 65.29 65.38 65.89 66.50 65.85
64.80 65.58 64.15 64.20 65.32 65.92 65.83 66.65 66.76 66.55 66.09 66.34 66.35 66.44 66.62 66.64 66.81 66.98 67.16 67.04 66.62 66.08 65.33 64.96 64.59 64.45 64.78 64.75 64.73 63.97 60.71 61.13 55.17 57.20 60.34 60.25 66.49 65.26 65.13 65.17 65.47 65.48 65.47
63.31 63.61 61.76 62.31 63.32 65.23 65.69 66.05 66.00 65.79 65.42 65.68 66.07 65.72 65.49 65.96 66.54 66.63 66.19 66.04 65.77 64.81 64.39 64.05 64.02 63.97 64.21 64.58 64.11 62.95 59.23 58.59 52.66 54.13 56.22 59.22 64.91 63.72 63.94 64.05 63.76 63.34 63.26
62.85 63.39 61.35 62.65 64.84 64.70 64.85 65.19 65.58 65.64 65.00 65.02 65.10 64.83 63.40 62.61 63.07 63.69 64.10 64.75 64.59 63.85 63.59 63.55 63.76 63.91 61.84 62.17 62.56 59.93 57.16 51.05 52.31 53.41 55.48 62.49 63.46 62.16 62.42 62.51 61.69 61.00 60.88
58.51 60.67 62.72 62.36 64.58 64.79 64.71 63.67 62.30 63.04 61.98 61.58 61.76 61.69 60.87 60.81 61.22 62.61 63.67 63.97 63.98 63.49 63.60 62.44 63.05 60.48 57.12 53.25 53.56 56.01 50.62 50.06 50.25 53.31 54.91 61.53 62.21 59.98 60.60 60.49 60.49 60.16 59.76
57.88 59.46 60.59 62.33 63.92 63.83 62.60 61.82 61.10 60.52 60.23 60.78 60.69 60.91 61.27 61.46 60.99 60.16 58.86 58.85 58.80 59.31 55.92 55.70 53.98 53.06 52.34 50.58 50.88 50.64 49.75 49.29 48.89 49.67 54.73 59.48 60.57 58.20 58.59 59.49 59.67 59.48 58.91
60.23 59.83 60.19 62.55 64.42 63.02 61.84 60.75 59.22 59.80 61.20 61.46 61.67 62.27 61.17 59.94 58.25 56.98 57.47 57.11 54.96 53.65 52.63 52.25 51.72 51.41 50.59 50.90 50.93 50.32 49.48 48.53 47.97 48.86 52.27 57.88 58.75 56.95 57.66 58.60 59.05 58.52 57.32
61.65 62.05 61.39 63.34 64.01 61.59 60.94 59.22 60.14 61.24 62.42 62.40 62.66 62.53 60.51 58.43 57.24 55.60 53.61 52.46 52.03 52.33 51.56 50.20 49.49 49.08 49.18 49.45 49.47 49.09 48.45 47.51 46.64 47.01 47.19 55.96 57.83 57.96 57.67 58.69 57.69 56.38 55.66
62.17 62.26 62.57 62.50 60.13 60.76 61.07 60.70 60.14 61.47 61.77 62.28 61.49 60.59 59.55 58.56 55.15 54.08 52.76 51.77 51.05 50.31 50.21 49.10 48.68 48.46 48.10 48.34 48.49 48.21 47.41 46.10 45.51 44.97 45.43 45.41 55.39 58.72 58.33 56.68 55.41 54.55 54.46
62.21 61.25 58.83 59.54 60.85 60.07 59.03 57.88 58.91 61.32 59.74 58.32 58.49 58.78 58.56 57.64 54.38 53.20 51.31 50.77 50.65 49.98 49.25 49.16 48.37 48.22 47.66 48.33 47.25 47.09 46.01 45.22 44.52 43.96 43.75 46.03 47.93 55.67 56.59 54.31 53.08 52.83 52.97
60.53 58.76 59.61 62.68 59.65 58.82 57.27 57.17 58.12 56.99 56.41 54.79 54.10 54.04 53.84 53.70 53.70 51.67 50.74 49.54 49.37 49.84 49.02 48.34 47.83 47.27 46.95 46.17 44.34 42.85 43.66 43.92 43.32 42.68 42.18 42.50 42.90 47.70 51.21 53.29 53.06 52.12 51.35
59.39 57.62 60.45 59.59 57.79 56.35 57.17 57.87 55.76 54.11 52.91 52.40 52.16 51.83 52.36 52.27 52.80 51.30 49.90 48.83 49.44 48.75 48.18 47.80 46.81 46.52 45.37 44.30 44.22 41.66 42.27 40.82 41.06 42.63 41.14 41.02 41.45 42.10 43.38 50.14 49.27 48.97 47.84
58.10 59.13 60.59 58.27 56.67 57.52 58.30 54.86 52.64 51.63 51.83 51.08 50.94 50.50 50.97 50.32 51.96 50.21 49.09 48.83 48.24 47.44 46.50 45.64 44.34 44.10 44.38 42.94 44.79 41.82 39.36 39.61 39.27 38.51 38.61 40.69 39.80 40.19 40.75 40.75 40.41 43.55 48.35
57.14 60.19 59.58 57.00 57.49 58.03 55.79 53.31 50.82 49.94 49.22 49.24 49.40 50.54 50.49 50.20 49.55 48.40 47.44 47.32 46.41 45.54 44.74 45.12 43.41 42.07 41.36 40.70 38.59 38.34 38.21 37.95 37.41 37.06 37.32 37.02 37.52 38.52 38.57 38.80 38.53 37.94 38.78
58.90 60.33 58.96 57.46 57.99 57.86 56.03 53.51 51.79 50.56 48.55 48.76 49.30 49.19 49.34 48.85 48.41 47.02 45.31 43.05 43.31 43.76 43.46 42.92 42.05 40.59 41.16 39.57 37.38 35.50 33.04 35.27 36.38 36.82 35.92 36.65 33.89 36.05 37.12 37.86 37.54 37.61 36.96
59.01 59.78 59.34 58.18 57.83 58.87 55.61 52.78 50.12 49.20 48.71 47.98 47.36 47.56 44.72 43.83 43.37 43.38 42.58 41.64 41.06 41.09 40.17 40.19 41.32 40.94 38.89 38.05 37.18 36.11 31.48 29.69 31.07 34.03 33.79 33.38 33.93 34.46 34.34 34.87 36.96 36.71 36.43
59.26 60.34 60.00 59.71 58.43 58.81 55.59 52.96 51.04 49.85 48.23 47.27 45.77 42.46 41.30 42.72 42.72 42.96 42.33 41.65 41.34 41.17 40.22 40.51 42.16 39.75 38.36 36.25 36.82 38.13 35.05 34.36 29.02 26.84 31.26 32.12 33.31 34.46 33.44 33.33 34.19 35.11 35.84
59.20 58.95 59.24 58.62 57.04 56.23 53.89 53.98 50.75 47.09 46.16 43.50 41.22 40.11 40.43 40.89 42.21 42.44 41.85 41.63 40.80 42.20 41.41 40.61 39.97 39.07 38.38 36.75 35.89 34.98 33.62 31.95 30.43 28.07 25.63 28.24 30.98 32.11 32.92 32.66 32.45 33.25 34.92
58.81 59.19 58.57 55.78 54.67 54.29 51.48 49.52 49.50 44.93 42.50 40.24 38.95 38.64 39.15 39.77 40.73 40.57 41.68 41.01 40.83 41.72 41.05 40.29 39.97 39.32 38.18 37.18 36.84 35.33 33.57 31.15 30.06 28.60 26.22 26.61 26.87 29.54 31.55 31.78 31.84 32.47 33.30

GFSSE_sfc_wetblb_024.txt.gz
Wetbulb
68.12 70.29 70.94 71.26 71.31 70.91 70.38 70.14 70.00 70.06 69.96 69.81 69.17 68.66 68.27 67.87 68.64 68.25 68.17 68.34 68.77 68.57 67.42 67.63 67.55 68.03 68.31 68.17 67.64 67.64 68.76 69.19 69.32 69.80 69.12 68.34 68.31 68.61 68.13 68.00 67.87 66.72 68.35
69.21 70.13 70.25 70.91 70.97 70.83 70.50 70.01 69.79 69.76 69.58 69.35 68.83 68.40 68.25 68.71 68.44 68.56 68.73 68.50 68.63 68.50 67.37 67.29 67.94 68.62 69.41 68.78 67.74 68.34 68.59 68.74 68.25 68.01 67.58 67.47 67.31 66.82 66.15 65.42 66.77 65.47 67.33
68.94 69.71 69.44 70.23 71.01 70.76 70.66 70.32 69.99 69.61 69.25 68.52 68.40 68.42 68.54 68.69 68.81 68.83 68.27 68.28 68.47 68.55 66.97 66.76 67.81 69.01 69.03 69.02 68.96 69.19 68.23 67.64 67.56 67.32 66.26 63.09 63.73 66.48 66.03 64.98 65.13 64.51 64.77
69.25 68.81 68.81 70.60 70.67 70.44 70.14 69.95 69.46 69.05 68.71 68.52 68.18 68.15 68.74 68.40 68.44 68.74 68.13 67.92 68.38 68.40 66.79 66.31 66.25 66.92 67.04 67.99 68.21 67.63 67.46 66.91 66.40 65.49 62.83 62.70 63.07 65.41 64.96 64.32 64.12 64.05 64.19
68.74 68.23 69.05 70.26 70.26 70.25 69.81 69.27 69.07 68.70 68.34 68.20 68.01 67.88 68.25 68.20 67.97 68.27 68.03 67.90 68.68 68.27 66.60 66.49 65.48 65.78 66.08 66.29 66.31 66.50 65.64 64.96 64.17 62.20 61.60 61.99 61.55 64.16 64.83 64.80 64.45 64.59 64.40
68.31 67.89 68.51 69.26 69.66 69.74 69.56 69.33 68.84 68.39 67.48 67.61 67.93 68.25 68.54 68.13 67.41 68.37 67.74 67.76 68.01 67.53 66.22 66.06 64.82 65.33 65.99 65.27 65.31 65.17 64.06 63.40 61.77 59.43 60.20 62.40 61.88 65.16 65.56 65.31 65.13 65.13 64.96
66.11 66.63 67.79 67.94 68.68 69.25 69.64 69.32 68.60 67.73 67.48 67.85 68.26 68.27 68.44 68.49 68.12 68.13 67.70 67.78 67.31 66.84 66.90 66.08 66.20 65.14 65.48 64.92 65.01 64.44 63.58 62.36 57.90 58.53 59.75 61.38 62.97 64.92 65.22 65.42 65.18 65.09 64.65
62.15 63.48 66.13 67.55 67.60 67.86 68.53 68.11 67.66 67.55 67.82 68.27 68.20 68.39 68.46 68.06 67.69 67.70 67.67 67.26 66.77 66.32 66.28 66.60 66.21 64.96 64.64 64.95 64.34 63.28 62.29 61.24 58.58 58.57 59.51 60.56 64.68 64.53 64.66 64.53 64.32 64.46 64.42
62.42 62.65 62.84 63.34 64.02 65.94 66.57 66.63 66.47 67.13 67.57 67.74 67.79 67.56 67.41 67.10 66.89 67.29 66.91 66.78 66.36 65.93 65.59 65.83 66.53 65.08 63.97 63.93 63.64 61.89 61.15 59.77 54.74 56.66 59.23 60.04 64.42 63.32 62.83 62.57 62.88 63.14 63.10
61.07 61.53 61.16 61.15 61.61 62.44 63.91 65.32 65.54 66.00 66.39 66.91 66.81 66.39 65.83 66.22 66.47 66.03 65.78 65.84 65.44 65.15 65.31 65.03 65.34 63.99 62.87 62.54 62.00 60.55 58.94 56.69 53.01 54.69 56.29 59.31 63.75 61.93 61.74 61.51 61.23 60.88 60.83
59.42 59.55 60.22 60.30 60.82 60.88 64.07 64.63 65.23 66.24 65.91 65.62 65.35 65.20 62.99 62.34 62.16 60.64 63.71 64.25 64.24 63.68 64.34 63.69 62.63 62.13 61.27 60.59 59.19 57.22 54.57 51.01 51.73 52.59 53.58 61.67 62.37 61.23 61.19 60.65 60.34 60.20 59.85
57.97 58.55 59.11 59.12 58.88 59.19 64.66 63.07 61.07 62.37 61.96 61.77 61.88 61.01 61.01 60.80 60.07 61.33 62.92 63.90 63.52 63.17 61.84 60.89 59.37 57.89 53.68 49.61 49.83 51.82 48.00 48.18 48.52 51.29 53.05 60.81 60.29 59.69 60.77 60.30 59.94 59.55 59.35
58.16 58.39 59.42 58.81 59.21 59.47 63.04 61.32 59.91 59.68 59.90 60.30 60.38 59.67 59.67 60.53 59.52 57.40 56.57 55.14 53.46 55.29 51.85 51.77 50.94 50.35 49.84 49.15 48.08 46.98 46.28 45.83 45.57 47.26 53.75 59.02 59.04 58.88 59.11 60.16 59.50 58.76 58.00
56.14 57.10 58.26 59.34 61.78 62.12 61.16 59.63 59.02 58.38 58.59 58.79 58.96 59.60 59.20 57.64 56.18 54.14 52.96 51.96 50.87 50.36 49.33 49.28 48.81 48.80 48.52 48.58 47.50 46.12 45.12 44.25 44.18 44.92 47.78 57.35 58.57 58.42 57.30 59.79 58.84 57.79 56.90
57.54 57.89 59.18 60.43 61.64 61.65 60.06 58.24 57.62 57.34 58.63 58.51 59.09 60.21 58.55 56.02 53.63 51.66 50.60 50.21 49.57 49.27 48.34 47.85 47.78 47.41 47.48 47.35 46.10 45.21 43.71 43.15 43.06 43.31 44.70 57.60 58.66 58.61 57.77 59.18 57.45 56.86 55.84
59.14 59.11 59.01 59.46 61.63 61.16 58.60 56.93 56.99 58.28 60.10 60.40 59.88 58.89 56.99 54.19 51.69 50.27 49.48 49.13 48.64 48.38 47.61 47.24 47.00 46.57 45.98 45.93 44.61 43.98 42.51 41.80 41.47 41.50 42.36 47.89 55.39 56.28 56.72 56.47 55.41 55.20 55.16
58.07 57.94 58.11 59.27 61.24 60.16 58.36 57.22 57.94 60.29 60.66 59.51 58.90 57.76 55.74 53.24 51.71 49.40 49.11 48.73 48.14 47.58 47.40 47.39 47.06 46.70 45.95 44.38 42.84 42.22 41.46 40.97 40.64 40.63 41.20 42.58 46.35 53.03 54.55 54.32 54.64 54.19 53.59
58.85 59.25 59.51 61.31 59.94 58.74 57.52 57.22 58.43 59.07 58.51 57.91 57.49 56.71 54.12 52.74 50.84 49.45 48.45 48.18 47.78 47.64 47.24 46.64 46.09 45.33 43.61 41.83 40.25 40.12 40.00 39.93 39.58 39.88 40.58 40.96 40.78 41.11 45.42 50.08 50.26 49.90 49.16
60.29 59.70 58.29 59.46 58.20 57.60 56.48 57.25 57.65 57.07 56.33 55.43 54.36 53.33 52.60 51.63 50.36 48.46 48.20 47.71 47.54 46.52 45.85 46.24 44.90 44.49 41.98 41.31 40.73 38.80 37.94 37.53 38.16 39.46 38.50 38.52 39.17 38.58 39.02 45.52 46.81 48.34 48.17
59.31 58.19 58.80 58.26 57.18 56.52 55.91 54.20 53.22 52.27 51.64 51.67 51.19 51.27 51.73 50.69 49.65 48.60 47.66 46.85 46.13 44.79 44.23 42.83 41.43 41.55 41.60 40.71 41.25 38.40 36.57 36.67 36.66 36.17 36.71 38.27 37.40 37.51 37.77 38.58 38.46 39.74 45.33
57.52 57.15 57.75 56.58 55.37 56.39 53.92 51.57 51.25 50.33 50.31 48.89 49.02 49.26 50.47 49.30 48.35 46.85 45.62 44.80 44.11 43.52 42.80 42.64 40.92 39.78 39.14 38.49 37.72 36.55 36.48 36.29 35.26 35.19 35.57 35.61 36.65 36.71 37.18 37.43 36.92 36.57 37.46
56.85 57.40 57.14 56.53 55.86 56.10 55.42 50.43 50.46 48.98 47.57 47.37 47.53 47.67 48.33 47.26 46.43 46.11 43.19 42.14 42.49 40.90 40.18 41.14 40.53 39.65 38.37 37.31 36.70 35.23 33.24 35.28 35.30 34.91 34.40 35.37 34.58 35.69 36.35 37.38 36.91 36.68 36.69
56.65 57.23 57.65 56.56 56.35 55.81 53.59 49.32 47.57 47.91 47.15 46.18 45.35 45.09 44.41 44.32 42.64 41.25 40.79 40.17 39.56 39.37 38.57 39.37 40.10 39.74 37.44 37.50 36.51 36.10 32.69 31.14 31.37 33.83 33.87 33.64 34.00 34.58 34.78 35.51 35.79 35.95 36.52
56.50 57.49 57.99 56.98 56.55 55.71 52.21 49.83 49.50 48.44 46.55 45.79 45.16 41.39 39.88 41.48 41.07 41.11 40.97 40.80 40.51 40.30 40.42 41.42 41.77 39.88 38.70 36.06 36.29 36.40 34.36 33.87 31.51 29.72 31.94 32.35 33.03 34.18 33.81 34.30 33.93 34.70 35.52
56.33 56.82 57.92 56.68 56.43 55.88 52.97 51.50 49.59 47.57 46.61 44.96 41.29 38.72 39.57 39.86 40.60 41.07 40.90 41.64 41.20 40.96 41.03 40.83 40.36 38.61 38.22 36.33 35.44 35.08 33.62 32.27 31.48 28.97 27.23 29.25 31.53 32.79 33.07 33.33 33.43 34.01 34.23
55.23 56.00 57.01 56.04 56.14 55.74 53.84 51.77 50.02 49.08 45.98 43.16 39.88 38.93 38.59 38.50 39.31 40.08 40.71 41.17 41.36 41.61 42.13 41.53 40.80 38.26 37.72 37.28 36.57 36.92 34.25 32.34 30.76 28.46 26.83 27.41 27.50 30.35 31.86 33.26 32.90 32.84 33.01

GFSSE_sfc_wetblb_027.txt.gz
Wetbulb
68.54 69.75 70.94 71.51 71.26 71.02 70.79 70.69 70.29 70.28 70.10 69.84 69.45 69.11 69.30 69.11 68.91 68.99 69.11 68.92 69.05 69.43 68.62 68.83 69.03 68.98 68.60 69.61 68.99 67.91 68.86 69.09 69.37 69.06 68.79 67.90 67.30 67.08 66.81 67.00 67.78 67.76 68.50
69.70 69.83 70.34 71.04 71.01 70.92 70.70 70.41 70.02 69.92 69.79 69.45 69.16 69.31 69.04 68.99 69.11 69.13 69.10 69.07 69.09 69.12 69.26 69.56 69.53 69.12 69.20 69.31 69.11 68.44 67.93 68.39 68.20 67.86 67.79 67.09 66.49 66.14 65.65 65.42 66.66 65.43 66.34
69.25 69.72 70.42 70.43 70.69 70.60 70.56 70.34 69.97 69.81 69.67 69.38 69.38 69.04 69.18 69.40 69.21 68.94 68.83 68.80 68.87 69.46 69.70 70.13 69.94 69.49 69.43 69.08 69.15 68.34 67.60 67.32 67.42 67.05 67.02 64.71 65.05 65.28 65.04 64.97 65.43 64.96 64.96
69.47 69.45 69.51 70.23 69.94 70.19 70.10 69.91 69.64 69.48 69.21 69.16 69.30 69.18 69.40 69.40 69.13 68.79 68.67 68.42 68.48 68.80 68.77 69.12 69.79 69.77 69.22 68.35 68.47 67.79 66.99 66.54 65.90 66.06 64.10 63.47 63.20 65.06 65.09 64.97 64.84 64.67 64.50
69.02 69.26 69.67 69.99 69.73 70.09 69.64 69.22 68.79 68.74 68.69 68.91 69.01 69.30 69.33 69.26 69.11 68.96 68.65 68.39 68.72 68.44 67.22 67.66 67.71 67.43 67.14 67.20 67.06 66.57 65.51 64.96 64.86 64.54 64.17 64.48 64.48 65.26 65.64 65.21 64.96 65.03 65.00
69.00 69.33 68.84 69.04 69.26 69.74 69.52 68.92 68.58 68.19 67.85 68.18 68.35 68.86 69.21 68.94 68.94 68.79 68.45 68.32 68.53 67.81 65.84 66.41 66.53 66.15 66.41 66.00 65.81 65.51 64.53 63.88 64.32 63.85 64.33 65.17 64.71 65.40 65.72 65.58 65.28 64.97 64.89
68.12 69.03 68.55 68.11 68.27 69.07 69.57 68.92 68.24 67.80 67.81 67.97 68.39 68.64 68.77 68.89 68.69 68.48 68.03 67.97 67.94 67.72 66.70 65.84 66.01 66.04 65.75 65.90 65.25 64.00 63.28 63.25 62.55 62.91 63.16 63.83 64.64 64.76 64.88 64.91 64.73 64.73 64.70
65.81 66.51 67.23 67.43 66.86 66.75 68.05 67.79 67.52 67.99 68.21 68.11 68.27 68.57 68.89 68.44 67.99 67.90 67.67 67.05 67.00 67.42 67.23 65.79 65.88 65.94 65.66 64.95 63.68 63.22 62.66 62.55 61.77 62.27 62.51 62.75 64.49 63.44 63.57 63.74 63.90 63.87 63.73
64.30 63.62 63.07 63.93 63.47 64.16 65.71 66.60 66.97 67.78 67.90 67.95 67.99 68.14 67.90 67.46 67.27 67.32 66.97 66.69 66.54 66.41 66.99 65.79 64.84 65.48 64.96 62.91 61.97 61.53 61.06 60.58 61.79 61.70 61.32 61.52 64.05 62.34 62.12 61.90 61.92 62.06 62.29
62.49 62.14 60.63 60.44 61.24 62.66 64.55 65.73 66.55 66.82 67.04 67.39 67.41 66.87 66.06 66.40 66.51 66.45 65.93 65.90 65.97 65.63 66.27 65.04 63.92 63.90 62.33 61.29 59.91 58.74 58.69 59.38 59.64 59.26 60.85 61.87 63.18 61.68 61.33 61.15 61.00 60.84 60.70
60.50 59.99 58.76 60.04 61.33 62.63 64.27 65.35 66.34 67.07 66.48 66.21 65.91 65.46 64.27 64.64 64.51 64.11 64.19 64.65 65.08 63.98 64.24 63.82 62.35 60.40 60.10 59.17 57.64 56.31 57.35 57.70 58.54 58.71 59.56 62.35 62.08 61.59 61.05 60.70 60.54 60.40 60.28
58.20 58.51 59.83 59.02 58.16 59.60 62.84 62.99 63.95 64.66 64.11 64.21 64.29 64.40 63.90 64.30 63.96 63.78 64.19 64.38 63.31 62.02 61.16 60.60 58.56 57.28 57.34 55.93 55.23 55.47 55.08 56.36 57.39 58.00 59.03 60.80 60.50 60.33 61.15 60.49 60.09 59.69 59.41
57.25 57.32 57.88 57.46 58.10 57.87 58.49 61.20 62.38 63.03 62.85 63.26 63.42 63.62 64.16 63.98 63.33 63.05 60.60 58.65 58.94 57.69 56.51 56.80 56.46 55.71 55.72 54.94 54.03 53.84 53.81 53.93 54.19 54.71 57.71 59.44 59.28 58.93 61.10 60.30 59.21 58.45 58.08
57.46 57.74 57.98 58.26 58.31 59.19 60.03 62.41 61.37 61.35 62.27 62.65 62.92 63.86 63.77 62.06 60.04 58.47 57.51 57.30 56.71 56.55 56.43 56.24 55.99 55.90 54.76 53.89 53.60 53.06 53.01 52.90 53.55 54.40 57.90 59.69 59.41 57.74 59.34 60.40 58.68 57.62 57.23
57.54 58.40 58.23 59.69 59.67 62.38 62.46 62.17 61.51 61.64 61.94 62.76 63.04 64.07 63.24 61.01 58.83 57.60 56.68 56.40 55.99 56.09 56.15 55.64 55.67 54.92 53.79 53.21 52.47 51.59 50.93 51.25 52.52 53.89 57.31 57.49 59.42 58.94 59.64 59.37 57.82 56.91 55.89
57.91 58.93 59.43 60.96 62.66 64.01 63.63 62.12 61.24 62.15 62.53 62.58 63.09 63.39 61.97 59.91 57.42 56.48 56.15 56.00 55.63 56.07 55.89 55.52 55.12 54.35 52.89 52.54 50.84 50.07 49.57 49.73 50.89 53.13 55.59 56.43 56.17 56.95 57.21 56.61 56.00 56.10 55.66
59.09 59.60 60.41 61.51 63.60 64.55 63.10 61.71 61.48 61.97 63.10 63.00 62.98 62.23 60.85 58.73 57.62 56.94 55.95 55.58 55.31 55.60 55.19 54.87 54.68 54.11 51.96 50.99 49.35 48.92 48.94 48.88 49.21 50.99 53.50 54.11 53.45 52.68 54.85 54.70 53.80 52.80 52.35
59.94 60.09 60.94 61.51 62.83 64.40 63.04 61.77 61.88 63.08 64.12 63.89 63.03 61.79 59.46 57.97 57.14 56.73 55.99 55.39 55.23 55.25 55.17 55.00 54.24 52.43 51.38 50.62 49.12 48.55 48.07 48.00 48.40 48.63 49.22 50.19 49.62 50.20 50.75 50.08 50.43 50.23 49.87
61.39 61.01 61.00 61.99 62.70 63.76 63.09 61.80 62.47 63.64 63.68 63.00 62.19 60.49 58.69 57.04 56.37 56.86 56.08 54.97 55.37 54.42 54.34 53.65 53.04 53.08 50.84 49.58 48.18 47.45 46.96 46.95 46.90 46.48 46.34 46.61 46.81 47.16 47.45 46.86 47.55 48.07 47.91
61.52 62.12 61.99 62.18 62.83 63.31 62.24 61.20 61.32 61.78 61.19 61.34 60.97 59.84 58.13 56.80 55.91 56.19 55.07 54.44 54.11 53.11 52.47 51.89 51.35 50.86 50.95 49.81 46.63 45.43 45.88 46.22 46.11 46.19 45.72 45.32 45.77 45.65 46.11 45.89 46.64 45.91 45.00
61.89 61.81 61.75 61.78 62.41 61.92 59.96 59.63 59.92 60.35 59.17 59.21 59.26 58.72 57.59 56.39 55.28 55.33 53.91 53.16 53.04 52.60 51.74 51.15 50.17 49.34 48.19 48.88 46.65 45.70 45.02 44.97 44.48 44.67 45.72 46.00 44.52 44.85 45.46 45.41 45.78 45.63 45.05
61.55 61.97 62.31 62.09 61.86 61.46 61.59 60.44 60.27 59.39 57.13 57.57 56.27 56.49 56.50 54.96 54.38 53.70 53.10 52.17 52.13 50.92 50.66 50.54 49.94 48.44 47.50 47.70 46.89 46.52 43.19 43.21 43.86 43.48 43.85 43.75 44.35 45.02 44.57 44.07 44.34 44.26 44.90
60.99 61.75 61.87 62.17 61.74 61.63 61.38 57.27 54.97 55.28 54.22 53.72 53.45 53.85 53.63 53.63 53.08 51.84 51.33 50.86 49.62 48.99 47.97 49.03 49.35 48.63 45.55 45.31 45.99 46.61 41.97 41.22 43.17 43.68 42.40 43.02 43.32 44.15 44.54 44.18 43.40 42.82 43.70
60.88 62.19 62.26 61.54 60.91 60.68 58.99 58.08 56.71 57.50 55.24 55.12 53.70 52.87 51.79 51.31 49.91 49.03 48.67 48.77 48.36 48.23 48.15 48.54 48.56 48.35 47.36 44.56 44.90 44.52 45.34 44.85 40.60 38.82 42.25 42.68 42.93 42.46 43.19 43.61 43.39 43.04 42.87
61.30 61.36 61.99 61.52 60.77 60.50 58.39 58.56 57.75 56.81 56.94 54.30 50.46 47.67 47.55 48.48 48.44 47.83 48.42 48.52 48.42 48.68 48.88 48.17 46.49 47.16 47.03 43.82 45.50 44.60 44.05 43.20 42.52 39.16 36.36 39.36 41.87 42.76 42.91 42.61 42.60 42.30 41.75
61.33 61.70 61.77 61.21 60.57 60.53 58.36 57.25 57.02 55.28 53.22 51.34 49.61 47.91 47.08 46.92 47.11 47.41 47.50 48.42 48.74 48.48 46.78 45.72 46.43 45.44 44.26 45.79 45.50 44.28 42.76 41.13 40.40 39.32 37.35 37.92 37.59 40.27 41.75 41.98 41.91 41.84 41.77

GFSSE_sfc_wetblb_030.txt.gz
Wetbulb
68.71 70.50 71.01 71.73 72.15 72.05 71.80 71.43 71.07 70.78 70.58 70.17 69.98 70.20 70.03 69.54 69.59 69.63 69.68 69.70 69.96 70.32 69.63 69.64 69.64 70.09 68.42 68.08 69.17 68.80 68.79 68.91 68.83 68.64 68.27 66.98 66.58 66.36 66.34 67.49 67.87 67.97 68.30
70.02 69.93 70.46 71.05 71.66 71.86 71.49 70.98 70.48 70.21 70.05 69.83 70.05 69.71 69.49 69.83 69.76 69.68 69.75 69.87 70.16 70.09 69.83 69.56 70.08 69.41 67.85 67.77 67.91 67.93 67.59 68.00 67.92 68.17 67.90 66.61 66.05 65.94 65.69 65.84 66.60 66.11 66.47
69.41 69.69 71.29 70.50 70.99 70.98 70.99 70.58 70.16 70.02 69.90 70.15 69.61 69.49 69.86 69.91 69.83 69.63 69.44 69.90 70.68 71.38 70.32 69.70 69.83 68.74 67.76 67.47 68.03 67.64 67.07 67.01 67.19 66.81 67.38 63.71 64.60 65.33 65.49 65.43 66.33 65.25 65.16
69.56 69.83 69.26 70.29 70.37 70.49 70.06 69.91 69.62 69.88 69.88 69.71 69.59 69.95 69.78 69.83 69.71 69.56 69.24 69.34 70.74 71.29 70.75 69.90 69.45 68.41 67.66 68.01 68.08 67.54 66.40 66.01 66.43 66.79 64.40 64.26 64.18 65.56 65.65 65.46 65.49 65.65 65.25
69.34 69.09 70.21 69.73 69.76 70.13 69.74 69.42 69.07 69.19 69.33 69.27 69.68 70.00 69.88 69.81 69.71 69.44 68.93 68.62 69.76 70.44 69.74 69.67 68.69 67.20 67.62 67.55 67.02 66.41 65.53 65.50 65.80 65.23 64.48 65.18 65.07 65.51 65.68 65.71 65.87 65.54 65.11
69.34 69.29 69.16 69.07 69.56 69.64 69.60 69.15 68.77 68.88 68.59 68.79 69.13 69.61 69.66 69.86 69.76 69.42 68.90 68.61 68.59 69.04 67.99 67.86 66.43 66.33 66.78 66.58 66.44 65.23 64.91 64.99 64.66 63.84 64.64 65.15 64.79 64.75 65.00 65.11 65.13 65.03 65.14
68.83 69.42 69.53 68.28 69.03 69.26 69.19 68.90 68.58 68.47 68.16 68.66 68.72 68.63 69.22 69.44 69.48 69.16 68.53 68.25 67.75 67.95 67.46 66.67 66.17 66.38 66.32 65.75 64.45 63.96 64.13 63.70 62.50 62.68 63.82 64.05 64.30 63.92 64.00 64.24 64.35 64.22 63.89
68.18 68.82 68.13 68.20 67.84 67.95 68.11 68.01 67.95 68.02 68.29 68.42 68.37 68.62 68.88 68.84 68.39 68.15 67.94 68.06 67.74 66.74 67.15 66.74 66.35 65.93 65.14 63.80 63.16 62.68 62.81 63.25 62.04 61.70 62.75 63.27 63.90 62.83 62.90 62.75 62.78 62.71 62.62
67.21 65.59 65.24 63.67 63.37 65.03 66.61 67.01 67.56 67.88 68.07 68.24 68.35 68.29 67.81 67.41 67.02 67.09 67.03 67.36 67.36 66.29 65.92 66.43 66.16 64.74 63.13 62.08 61.48 61.29 61.23 61.96 61.30 61.42 61.33 62.70 62.33 61.85 61.67 61.37 61.57 61.60 61.39
62.72 63.04 62.81 62.22 61.79 62.58 65.29 66.61 67.07 67.34 67.65 67.78 67.65 66.79 66.40 66.20 66.44 66.33 66.09 66.43 67.15 65.98 65.15 65.28 64.65 63.11 61.61 60.70 59.98 59.65 60.04 61.51 59.95 59.67 60.75 62.47 62.42 61.51 60.99 61.01 60.89 60.81 60.69
59.44 60.14 59.96 59.96 61.41 62.85 63.33 65.90 67.03 67.62 67.00 66.51 66.12 65.37 64.05 63.31 64.03 64.79 64.97 65.53 65.89 64.65 63.94 62.80 61.66 61.16 60.37 58.55 57.94 58.51 59.56 59.17 59.56 59.20 59.86 62.13 62.30 61.37 60.96 60.61 60.60 60.34 60.01
56.99 57.47 58.53 59.29 59.38 60.47 62.63 64.12 66.02 66.14 65.56 64.95 64.38 64.16 63.95 65.43 64.67 64.28 64.94 64.00 63.36 62.57 61.78 60.48 59.33 59.04 60.54 59.39 58.06 59.29 58.36 58.53 58.37 58.50 59.07 60.66 60.78 61.79 60.90 60.60 60.01 59.52 59.11
57.47 57.51 58.05 58.41 58.50 58.69 58.52 61.29 63.29 63.44 64.09 64.53 64.63 63.89 64.49 64.37 64.74 65.24 64.85 63.50 62.27 61.28 59.14 59.22 59.89 59.72 59.29 59.39 58.27 58.04 57.91 57.40 56.71 57.12 58.60 60.14 59.53 59.26 61.30 60.27 59.18 58.60 58.23
56.54 56.54 57.56 57.26 57.79 57.10 57.34 58.93 60.99 61.31 62.66 62.95 63.63 64.06 64.87 63.88 64.54 64.24 63.67 63.06 61.48 60.82 60.00 59.16 59.86 59.62 58.78 58.14 58.02 57.37 57.08 56.47 55.80 57.00 58.55 59.40 59.93 58.37 61.60 59.87 58.72 57.91 57.02
55.84 56.37 56.53 56.89 55.52 57.13 58.46 59.79 61.50 62.19 62.04 62.55 63.47 64.22 64.09 63.35 63.88 63.56 62.21 61.50 61.40 60.99 60.53 60.06 59.51 58.54 57.84 57.34 56.98 56.22 55.45 55.45 55.69 55.61 57.43 57.77 58.89 59.53 60.11 59.20 58.35 57.02 55.76
57.44 56.78 57.43 58.62 59.47 60.08 61.19 62.60 61.94 63.05 62.94 63.79 65.06 65.87 65.66 64.04 63.64 61.81 61.12 60.94 60.14 60.92 60.64 59.92 58.88 58.20 57.62 57.14 55.86 55.11 54.17 54.31 54.32 54.66 55.75 56.78 55.89 57.32 56.99 57.05 57.01 56.85 55.38
59.27 58.44 58.65 60.78 62.73 61.57 63.45 64.34 61.81 63.26 62.96 63.86 65.64 66.57 66.20 63.96 62.82 62.50 61.56 60.88 60.58 60.60 59.74 59.27 58.63 57.94 57.28 56.01 54.21 53.96 54.38 54.17 53.65 54.17 55.14 55.11 55.36 53.53 53.32 53.49 52.90 52.01 51.66
61.28 61.24 61.49 62.71 63.40 63.57 64.64 64.28 62.37 63.23 64.00 65.27 66.16 66.69 65.38 63.92 63.10 62.50 61.54 60.77 60.29 59.80 59.08 58.77 58.30 57.36 56.75 55.95 54.68 54.30 54.57 54.01 53.63 53.44 54.43 54.88 55.08 53.93 51.17 49.92 50.33 49.77 49.81
61.38 61.05 61.80 63.01 63.32 64.77 65.90 64.00 63.20 64.40 65.61 66.76 66.78 66.13 65.14 63.44 62.46 62.41 61.27 60.33 60.12 58.92 58.75 58.02 57.48 57.74 54.44 54.57 53.88 53.02 52.85 52.14 51.59 51.19 51.37 51.64 51.40 52.34 51.62 46.92 47.45 47.58 47.48
62.64 63.11 63.18 63.79 64.77 65.78 66.18 64.29 63.00 64.68 66.09 66.92 66.57 65.65 64.33 63.05 61.70 61.73 60.83 59.76 59.33 58.22 57.64 57.33 55.45 55.35 55.34 54.43 50.19 50.67 51.46 51.43 51.54 51.19 50.33 50.07 51.18 51.21 50.28 49.14 49.65 48.14 45.18
63.95 63.30 63.35 63.21 64.48 65.46 64.94 62.13 61.53 62.90 64.98 65.67 65.85 65.32 63.85 62.76 61.15 61.24 60.03 59.08 58.69 57.79 57.24 56.37 54.30 52.48 52.35 53.69 51.37 50.70 50.36 50.07 49.64 49.84 50.06 49.88 48.79 49.06 49.58 48.96 48.17 47.54 47.46
63.04 63.81 64.03 64.09 64.98 65.49 64.64 63.02 62.99 63.73 64.71 65.54 64.90 64.22 63.45 62.09 61.10 60.43 59.64 58.37 58.17 56.91 55.72 54.44 52.95 51.54 52.56 52.22 50.91 50.45 49.28 49.26 48.61 48.47 48.95 48.13 48.52 48.57 47.58 46.97 46.68 46.07 46.02
62.16 62.97 63.63 64.51 65.03 65.24 64.89 63.48 64.09 64.55 63.35 62.90 61.79 61.98 62.68 61.54 60.72 59.69 59.04 58.15 57.38 56.20 53.97 53.65 53.01 51.25 50.30 51.25 51.38 48.28 47.94 46.01 48.48 48.90 47.48 47.60 47.37 47.28 47.40 46.68 46.11 45.58 45.56
63.19 64.00 64.33 64.37 64.88 65.33 65.67 64.21 62.68 62.00 61.35 62.15 61.63 62.27 61.63 60.49 59.58 58.53 58.06 57.35 56.04 53.80 52.61 52.02 51.87 52.08 51.56 48.78 49.53 49.71 49.93 47.56 43.59 43.12 46.78 46.74 46.92 45.90 46.72 46.37 46.26 45.95 45.52
64.34 64.13 65.13 65.34 65.14 65.28 65.25 64.26 63.19 62.84 63.72 64.06 61.44 60.73 59.28 57.94 56.69 57.07 56.13 54.96 53.58 52.61 52.23 51.71 51.66 51.06 51.75 50.65 49.04 50.13 47.98 47.14 46.24 43.04 41.54 43.78 45.61 45.81 46.19 46.14 46.02 45.43 45.43
65.28 65.10 64.98 65.19 65.03 64.99 65.05 64.59 64.29 63.57 63.69 61.46 59.47 56.58 55.38 52.57 52.81 53.49 53.50 53.55 53.13 51.94 51.24 51.57 50.11 50.33 51.25 49.62 50.09 48.33 46.16 45.19 44.92 43.56 41.78 42.32 42.21 43.93 45.37 45.18 45.03 45.08 45.27

GFSSE_sfc_wetblb_033.txt.gz
Wetbulb
69.63 71.27 71.98 72.59 72.60 72.45 72.12 71.79 71.21 70.78 70.51 70.17 70.18 70.52 70.32 70.03 69.95 70.47 70.42 70.34 70.61 70.75 70.38 70.58 68.74 68.72 68.73 68.61 68.64 68.52 68.42 68.80 68.54 68.44 67.95 67.12 66.57 66.69 66.68 67.69 67.17 66.95 67.91
70.75 71.59 71.21 72.11 72.39 72.37 72.10 71.43 70.77 70.15 70.22 70.37 70.44 70.15 69.98 70.15 70.23 70.35 70.45 70.52 70.78 70.95 70.73 69.30 68.13 67.77 67.55 67.60 67.74 67.64 67.45 67.68 68.27 68.13 67.02 66.77 66.04 66.03 66.18 65.88 66.53 65.91 66.57
69.60 71.34 71.71 71.33 71.79 71.78 71.44 70.94 70.42 70.17 70.40 70.34 70.03 70.05 70.20 70.25 70.35 70.35 70.54 70.69 70.78 71.15 70.35 68.61 67.81 67.46 67.32 67.35 67.58 67.01 66.58 66.58 66.62 67.34 68.35 63.78 64.70 66.18 66.15 66.43 66.75 65.37 65.42
69.13 70.71 71.84 70.98 71.07 70.94 70.59 70.17 69.72 69.93 70.03 69.90 70.05 70.32 70.18 70.30 70.20 70.44 71.02 71.01 70.85 71.21 69.94 68.35 67.82 67.44 67.21 67.19 67.32 66.80 66.53 66.17 66.04 67.26 64.71 64.23 64.12 66.08 66.41 65.89 65.52 65.76 65.40
68.38 69.98 70.88 70.06 70.02 70.18 69.77 69.59 69.40 69.60 69.36 69.53 69.98 70.27 70.32 70.10 69.96 70.10 70.63 71.01 71.05 71.17 69.35 67.99 67.58 67.16 66.65 67.18 66.75 66.19 65.73 65.95 66.16 65.62 64.05 64.32 64.02 65.06 65.60 65.28 65.69 65.59 65.32
66.63 68.64 69.27 69.11 69.43 69.53 69.70 69.39 69.34 68.93 68.90 69.20 69.38 70.03 70.18 69.98 69.98 69.39 69.34 70.10 70.98 70.63 67.79 67.28 66.60 65.99 66.54 66.49 66.08 65.07 64.61 65.34 65.88 63.93 63.86 63.95 63.33 64.47 64.98 65.04 64.92 65.11 64.61
65.85 70.03 69.37 68.51 68.94 69.33 69.33 69.28 69.01 68.61 68.89 69.13 69.26 69.31 69.51 69.39 69.53 68.73 68.27 68.81 69.25 68.93 67.61 66.43 65.78 65.73 65.81 65.21 64.46 64.28 64.49 64.04 62.26 63.23 62.99 62.64 63.03 63.33 63.57 63.58 63.52 62.95 62.55
68.75 68.91 68.48 69.14 68.94 68.50 68.55 68.44 68.22 68.52 68.73 68.73 68.96 69.36 69.62 69.07 68.71 68.74 67.96 68.01 68.28 67.64 67.24 66.80 66.18 65.42 64.41 63.41 63.12 63.34 63.12 63.47 62.06 62.45 62.85 61.83 63.26 62.53 62.54 62.49 62.33 62.01 61.96
66.29 65.62 66.27 66.98 67.68 67.21 67.01 67.23 67.46 68.03 68.26 68.51 68.51 68.43 67.68 67.38 67.34 67.56 67.33 67.11 67.31 67.00 66.77 66.01 65.24 64.50 62.79 62.19 62.34 61.68 61.39 62.25 61.15 61.22 61.98 61.49 62.37 61.67 61.68 61.75 61.65 61.39 61.25
64.13 63.40 62.96 63.62 65.13 67.27 66.88 66.81 67.07 67.49 67.65 67.67 67.36 66.60 66.28 66.27 66.65 66.83 66.69 66.32 66.45 66.50 66.24 64.83 63.92 62.85 61.37 61.09 60.75 61.02 60.50 62.38 59.75 60.35 60.65 61.64 62.21 61.46 61.17 61.18 61.06 60.90 60.74
61.23 61.42 61.29 61.35 62.84 64.25 65.48 66.90 67.46 67.74 66.80 66.03 65.69 64.73 63.91 63.62 63.80 64.38 65.89 66.05 65.41 64.91 64.57 63.71 62.63 61.79 60.99 59.84 59.09 58.64 60.36 59.32 58.89 59.50 59.38 62.69 61.91 61.51 61.20 60.76 60.48 60.27 60.02
57.28 58.68 60.47 61.03 59.48 58.56 59.30 60.11 61.24 62.23 63.88 64.45 63.52 64.73 63.76 64.95 65.41 63.58 64.35 64.34 63.81 63.02 62.54 62.11 61.55 61.08 60.97 59.59 58.87 60.04 58.37 58.07 57.25 58.45 58.29 61.52 61.65 61.67 61.30 60.72 60.11 59.48 59.02
57.57 58.07 58.14 57.42 56.92 56.20 57.37 58.10 61.52 62.83 63.82 64.55 65.60 65.34 65.67 65.01 64.17 64.34 63.12 62.73 61.57 61.28 58.82 58.77 59.18 61.32 61.15 59.89 58.93 58.77 57.93 57.30 56.65 58.15 58.15 60.28 59.66 61.56 61.44 60.60 59.55 58.90 58.03
57.28 57.62 57.76 58.81 58.15 57.47 58.55 60.27 61.28 61.83 63.09 63.43 63.50 64.65 65.13 64.63 65.31 65.02 63.90 63.23 63.04 61.96 61.50 61.90 61.01 60.80 59.44 58.79 58.35 57.68 57.05 56.05 55.88 58.12 57.64 59.32 59.91 58.35 61.42 60.13 59.02 58.56 57.36
55.48 55.08 55.83 56.15 56.37 57.40 58.06 58.78 60.30 60.65 61.30 61.88 63.40 64.35 64.04 64.46 65.19 64.30 64.53 63.80 63.04 62.82 61.89 61.43 60.68 59.42 59.05 58.40 57.56 56.55 55.31 55.71 55.73 55.67 57.40 57.80 59.37 60.06 60.78 59.48 58.76 57.87 56.13
55.06 54.83 54.59 54.47 55.77 56.13 57.34 57.22 59.46 62.28 61.95 62.85 63.62 63.95 64.30 64.07 65.36 63.74 63.24 62.74 62.77 62.64 62.41 61.33 59.99 59.10 58.50 57.74 56.49 55.11 54.54 54.81 54.71 55.48 56.37 56.40 57.30 58.21 58.09 58.03 58.16 57.16 55.63
54.96 55.79 54.71 55.14 56.21 58.27 58.42 58.08 58.30 60.50 62.37 62.69 63.02 66.71 65.38 64.37 65.16 64.50 63.52 62.69 62.46 62.84 62.03 60.75 59.76 59.13 57.80 56.55 54.81 54.64 54.70 54.31 54.11 54.67 55.04 55.75 55.39 55.01 54.54 54.08 53.43 52.81 52.21
56.56 55.75 55.99 56.93 59.59 59.60 60.53 61.67 62.54 62.40 62.86 62.47 64.43 66.25 66.35 65.45 65.16 64.59 63.22 62.84 62.72 62.06 61.01 59.54 58.89 57.71 56.68 55.87 55.01 54.67 54.73 54.38 53.91 53.61 54.08 54.08 54.60 54.33 51.97 51.57 50.68 50.28 50.05
58.51 58.46 59.28 61.41 60.61 61.91 63.92 63.61 62.87 63.85 63.13 63.69 66.32 66.77 66.21 65.46 64.94 64.43 63.67 63.06 62.39 61.34 60.25 59.39 58.59 57.75 55.36 54.61 54.34 54.58 54.52 54.08 53.61 52.50 52.19 52.42 52.17 51.43 51.82 49.16 48.77 47.88 46.98
61.33 61.34 61.91 62.55 62.68 62.93 64.20 64.29 62.79 61.96 62.94 64.84 66.20 66.03 66.61 65.57 64.65 64.38 63.59 62.52 61.77 60.50 59.59 58.91 58.03 55.81 55.59 55.04 52.16 51.84 53.52 53.50 53.19 52.66 51.74 51.39 51.41 51.18 50.71 50.42 49.61 48.47 47.05
62.03 61.65 61.81 61.93 62.98 63.74 63.30 62.37 60.89 60.12 62.45 64.73 66.15 66.37 66.25 65.31 64.35 63.92 63.03 62.05 61.38 60.07 59.28 58.82 56.38 54.74 53.12 53.76 53.02 53.51 53.40 53.06 52.45 51.79 51.67 50.98 50.49 50.06 50.31 49.25 48.68 48.34 47.07
62.13 62.74 62.69 62.43 63.52 63.95 63.46 63.28 61.78 61.90 62.76 64.90 66.81 66.26 66.25 65.52 64.12 63.40 62.96 61.30 60.68 59.48 58.94 57.61 55.84 53.83 53.55 53.99 52.81 52.72 50.60 50.73 51.29 51.20 51.08 50.15 50.03 49.76 49.19 48.60 48.13 47.37 46.98
62.52 62.76 63.24 63.60 64.06 64.73 64.66 64.08 62.01 62.22 63.82 63.58 64.47 64.67 65.30 65.03 63.91 63.08 62.67 61.72 60.86 59.86 57.68 56.85 55.44 53.76 51.63 52.93 53.75 51.31 49.21 48.04 49.39 50.95 49.86 49.69 49.62 48.90 49.20 48.41 48.20 47.42 47.06
62.68 64.18 64.16 64.20 64.07 64.66 65.10 63.57 61.62 61.16 60.71 63.17 63.90 64.50 63.93 64.45 63.64 62.77 62.25 61.62 60.32 59.09 57.91 56.25 54.87 54.03 53.04 51.68 53.82 52.52 52.58 50.90 45.59 44.93 49.12 49.04 49.06 48.08 48.37 48.05 47.64 47.38 47.28
63.34 63.39 64.36 64.46 64.63 65.05 65.09 64.46 63.22 62.42 63.05 63.66 64.05 63.94 63.54 64.22 63.15 62.35 61.70 60.86 59.51 57.94 56.87 56.12 54.07 53.16 53.43 51.02 50.85 49.57 51.56 49.92 48.89 45.02 43.10 46.23 47.84 47.67 47.63 47.40 47.37 46.95 46.65
64.06 64.79 65.05 64.19 64.00 64.84 65.24 65.05 65.46 63.91 63.51 63.20 64.23 62.68 62.65 61.78 60.57 60.82 59.60 58.50 56.90 54.16 53.90 53.85 53.40 51.74 50.46 51.39 49.95 50.79 49.16 47.08 46.87 46.33 44.51 44.60 44.37 46.27 47.15 47.10 46.46 46.07 46.21

GFSSE_sfc_wetblb_036.txt.gz
Wetbulb
68.82 71.49 71.98 72.37 72.47 72.14 71.98 71.46 70.92 70.53 70.34 70.48 70.48 70.26 70.21 70.48 70.94 70.80 70.87 70.75 71.19 71.14 69.29 69.31 68.57 68.30 68.20 67.88 67.73 67.88 68.72 68.69 67.80 67.70 67.67 67.16 66.69 66.66 66.57 67.48 67.09 65.94 68.21
69.82 72.01 71.23 71.86 72.22 72.24 71.84 71.06 70.50 70.09 70.32 70.60 70.35 70.11 70.33 70.65 70.67 70.82 70.80 70.82 71.26 70.11 68.74 68.19 67.79 67.39 66.91 67.11 67.50 67.99 68.18 68.43 67.21 67.18 67.30 66.56 66.32 66.92 66.73 65.89 66.73 64.54 66.54
69.24 71.76 71.68 71.43 71.79 71.88 71.52 70.95 70.41 70.47 70.69 70.35 70.23 70.23 70.55 70.62 70.77 70.72 70.72 70.70 70.82 69.77 68.31 67.91 67.31 66.81 66.19 66.16 67.33 67.12 67.02 67.21 67.84 68.38 66.59 62.92 63.99 66.31 66.29 66.39 66.61 65.35 65.49
70.01 71.47 71.78 71.12 71.26 71.11 70.61 70.22 70.12 70.37 70.42 70.25 70.23 70.42 70.57 70.69 71.16 70.96 70.65 70.26 70.28 69.73 67.93 67.67 67.09 66.45 65.89 66.63 67.04 66.74 66.82 66.90 67.24 67.22 62.67 62.01 62.86 66.24 66.30 65.72 66.06 65.95 65.48
69.66 71.28 71.22 70.47 70.47 70.47 70.01 69.54 69.68 69.72 69.56 69.80 70.00 70.59 70.50 71.11 71.75 71.35 70.47 70.43 70.40 69.73 67.95 67.23 66.67 65.88 65.86 66.33 65.81 65.40 65.27 65.70 65.53 63.08 60.57 61.14 61.62 64.43 65.50 65.67 65.26 65.32 65.05
67.19 70.36 69.39 69.40 69.62 69.87 69.53 69.76 69.43 69.19 69.21 69.35 69.65 70.05 70.25 70.94 71.48 71.23 70.47 70.50 70.27 69.20 67.28 66.36 65.76 65.50 66.22 65.18 64.88 65.33 65.15 64.91 65.16 60.38 60.07 62.14 61.09 64.23 64.46 64.14 63.85 64.06 63.84
65.33 69.42 69.02 68.57 68.97 69.40 69.69 69.54 69.03 69.23 69.09 69.31 69.40 69.36 69.54 69.74 70.07 70.16 70.04 69.84 68.72 68.38 66.74 65.88 65.43 65.21 65.34 64.63 64.33 64.13 63.74 63.55 60.56 59.49 59.03 59.61 59.86 63.27 63.53 63.02 62.65 62.46 62.31
65.04 68.22 68.12 69.05 68.71 68.57 68.61 68.57 68.53 68.69 68.94 69.03 69.00 69.24 69.48 68.89 68.54 69.00 69.03 68.26 67.89 67.42 67.11 66.33 65.93 65.08 64.59 63.69 62.72 62.48 62.85 63.03 61.70 59.11 58.98 58.91 62.60 62.44 62.56 62.27 61.97 61.59 61.49
64.26 66.02 66.21 66.97 67.84 67.51 67.23 67.22 67.55 67.91 68.32 68.61 68.66 68.29 68.09 67.44 67.33 67.94 68.32 67.87 67.42 66.76 66.29 65.63 64.99 64.28 63.23 62.24 61.59 61.31 61.71 62.78 58.23 59.13 59.34 58.29 62.61 62.03 61.98 61.67 61.45 61.07 60.84
64.52 64.84 64.69 65.43 66.03 66.68 66.82 66.79 67.27 67.43 67.50 66.97 67.01 66.54 66.29 66.45 66.65 66.69 66.74 66.89 66.90 66.08 65.34 64.52 63.74 63.03 61.74 60.97 60.07 59.27 60.18 60.64 56.82 58.11 58.50 59.24 62.47 61.68 61.71 61.35 61.12 60.65 60.33
62.15 62.68 63.01 64.04 65.12 65.41 65.03 66.37 66.55 67.22 66.39 65.74 65.40 64.96 62.92 62.71 62.17 64.08 65.20 65.97 65.97 64.65 64.16 63.69 62.90 61.88 60.85 59.77 60.05 60.54 59.84 54.82 56.67 57.85 58.65 62.71 62.21 61.63 61.46 61.00 60.35 60.07 59.72
59.24 60.51 60.93 60.01 59.19 62.00 63.44 63.96 64.92 64.59 63.53 62.53 61.85 62.39 62.42 62.93 62.61 63.91 64.15 64.54 64.21 63.75 63.34 62.55 62.00 61.34 60.00 53.88 54.75 59.10 53.93 54.82 55.65 55.32 57.41 61.81 62.15 61.67 61.35 60.84 60.02 59.54 58.96
57.61 58.91 57.30 57.00 57.50 57.40 57.30 58.33 59.45 61.32 62.70 62.64 63.30 63.10 63.37 62.48 62.37 62.51 61.39 60.28 59.75 60.71 56.87 57.62 58.38 57.20 57.59 56.54 55.82 54.74 54.62 53.18 54.07 53.88 58.53 60.91 61.33 61.92 61.45 60.44 59.61 58.93 58.13
56.71 55.46 56.61 56.34 56.40 55.89 55.56 55.61 56.89 59.87 61.10 62.96 62.79 63.79 63.83 62.79 62.27 61.35 60.56 60.44 58.51 57.87 55.57 56.17 58.01 57.16 56.37 56.16 55.42 54.20 52.99 52.27 53.11 53.96 57.31 59.97 60.94 61.23 61.52 60.51 59.79 58.29 57.35
55.53 56.13 56.42 56.65 56.97 56.95 56.66 56.97 57.97 60.18 60.36 60.87 62.86 63.86 63.78 62.31 62.73 62.06 61.45 60.77 59.18 59.83 59.48 58.91 57.46 56.41 55.45 55.09 54.19 53.12 52.66 51.85 51.73 54.27 54.72 59.13 60.18 61.90 60.93 60.09 59.70 57.97 56.55
53.32 53.47 55.28 56.19 57.21 57.82 58.20 58.65 59.26 59.63 59.79 60.92 62.31 62.83 63.24 63.20 62.41 62.26 62.14 61.47 60.72 60.18 59.91 58.61 57.07 55.52 54.99 54.08 52.89 51.75 51.60 51.28 51.12 52.86 53.00 55.04 58.18 59.54 59.85 59.20 58.68 57.64 56.16
52.99 53.42 54.53 55.26 56.01 56.62 56.84 57.66 58.67 58.75 57.63 59.04 61.52 62.53 62.88 61.73 61.95 62.30 60.76 60.87 60.57 60.23 59.44 57.57 55.91 55.17 53.71 53.10 51.72 51.27 51.31 50.59 50.65 51.02 52.83 53.24 53.81 56.34 56.42 55.41 54.87 54.11 53.33
53.62 53.03 54.23 56.17 55.13 55.46 55.42 55.50 56.89 58.43 60.01 60.42 61.05 63.27 63.50 63.12 63.33 62.89 61.62 60.70 60.42 59.36 58.29 56.44 55.25 53.98 53.24 52.09 50.35 50.17 49.96 50.32 50.08 49.77 50.03 50.70 51.90 51.96 53.75 54.07 52.79 52.29 50.97
55.63 54.33 54.44 55.52 54.65 56.63 55.75 56.22 57.94 60.07 61.98 62.05 61.53 64.42 64.47 64.39 63.73 62.54 62.13 61.15 60.32 58.79 58.03 56.70 55.54 54.36 51.65 50.48 50.78 49.49 49.36 49.17 49.37 50.65 48.74 48.47 47.22 49.12 48.55 52.06 51.54 50.23 48.58
56.24 55.36 55.35 55.87 57.18 57.92 57.66 56.08 58.63 59.53 60.89 60.86 61.30 63.60 63.74 64.04 63.60 62.63 62.57 61.35 59.28 58.24 57.05 55.48 54.50 52.26 51.95 50.97 51.86 50.06 49.33 49.67 48.98 48.13 47.79 48.87 47.96 47.18 46.61 45.95 45.39 45.55 49.19
57.16 56.78 57.39 57.98 58.52 59.38 58.92 58.50 60.06 57.53 59.31 60.05 63.21 64.33 64.22 64.07 63.12 62.37 61.44 60.01 58.67 57.80 56.32 56.41 53.39 50.87 48.84 49.19 48.14 48.26 48.54 49.43 48.76 48.03 47.68 46.95 46.91 46.63 46.01 45.32 44.03 43.16 43.57
57.82 58.42 59.63 60.32 60.51 60.31 60.86 61.52 61.21 59.41 59.41 60.59 63.59 64.01 63.46 63.05 62.56 62.25 61.06 59.32 58.87 57.47 56.82 55.10 52.84 50.17 50.09 49.85 47.82 47.78 45.74 45.81 46.94 48.08 46.85 46.93 45.25 45.81 46.16 46.24 44.56 43.95 42.41
58.98 59.35 60.36 61.10 61.26 61.54 62.05 62.17 62.03 60.44 60.08 59.75 62.78 63.24 63.30 63.79 63.02 61.40 61.11 59.78 58.79 57.98 55.85 54.62 52.77 51.04 48.03 48.84 49.33 46.75 43.80 43.26 44.71 46.06 46.19 45.41 45.04 44.35 44.38 45.30 44.86 44.43 43.59
60.28 60.88 61.12 61.00 60.95 61.76 62.39 60.87 60.33 57.80 56.46 59.43 62.01 62.89 63.07 63.60 62.91 61.80 60.99 60.34 59.40 57.60 56.06 54.21 53.61 51.06 49.16 47.51 49.84 50.83 48.84 48.10 42.55 39.79 43.66 44.65 45.28 45.19 44.22 43.46 43.31 44.11 43.90
61.78 61.56 61.77 62.15 62.02 62.48 62.73 62.41 61.10 58.54 58.98 60.06 61.80 62.03 62.23 62.44 62.47 61.37 60.94 59.57 58.15 56.69 54.61 54.09 52.47 50.58 50.06 48.39 47.15 46.76 48.11 48.88 45.96 42.19 38.96 42.35 42.84 43.70 43.97 44.45 42.93 42.80 43.45
61.65 62.20 62.63 62.12 62.30 62.78 62.83 62.52 61.98 59.42 59.92 60.16 60.52 60.96 61.24 61.23 61.87 60.85 59.30 58.04 53.87 52.72 51.72 50.98 51.35 49.97 50.00 49.21 48.57 47.95 48.00 46.73 43.23 41.23 40.10 40.07 40.51 41.99 42.93 42.74 42.32 41.41 41.73

GFSSE_sfc_wetblb_042.txt.gz
Wetbulb
68.80 70.57 71.55 72.00 72.33 71.72 70.82 70.44 70.14 70.13 70.41 70.86 71.37 71.62 71.91 71.71 70.91 70.69 70.59 70.10 69.85 69.76 68.45 68.75 68.85 68.34 68.03 67.48 67.14 67.45 67.93 67.83 67.83 68.13 67.67 66.34 66.43 66.89 67.16 66.84 67.35 65.98 68.03
67.07 70.30 70.34 70.99 71.67 71.40 70.72 70.24 70.08 69.94 70.49 71.15 71.46 71.32 71.70 71.13 70.71 70.47 69.98 69.63 69.30 69.14 68.52 68.74 68.46 68.15 67.99 67.46 67.96 68.14 68.17 67.75 67.11 66.81 66.75 66.54 65.97 66.07 66.04 66.27 66.67 65.34 67.20
66.31 70.20 70.04 69.84 71.17 70.91 70.59 70.40 70.04 70.12 70.88 71.33 71.24 70.97 71.46 70.61 70.35 69.93 69.42 68.80 68.62 68.58 68.36 68.34 68.02 68.03 67.68 67.45 68.08 68.07 67.44 66.61 66.48 66.52 65.54 61.53 63.24 65.99 66.23 65.44 65.88 65.26 65.62
65.46 68.56 68.63 69.20 70.36 70.60 70.14 70.06 69.63 70.39 70.95 71.09 71.07 71.07 71.42 70.42 69.95 69.51 68.95 68.32 68.20 68.08 67.63 67.66 67.47 66.31 65.35 66.12 66.82 67.39 66.48 65.66 65.17 63.78 61.31 61.85 63.49 66.14 66.27 65.83 65.35 64.90 64.05
62.40 64.78 68.42 69.28 69.18 70.09 69.98 69.47 69.31 69.91 70.17 70.39 70.62 71.29 71.48 70.25 69.90 69.49 68.52 68.19 68.02 67.71 66.95 67.15 66.05 64.59 64.87 65.52 66.17 65.83 65.60 64.96 64.22 61.50 58.51 59.33 61.06 63.37 65.02 64.79 64.20 64.22 63.79
65.72 67.30 68.85 68.63 69.46 69.69 69.22 69.34 69.43 69.54 69.44 69.76 70.25 71.01 71.16 70.22 69.93 69.37 68.27 68.19 67.77 66.96 66.16 65.28 64.44 64.22 64.65 66.08 65.67 65.20 64.15 63.17 60.97 57.14 57.35 60.92 59.27 63.22 63.37 63.19 62.43 61.95 61.72
65.65 66.93 68.22 67.85 68.34 69.01 68.49 69.38 69.60 69.32 69.36 69.71 70.06 70.29 70.34 69.97 69.70 68.95 67.98 67.40 67.07 66.31 64.73 63.83 64.05 64.68 64.37 65.93 65.02 64.17 63.21 62.33 57.59 56.04 56.12 56.99 58.95 62.84 62.75 62.29 61.91 61.58 61.39
64.24 66.48 67.85 68.86 68.57 68.09 67.91 69.01 68.78 68.86 69.64 69.76 69.89 69.93 70.28 69.53 68.87 68.54 67.62 67.26 67.08 66.11 65.19 64.60 64.20 63.97 63.42 63.97 64.35 63.14 62.57 61.54 58.39 56.62 56.71 57.54 62.17 62.21 62.33 61.63 61.09 60.85 60.50
65.21 65.25 64.78 64.77 65.42 66.93 65.72 67.61 67.77 68.25 68.77 69.17 69.37 69.45 69.48 68.32 68.00 67.98 67.61 67.11 66.21 65.28 64.49 63.94 63.35 63.04 63.26 62.75 63.31 62.32 61.64 61.04 55.74 56.37 57.79 56.91 62.49 62.13 62.00 61.39 60.78 60.29 59.99
63.50 63.61 63.87 65.03 64.58 62.22 63.29 67.09 67.51 67.56 67.31 67.55 68.09 67.82 67.23 67.33 67.66 67.25 66.56 66.16 65.55 64.69 64.09 63.44 62.52 62.87 62.37 62.13 62.74 62.05 61.41 59.69 54.76 55.72 56.56 58.73 62.16 61.89 61.44 60.90 60.18 59.60 58.95
63.14 63.33 62.94 63.01 63.56 63.36 63.84 67.15 67.22 67.32 66.59 66.43 66.73 66.26 65.17 64.97 64.67 63.62 65.01 65.33 64.71 63.45 63.07 62.72 62.16 60.98 59.08 60.57 61.67 61.05 59.47 55.77 55.72 55.89 56.72 62.60 61.95 61.33 60.64 60.22 59.76 58.83 58.49
61.01 62.10 62.23 61.30 62.06 62.74 64.41 64.86 64.75 64.57 62.95 62.24 61.41 61.06 61.75 61.74 62.88 63.29 63.83 63.91 63.37 63.09 62.70 61.98 61.01 59.55 56.93 51.42 52.70 56.86 52.97 54.80 55.54 56.22 57.72 62.46 62.04 61.45 60.97 60.25 59.13 58.65 57.96
59.42 60.89 60.69 60.56 61.34 61.13 62.25 62.88 61.77 60.93 60.11 59.67 59.85 61.11 61.15 62.27 62.27 61.30 60.98 60.17 59.90 60.73 57.97 57.25 54.50 53.72 53.33 51.37 50.07 50.01 51.62 51.86 53.23 55.25 59.69 62.23 62.05 61.86 61.32 59.80 59.25 58.35 57.66
57.80 58.54 60.01 60.03 59.99 60.28 60.78 61.23 60.79 59.69 60.36 60.58 59.90 60.69 60.17 59.49 58.27 57.89 58.71 57.73 55.65 54.24 53.79 53.44 53.71 53.47 52.41 51.53 50.46 50.48 50.90 50.84 51.80 53.34 56.91 61.26 62.34 61.82 61.32 60.67 58.80 58.37 57.56
54.86 55.96 57.24 58.48 58.59 58.57 59.59 58.93 59.97 60.43 60.93 61.20 60.62 60.62 59.50 57.99 56.89 56.49 56.34 55.36 53.59 52.96 52.32 54.07 53.15 52.80 52.00 51.03 49.68 49.76 50.45 50.10 51.21 52.74 53.67 59.41 61.52 61.98 61.46 61.09 59.74 57.73 57.61
55.02 55.14 55.60 56.21 57.29 58.23 58.12 58.72 58.91 58.84 59.69 60.82 60.65 60.57 59.51 58.31 57.00 56.59 56.61 54.11 53.48 53.78 52.58 54.59 52.93 52.03 50.46 48.89 48.78 48.94 49.07 50.79 51.08 52.47 53.57 56.97 60.73 61.39 61.32 60.73 59.81 58.23 56.70
55.36 55.76 55.19 55.60 56.91 57.26 57.49 58.22 58.31 58.62 58.57 58.04 58.46 59.36 59.53 59.10 58.34 58.31 58.01 55.69 55.01 55.15 55.32 54.32 53.25 51.96 50.03 49.63 48.09 47.94 47.83 50.27 50.50 51.61 52.95 53.72 56.51 59.27 60.04 60.52 58.78 57.96 56.56
55.32 55.20 55.91 56.80 56.26 56.42 56.74 57.36 57.54 57.26 56.74 56.18 55.35 58.75 59.51 59.59 59.77 58.80 59.18 57.81 56.94 55.89 55.55 54.13 52.43 50.43 49.65 47.96 46.41 46.61 46.70 47.11 49.06 50.35 51.70 51.63 52.11 53.28 56.84 58.31 58.10 56.21 55.29
54.68 54.67 54.83 55.63 55.58 55.64 56.27 56.78 57.40 56.03 54.13 53.99 54.42 56.37 58.47 59.03 59.31 58.47 57.87 57.68 56.92 55.51 53.42 53.39 51.11 50.46 47.81 46.51 46.53 45.85 45.52 45.40 45.86 50.39 49.92 50.31 49.87 50.03 49.98 55.90 56.09 55.55 54.61
53.87 54.48 54.70 55.08 55.40 55.58 56.20 56.61 56.29 54.35 53.01 54.05 52.82 54.91 57.43 58.72 59.59 59.14 57.81 57.92 56.43 54.44 52.94 52.01 50.98 50.20 48.76 47.54 48.98 46.71 44.21 45.05 44.78 44.81 46.70 49.90 48.46 48.37 47.93 48.95 50.02 49.65 53.25
52.60 52.49 53.62 53.97 54.50 54.40 54.59 54.85 54.01 52.54 51.25 52.82 53.54 56.07 58.74 58.77 60.24 58.72 57.83 57.60 55.80 55.13 54.45 52.90 50.61 48.35 46.40 46.22 44.34 43.42 43.74 44.17 44.19 43.69 43.30 44.63 45.83 47.20 46.06 45.92 44.55 42.82 46.44
51.51 52.47 53.01 53.68 53.58 53.81 54.66 54.50 53.46 53.25 52.01 53.58 54.38 56.59 59.74 60.40 60.42 59.54 58.10 57.36 55.79 54.44 53.50 51.82 49.86 46.51 45.69 45.04 43.37 43.40 41.61 44.07 43.75 44.43 43.07 43.29 42.83 46.78 45.70 44.13 42.65 41.81 42.14
50.77 51.52 52.88 53.25 52.82 53.64 53.87 52.56 51.02 51.94 53.57 53.62 54.85 55.93 58.37 60.33 60.42 60.33 58.35 57.31 55.71 55.18 53.87 51.68 49.49 47.89 45.62 44.74 45.59 44.59 41.08 40.99 42.10 43.05 43.82 43.74 44.12 42.14 42.40 42.83 42.44 42.57 42.22
50.66 51.86 52.79 53.39 52.60 53.25 53.68 52.11 51.40 52.05 51.55 54.40 55.92 56.42 57.92 59.92 59.99 59.50 58.97 57.30 55.57 55.11 53.65 52.85 49.94 47.70 47.84 46.41 47.79 49.07 48.14 46.25 41.99 40.26 42.31 44.98 44.44 42.56 41.16 40.97 41.54 41.46 41.32
51.34 50.89 51.44 52.57 52.70 53.64 54.02 53.22 52.11 51.83 53.84 55.96 53.35 54.87 57.20 58.51 59.46 58.37 58.39 57.62 55.99 55.16 54.83 53.29 49.53 48.43 49.84 49.41 48.98 47.31 47.81 47.68 45.79 43.67 41.09 42.67 43.11 43.30 42.67 41.51 41.70 40.96 41.05
52.44 51.44 51.80 51.54 52.20 55.59 54.63 54.52 54.22 53.90 55.35 56.18 53.76 54.36 56.56 58.14 58.97 58.64 58.50 58.57 57.12 56.63 55.22 53.58 51.66 49.29 49.28 48.55 48.51 48.80 48.16 46.91 46.39 44.83 42.14 41.64 41.01 42.37 41.35 41.02 40.37 40.14 39.90

GFSSE_sfc_wetblb_045.txt.gz
Wetbulb
68.52 70.25 70.92 71.16 71.59 71.20 70.89 70.51 70.41 70.55 70.95 70.79 71.18 71.81 71.37 71.10 70.76 70.49 70.20 69.71 69.39 70.12 69.12 68.52 68.03 67.69 67.43 67.50 67.30 67.25 67.28 67.92 67.32 67.03 67.28 66.82 67.57 67.49 67.64 67.65 67.61 65.93 67.85
69.31 70.11 70.09 69.53 70.77 70.77 70.96 70.57 70.36 70.72 71.30 71.59 71.64 71.12 71.07 70.90 70.44 70.17 69.51 69.24 69.77 69.80 68.86 68.41 68.16 67.92 67.65 67.18 66.84 66.65 66.26 66.73 66.88 67.03 66.72 65.99 66.24 66.45 66.45 66.31 66.75 65.67 67.22
68.74 69.81 69.56 70.01 70.45 69.95 70.02 70.50 70.89 71.26 71.42 71.71 71.36 70.95 70.90 70.48 70.15 69.44 68.88 69.17 69.73 69.84 68.76 68.55 68.36 68.14 67.66 68.00 67.23 67.01 66.27 66.33 66.30 65.96 65.28 62.90 62.38 65.16 65.27 65.10 64.95 64.93 65.66
68.85 67.97 68.56 69.78 69.65 69.27 68.92 69.25 70.54 71.34 71.34 71.61 71.17 70.83 70.48 70.22 69.68 68.95 68.24 68.78 69.46 69.50 68.30 68.05 67.76 67.78 67.35 67.19 67.08 66.42 65.47 65.07 64.61 63.57 60.80 62.39 63.73 65.73 65.76 64.85 64.40 63.80 63.58
64.62 67.87 67.13 69.20 68.53 68.11 67.59 68.38 70.24 70.39 70.47 71.08 70.50 70.59 70.12 69.75 69.44 68.54 67.71 68.31 69.24 68.61 67.34 66.16 64.94 64.87 66.85 67.45 66.10 65.79 64.84 64.26 62.96 60.18 57.37 60.19 61.14 63.45 64.54 64.11 62.90 62.51 62.31
62.93 64.49 67.35 68.44 68.20 67.99 67.42 67.14 69.88 70.12 69.88 70.24 69.81 69.90 69.90 69.51 69.15 68.25 67.37 68.07 68.97 67.57 65.57 64.67 65.57 66.30 66.34 65.75 65.46 64.50 63.61 62.48 60.56 56.30 56.91 60.44 58.94 63.31 62.82 62.38 61.93 61.63 61.62
63.85 63.44 66.11 67.54 67.63 67.67 66.90 67.38 69.69 69.44 69.49 69.81 69.42 69.33 69.26 69.02 68.61 67.69 67.08 67.54 67.32 66.34 64.61 65.50 67.35 66.62 65.68 65.04 64.26 63.56 62.86 61.41 56.48 55.27 55.75 56.75 58.81 62.61 62.63 61.95 60.92 60.76 60.57
63.93 65.36 66.02 67.45 67.57 66.75 65.70 65.88 68.63 68.99 69.03 69.14 69.08 69.02 69.07 68.40 67.91 67.46 67.07 66.44 65.85 65.11 64.61 64.98 65.89 65.59 65.14 64.33 63.55 63.13 62.37 61.50 57.77 56.20 56.43 57.28 61.74 62.12 62.26 61.32 60.78 60.31 60.15
64.46 66.42 65.89 66.02 66.40 65.49 63.13 63.33 66.07 68.62 68.50 68.38 68.68 68.50 68.29 67.46 67.00 67.01 66.20 65.46 64.75 64.18 63.73 63.63 63.63 64.72 64.53 63.96 63.17 62.21 61.36 60.17 54.91 55.84 57.45 57.00 62.05 62.02 61.38 61.02 60.39 59.94 59.40
63.67 63.66 64.20 63.99 64.80 64.19 64.11 64.40 65.88 67.68 68.27 68.21 68.58 67.84 67.30 66.79 66.64 66.03 65.12 64.81 64.49 63.84 63.79 63.08 63.28 64.11 64.56 63.26 62.38 61.76 61.19 59.51 54.91 55.37 56.41 59.10 62.12 61.82 61.26 60.41 59.74 59.48 59.03
62.60 62.00 62.78 63.82 63.70 60.02 60.74 62.09 65.58 68.07 68.17 67.84 67.51 66.92 65.21 64.41 63.37 61.71 63.88 64.04 63.62 62.61 62.35 62.24 61.40 63.29 63.29 62.61 62.20 61.39 58.74 55.01 55.24 55.51 56.75 62.37 61.93 61.86 60.44 59.69 59.29 58.88 58.39
60.12 59.96 61.27 61.15 60.99 60.01 59.95 61.58 63.38 66.05 65.90 65.69 65.57 63.59 62.48 61.60 61.14 61.55 62.38 63.05 63.16 62.40 61.97 61.81 60.51 59.36 57.17 55.72 58.94 58.57 54.68 55.04 55.45 55.83 57.41 62.46 62.31 61.72 61.06 59.82 58.44 58.07 57.79
60.46 59.53 60.17 60.67 60.41 60.23 60.89 61.27 61.80 61.36 61.67 62.43 62.56 62.04 61.07 61.51 61.11 60.44 58.98 58.33 57.86 58.95 54.79 53.61 53.61 52.41 50.39 50.95 51.64 52.43 53.51 53.96 54.65 55.97 59.92 62.21 62.12 61.35 61.23 60.24 58.62 58.00 57.29
59.60 59.13 59.42 61.16 60.85 59.86 59.81 60.11 61.28 60.86 60.38 60.92 60.84 60.70 60.22 59.82 57.93 57.48 56.97 56.56 55.72 53.99 52.19 51.86 51.89 50.90 49.77 49.96 50.97 51.89 51.94 53.26 53.23 54.35 58.63 61.66 62.33 62.02 61.44 60.29 59.38 58.05 57.33
57.40 58.77 59.19 59.03 58.50 60.49 60.26 60.06 59.59 59.70 59.79 60.30 60.18 59.81 59.00 58.06 56.84 55.65 55.19 54.06 53.09 51.35 51.23 52.12 50.90 50.73 49.31 49.27 50.20 51.41 50.58 50.74 51.90 52.97 53.83 61.04 61.79 61.97 61.67 60.92 59.87 58.95 57.68
56.77 57.88 58.96 59.03 58.59 59.18 59.38 59.08 59.46 60.12 59.69 60.00 58.20 57.66 57.26 57.25 56.31 55.26 54.12 52.89 51.72 50.74 52.44 52.07 50.85 49.45 48.32 48.50 48.50 49.72 49.30 49.72 50.84 51.80 53.28 56.03 60.61 61.53 61.82 60.99 60.04 58.46 57.93
55.65 56.59 57.55 57.89 58.78 58.92 58.20 58.49 58.57 59.53 60.02 59.79 59.28 58.02 56.84 56.73 55.99 55.77 54.43 52.56 52.64 51.52 52.74 51.72 50.53 48.86 47.22 47.82 47.27 48.53 49.87 50.03 50.59 51.34 53.39 55.08 58.17 59.84 60.52 61.27 59.86 58.23 57.63
55.54 55.40 56.42 58.44 58.24 57.52 57.16 58.34 57.78 58.02 58.32 57.72 59.17 59.00 57.83 57.53 57.41 56.14 55.30 53.81 53.64 53.28 53.73 52.55 51.10 48.87 47.74 46.28 45.76 45.58 47.17 49.41 48.72 50.45 51.81 52.89 54.00 55.58 58.73 59.92 59.74 58.65 57.14
55.46 55.54 55.79 56.84 56.93 57.05 57.03 57.76 56.90 56.09 55.16 55.74 57.04 58.54 58.70 58.25 58.54 57.03 57.10 55.91 55.46 54.53 54.05 53.52 50.56 49.45 47.44 45.31 45.38 44.86 44.52 45.80 47.12 49.99 50.24 51.34 51.67 52.13 52.06 57.73 57.72 57.03 56.73
55.02 55.47 55.63 55.93 56.19 56.64 56.75 56.66 56.45 55.51 53.81 53.76 54.19 56.93 57.90 57.83 58.51 57.75 56.82 56.89 56.33 55.07 53.26 52.29 50.07 48.80 47.40 45.99 47.44 45.29 43.31 43.66 43.72 46.37 48.03 50.14 49.75 49.73 49.61 50.63 51.61 51.69 55.58
54.10 54.52 54.77 55.09 55.57 56.05 55.51 55.19 54.58 53.47 53.15 53.23 53.79 55.77 55.58 56.92 58.39 57.14 56.27 56.23 55.33 54.44 53.69 52.51 49.52 48.40 46.26 45.76 44.35 43.15 43.15 43.39 43.34 43.12 44.28 46.61 47.64 48.38 47.35 48.05 47.66 46.62 49.47
52.48 53.07 54.13 54.54 55.02 55.17 55.77 55.51 55.25 52.44 52.91 52.83 53.77 53.59 56.24 57.56 57.46 57.88 56.93 56.39 55.20 53.64 52.20 51.01 49.67 46.61 46.00 45.15 43.05 41.96 40.19 42.77 43.36 44.79 42.67 43.54 44.41 46.32 46.16 46.15 45.71 43.84 42.80
50.64 51.39 52.66 54.07 54.50 55.04 55.16 52.83 51.59 52.75 52.45 51.53 51.28 52.21 54.01 57.20 58.33 58.22 57.36 56.86 55.42 53.96 52.60 51.50 49.12 47.70 44.91 43.87 44.91 45.27 40.35 40.79 43.67 44.89 44.29 43.76 43.52 43.69 46.67 46.57 44.81 42.51 41.38
50.22 51.54 52.46 53.20 53.73 53.98 53.04 51.74 51.01 51.47 50.59 51.48 51.04 51.85 53.40 56.31 58.15 59.16 58.53 57.12 55.79 54.63 52.92 52.49 50.67 47.73 47.35 44.19 46.72 47.78 48.12 45.93 43.01 42.25 42.33 44.51 44.99 44.30 43.83 43.49 43.50 41.46 41.33
50.96 50.78 51.97 52.80 52.89 53.08 52.70 52.10 50.90 50.10 51.31 51.66 52.18 52.80 53.53 55.04 57.51 58.31 58.17 57.31 56.19 55.16 54.14 53.70 51.51 51.22 48.94 48.30 47.22 47.28 47.02 46.82 45.30 43.85 40.87 43.72 43.09 44.46 43.92 43.44 43.58 42.76 41.20
50.75 50.82 51.25 51.95 52.45 52.77 52.78 52.35 51.03 50.65 49.99 51.20 52.73 53.02 53.95 54.04 56.07 56.91 56.98 57.42 56.49 55.26 54.35 54.69 54.31 51.50 50.16 49.69 48.46 47.69 46.56 46.87 45.33 44.43 41.27 40.18 41.70 44.05 44.15 44.31 42.87 42.25 40.41

GFSSE_sfc_wetblb_048.txt.gz
Wetbulb
66.79 64.43 71.53 71.47 71.03 71.01 70.58 70.72 70.82 71.36 71.84 72.07 71.81 71.93 71.66 71.69 71.59 71.17 70.37 70.07 69.94 70.14 69.16 68.65 68.37 68.20 68.25 68.08 67.07 66.83 67.23 67.59 67.49 67.61 68.43 67.88 68.24 68.37 68.09 67.64 67.42 66.21 67.97
68.59 70.19 70.52 71.05 70.92 70.45 70.93 70.68 70.47 70.55 71.05 71.64 71.71 71.44 71.32 71.07 70.90 70.10 69.78 69.90 69.97 69.65 68.36 67.97 67.55 67.26 67.35 67.01 66.96 67.12 67.05 66.86 66.69 66.87 66.91 66.85 66.63 66.65 67.18 66.43 66.87 65.64 67.02
68.50 69.19 67.95 70.42 70.84 70.77 70.57 70.81 70.92 71.03 71.56 71.56 71.29 71.14 70.87 70.61 70.07 69.68 69.71 69.63 69.77 69.57 68.57 68.47 68.13 67.89 67.44 66.69 66.96 66.96 66.46 66.32 66.00 64.94 65.36 62.09 62.20 65.20 65.12 64.58 65.35 64.72 65.28
68.66 68.06 68.38 70.01 70.14 70.51 70.54 70.77 70.93 71.71 71.73 71.29 71.11 70.72 70.55 70.19 69.76 69.93 69.39 69.15 69.46 69.60 68.52 68.67 68.92 67.98 67.05 66.89 66.79 66.19 65.37 64.85 64.22 64.21 63.07 63.63 63.52 65.47 65.13 64.44 63.75 63.48 63.78
67.73 67.15 68.49 69.21 68.72 69.46 69.92 70.38 70.60 71.15 70.97 70.64 70.69 70.51 70.24 69.88 69.85 69.83 69.27 69.05 69.54 69.44 68.28 68.53 68.29 67.34 66.88 66.44 66.11 65.56 64.04 63.53 62.77 60.13 60.46 60.99 61.15 63.28 63.34 62.55 62.28 62.64 62.31
64.87 66.86 68.36 67.95 68.49 68.39 68.74 69.83 70.04 70.54 70.00 69.85 69.85 69.96 69.66 69.37 69.81 69.49 68.70 68.83 68.89 67.24 66.17 66.21 67.25 67.49 66.36 65.64 65.32 64.08 63.50 62.55 60.61 57.28 58.58 60.80 59.43 62.78 62.67 62.21 61.51 61.57 61.04
63.45 65.61 66.97 67.25 67.31 67.63 67.87 67.95 68.83 69.46 69.65 69.41 69.48 69.18 68.85 68.76 68.83 68.70 68.27 67.74 66.78 66.55 66.37 67.27 66.98 66.47 65.86 65.02 64.34 63.38 62.83 61.18 56.83 56.12 56.60 57.50 59.58 62.78 62.28 62.06 61.35 61.13 60.90
63.37 63.66 65.47 67.57 67.51 66.89 65.51 65.21 66.71 67.57 68.75 68.89 68.89 68.66 68.61 68.05 67.90 68.04 67.13 66.09 66.35 67.77 67.60 67.36 66.29 65.72 65.01 64.33 63.39 63.04 62.32 61.16 57.67 56.98 57.04 58.52 62.21 62.11 62.04 61.09 60.67 60.20 60.03
64.17 62.76 62.71 65.21 66.39 66.00 64.34 64.34 65.14 66.74 67.88 68.42 68.37 68.20 67.77 67.10 66.80 66.81 65.80 65.44 65.96 66.86 66.38 65.93 65.28 64.65 64.50 63.63 63.21 62.33 61.68 60.42 55.92 56.88 57.67 58.28 62.24 61.61 61.48 60.92 60.34 59.82 59.47
63.82 64.69 63.12 64.89 64.16 63.05 62.98 63.12 63.54 65.44 66.36 67.93 67.99 67.65 66.79 66.43 65.90 64.74 64.31 64.41 64.43 64.72 65.31 65.63 64.70 64.31 63.94 63.01 62.24 61.96 61.46 59.80 55.55 56.26 57.06 59.72 61.81 61.58 61.34 60.71 60.10 59.43 59.08
62.13 62.90 64.50 64.16 61.55 60.72 60.28 62.06 62.89 63.11 66.61 67.38 67.60 66.72 64.62 62.63 61.83 59.97 62.78 63.74 63.20 62.67 63.71 64.73 64.64 63.65 62.86 62.63 62.31 61.59 58.97 55.73 56.01 56.51 57.40 62.12 61.60 61.64 60.97 60.27 59.54 58.89 58.41
59.48 61.15 62.37 63.13 62.28 61.24 61.76 59.63 59.34 61.51 64.70 66.41 65.77 64.01 62.58 60.81 59.23 59.76 61.84 62.29 62.19 62.25 62.73 64.32 63.88 62.90 60.64 58.58 59.43 59.05 55.54 55.54 55.79 56.41 58.06 62.13 61.86 61.36 60.50 59.66 59.02 58.23 57.77
59.21 59.64 60.31 60.00 59.37 60.07 60.87 60.74 60.96 61.99 62.96 64.24 63.16 62.63 60.64 59.97 60.09 58.28 58.00 57.91 57.14 57.56 55.53 56.93 55.73 54.80 54.12 55.20 54.14 54.47 55.19 55.62 55.81 57.22 60.36 62.16 61.72 61.48 60.66 59.50 58.55 58.11 57.43
58.41 58.97 59.64 58.40 57.60 58.89 60.12 60.89 60.80 60.84 60.75 61.96 61.83 61.08 60.17 59.51 57.92 56.65 55.43 54.16 52.36 51.39 51.45 51.57 51.09 50.53 51.71 53.14 54.00 53.88 54.13 54.74 55.35 56.85 59.97 62.02 62.16 61.67 61.04 60.13 59.02 58.19 57.40
57.71 58.93 59.82 59.01 58.26 57.73 58.24 59.76 59.79 60.05 60.38 61.03 60.81 60.46 58.93 58.09 56.70 55.37 54.19 52.84 51.53 51.47 51.77 50.45 49.80 49.22 49.80 50.97 52.38 52.86 53.16 53.68 54.62 55.50 57.26 61.42 62.00 61.84 61.51 60.88 59.89 58.67 57.81
58.43 58.59 59.75 59.14 59.03 58.65 58.10 58.60 59.20 60.26 60.46 60.77 59.87 58.41 58.70 57.23 56.01 54.55 52.89 51.96 50.50 51.54 51.92 50.67 50.09 48.55 48.62 49.80 50.37 50.98 51.29 51.24 52.28 53.52 54.91 58.62 60.59 61.65 61.95 60.92 60.08 59.54 58.48
56.65 58.91 58.53 58.56 59.80 58.73 58.56 59.32 59.35 59.91 59.56 60.10 59.11 57.24 57.14 57.03 55.50 54.69 52.91 51.42 50.94 51.16 52.20 50.61 49.71 47.61 46.74 48.51 48.83 49.49 49.41 49.96 50.25 51.65 53.86 55.55 58.10 60.05 60.92 61.53 60.05 59.08 58.71
55.99 57.11 58.78 59.35 59.14 59.27 58.98 58.50 58.89 59.51 59.61 59.58 58.44 57.44 56.98 56.44 55.84 54.08 53.08 51.98 51.21 51.39 52.39 51.14 49.72 47.54 46.61 46.30 46.34 47.70 48.71 49.39 49.67 50.89 53.35 55.33 56.49 57.18 59.33 60.25 60.63 59.70 58.26
55.67 56.13 57.47 58.46 58.18 58.03 58.02 58.12 56.83 56.60 58.90 57.97 58.04 57.72 56.91 56.67 56.53 55.25 53.91 53.09 52.83 52.48 53.12 52.14 50.25 49.33 47.05 45.67 45.47 45.42 46.60 47.78 47.84 50.64 51.59 53.11 54.28 55.10 55.61 58.96 59.04 58.71 58.72
55.45 56.04 56.93 57.59 57.68 57.27 57.52 57.07 55.99 55.27 53.48 56.76 56.91 58.31 57.92 57.48 57.52 56.65 56.00 54.44 54.36 53.12 53.26 52.40 50.25 49.00 48.48 46.35 46.78 44.99 43.67 44.35 45.87 47.93 49.09 51.30 51.88 52.70 52.87 54.27 55.54 54.53 56.91
55.00 55.24 55.65 56.09 56.95 57.00 56.53 55.45 55.46 55.18 53.29 52.87 53.99 56.54 58.35 58.30 58.24 57.47 56.80 56.68 55.91 54.13 53.35 52.02 49.50 48.36 46.41 45.54 44.28 43.77 43.94 44.12 44.02 43.97 46.56 48.22 50.23 50.88 50.44 51.00 51.48 50.47 53.06
53.92 54.70 54.62 55.43 55.91 56.76 56.88 57.00 55.56 55.61 53.42 53.03 53.70 54.90 56.86 57.69 58.28 58.28 56.19 55.83 55.01 53.77 52.12 50.59 49.88 47.49 47.06 45.88 43.93 42.57 41.28 42.89 43.93 44.01 43.42 45.32 47.24 48.99 48.95 49.42 49.57 49.01 48.91
52.98 53.74 54.34 55.13 55.37 56.30 56.82 56.14 52.93 53.14 52.67 52.16 52.19 53.11 54.36 56.37 56.96 57.26 56.90 55.87 55.22 53.87 52.01 50.50 49.42 47.74 45.77 44.82 44.79 44.77 41.62 41.40 44.01 44.86 43.96 43.79 44.01 45.13 48.06 48.36 48.06 47.65 46.49
52.35 53.33 54.12 54.72 55.17 55.32 55.94 54.42 53.70 53.97 53.78 54.35 52.01 52.42 53.46 55.01 55.14 56.71 56.96 56.11 55.31 54.06 52.71 51.83 50.46 48.05 46.70 44.75 44.49 46.30 47.08 46.83 42.55 42.11 42.99 43.58 43.89 44.25 45.17 46.47 46.58 46.05 45.18
51.33 51.65 51.65 53.30 54.30 55.18 53.94 53.96 52.46 52.10 53.46 52.01 50.39 50.49 51.10 52.82 54.62 56.02 56.78 56.03 54.99 54.44 53.83 52.79 50.84 48.59 48.15 47.16 48.11 47.69 47.60 47.21 46.07 44.77 42.50 42.71 43.53 44.32 44.93 44.23 45.39 45.41 44.62
49.96 50.36 51.26 51.83 52.42 53.36 52.71 52.29 52.18 52.13 51.37 50.46 49.90 50.39 51.22 51.98 53.07 54.78 56.01 56.23 55.75 54.87 53.92 53.40 52.32 50.75 51.40 50.64 50.42 49.86 48.47 47.44 45.75 44.10 43.30 43.13 43.15 44.08 44.53 44.35 44.05 44.33 44.06

GFSSE_sfc_wetblb_051.txt.gz
Wetbulb
66.87 68.93 71.03 71.26 71.75 72.00 72.39 72.18 72.06 72.07 72.40 72.60 72.28 72.17 72.21 72.41 72.21 71.84 71.75 71.51 71.46 71.38 70.13 69.51 69.42 68.97 68.00 67.79 68.20 67.94 68.49 68.94 68.97 69.08 68.91 68.96 68.76 68.67 68.25 68.37 68.30 67.07 68.39
66.48 69.80 70.47 70.82 71.59 71.79 72.16 72.26 72.03 72.09 72.42 72.48 72.03 71.99 72.06 72.13 71.74 71.21 70.77 70.57 70.67 70.44 69.13 68.81 68.31 67.47 67.56 67.13 67.26 67.79 67.91 67.59 67.68 67.96 68.18 67.74 67.52 67.65 67.33 67.28 67.68 66.76 67.04
65.76 69.64 70.26 70.34 71.17 71.48 71.81 71.93 72.23 72.44 72.40 72.28 71.89 71.66 71.66 71.25 70.60 70.25 69.84 69.62 69.75 69.62 68.30 68.02 67.69 67.52 67.66 66.99 67.53 67.21 66.68 66.39 66.12 66.03 66.59 65.49 64.89 65.97 65.55 66.08 65.81 65.24 65.43
68.13 70.18 70.45 70.18 70.20 70.98 71.17 71.03 71.31 72.09 72.18 71.74 71.61 71.39 71.12 70.57 70.40 70.16 69.59 69.23 69.32 69.49 67.99 67.87 67.67 67.17 66.99 66.72 66.95 66.64 66.46 66.46 66.36 66.22 64.67 64.13 64.06 65.16 65.24 64.78 64.59 64.47 64.09
68.65 69.51 70.20 69.94 69.99 70.69 70.78 70.83 71.18 71.26 71.04 70.94 70.92 70.95 70.49 70.47 70.55 70.01 69.47 69.47 69.36 69.30 68.39 68.18 67.69 66.92 66.68 66.58 66.02 65.71 65.00 64.17 64.65 64.07 64.28 64.13 63.21 62.98 64.04 63.61 63.26 63.21 62.95
67.14 68.98 69.19 69.15 69.77 70.56 70.89 70.77 70.77 70.40 69.98 69.86 70.10 70.19 70.23 70.50 70.30 69.86 69.20 69.27 69.46 69.37 69.06 67.85 66.82 66.52 66.56 65.64 65.28 64.54 63.98 63.98 63.40 62.75 61.89 61.46 62.55 63.34 63.21 62.62 62.43 62.05 61.78
66.38 69.46 68.94 67.84 68.47 70.15 70.69 70.84 70.53 70.01 69.61 69.62 69.61 69.38 69.71 70.08 69.75 69.29 68.78 68.69 68.79 68.81 68.20 67.74 66.15 65.93 65.74 65.02 64.48 63.56 63.04 62.92 62.36 62.18 62.09 62.28 62.36 63.00 63.12 62.33 61.82 61.33 60.63
64.24 67.70 68.61 68.13 67.80 68.37 69.27 69.36 69.22 69.21 69.31 69.09 68.89 68.79 69.43 69.16 68.72 68.56 67.84 67.28 67.21 67.71 68.17 67.42 66.26 65.66 64.77 64.31 63.60 63.14 62.45 62.05 61.73 61.65 61.92 62.07 62.41 62.34 62.41 61.59 60.86 60.37 60.16
65.20 64.12 66.76 67.11 66.33 65.75 66.29 67.10 67.39 68.04 68.22 68.18 67.96 67.79 68.00 67.83 67.69 67.15 66.88 67.75 67.66 67.84 67.11 66.49 65.67 65.09 64.42 63.77 63.22 62.43 61.75 62.14 61.39 61.46 61.26 61.57 61.96 62.14 61.93 61.21 60.67 59.92 59.41
65.26 64.45 64.48 65.05 66.36 64.66 64.85 64.53 66.22 66.95 66.41 66.67 67.41 66.93 66.60 66.83 66.38 66.00 66.57 67.83 67.74 67.04 66.34 65.66 65.09 64.66 64.07 63.34 62.67 62.15 61.67 61.82 61.51 61.51 61.55 61.42 62.08 61.90 61.58 60.86 60.46 59.74 59.13
62.87 65.40 65.80 66.14 65.69 64.44 63.32 63.33 65.29 66.43 66.21 65.38 66.90 66.12 65.24 66.03 64.47 63.98 64.92 66.31 66.32 65.18 64.87 64.85 64.40 63.84 63.08 62.78 62.45 61.89 61.50 61.14 61.29 61.51 61.52 62.14 62.08 62.05 61.42 60.49 59.92 59.43 58.94
61.33 63.31 64.17 64.02 63.76 63.00 62.11 62.27 64.09 64.86 64.46 64.46 66.99 66.55 65.26 64.81 63.39 62.52 63.69 64.14 64.59 64.72 64.45 64.25 63.56 62.95 61.91 61.43 61.49 60.62 60.91 61.53 61.40 61.36 61.02 62.09 61.96 61.82 61.12 59.95 59.44 59.09 58.21
60.91 61.08 61.85 61.73 61.80 61.42 61.23 60.77 60.72 62.71 63.22 63.59 66.18 65.21 63.93 62.90 63.38 62.81 62.29 62.41 63.80 64.16 64.08 63.10 62.27 61.40 61.38 60.86 60.42 60.61 61.22 61.27 61.14 61.52 61.54 62.09 61.59 61.18 60.81 59.79 59.00 58.68 57.75
58.89 59.34 60.53 61.57 61.11 60.95 60.76 59.41 60.69 61.94 62.33 62.17 65.40 63.37 61.86 61.93 61.54 60.83 60.23 60.10 60.07 61.82 63.28 62.00 60.70 61.00 60.67 60.25 60.08 60.39 60.70 60.63 61.04 61.40 61.53 61.61 61.85 60.94 60.66 59.66 59.14 58.35 57.57
58.50 58.88 58.51 58.73 59.41 60.20 58.97 59.99 60.66 61.08 61.57 62.55 63.74 62.34 61.21 60.83 60.49 59.32 59.18 58.17 58.26 59.24 59.97 59.82 59.65 59.47 59.34 59.50 59.86 59.75 59.97 60.69 61.34 61.48 61.64 61.45 61.87 61.81 61.19 60.57 59.67 58.88 57.71
59.37 59.45 58.52 58.66 59.06 59.38 59.13 58.94 59.99 60.06 60.68 61.75 62.53 61.35 60.97 60.48 59.70 58.34 57.75 57.52 57.47 57.96 58.39 58.59 58.77 58.83 58.59 58.89 58.65 59.39 59.53 60.15 60.62 61.19 61.55 61.79 61.00 61.63 61.70 61.21 60.48 59.55 58.33
58.84 59.34 58.80 59.18 59.02 58.98 58.65 58.84 60.04 59.96 60.77 61.64 61.19 61.04 61.24 60.35 59.79 59.23 57.63 57.19 58.00 57.93 57.11 56.56 56.23 57.42 57.25 57.57 57.65 58.23 58.31 58.45 58.62 59.20 60.71 61.38 61.39 60.16 61.06 61.79 60.71 60.04 59.09
57.50 59.01 58.91 59.53 58.11 58.70 59.08 59.40 59.90 59.86 60.11 60.64 60.56 61.50 60.68 59.65 59.44 58.44 57.20 57.36 58.43 58.11 57.09 55.93 54.91 55.51 55.71 56.12 55.34 55.56 55.27 55.47 55.84 56.71 58.94 60.75 60.96 60.54 60.49 60.67 61.08 60.60 59.51
57.46 57.99 58.69 58.72 58.17 58.92 59.01 59.49 59.82 59.39 59.14 59.16 60.16 60.76 60.33 59.65 58.98 58.68 57.77 57.77 57.76 57.78 56.93 55.97 54.33 54.66 53.56 53.71 54.01 54.52 54.71 55.01 54.84 54.60 56.24 58.83 60.65 60.90 60.76 59.98 59.74 59.47 59.69
57.98 58.42 58.72 58.51 58.62 58.92 58.75 58.83 58.65 58.81 57.89 59.03 59.94 60.09 59.74 59.72 59.39 59.02 58.05 57.85 57.75 58.22 57.48 56.77 55.74 55.30 54.20 53.07 51.49 51.58 52.88 54.87 54.81 55.17 55.96 56.36 58.65 60.34 60.66 60.79 60.67 59.65 58.19
57.48 57.10 57.79 57.94 57.54 57.78 57.10 57.04 56.35 56.18 57.01 57.92 60.67 61.02 60.72 60.47 60.23 60.03 59.34 58.54 57.94 56.98 58.45 58.13 56.61 55.41 53.68 53.24 51.61 51.43 51.63 52.18 52.42 53.30 54.39 54.94 55.09 57.55 59.20 59.62 59.96 59.30 57.39
56.48 57.16 56.45 57.27 57.26 57.53 57.24 57.74 57.77 56.79 56.23 57.86 58.55 59.94 60.93 60.82 60.06 60.37 60.37 59.52 58.92 57.91 58.25 58.03 56.81 55.31 55.44 53.62 52.57 52.43 49.84 50.70 50.99 51.64 51.68 52.91 54.47 55.21 56.47 57.54 58.35 56.43 57.30
55.37 56.07 56.44 56.29 56.90 57.50 58.04 56.60 55.47 54.53 54.55 54.56 55.91 56.92 58.96 60.43 60.41 60.91 61.43 61.33 60.13 60.34 58.48 58.70 58.09 56.72 55.14 53.63 53.97 54.37 49.70 50.22 52.24 52.86 52.20 50.65 50.48 53.86 55.09 55.82 56.33 56.30 56.22
55.77 56.77 56.96 57.52 56.87 57.26 57.58 56.06 54.79 55.52 54.56 54.92 55.43 55.66 55.51 58.43 60.10 61.00 61.85 61.17 60.31 60.64 60.19 60.09 58.50 58.21 57.77 55.08 53.16 52.56 54.25 54.28 50.86 48.74 50.24 51.90 52.11 51.13 53.05 53.17 54.40 54.94 55.00
55.93 56.02 56.20 57.55 57.85 57.84 56.93 56.77 55.09 56.41 56.80 56.39 55.76 54.17 54.68 57.40 58.56 59.25 60.02 60.93 61.06 60.88 60.78 60.52 58.71 57.39 57.19 57.81 55.07 53.92 52.48 50.90 50.08 47.56 49.68 47.90 47.78 51.58 52.04 51.88 51.02 53.66 53.17
54.75 53.77 55.14 56.34 56.90 57.72 57.68 57.25 56.46 56.37 56.58 55.99 54.68 54.06 55.45 56.07 57.50 58.22 58.60 60.15 61.02 61.08 60.83 60.50 60.20 58.53 57.75 56.75 56.25 55.77 53.80 49.99 47.41 46.42 45.61 49.68 47.13 52.05 48.73 48.73 50.22 50.54 51.71

GFSSE_sfc_wetblb_054.txt.gz
Wetbulb
69.50 71.45 71.33 72.40 73.02 72.83 72.40 72.12 72.00 72.22 72.59 72.74 72.43 72.58 72.39 72.42 72.34 72.04 71.67 71.53 71.33 71.52 70.61 70.35 69.72 69.51 69.85 69.73 69.30 69.13 69.29 69.48 69.31 69.66 69.39 69.45 69.20 69.27 68.95 69.20 68.83 67.99 68.39
71.22 71.56 70.67 71.72 72.74 72.78 72.43 71.94 72.19 72.22 72.59 72.73 72.29 72.51 72.19 72.46 72.36 72.29 71.85 71.26 71.09 71.14 70.08 69.53 68.80 68.46 69.05 68.47 68.35 68.82 68.84 68.81 68.59 68.79 68.88 68.40 68.45 68.25 67.98 67.83 68.13 67.16 67.11
70.52 71.44 71.47 71.20 71.43 72.83 72.56 72.47 72.39 72.76 72.65 72.43 72.31 72.36 72.23 72.23 72.03 71.47 71.01 70.67 70.69 70.68 69.52 68.46 68.01 67.72 67.86 67.57 67.80 67.46 67.39 67.42 67.59 67.45 67.60 66.11 65.28 66.72 66.49 66.00 66.29 65.84 65.55
69.76 71.24 70.75 70.97 70.85 72.44 72.31 72.25 72.33 72.66 72.50 72.16 72.20 72.20 71.84 71.40 71.11 70.57 69.98 69.57 69.63 69.73 68.48 68.29 67.96 67.16 66.94 67.54 67.30 67.35 67.08 66.32 66.00 66.82 65.72 66.27 65.18 65.86 66.03 65.41 65.14 64.75 64.64
69.87 70.54 70.14 70.24 70.99 71.22 71.95 72.02 71.90 71.82 71.58 71.38 71.58 71.69 71.28 70.96 70.77 70.18 69.23 68.88 69.34 69.16 67.65 67.68 67.77 67.14 66.72 66.83 66.55 66.13 66.45 66.65 66.51 65.66 64.86 64.77 65.06 64.57 64.67 64.28 64.11 63.88 63.40
69.57 70.88 70.04 69.37 70.14 70.67 71.39 71.52 71.48 71.13 70.76 70.52 70.49 70.80 70.98 70.94 70.59 69.91 69.01 69.13 69.61 69.39 68.07 67.33 67.07 66.52 66.17 65.91 65.59 65.26 65.42 65.40 65.49 64.22 63.84 64.30 63.71 63.54 63.37 63.05 62.22 62.36 61.99
66.30 70.76 70.82 68.59 69.69 69.73 69.74 71.25 70.97 70.39 70.05 70.00 69.95 70.01 70.17 70.24 70.02 69.49 68.86 69.13 69.08 69.03 67.47 66.56 66.29 65.57 65.55 65.32 64.68 64.56 64.07 64.16 63.78 63.53 63.94 63.68 63.96 63.37 63.33 62.76 61.73 61.77 61.26
66.83 70.41 70.58 69.44 68.79 68.54 69.12 69.18 69.56 69.27 68.99 69.39 69.31 69.74 69.97 69.55 69.25 69.02 68.95 68.66 68.29 67.99 67.22 66.85 66.28 65.48 64.88 64.39 63.74 63.65 63.43 63.64 63.69 63.30 63.45 63.29 63.31 62.88 62.79 61.49 61.19 60.74 60.55
66.82 66.14 69.82 69.59 68.98 67.75 67.30 68.17 68.18 68.38 68.37 68.51 68.85 68.95 68.91 68.40 68.36 68.29 67.96 67.91 68.18 67.80 66.93 66.48 65.92 65.21 64.67 63.86 63.59 63.03 62.74 64.19 63.62 63.24 62.71 62.92 62.43 62.40 62.24 61.37 60.77 60.20 59.99
67.76 64.65 66.49 66.74 68.21 69.15 68.45 66.10 67.27 67.40 67.40 67.64 68.11 67.72 67.51 67.35 67.05 67.20 67.19 68.14 68.09 67.11 66.42 66.01 65.26 64.73 63.85 63.54 63.00 62.42 62.11 62.74 63.37 62.98 62.92 62.69 62.41 62.35 61.91 61.19 60.44 59.95 59.60
65.12 66.01 65.67 63.61 64.22 66.39 66.29 65.77 66.81 67.19 66.69 66.72 66.87 66.42 65.92 66.89 66.33 66.14 65.89 67.17 66.92 65.68 65.27 65.16 64.66 63.85 63.42 63.11 62.74 62.01 61.96 63.03 63.17 62.86 62.39 62.58 62.48 62.23 61.72 60.79 60.08 59.57 59.43
62.69 63.89 65.68 62.44 65.10 65.48 65.12 63.54 64.38 65.52 67.32 65.88 64.74 65.09 66.63 66.72 65.62 65.22 66.68 66.27 65.71 65.00 64.66 64.56 63.95 63.01 62.36 62.05 62.12 61.88 62.85 63.28 63.28 62.95 62.19 62.54 62.29 61.97 61.28 60.46 59.83 59.22 58.90
63.28 62.56 65.44 64.15 64.68 63.64 62.06 62.00 63.09 64.09 63.47 63.29 63.23 63.20 65.55 65.48 64.48 66.26 67.17 66.50 66.22 64.23 63.65 63.61 62.70 62.61 62.32 61.96 61.56 62.43 62.99 63.31 63.24 62.59 62.10 62.24 62.03 61.75 61.16 60.28 59.48 58.67 58.09
61.68 62.54 63.49 64.72 64.29 63.78 62.53 62.57 62.73 63.59 63.14 62.79 62.56 63.03 65.57 64.25 64.64 64.56 64.93 65.42 65.16 64.52 63.93 63.37 62.60 63.20 62.73 62.16 62.08 62.42 62.88 62.96 63.30 62.80 61.87 61.91 62.08 61.44 61.06 60.34 59.49 58.61 57.82
60.04 61.72 62.82 62.41 62.07 61.48 60.52 60.91 62.12 62.60 62.04 62.61 62.36 63.77 63.58 63.08 63.59 63.39 64.20 64.88 64.88 65.11 64.44 63.39 63.19 62.52 61.78 61.44 61.80 61.98 62.19 62.52 62.94 62.86 62.60 61.43 61.80 61.81 61.02 60.78 59.85 58.95 57.96
60.09 59.91 59.96 61.28 61.54 61.54 59.62 60.52 61.55 61.47 61.67 62.22 62.20 63.27 62.90 62.77 62.80 61.12 61.75 61.94 62.84 64.32 64.22 63.03 62.32 61.47 60.84 60.95 61.07 61.28 61.57 62.25 62.76 63.03 62.83 62.43 61.24 61.64 61.83 60.93 60.51 59.48 58.54
61.14 60.25 60.21 59.61 60.19 59.44 59.80 60.25 60.59 61.18 61.37 61.59 62.08 63.34 62.55 61.65 61.61 61.31 60.03 60.55 61.34 62.14 62.43 61.84 61.90 61.19 60.45 60.38 60.42 60.78 60.83 61.42 61.66 62.24 62.60 62.79 61.89 60.31 61.15 61.79 60.71 60.04 59.00
59.79 59.15 59.88 60.31 60.14 59.75 59.38 59.89 59.53 60.53 60.92 61.30 62.14 62.08 60.99 59.88 60.87 60.87 59.95 60.31 60.87 61.05 60.65 60.56 60.74 59.93 59.64 59.39 59.49 59.77 59.79 60.08 60.51 60.94 61.54 62.34 62.22 61.83 60.73 61.16 61.40 61.05 59.60
58.96 59.44 59.02 59.16 59.39 59.65 60.06 59.91 59.57 60.00 59.91 60.54 62.07 60.82 60.81 60.02 59.89 60.48 59.69 60.41 61.62 60.69 60.36 59.73 59.17 59.36 58.40 58.52 58.15 58.23 58.25 58.13 58.36 58.38 59.66 61.00 61.80 61.57 62.31 60.31 60.16 60.21 60.58
59.66 59.52 59.48 59.16 59.58 59.74 59.70 60.13 59.52 58.79 58.92 59.82 60.14 61.60 61.68 60.71 60.77 60.78 59.84 60.96 61.96 60.80 60.57 59.72 58.81 58.86 58.15 57.69 55.53 56.10 57.52 57.94 58.08 57.97 58.09 58.98 60.37 61.33 61.41 61.80 61.86 60.21 58.95
59.41 58.85 58.51 57.74 58.29 58.78 57.95 58.36 58.19 57.17 57.30 58.38 58.69 61.00 62.48 60.66 60.92 61.28 60.37 60.94 61.59 61.16 61.18 60.94 59.68 58.13 57.22 58.07 55.41 55.33 55.87 57.24 57.48 57.66 58.36 58.52 58.61 59.96 61.14 60.96 60.97 61.04 60.02
59.23 58.57 58.47 58.21 58.72 58.31 58.16 58.48 58.33 57.82 57.07 57.90 58.48 60.18 61.88 62.31 61.14 61.34 61.22 60.59 60.84 61.34 61.83 61.29 60.50 58.40 58.75 57.90 55.92 56.79 54.32 55.49 56.33 56.79 57.42 57.05 57.64 57.27 58.23 59.40 60.12 60.40 60.57
59.35 58.62 58.12 58.34 57.95 58.37 58.24 58.76 58.02 57.81 57.39 56.46 56.99 59.73 61.49 63.03 61.98 61.80 61.85 61.62 61.15 61.26 60.81 61.47 61.31 60.29 58.68 58.76 59.52 58.08 55.15 53.31 57.28 58.01 56.28 56.84 57.19 56.94 57.31 58.49 59.27 59.47 59.81
60.12 60.67 59.49 58.62 58.15 58.03 58.33 57.66 56.45 54.97 54.81 56.43 56.91 59.68 61.28 62.51 62.11 61.72 61.92 62.09 62.48 61.80 61.16 61.60 61.73 61.27 61.16 58.91 58.74 58.81 60.31 59.96 56.07 54.52 57.39 57.06 54.29 54.97 56.22 57.71 58.55 58.70 58.97
60.48 60.38 59.46 59.09 58.68 57.93 58.21 57.75 56.20 55.80 55.76 56.52 56.65 57.72 60.21 61.91 62.22 61.62 62.09 62.79 63.13 63.47 63.04 63.05 62.61 62.15 62.00 61.80 59.95 59.63 58.75 58.89 58.83 56.03 54.98 56.49 54.37 52.49 53.37 56.41 58.10 57.56 57.51
60.89 60.66 59.29 58.23 58.28 58.27 57.69 57.89 56.61 56.59 56.61 56.93 55.69 55.11 56.11 57.69 60.87 62.03 62.10 63.27 63.66 63.28 63.39 63.73 63.88 63.12 62.48 61.83 62.06 61.22 59.92 58.02 57.17 56.30 55.00 56.04 53.93 51.51 51.30 53.43 54.70 56.14 55.72

GFSSE_sfc_wetblb_057.txt.gz
Wetbulb
71.33 72.42 71.66 72.91 73.50 72.65 72.51 72.08 72.17 72.26 72.77 72.62 72.43 72.49 72.78 72.49 72.38 71.80 71.46 71.44 71.59 71.90 71.34 71.01 70.65 70.42 70.40 70.36 69.77 69.89 70.20 69.92 69.51 69.91 69.72 70.02 69.74 69.45 69.11 69.45 68.96 67.59 68.30
71.90 72.71 71.37 72.32 73.51 73.02 72.69 72.23 72.10 72.52 72.71 72.70 72.49 72.35 72.38 72.29 72.09 71.78 71.61 71.51 71.64 71.30 70.36 70.10 70.23 70.05 69.79 69.55 69.19 69.64 69.58 69.12 69.00 69.06 69.35 68.65 68.53 68.65 68.31 68.39 67.99 66.68 66.97
71.16 72.80 71.46 71.46 72.19 72.93 72.66 72.51 72.48 72.73 72.84 72.53 72.34 72.27 72.41 72.14 72.00 71.83 71.26 70.85 71.19 70.88 69.62 69.21 69.63 69.42 68.94 68.22 68.88 68.86 68.87 68.78 68.59 68.02 68.24 66.73 66.59 67.51 67.05 66.76 66.78 66.25 65.92
71.41 72.06 71.56 71.18 71.04 72.49 72.28 72.08 72.21 72.63 72.63 72.41 72.19 72.29 72.29 71.70 71.45 71.25 70.69 70.50 70.65 70.29 68.57 68.34 68.99 68.57 67.29 67.61 67.37 67.37 67.89 67.82 67.89 67.45 66.63 65.84 65.46 66.76 66.63 65.87 65.46 65.36 64.96
71.30 71.69 71.58 70.72 71.12 71.93 72.02 71.98 71.79 72.02 71.68 71.98 71.83 72.31 71.94 71.40 71.38 70.85 69.84 69.94 70.01 69.61 68.04 67.66 67.92 67.39 67.11 67.21 66.72 66.84 66.44 66.01 66.20 66.90 65.47 65.58 64.87 65.12 65.67 65.00 64.39 64.09 64.24
70.96 71.13 69.04 69.83 70.62 71.65 71.93 71.90 71.79 71.36 70.70 70.52 70.73 71.54 71.60 71.23 70.77 69.99 69.13 69.18 69.65 69.29 68.24 68.05 67.14 66.58 66.48 66.34 66.46 66.34 66.02 65.96 66.46 64.47 63.93 64.59 63.93 64.48 64.15 63.46 63.10 62.75 62.68
70.89 71.43 70.23 69.12 69.97 70.57 71.45 71.43 70.79 70.49 70.18 70.19 70.69 70.53 70.64 70.25 69.89 69.08 68.62 68.57 68.86 68.57 68.33 67.26 66.51 65.84 65.79 65.70 65.75 65.45 65.11 64.12 63.69 63.46 63.52 63.17 63.23 63.59 63.59 63.24 62.44 62.23 61.78
70.23 71.76 70.77 69.54 69.13 69.19 69.73 68.77 68.87 68.92 69.28 69.66 69.86 69.88 69.99 69.38 68.69 68.58 68.81 68.67 68.13 67.61 67.49 66.92 66.18 65.54 65.28 65.15 64.71 63.67 63.52 63.95 64.11 63.32 63.05 62.65 63.62 63.07 62.86 62.27 61.64 61.40 60.89
70.11 70.77 71.19 70.92 69.56 67.67 67.29 67.28 67.37 68.57 68.99 69.04 68.90 68.98 68.76 68.18 68.08 68.36 68.57 68.34 67.60 67.03 66.90 66.16 65.97 65.39 64.77 64.33 63.57 62.65 62.36 63.49 63.33 62.87 62.19 62.05 62.58 62.50 62.39 61.73 61.24 60.75 60.46
68.87 68.69 69.47 69.67 69.55 69.00 69.26 66.25 66.34 66.95 67.53 68.37 68.45 68.02 67.87 67.71 67.94 67.83 67.56 67.75 67.16 66.78 66.49 65.89 65.47 65.08 64.09 63.53 63.05 62.29 61.81 62.44 63.08 62.54 62.31 61.98 62.67 62.43 61.82 61.19 60.70 60.44 60.19
67.73 67.36 65.78 68.02 68.30 68.35 68.86 66.80 66.30 66.90 66.91 67.39 68.23 66.91 66.24 67.85 67.98 67.27 66.63 67.12 66.54 65.53 65.68 65.37 64.86 64.12 63.33 62.89 62.37 62.18 62.63 63.05 63.13 62.45 61.72 62.73 62.55 62.30 61.50 60.80 60.47 60.12 60.02
65.43 66.22 66.02 65.16 66.71 67.16 66.85 64.89 66.03 65.71 65.92 66.53 68.38 68.04 65.64 65.74 66.92 66.43 66.39 66.07 65.58 65.01 64.74 64.45 63.93 63.03 61.99 60.84 61.44 61.55 63.00 63.48 62.91 62.07 61.62 62.88 62.48 62.19 61.55 60.58 60.09 59.90 59.32
64.62 65.83 64.19 63.94 64.30 65.90 64.31 65.35 63.97 68.08 67.01 65.63 64.42 63.09 63.07 65.33 65.95 66.40 66.53 66.51 65.14 63.89 62.91 62.50 62.00 61.04 61.11 60.51 62.14 63.58 63.33 63.68 62.79 62.04 61.73 62.60 62.23 61.89 61.26 60.45 59.77 59.49 58.62
64.08 64.22 64.59 63.16 63.79 64.63 64.74 64.79 64.04 63.05 63.07 62.85 62.59 62.68 62.99 63.64 64.83 65.96 64.98 65.18 64.01 62.84 62.45 61.15 61.22 63.36 62.18 61.75 62.63 63.09 63.55 63.25 62.48 61.80 61.56 61.91 62.08 61.45 61.28 60.38 59.65 59.00 58.37
62.34 63.82 63.04 63.47 64.52 63.77 63.00 63.96 63.21 63.39 62.53 62.31 61.49 62.12 62.72 63.72 63.76 65.30 64.61 64.66 63.98 64.50 62.93 61.99 62.46 62.18 61.90 62.01 62.62 62.96 62.91 63.27 62.95 61.87 61.32 61.51 61.84 61.80 61.05 60.86 60.00 59.12 58.61
61.41 60.48 61.76 61.96 62.45 62.46 62.22 62.07 62.25 62.82 62.09 61.55 60.29 61.21 62.24 64.19 63.40 64.29 64.55 64.93 64.73 64.88 63.70 62.72 62.66 61.86 61.21 61.71 61.92 62.58 62.56 62.90 63.33 62.82 61.86 61.19 61.15 61.64 61.55 60.65 60.30 59.68 58.71
62.34 62.10 60.45 61.29 61.99 60.49 60.57 61.20 61.85 61.96 62.08 60.50 60.34 61.46 63.00 63.43 63.92 65.59 64.71 64.68 64.88 65.14 64.31 63.20 62.41 61.78 60.50 61.19 61.11 61.62 62.19 62.70 62.55 63.16 62.32 61.67 60.79 60.42 61.41 61.69 60.93 59.91 59.35
61.52 61.18 61.28 60.62 60.26 60.00 60.39 60.99 61.16 61.13 61.26 60.36 60.86 62.37 62.64 62.90 63.56 64.36 62.84 62.76 63.09 63.83 62.78 61.68 60.95 60.05 59.88 59.94 60.26 60.51 61.04 61.66 61.99 62.29 62.79 62.70 61.77 61.36 60.22 60.98 61.24 61.11 59.80
61.20 60.02 60.57 61.24 60.54 60.15 60.41 59.96 60.48 60.40 60.28 60.79 61.09 62.14 62.68 61.96 61.65 61.99 60.51 61.94 62.61 62.17 61.81 60.93 60.70 60.41 59.08 59.22 59.68 60.08 60.38 60.17 60.66 60.72 61.38 62.05 62.57 62.01 61.90 60.10 60.42 60.51 60.60
61.75 60.27 60.74 60.42 59.36 59.75 59.66 59.31 59.53 59.25 59.99 60.53 60.44 61.06 60.95 60.37 60.71 61.35 61.17 62.93 61.41 60.32 59.96 59.99 60.94 60.48 59.89 59.14 57.96 58.10 58.92 59.01 59.18 59.20 59.46 60.38 61.22 61.74 62.37 62.35 60.91 60.15 59.45
61.55 60.64 60.15 59.18 59.46 59.50 58.59 57.53 57.65 57.39 58.13 58.91 59.73 60.49 60.88 60.48 60.63 60.97 59.97 61.86 61.40 60.97 60.65 62.10 59.66 58.96 58.25 59.49 56.80 56.28 57.20 58.41 58.75 58.50 58.68 58.77 59.38 60.57 61.47 61.12 62.03 60.80 59.86
60.42 60.33 59.07 58.70 58.79 59.05 59.35 59.48 58.57 57.71 58.01 58.41 58.63 61.25 61.75 62.27 60.49 60.78 60.95 60.13 60.65 61.07 62.83 62.27 61.54 58.48 57.82 58.57 55.17 54.98 52.76 54.87 56.73 58.29 58.95 58.95 60.55 59.22 59.13 61.13 61.11 61.56 60.82
60.81 60.01 58.62 58.20 58.89 59.56 59.44 60.49 59.31 59.15 57.37 56.38 56.18 57.64 60.32 62.15 60.68 60.52 61.31 61.38 61.21 62.84 62.53 62.88 62.23 61.17 57.94 59.11 59.76 57.27 53.94 52.79 56.28 58.87 59.01 58.83 59.98 58.80 58.81 59.31 59.87 60.12 61.16
61.01 61.25 60.09 59.01 58.61 59.82 59.43 58.28 57.85 56.63 55.31 55.91 56.08 56.60 59.60 61.80 61.50 59.88 61.68 63.33 63.45 62.53 63.23 63.44 62.95 62.35 61.98 59.11 59.65 59.03 61.56 59.99 55.36 52.18 57.83 58.50 59.09 58.49 59.51 58.27 56.58 59.71 60.29
62.09 61.57 60.98 58.82 58.76 58.91 59.35 58.37 57.82 57.45 57.91 56.52 56.06 56.25 59.51 61.22 60.08 60.77 62.64 63.74 63.58 63.31 63.63 63.59 63.37 63.12 62.49 61.31 60.59 59.72 59.73 59.80 60.12 56.85 54.81 56.10 57.57 58.47 57.73 55.19 56.02 55.60 59.96
62.35 62.09 60.44 59.90 58.03 58.39 59.04 58.64 58.30 57.13 56.39 55.88 55.46 55.32 58.89 60.30 61.44 61.09 62.51 63.04 63.55 64.01 63.93 63.47 63.69 63.67 63.13 62.62 62.33 61.29 59.88 57.74 57.41 57.49 56.17 57.05 56.99 56.79 57.33 56.94 56.08 54.68 55.10

GFSSE_sfc_wetblb_060.txt.gz
Wetbulb
70.94 71.11 72.21 73.30 72.95 72.67 72.61 72.28 72.19 72.45 72.32 72.52 72.89 72.94 72.92 72.48 71.65 71.31 71.31 71.19 71.19 71.88 71.61 71.29 71.00 70.76 70.82 70.85 70.48 70.83 70.65 70.26 70.07 70.37 70.18 70.46 69.81 69.69 69.48 69.40 68.55 67.21 69.27
72.20 71.13 72.12 73.00 73.17 72.85 72.79 72.48 72.32 72.51 72.64 72.52 72.62 72.79 72.49 72.33 71.65 71.44 71.56 71.71 71.86 71.93 71.31 70.79 70.79 70.47 70.28 70.06 69.98 70.09 69.92 69.35 69.28 69.30 69.73 69.30 68.84 68.67 68.23 68.29 67.78 66.35 67.36
71.22 71.49 71.66 72.54 73.02 73.08 72.83 72.54 72.53 72.87 72.77 72.60 72.77 72.59 72.40 72.04 71.72 71.72 71.50 71.17 71.27 71.56 70.84 70.62 70.03 69.89 69.74 69.46 69.55 69.56 69.33 69.27 68.89 68.43 68.48 65.57 65.76 67.60 67.60 66.85 67.02 66.56 66.60
70.81 71.22 71.64 71.41 72.71 72.79 72.45 72.20 72.21 72.84 72.70 72.41 72.50 72.39 72.16 71.92 71.91 71.45 70.94 70.53 70.78 70.87 70.27 70.17 69.79 68.94 68.76 68.98 68.81 69.03 68.85 68.01 67.72 67.67 65.19 65.40 65.14 67.02 67.14 66.63 65.96 65.46 65.05
70.57 72.06 71.25 70.62 71.26 72.45 72.03 72.00 71.59 71.60 71.70 71.59 71.98 72.43 72.04 72.08 71.50 70.71 70.42 70.06 70.36 70.07 69.56 69.68 68.84 67.91 67.62 67.36 67.57 67.75 67.75 67.89 68.11 65.54 63.55 63.50 64.03 65.79 65.75 64.84 64.33 64.33 64.22
70.72 71.90 69.15 69.90 70.30 71.10 71.83 71.49 71.46 71.09 70.92 70.85 71.25 71.52 71.83 71.59 71.18 70.46 69.78 69.65 69.76 69.38 68.73 68.50 67.67 66.99 67.01 66.71 66.29 66.12 65.91 66.10 66.67 62.76 62.35 63.71 62.93 65.00 64.38 63.55 63.39 63.27 62.98
70.70 71.75 69.94 69.09 70.18 71.16 71.10 71.05 71.08 70.63 70.58 70.60 70.83 70.86 70.74 70.91 70.47 69.85 69.45 69.18 69.31 69.01 68.36 67.38 66.69 66.36 66.38 66.19 65.61 64.71 63.79 64.15 61.49 60.68 60.44 60.51 61.37 63.59 64.02 63.46 62.72 62.43 62.20
71.13 71.77 71.19 69.48 69.71 69.34 70.22 69.86 69.10 68.82 69.49 69.87 70.24 70.26 70.38 69.67 69.09 68.95 68.76 68.50 68.56 68.15 67.66 66.96 66.55 66.12 65.87 65.25 63.88 62.95 63.20 64.61 61.95 60.22 60.24 59.87 63.17 63.31 63.15 62.53 61.71 61.31 61.31
70.53 70.37 71.16 70.51 69.81 67.53 67.23 66.92 66.29 65.03 62.98 68.83 69.41 69.26 68.98 68.27 68.16 68.45 68.68 68.29 68.11 67.48 66.93 66.26 66.02 65.54 65.23 64.04 63.25 62.41 62.62 64.01 60.35 59.92 60.50 59.49 62.98 62.72 62.65 61.90 61.69 61.26 60.93
69.33 69.93 69.50 69.44 69.35 67.54 67.27 65.98 64.62 64.51 61.06 61.24 68.48 68.20 67.44 67.45 68.03 68.14 67.56 67.67 67.48 66.81 66.43 65.94 65.54 65.07 64.44 63.23 62.15 62.49 62.16 63.93 59.47 59.39 59.56 60.04 62.53 62.36 62.22 61.73 61.43 61.07 60.67
67.31 67.51 68.01 68.30 68.69 67.81 65.85 66.01 64.58 65.05 60.43 65.84 67.70 67.14 65.82 66.44 66.53 66.81 66.50 66.59 66.62 65.49 65.47 65.42 64.87 63.92 63.18 62.21 62.01 62.33 62.42 59.42 60.39 59.26 59.23 62.60 62.34 62.34 61.71 61.33 60.98 60.44 60.30
65.10 66.26 66.20 67.00 66.77 65.63 65.35 65.06 63.38 63.36 63.19 65.95 66.41 66.07 66.03 66.02 65.59 65.98 65.32 65.78 65.72 65.03 64.90 64.54 63.80 62.74 61.30 58.06 58.63 60.63 58.53 60.68 59.42 58.86 59.07 62.72 62.25 62.11 61.52 61.03 60.60 60.34 59.52
65.37 65.80 65.99 65.56 65.98 65.01 64.23 64.74 63.72 64.25 64.43 64.96 65.08 65.16 64.74 64.47 64.85 64.72 64.68 64.28 63.64 63.77 62.26 61.89 60.67 58.42 56.98 57.23 58.31 58.86 60.18 60.62 59.48 58.79 60.37 62.39 62.18 61.89 61.38 60.87 60.28 59.92 58.83
63.60 64.34 65.07 65.38 64.61 64.43 64.83 64.41 63.31 62.75 64.28 62.65 62.14 62.38 63.39 62.92 63.32 63.90 63.64 62.36 60.84 60.68 59.27 58.71 57.74 58.22 57.32 58.29 59.90 60.30 60.01 60.31 59.07 58.93 59.83 61.83 62.11 61.57 61.31 60.54 60.33 59.64 58.76
62.34 63.96 63.73 63.66 63.25 63.97 63.86 64.44 63.48 63.51 62.70 62.31 61.15 61.55 62.41 62.19 62.36 63.09 62.92 61.47 60.10 60.28 59.01 57.38 57.97 58.81 58.65 58.32 60.42 59.87 60.63 59.99 59.16 59.02 58.71 61.34 61.34 61.75 61.08 60.73 60.14 59.65 58.86
61.63 61.91 62.77 63.22 64.14 63.40 63.37 63.61 63.45 63.20 61.95 60.94 60.65 61.00 62.19 61.99 61.65 62.90 62.80 61.08 60.35 60.15 59.94 58.52 59.99 58.59 58.03 58.55 59.28 60.00 60.33 60.44 59.03 58.75 58.57 58.75 60.81 61.27 61.60 60.89 60.38 59.70 59.26
61.62 61.05 61.53 61.00 62.02 62.39 62.78 62.95 62.66 63.03 61.87 60.47 60.15 60.92 61.55 61.12 61.31 62.75 62.27 61.44 60.93 60.85 60.66 59.34 59.50 58.40 57.72 58.78 58.57 59.01 59.42 59.72 59.75 58.68 58.30 58.32 58.87 60.31 60.80 61.40 60.81 59.89 59.40
61.22 60.39 60.78 61.60 61.28 61.74 61.59 61.79 62.04 62.53 61.53 60.19 60.08 59.92 60.44 60.94 62.35 62.13 62.05 61.94 61.61 61.49 60.92 60.11 57.99 56.78 56.72 56.91 56.70 57.05 57.79 58.54 59.16 59.55 58.82 58.37 58.22 58.95 59.79 60.94 61.07 61.04 59.87
61.18 60.71 60.52 60.42 60.39 60.07 60.52 60.97 61.14 61.55 60.75 59.35 59.25 58.92 59.88 60.14 61.70 61.04 60.55 60.67 61.50 60.80 59.78 59.02 57.69 56.82 55.69 56.03 56.98 56.52 56.89 56.77 57.92 58.98 59.40 59.03 58.24 58.50 58.46 59.49 60.09 60.10 60.47
61.04 60.69 60.48 60.36 60.32 60.00 59.87 59.98 60.30 60.07 59.55 59.11 58.87 59.50 60.87 60.52 60.11 60.20 59.65 60.11 59.55 59.05 58.35 58.02 57.54 57.73 56.25 55.62 57.43 56.71 55.67 56.08 56.33 56.28 56.78 58.63 59.24 59.24 58.90 58.67 58.45 58.45 59.30
60.61 60.33 59.57 59.42 59.69 59.07 58.15 57.75 57.89 57.45 58.43 58.44 59.35 59.84 59.92 59.10 59.04 58.95 58.52 58.77 58.93 57.33 56.66 57.96 58.02 56.71 56.00 56.42 53.91 53.27 53.41 54.17 54.72 54.39 55.26 55.37 56.67 58.00 58.79 59.94 58.28 58.00 58.23
59.90 59.53 59.68 59.15 59.22 58.71 58.39 58.18 58.06 57.93 58.15 58.37 58.76 58.72 58.53 58.29 58.40 59.14 58.56 58.39 58.26 58.37 58.20 57.52 56.59 55.46 55.83 56.26 52.25 50.86 48.07 50.09 52.69 54.61 53.93 54.30 54.06 55.84 57.62 58.87 59.08 58.59 58.28
59.81 59.22 58.87 59.07 59.03 58.87 58.76 58.65 58.09 57.89 57.70 56.81 56.49 57.78 58.53 58.50 58.45 58.51 58.82 58.57 58.48 58.93 58.29 57.87 57.75 56.64 53.41 54.09 54.14 51.60 47.78 46.59 50.26 52.37 53.18 53.69 53.45 54.84 54.81 56.21 57.38 58.79 58.53
59.91 59.71 58.73 58.61 58.56 58.96 59.11 57.97 56.61 55.83 54.78 55.16 56.54 57.87 58.39 60.11 58.63 58.56 58.80 58.95 58.42 58.27 59.31 59.37 59.74 58.28 57.32 53.44 53.43 55.42 54.78 55.23 52.46 49.80 52.15 53.57 54.87 54.35 53.81 54.04 54.72 56.60 57.42
60.55 59.68 58.52 58.30 58.28 58.84 59.23 58.54 57.55 56.16 55.99 55.50 55.93 55.96 57.07 59.16 60.61 58.95 59.10 59.31 58.27 58.10 58.55 59.94 59.52 58.94 58.34 57.05 55.00 54.68 54.10 54.43 55.30 52.70 49.83 51.37 52.70 53.47 54.13 54.62 54.20 53.64 54.73
60.46 60.36 58.90 58.26 57.99 58.73 58.61 58.73 57.92 56.76 55.81 54.81 55.04 54.21 54.97 56.79 59.62 59.86 59.11 59.14 59.67 59.77 59.01 59.65 59.72 59.29 58.96 58.37 57.67 57.20 56.02 54.15 53.29 53.04 51.45 51.71 51.37 52.57 54.09 53.71 53.14 53.55 53.90

GFSSE_sfc_wetblb_063.txt.gz
Wetbulb
69.15 71.35 72.42 72.44 72.39 72.66 72.45 72.31 72.34 72.01 72.59 73.04 73.01 72.83 72.54 72.20 71.80 71.51 71.25 71.00 70.78 71.48 71.79 71.65 71.38 70.92 71.19 71.45 71.26 71.34 71.05 70.73 70.47 70.72 70.46 70.64 69.90 69.61 69.21 68.95 69.16 67.97 70.15
69.81 71.31 72.02 72.36 72.44 72.70 72.59 72.46 72.39 72.20 72.67 72.91 72.83 72.45 72.00 71.80 71.58 71.39 71.13 71.50 71.67 71.88 71.31 70.90 70.76 70.21 70.33 70.48 70.93 70.31 70.17 69.84 69.57 69.76 69.81 69.58 68.73 68.90 68.49 68.10 68.59 67.82 68.79
69.24 70.85 72.22 72.34 72.36 72.50 72.51 72.51 72.56 72.66 72.70 72.77 72.74 72.27 71.70 71.68 71.63 71.60 71.69 71.73 71.96 72.04 71.18 70.46 70.63 70.06 70.17 70.25 69.77 69.73 69.45 68.81 68.26 68.03 68.38 65.73 66.09 67.89 67.82 67.14 67.84 67.27 67.05
69.73 70.21 71.51 72.37 72.39 72.40 72.16 72.28 72.50 72.69 72.75 72.84 72.62 72.16 71.82 72.06 72.01 71.59 71.30 71.16 71.57 71.55 70.71 70.43 70.16 70.05 69.88 69.51 69.22 69.18 68.73 68.38 67.80 67.31 65.23 65.39 65.92 67.20 66.62 66.09 65.80 65.71 65.44
68.76 69.57 71.18 71.58 72.03 72.12 72.04 72.11 72.12 72.23 71.99 72.21 71.97 72.14 72.14 72.11 71.86 71.45 70.69 70.84 71.13 71.35 70.45 70.09 69.43 69.24 69.18 68.80 68.54 68.17 68.12 67.12 66.23 64.82 63.72 64.18 63.94 65.51 65.95 65.34 64.45 64.38 64.25
67.16 70.12 69.62 70.07 71.27 71.83 71.87 71.76 71.43 71.54 70.95 71.22 71.34 71.62 71.98 71.80 71.57 70.76 69.98 70.14 70.71 70.78 69.57 68.97 68.90 68.45 67.53 67.10 67.38 67.33 66.37 66.12 63.93 61.61 62.99 63.79 62.99 64.81 64.16 63.96 63.05 63.30 63.18
66.31 68.27 68.67 68.98 70.16 71.42 71.76 71.62 71.10 70.79 70.07 70.82 71.15 71.40 71.27 71.08 70.74 69.93 69.40 69.56 69.78 70.00 69.19 68.19 68.19 67.29 66.64 66.60 65.87 64.79 63.92 63.74 60.40 59.25 59.99 61.78 61.62 63.99 63.91 63.08 62.68 62.80 62.40
66.36 68.37 68.72 69.58 70.13 69.45 70.20 70.04 69.97 69.87 69.23 69.45 70.38 70.59 70.76 70.18 69.64 69.29 69.16 68.67 68.67 68.33 67.92 67.66 66.96 66.65 66.46 65.39 64.38 63.63 64.12 62.91 60.59 58.88 58.97 60.68 62.78 63.34 63.19 62.56 62.23 61.95 61.92
65.98 66.82 68.65 67.23 68.32 68.21 66.97 66.65 65.87 66.99 65.15 66.07 67.43 69.54 69.32 68.60 68.73 68.92 68.96 68.53 68.12 67.58 67.08 66.71 66.39 66.03 65.38 64.39 63.36 63.19 62.73 62.40 59.08 59.14 59.27 59.90 62.89 62.82 62.66 62.16 61.69 61.36 61.43
65.20 65.85 66.01 66.18 66.34 65.36 65.43 65.22 64.18 63.64 62.98 63.12 63.34 65.49 67.71 67.24 68.05 68.09 67.99 67.87 67.52 66.85 66.55 66.18 65.59 65.05 64.52 63.13 62.56 62.81 62.30 61.93 58.61 58.05 57.70 60.10 62.59 62.53 62.52 62.07 61.60 61.31 61.09
64.71 64.25 64.45 65.05 65.72 64.85 65.16 64.69 63.70 63.42 62.93 63.53 63.66 62.11 65.67 66.66 66.63 66.39 66.70 66.84 66.62 65.67 65.57 65.46 64.83 63.73 62.80 62.48 62.28 62.17 61.56 58.80 58.59 58.41 57.81 62.57 62.54 62.49 62.23 61.67 61.36 61.05 60.81
61.30 62.37 63.49 63.59 65.16 64.74 65.33 63.64 63.35 62.22 61.51 62.88 63.10 62.26 65.43 65.86 65.15 65.87 65.96 65.78 65.56 65.14 64.94 64.41 63.72 62.62 60.37 57.03 57.50 60.02 58.76 58.32 58.14 58.29 58.73 62.43 62.26 62.42 62.14 61.41 60.86 60.63 60.34
61.77 62.91 62.99 63.87 64.35 64.16 63.82 62.72 62.58 61.61 61.81 61.08 64.33 65.10 65.29 65.18 65.10 64.64 64.60 63.89 63.84 63.74 62.13 61.73 60.82 57.05 55.73 56.07 56.54 56.83 58.36 58.02 57.97 58.51 60.42 62.20 62.33 62.19 61.95 61.53 60.60 60.17 59.47
61.29 63.51 62.65 63.82 63.53 63.68 64.02 63.01 61.72 62.17 63.11 61.91 64.30 64.51 63.87 63.95 63.61 63.16 62.67 62.58 61.99 60.79 58.98 58.18 56.26 55.60 55.08 56.87 57.58 58.02 58.02 57.64 57.63 57.68 60.12 61.41 62.04 61.95 61.76 61.27 60.70 59.67 58.88
60.20 62.26 62.20 63.47 63.03 63.32 62.95 62.29 62.28 63.45 63.09 63.05 63.47 63.50 63.52 63.23 62.85 62.12 61.66 60.44 59.28 58.44 56.97 55.70 55.51 55.92 55.11 56.12 57.55 58.76 57.83 57.30 57.45 58.14 58.21 61.22 61.39 61.89 61.43 61.27 60.61 59.95 58.75
60.03 61.09 62.61 62.53 62.78 62.64 62.02 62.30 61.85 62.84 61.98 62.01 62.55 62.78 62.39 62.93 62.48 61.79 59.67 58.81 58.00 57.19 55.39 55.76 56.29 55.62 55.21 55.79 57.12 59.02 58.09 57.68 57.37 57.62 57.80 58.21 60.44 61.32 61.23 60.85 60.76 60.10 59.31
59.10 60.27 61.20 62.32 62.68 62.11 61.32 62.33 62.62 61.85 60.29 59.43 60.43 61.42 62.09 61.93 61.68 61.92 59.57 58.44 58.97 57.68 55.56 55.62 56.23 57.06 55.46 57.37 56.86 58.08 58.64 57.53 57.36 57.51 57.51 57.23 58.51 59.73 60.72 61.28 60.63 60.19 59.75
58.64 58.89 60.99 62.02 61.84 61.65 60.32 61.09 62.14 61.35 59.69 58.96 59.60 60.25 61.39 61.45 61.30 61.99 60.63 58.66 59.83 58.33 57.74 56.78 57.48 56.10 55.52 55.75 55.17 55.73 57.36 57.34 57.00 57.18 57.41 57.41 57.32 57.77 59.31 60.63 61.07 60.88 60.15
58.85 59.53 59.73 60.42 60.45 60.54 60.84 60.69 61.76 61.49 60.35 59.55 59.57 59.95 60.90 60.83 60.88 61.80 61.17 59.94 60.02 58.69 58.89 58.57 56.62 55.79 54.60 54.37 55.08 54.54 55.00 56.36 56.69 57.36 56.63 56.75 56.89 57.21 57.25 59.50 59.91 60.07 60.43
58.81 59.11 59.52 60.05 59.96 60.18 60.52 60.83 61.07 61.29 60.82 59.82 59.13 59.52 60.56 60.38 60.07 60.86 60.83 60.31 60.31 59.28 57.98 56.95 56.53 54.89 54.92 55.51 57.16 55.23 53.88 54.41 55.93 55.95 56.44 57.00 56.60 57.03 57.11 57.13 58.28 57.84 59.12
57.51 58.66 58.76 59.05 59.13 58.96 58.45 58.27 58.53 58.07 58.13 58.64 58.92 59.04 59.79 59.21 59.25 57.79 59.21 58.85 58.02 58.51 57.94 57.03 56.07 54.86 53.41 54.16 52.27 51.66 51.54 52.88 53.29 53.72 54.95 56.63 56.46 57.07 57.02 56.98 57.21 57.30 57.81
57.11 57.69 58.62 58.48 58.33 58.43 58.32 58.48 58.44 58.22 58.12 58.14 58.43 58.89 59.41 58.34 58.32 57.40 57.75 57.41 57.43 57.70 56.74 55.78 55.15 54.33 54.17 54.35 51.67 49.96 46.53 48.30 49.96 51.99 51.77 53.03 54.88 57.21 57.47 57.49 57.16 57.19 57.05
56.60 57.27 58.24 57.92 58.16 58.19 58.41 58.17 58.14 58.07 57.86 57.06 57.47 57.89 58.32 57.64 57.85 57.70 57.54 57.05 56.80 57.07 56.29 54.92 54.11 54.16 52.73 53.38 52.50 49.48 45.49 44.90 46.58 48.87 50.60 50.85 51.37 51.99 55.24 57.70 57.93 57.59 57.35
56.68 57.73 58.90 58.11 57.92 58.08 58.27 57.34 56.59 55.76 54.81 55.95 56.65 57.07 56.75 57.11 56.93 57.07 57.54 57.31 56.77 56.94 56.43 55.38 55.86 55.64 53.77 51.94 51.09 53.33 51.57 51.89 48.82 47.48 50.04 50.43 51.22 52.11 52.33 53.26 57.41 57.91 57.74
57.52 57.10 57.25 57.80 57.97 57.92 57.83 57.40 56.39 55.55 55.62 56.29 56.31 56.23 56.32 56.37 56.69 56.70 57.13 56.94 55.76 55.85 56.52 56.77 56.38 56.51 56.48 54.20 51.46 50.28 50.21 51.91 52.70 50.38 48.25 49.46 51.29 52.32 52.78 53.06 53.82 55.53 57.60
57.30 56.68 56.52 57.25 57.47 58.06 57.71 57.15 56.05 55.63 54.31 53.78 53.71 54.47 55.50 56.98 57.03 56.73 57.02 57.53 56.72 55.90 55.86 57.93 57.75 57.05 56.68 56.52 55.30 54.28 53.09 51.53 51.30 51.09 49.12 49.07 49.31 50.34 52.89 53.16 52.97 53.50 53.31

GFSSE_sfc_wetblb_066.txt.gz
Wetbulb
69.21 71.43 71.98 72.48 72.73 72.69 72.38 72.12 71.97 72.58 72.92 72.89 72.90 72.84 72.67 72.72 72.38 72.09 71.77 71.67 72.00 72.66 72.30 71.96 72.44 72.14 71.99 71.77 71.94 71.67 71.44 70.80 70.29 70.52 70.33 70.47 70.20 69.98 69.92 69.75 69.60 68.19 70.47
69.75 71.82 71.36 72.01 72.50 72.76 72.31 72.37 71.97 72.58 73.10 72.97 72.73 72.36 72.12 71.88 71.66 71.57 71.55 71.53 71.85 72.56 71.65 71.70 71.89 71.60 71.38 71.03 71.16 70.81 70.29 69.99 69.70 69.85 69.79 69.66 69.41 69.83 69.43 69.07 69.53 68.61 69.73
69.54 71.66 71.59 71.69 72.30 72.63 72.51 72.45 72.36 72.97 73.18 72.74 72.43 72.12 71.83 71.68 71.39 71.15 70.91 71.21 71.65 71.99 71.28 71.14 71.22 71.18 70.42 70.61 70.04 69.77 69.32 68.91 68.45 68.51 68.04 65.80 66.62 68.53 68.51 68.03 68.42 68.24 68.24
69.31 70.80 71.86 71.55 71.99 72.41 72.19 72.30 72.18 72.67 72.92 72.59 71.96 72.02 71.75 71.68 72.23 71.88 71.38 71.10 71.28 71.35 70.49 70.28 71.01 70.37 70.24 69.56 68.98 68.73 68.35 68.03 67.64 67.43 65.37 65.49 65.57 67.52 67.35 66.89 66.51 66.51 66.65
68.79 70.42 71.95 71.47 71.55 71.77 72.04 72.03 71.96 72.02 72.14 71.95 71.61 71.99 71.97 72.33 72.23 71.98 71.31 71.11 71.40 71.58 70.69 70.71 70.12 69.72 69.59 68.53 68.29 68.17 67.58 66.85 66.40 65.15 63.66 64.25 64.30 65.78 66.07 65.30 64.83 64.85 64.71
67.94 70.15 70.54 70.74 71.20 71.60 71.99 71.98 71.74 71.58 71.34 71.38 71.12 71.88 72.04 72.21 71.94 71.58 70.87 70.88 70.96 71.08 70.54 70.10 69.63 69.36 68.29 67.57 67.51 66.59 66.12 65.76 64.85 63.43 63.36 63.80 62.81 64.81 64.86 64.20 63.94 63.51 63.97
66.55 68.63 70.00 69.93 70.96 71.38 71.78 71.71 71.43 71.07 70.99 71.14 71.03 71.37 71.60 71.41 71.27 70.59 69.94 70.12 70.12 70.44 69.98 69.63 69.01 68.37 67.66 66.94 66.14 65.68 64.65 63.94 60.87 61.43 61.67 61.84 62.12 63.88 63.83 63.46 63.21 63.04 62.78
66.47 67.39 68.56 70.12 70.96 70.71 70.41 70.22 70.44 70.37 70.52 70.71 70.69 70.95 71.32 70.69 70.17 69.88 69.73 69.39 69.50 69.00 68.62 68.35 67.50 66.99 65.84 65.26 65.20 64.18 63.33 62.43 60.03 59.20 59.85 60.99 63.70 63.92 63.44 63.30 62.58 61.96 61.96
66.74 66.41 67.06 68.65 68.68 67.61 67.86 67.81 67.52 68.68 68.86 68.68 65.47 68.80 69.55 69.27 68.87 69.30 69.24 69.22 68.54 67.93 67.85 67.45 66.82 65.78 65.09 64.73 64.38 63.30 62.45 61.96 58.58 58.97 59.81 60.46 63.02 62.82 63.09 62.57 62.07 61.91 61.74
64.27 65.78 65.98 66.90 67.14 65.81 65.39 66.18 65.71 66.51 65.97 65.27 64.98 63.96 64.86 67.83 68.38 68.45 68.04 68.14 67.75 67.31 67.11 66.88 65.89 65.09 64.54 64.46 63.58 62.58 62.20 61.78 57.47 57.09 57.65 59.56 62.59 62.92 62.69 62.17 61.93 61.72 61.55
63.91 62.88 63.58 64.16 64.78 65.13 64.11 64.95 65.31 65.52 66.11 65.09 64.31 63.23 61.32 65.24 66.27 67.11 66.59 67.01 66.77 65.89 65.84 65.89 64.83 64.06 63.41 63.69 63.12 62.53 61.27 58.29 58.07 57.36 57.68 62.58 62.71 62.94 62.52 61.84 61.41 61.41 61.25
60.66 61.39 62.47 63.22 63.45 64.57 64.21 62.65 62.16 63.30 63.13 62.77 62.54 62.58 61.53 64.41 65.44 66.21 66.03 65.98 65.49 65.25 65.34 64.79 63.80 63.01 60.24 59.06 60.70 60.90 58.04 57.78 57.72 57.35 58.16 62.57 62.62 62.75 62.45 61.70 61.20 60.96 60.70
61.18 61.30 61.82 62.57 64.30 64.57 63.50 62.80 61.49 60.01 60.77 61.47 61.52 60.90 61.80 64.96 65.09 65.42 64.75 64.20 63.73 63.95 61.91 61.43 60.34 56.42 55.91 56.62 57.46 57.40 57.21 57.45 57.53 58.06 60.04 62.32 62.81 62.71 62.40 61.72 61.27 60.72 60.15
61.17 60.90 61.49 62.32 64.18 63.89 63.07 62.23 61.30 59.87 59.57 60.15 61.68 60.54 62.83 64.25 64.08 63.64 62.76 62.65 61.78 60.77 58.82 57.58 56.02 55.29 55.35 56.47 57.52 56.52 57.02 57.15 56.99 57.79 59.70 61.81 62.34 62.41 62.36 61.70 60.94 60.32 60.03
59.84 60.96 61.19 63.17 63.44 63.62 62.78 61.97 60.64 60.60 62.16 60.35 63.41 61.35 63.69 63.73 63.15 62.88 61.90 61.55 60.22 59.48 57.58 55.41 54.12 54.31 55.18 56.34 57.57 56.88 56.52 56.44 56.69 57.81 58.05 61.26 61.70 61.99 62.03 61.89 60.99 60.21 59.57
59.14 59.30 60.45 62.16 63.08 63.31 62.53 61.90 60.57 62.47 62.63 62.87 63.86 63.42 63.91 63.62 62.60 61.77 60.89 59.92 59.35 58.42 57.06 53.76 53.78 52.89 53.53 55.06 56.87 56.63 56.59 56.28 56.59 57.09 57.72 58.85 60.76 61.52 61.77 61.42 61.11 60.33 59.81
59.29 59.39 60.06 60.49 62.68 62.47 61.76 61.77 62.32 62.12 62.16 62.53 62.87 63.12 63.25 63.21 61.78 60.64 58.93 58.04 58.10 57.62 53.97 53.12 53.66 53.76 53.74 55.87 57.09 56.88 56.48 56.31 56.62 56.65 56.61 56.84 58.42 59.76 60.72 61.46 60.71 60.30 59.58
58.39 58.71 60.94 62.26 62.04 61.73 61.60 61.76 61.56 61.02 60.06 60.71 61.55 61.41 62.70 62.83 61.89 59.41 58.22 57.51 56.67 56.10 54.43 53.85 54.03 53.95 53.27 54.86 55.09 56.69 56.20 56.10 56.33 56.24 56.18 56.67 56.45 57.33 59.16 60.57 61.05 61.07 59.95
58.35 58.80 60.55 61.53 61.21 61.08 61.15 61.73 61.06 59.48 59.04 59.93 60.34 61.23 61.61 61.80 61.83 59.32 57.64 58.00 56.78 55.99 53.59 55.12 54.51 54.32 53.79 53.94 55.28 55.35 56.14 55.15 55.45 56.73 55.59 55.70 55.93 56.10 56.39 59.30 59.84 59.96 60.56
58.23 58.53 59.48 60.62 60.62 60.97 60.96 61.38 61.35 60.36 59.24 58.75 59.49 60.28 60.88 60.84 61.69 61.17 58.57 58.93 57.30 56.32 54.97 55.50 54.49 54.73 55.70 55.07 56.43 55.16 54.28 55.25 55.27 55.21 55.60 56.27 55.76 55.79 55.84 56.27 57.74 57.59 58.92
57.16 57.46 58.59 59.34 59.64 60.20 59.69 59.51 59.55 59.22 59.36 58.89 59.27 59.89 60.56 59.92 60.42 61.36 59.53 59.09 59.09 57.27 56.98 56.26 54.74 54.64 54.01 54.54 52.89 51.38 51.35 53.24 54.47 54.72 55.05 54.91 55.27 55.76 55.29 55.78 56.20 56.42 57.39
57.23 56.71 56.97 58.97 59.28 59.44 59.51 59.34 58.97 59.25 59.08 59.61 59.08 59.16 60.26 59.47 59.28 59.96 60.26 58.72 59.16 58.00 56.16 55.41 54.93 52.89 53.76 54.45 52.40 50.60 48.18 49.11 50.96 52.79 53.57 54.69 54.30 55.61 55.72 56.11 55.90 56.49 56.24
56.78 56.43 56.67 58.07 58.33 58.40 58.55 58.56 57.52 58.19 57.88 57.42 57.78 58.08 59.51 58.78 58.63 58.45 59.75 57.79 58.27 57.92 56.49 54.70 54.39 54.12 53.03 52.78 53.57 51.17 46.30 46.69 46.84 48.49 50.49 52.69 54.06 54.64 55.62 56.04 56.19 56.50 56.67
56.07 56.89 56.75 57.31 57.65 57.92 58.29 57.76 57.09 55.91 55.28 56.74 57.22 58.05 58.97 58.26 57.63 57.66 58.08 57.30 56.92 57.75 56.68 56.00 54.91 53.15 53.46 53.37 51.45 52.65 51.51 50.03 46.58 44.88 48.82 49.64 51.15 53.53 55.08 56.22 56.47 56.40 56.63
56.45 56.45 56.59 57.05 57.50 57.76 57.91 57.65 57.02 56.17 56.55 56.80 57.38 57.29 57.82 57.48 56.92 56.75 56.96 57.32 56.19 56.98 57.23 56.55 54.96 53.43 53.81 53.31 51.62 50.65 50.12 51.02 51.09 48.90 46.86 48.15 49.19 50.73 52.30 53.72 56.02 56.83 56.87
56.35 56.69 56.13 56.21 56.80 57.42 57.50 57.55 56.70 56.00 55.73 55.39 55.75 55.22 55.99 56.13 55.91 56.20 56.57 56.69 56.61 56.39 56.87 56.58 55.76 54.17 54.15 54.06 53.87 51.91 50.65 49.60 50.07 49.99 48.31 48.21 48.50 49.50 52.00 52.29 51.93 55.09 56.87

GFSSE_sfc_wetblb_069.txt.gz
Wetbulb
68.53 70.30 71.81 72.38 72.49 72.31 71.95 72.12 72.18 72.48 72.90 73.49 73.57 73.71 73.51 73.19 72.89 72.59 72.48 72.46 72.76 73.14 72.70 72.33 73.26 73.01 72.06 71.95 71.52 71.16 71.29 70.99 70.58 70.71 70.67 70.74 70.50 70.32 70.14 69.85 69.99 68.64 70.57
69.19 70.76 71.21 72.01 72.42 72.03 71.86 72.27 72.31 72.50 72.96 73.07 73.15 73.21 73.11 72.81 72.52 72.18 72.23 72.46 72.51 72.89 72.14 72.16 73.24 72.78 71.74 71.37 71.28 70.83 70.38 69.98 69.85 69.89 70.14 69.96 69.93 69.98 69.97 69.55 69.73 69.13 70.17
69.70 70.89 71.13 71.56 72.28 72.36 71.97 72.30 72.50 72.65 72.89 72.85 72.75 72.68 72.61 72.42 72.10 71.80 71.93 71.96 72.12 72.54 71.96 72.06 71.96 71.77 71.33 70.98 70.34 70.16 69.87 69.50 69.00 68.85 68.40 66.40 67.49 69.44 69.36 69.29 69.53 69.35 69.37
70.03 70.69 70.57 71.54 71.75 72.18 71.99 72.09 72.43 72.78 72.65 72.55 72.16 72.16 71.95 71.87 71.65 71.68 71.48 71.41 71.58 71.90 71.78 71.84 71.72 71.31 70.28 69.97 69.26 69.02 68.94 68.50 67.97 67.43 64.88 65.78 66.39 68.35 68.17 67.96 68.14 68.44 68.50
69.32 70.56 70.42 71.04 71.24 71.93 71.97 71.96 71.99 72.10 72.02 71.69 71.60 71.84 71.55 71.44 71.27 71.60 71.15 70.99 71.38 71.75 71.58 71.41 70.77 70.06 69.28 68.53 68.27 68.18 67.85 67.43 66.69 64.68 63.25 64.43 64.35 66.51 67.18 66.51 66.00 66.09 65.97
67.86 70.20 70.42 70.28 70.76 71.57 71.80 71.72 71.68 71.77 71.16 71.03 70.95 71.37 71.63 71.84 71.68 71.47 70.73 70.86 71.16 71.12 71.32 71.01 69.67 68.90 68.21 67.86 67.52 67.26 66.69 65.96 64.80 62.58 62.94 64.15 63.66 66.00 65.16 64.61 64.89 64.93 64.87
66.54 68.83 70.22 69.48 70.48 71.37 71.77 71.83 71.47 71.26 70.85 70.67 70.82 70.91 71.57 71.63 71.55 71.11 70.55 70.60 70.57 70.57 70.64 69.95 68.90 68.07 67.76 67.29 66.88 66.22 65.64 64.77 61.68 60.76 60.64 61.63 62.31 64.68 64.31 63.74 63.63 63.33 63.21
66.05 67.39 69.33 70.69 70.49 70.68 71.01 70.05 69.88 70.40 70.62 70.35 70.62 70.71 71.10 70.98 70.62 70.37 70.10 69.80 69.40 69.32 68.94 68.53 67.87 67.52 66.84 66.35 65.76 64.89 64.11 63.55 60.74 59.68 60.31 60.35 63.73 63.90 64.06 63.68 62.47 62.82 62.57
65.91 66.33 67.11 69.86 70.71 69.14 68.04 68.54 67.39 68.17 69.00 69.19 69.36 68.95 69.19 68.91 69.44 69.52 69.65 69.34 69.20 68.45 68.04 67.62 67.41 66.20 66.36 65.78 64.53 63.39 62.71 62.23 58.12 59.00 60.18 60.71 63.59 64.08 63.20 62.47 62.52 62.16 61.79
64.60 64.56 65.29 66.10 65.70 64.28 64.93 66.90 66.52 66.31 65.81 65.61 66.83 66.79 67.03 66.32 67.57 68.09 68.27 68.73 68.61 68.05 67.45 66.76 65.82 65.38 65.90 64.88 63.68 62.80 62.36 61.36 57.11 58.07 58.65 61.26 63.47 63.54 63.11 62.64 62.34 61.81 61.70
62.99 62.90 63.09 63.76 64.53 64.63 65.38 66.94 66.92 66.05 64.74 65.05 65.91 65.11 63.03 64.07 65.98 66.45 66.55 66.85 67.55 66.24 66.01 65.63 64.69 64.96 64.55 63.74 63.11 62.45 61.00 57.49 56.92 56.46 57.32 62.83 62.88 63.13 62.62 62.19 61.84 61.49 61.18
60.20 60.61 61.87 62.41 62.72 62.80 65.04 64.81 65.23 63.58 64.91 63.57 63.87 63.49 62.02 63.62 65.02 65.07 65.67 66.22 66.04 65.62 65.39 64.68 64.18 64.29 62.90 60.80 60.86 60.47 57.76 57.04 57.19 57.21 57.89 62.79 62.71 62.97 62.40 61.70 61.14 61.41 61.21
60.52 60.30 61.02 62.20 63.92 62.98 62.60 62.16 63.08 63.77 63.87 62.95 62.74 62.36 62.35 63.20 64.59 64.18 63.95 64.17 63.91 64.56 62.41 61.32 59.90 59.35 59.63 59.14 57.22 56.88 57.15 57.19 57.13 57.54 59.80 62.41 63.14 62.83 62.36 61.93 61.56 61.07 60.66
59.50 59.90 61.09 63.31 63.41 63.54 62.89 61.68 61.19 61.39 62.05 61.29 61.28 60.61 62.10 62.39 63.16 64.12 63.47 62.46 61.41 60.91 59.91 58.35 55.55 55.79 57.23 57.38 56.84 56.55 56.58 56.56 56.10 56.63 59.35 61.92 62.65 62.31 62.62 62.15 61.46 61.08 60.53
59.02 59.38 61.65 62.21 62.67 62.87 62.35 61.63 60.68 59.98 60.38 60.70 60.44 60.28 62.20 62.64 63.29 63.67 62.88 61.76 59.34 58.83 58.42 56.19 54.23 55.18 56.24 56.46 56.73 56.44 56.21 55.69 55.81 56.99 57.32 61.36 61.93 62.36 62.22 62.05 61.72 61.10 60.34
59.25 59.40 61.59 61.30 63.21 63.13 62.35 61.13 60.38 59.34 60.38 59.68 61.31 60.55 63.11 63.00 63.51 62.51 61.66 60.78 59.30 58.14 56.78 55.95 54.09 54.23 55.96 56.33 56.25 56.16 56.01 55.79 56.07 55.95 56.92 58.61 60.76 61.71 61.95 61.44 61.22 60.94 60.84
59.98 59.44 60.36 61.02 62.86 62.75 62.19 61.06 61.28 61.74 61.67 61.42 61.33 60.65 62.32 63.58 63.06 62.23 61.01 59.19 58.67 57.04 54.47 53.64 52.59 52.21 53.95 56.58 55.91 55.66 55.50 55.30 55.76 55.79 56.09 56.66 58.32 59.87 61.00 61.65 60.76 60.53 60.34
58.67 59.12 59.26 61.73 61.20 62.24 61.51 61.42 61.73 61.55 61.03 62.09 62.65 62.79 61.87 63.27 62.71 61.18 59.56 58.91 58.58 56.54 55.05 53.80 52.81 52.13 53.45 55.75 55.00 55.14 54.95 55.24 55.39 55.41 55.38 55.81 56.05 57.00 59.45 60.74 61.03 60.64 59.91
58.52 57.87 59.02 61.38 60.51 61.30 61.45 61.59 60.97 60.30 59.72 60.32 61.51 61.64 62.72 62.11 61.12 59.68 58.31 57.53 57.21 56.35 55.16 53.91 53.34 53.73 53.06 54.44 55.26 55.04 54.35 54.70 55.00 56.16 55.11 55.26 55.34 55.51 55.67 59.49 60.05 60.07 60.43
56.99 57.37 59.24 60.03 61.26 61.27 61.38 61.11 60.31 59.72 59.36 59.76 59.68 60.68 61.71 62.15 60.32 58.09 57.38 56.82 56.54 53.82 53.81 54.12 54.34 53.31 53.25 54.65 55.97 54.85 54.69 54.07 54.92 54.19 54.76 55.51 54.98 55.10 55.18 55.77 57.07 57.36 59.24
56.89 56.67 58.97 58.74 60.38 60.66 60.22 59.48 59.14 58.46 58.66 58.74 58.68 60.15 60.46 61.69 60.45 58.27 57.40 56.68 55.87 52.27 53.51 54.95 52.93 52.79 52.14 53.80 52.85 51.66 51.97 53.98 53.76 54.19 53.99 54.17 54.41 54.94 54.63 54.96 55.31 55.32 56.61
57.23 57.39 57.67 58.04 59.47 60.40 60.39 60.27 59.81 59.85 59.43 59.26 58.69 58.74 60.30 60.22 61.28 59.27 57.48 57.29 55.93 54.44 54.63 55.01 53.11 51.90 52.12 53.46 52.14 51.39 48.76 50.67 52.50 52.84 53.13 53.48 54.12 55.22 55.27 55.15 54.72 55.34 55.14
56.32 56.69 56.89 57.77 58.34 59.39 59.91 58.65 58.37 58.23 58.36 58.50 58.10 58.53 59.81 59.63 59.97 60.79 58.50 58.05 57.56 56.32 55.76 54.98 53.36 53.44 51.91 52.00 53.24 51.39 46.97 48.02 48.72 50.08 51.93 53.30 53.65 53.82 55.16 55.10 54.99 55.33 55.83
56.45 55.87 56.17 58.20 57.87 58.41 59.07 58.42 57.56 57.03 56.33 57.49 58.26 58.41 59.33 59.07 59.14 58.89 60.01 58.43 58.42 58.11 56.73 55.37 55.05 54.50 53.96 52.76 50.95 52.05 51.85 50.82 48.00 46.46 49.13 52.21 53.43 53.07 53.76 53.86 54.92 55.38 55.70
56.98 56.38 57.01 57.04 56.77 57.58 57.83 57.81 57.22 56.22 56.55 57.34 57.32 57.39 58.45 58.41 57.83 57.30 58.72 57.91 57.73 58.15 57.65 56.37 54.27 52.84 54.95 54.20 51.22 50.33 50.69 51.06 50.69 48.82 46.27 47.53 48.53 52.31 54.40 54.33 55.18 55.48 55.74
56.51 56.49 56.13 56.01 55.23 56.67 57.06 56.67 55.21 55.96 55.67 55.97 56.47 56.25 57.39 58.03 57.05 56.68 57.79 57.26 57.41 57.28 57.15 56.76 55.58 53.94 53.76 55.12 53.32 52.08 51.32 50.89 50.68 49.99 47.59 47.32 47.46 49.12 51.57 52.71 53.88 55.19 55.72

GFSSE_sfc_wetblb_072.txt.gz
Wetbulb
67.47 69.34 71.58 72.13 71.18 72.20 72.36 72.38 72.62 73.17 73.56 73.53 73.67 73.79 73.74 73.59 73.28 72.99 72.68 72.62 73.00 73.41 73.91 73.74 73.40 73.35 72.62 72.43 71.66 72.01 71.48 71.11 70.70 71.02 70.96 71.31 71.07 70.65 70.59 70.37 70.32 69.16 70.91
68.32 70.45 71.23 71.97 71.67 72.10 72.29 72.32 72.48 73.02 73.86 73.90 73.68 73.69 73.41 73.24 72.94 72.78 72.73 72.79 72.92 73.54 73.25 73.87 73.42 72.57 72.03 71.49 71.29 71.25 70.83 70.36 70.27 70.37 70.51 70.58 70.29 70.48 70.49 70.00 70.06 69.39 70.31
68.52 70.32 71.04 71.12 71.10 72.06 72.32 72.22 72.64 73.25 73.79 73.75 73.58 73.41 73.21 73.01 72.67 72.60 72.65 72.41 72.67 73.15 72.39 72.71 72.47 72.30 71.81 71.06 70.55 70.53 70.26 70.13 69.66 69.67 69.38 67.71 68.30 70.19 70.08 69.60 70.17 69.97 70.10
68.97 69.90 70.30 71.25 71.16 71.75 71.92 72.11 72.36 73.12 72.98 73.25 73.18 73.13 72.86 72.79 72.48 72.57 72.17 72.04 72.13 72.24 72.40 72.38 72.19 71.59 70.91 70.34 69.81 69.75 69.41 69.05 68.48 67.97 65.81 66.56 67.68 69.58 69.92 69.57 69.32 69.23 69.27
69.02 69.71 70.08 70.94 71.19 71.61 71.61 71.90 71.93 72.40 71.94 72.38 72.57 72.83 72.59 72.50 72.35 72.47 71.77 71.57 71.94 72.30 72.80 71.99 71.69 70.65 69.86 69.16 68.84 68.66 68.05 67.35 66.72 64.51 63.55 65.29 65.83 67.58 68.31 67.97 68.13 68.14 68.29
68.82 69.62 69.25 70.19 70.81 71.49 71.53 71.61 71.71 71.75 71.46 71.45 71.56 72.31 72.40 72.33 72.13 72.01 71.24 71.28 71.74 71.84 71.59 71.00 70.51 69.56 68.73 68.18 68.02 67.66 66.73 66.08 64.10 62.23 63.81 65.64 64.95 66.90 66.44 66.06 66.22 66.24 66.30
66.81 69.25 69.43 69.38 70.39 71.18 71.57 71.60 71.50 71.14 70.92 71.01 71.27 71.36 71.45 71.50 71.62 71.10 70.63 70.66 70.99 71.17 70.83 70.40 69.56 68.71 68.00 67.67 67.28 66.52 65.66 64.76 61.36 60.38 60.97 62.91 64.01 65.75 65.63 64.96 64.82 64.94 64.56
65.40 66.97 69.08 69.73 70.30 70.59 70.87 70.62 69.73 70.37 70.59 70.59 70.66 70.66 70.88 70.44 69.93 70.37 70.34 70.05 69.96 70.02 69.28 69.06 68.53 68.09 67.44 67.13 66.42 65.23 64.34 63.49 60.86 59.65 59.94 62.25 64.71 64.49 64.27 63.75 63.17 63.36 63.49
65.36 65.98 67.08 68.82 69.99 69.79 69.11 67.63 66.98 67.60 69.32 69.58 68.83 68.94 69.00 69.15 69.13 69.05 69.11 69.33 69.32 68.67 68.53 68.13 67.85 67.22 66.91 66.20 65.14 64.33 63.23 62.67 59.42 59.78 60.59 61.31 64.88 64.84 64.03 63.03 63.12 62.58 62.77
63.92 64.52 64.91 68.48 68.97 66.88 65.22 65.71 66.84 66.71 66.75 67.72 66.73 65.38 65.86 66.91 67.67 67.61 67.94 68.13 68.66 68.24 67.83 67.69 66.75 66.73 66.01 64.97 64.11 63.17 62.66 61.72 58.75 59.58 60.15 61.82 63.78 63.35 63.67 63.47 62.66 62.47 61.94
62.66 62.33 63.19 65.77 64.82 63.70 64.41 65.61 66.48 66.80 67.22 67.09 66.89 65.88 64.70 65.46 65.86 66.01 65.99 67.39 67.77 66.66 66.83 65.90 65.86 65.68 64.93 63.91 63.32 62.55 60.44 56.74 57.87 57.54 60.21 64.04 64.04 64.12 63.88 62.81 61.94 61.64 61.45
60.56 60.66 61.62 62.09 62.60 62.83 64.94 66.52 64.85 64.65 64.61 64.92 64.98 64.36 64.04 63.82 64.96 64.80 65.19 65.96 65.88 65.99 65.49 64.77 65.43 64.66 62.90 60.70 60.82 60.34 57.46 57.40 57.35 57.11 59.22 63.29 63.03 63.30 62.58 62.04 61.62 61.43 61.26
60.22 59.77 60.76 62.22 63.53 63.52 63.42 64.30 63.65 63.89 63.02 63.44 64.01 63.69 63.11 62.92 64.68 64.21 63.69 64.38 64.27 64.66 62.05 62.69 63.14 61.31 59.56 58.96 56.27 56.77 56.92 57.03 57.65 57.50 60.42 62.79 63.22 62.92 62.72 61.77 61.78 61.82 61.15
59.11 59.38 60.47 63.22 63.36 62.53 62.62 62.63 63.28 63.40 63.34 63.15 63.41 62.72 63.11 63.43 63.82 61.86 62.78 62.65 63.03 61.35 59.13 60.59 59.17 58.97 58.56 56.91 56.80 56.73 56.99 57.16 57.03 57.42 60.15 62.00 62.89 62.52 62.25 62.30 62.15 61.69 60.95
58.21 58.65 61.65 62.96 62.97 62.62 62.08 61.70 61.77 62.47 62.50 62.65 62.03 61.62 62.56 62.69 62.67 61.62 62.70 62.28 61.95 59.74 57.41 55.65 56.03 57.06 55.81 56.01 56.68 56.77 56.61 56.48 56.73 57.35 58.09 61.49 62.02 62.49 62.23 61.95 61.80 61.66 61.16
58.60 59.25 61.00 61.94 62.65 61.97 61.85 61.35 60.80 60.60 60.84 61.56 61.33 60.99 62.52 62.05 62.79 62.56 62.60 61.49 59.48 59.76 56.86 54.54 55.98 56.02 55.61 55.76 55.71 56.31 56.52 56.26 56.88 57.16 57.62 59.30 60.77 61.76 62.34 61.88 61.83 61.41 61.23
59.01 59.05 60.32 61.11 61.58 61.26 60.92 61.29 60.51 60.35 60.75 60.98 60.89 61.17 62.48 62.65 62.83 63.11 61.98 60.48 59.08 57.79 54.76 52.88 52.61 54.31 55.02 55.59 55.16 55.98 56.31 56.32 56.40 56.37 56.92 57.44 59.52 60.02 60.99 62.05 61.74 61.30 60.88
57.89 60.02 60.21 60.85 61.10 61.04 61.10 61.24 61.22 61.45 61.31 60.84 61.60 60.93 61.95 62.75 63.44 62.65 61.52 59.73 57.80 56.63 55.01 53.12 53.09 53.92 54.51 54.34 54.07 54.89 55.63 55.91 55.94 56.02 56.21 56.96 57.01 57.74 59.60 60.71 61.19 61.37 60.85
58.28 59.64 59.24 60.41 60.39 60.60 61.38 60.96 61.52 61.16 61.32 61.78 61.65 61.68 61.11 63.16 63.10 61.94 60.62 59.16 57.52 56.26 55.25 53.42 52.05 54.17 54.52 53.56 53.99 54.82 54.94 55.03 55.25 56.16 55.64 56.04 56.19 56.42 56.97 59.59 59.71 59.91 60.55
56.82 57.55 59.67 60.40 60.17 60.36 61.38 60.86 60.34 59.80 60.00 60.28 61.46 61.52 61.30 62.80 61.77 60.50 59.04 57.85 57.85 56.57 55.41 54.24 52.71 52.78 54.93 54.33 54.98 53.30 53.81 54.76 54.71 54.53 54.85 55.83 55.78 56.05 56.11 56.91 58.25 58.12 59.00
55.34 56.90 59.03 59.64 60.76 60.88 60.01 59.12 58.69 58.15 58.51 59.09 60.22 61.54 61.73 61.08 59.56 58.55 57.18 56.47 56.11 55.42 54.88 54.24 53.52 53.18 53.08 54.84 52.37 51.17 51.73 53.81 54.16 54.12 54.44 54.80 55.42 55.71 55.70 55.79 56.25 56.74 57.68
56.72 57.02 57.63 58.81 60.47 60.75 60.58 59.58 59.84 59.27 59.01 59.02 59.15 60.39 61.49 60.35 58.69 57.83 56.96 55.89 55.20 53.15 53.86 54.32 53.86 52.34 53.08 54.82 51.94 50.69 48.40 50.89 53.46 53.95 53.95 54.32 54.32 55.61 55.46 55.71 55.70 56.29 56.14
56.66 57.23 56.88 57.98 59.62 60.46 60.30 59.43 59.13 58.47 58.85 58.03 58.15 58.81 59.88 61.11 59.57 58.37 58.00 55.58 55.01 53.60 53.27 53.94 52.79 52.42 51.34 52.06 54.32 51.02 47.67 48.46 50.44 51.97 52.65 53.27 53.85 54.11 55.39 55.65 55.62 55.83 56.14
56.94 57.58 57.10 57.50 58.31 59.59 59.57 58.84 58.03 57.13 56.24 57.84 57.97 58.72 59.52 60.37 60.58 58.90 57.86 57.35 55.47 54.60 54.55 54.61 54.26 53.26 53.15 52.28 50.65 52.21 52.40 50.95 49.49 47.47 50.16 52.68 53.87 53.89 54.24 54.98 55.47 55.40 55.95
57.38 56.72 55.92 57.24 57.67 58.54 59.08 58.92 58.44 57.68 57.21 57.76 57.92 57.84 58.82 59.11 59.87 59.94 58.21 58.13 57.00 56.69 56.11 55.28 54.48 53.10 53.43 53.09 51.71 50.79 50.62 50.71 50.96 49.73 47.74 48.62 50.45 53.50 54.80 54.43 54.83 55.18 55.72
57.09 56.15 56.38 56.75 55.78 56.96 57.72 58.27 57.61 56.32 55.71 56.10 56.32 56.78 57.83 57.75 58.24 58.66 59.66 57.82 57.87 57.73 56.66 56.27 55.32 54.18 53.88 53.76 53.62 52.28 51.69 50.52 50.17 49.99 48.55 48.69 48.54 50.24 53.29 54.66 54.59 55.07 55.65

GFSSE_sfc_wetblb_075.txt.gz
Wetbulb
69.48 71.57 71.44 71.20 71.62 72.65 72.82 72.91 73.04 73.44 73.53 73.78 73.84 73.95 73.80 73.90 73.89 73.54 73.23 73.14 73.64 74.00 73.91 73.04 73.55 73.40 72.77 72.53 72.88 72.56 72.13 71.72 71.48 71.74 71.71 72.11 71.70 71.55 71.34 71.27 71.11 70.89 71.41
70.78 72.16 71.11 71.01 71.32 72.55 72.68 72.82 73.07 73.29 73.73 73.92 73.82 73.82 73.82 73.69 73.51 73.08 73.01 73.09 73.38 73.88 73.49 73.17 73.78 73.88 72.73 72.09 72.03 71.77 71.50 70.95 70.71 71.02 71.18 71.42 71.20 70.98 70.80 71.03 70.51 70.65 71.02
70.73 71.52 71.87 70.52 71.58 72.45 72.55 72.83 73.21 73.83 74.00 73.92 73.87 73.70 73.66 73.51 73.12 72.78 72.92 72.75 73.08 73.50 73.67 73.07 72.92 72.52 71.87 71.71 71.02 70.95 70.68 70.44 70.28 70.30 70.41 69.27 69.73 70.61 70.46 70.53 70.38 70.53 70.18
71.12 71.32 72.15 70.62 71.15 72.14 72.26 72.53 72.58 73.78 74.14 73.83 73.71 73.71 73.51 73.29 73.05 73.00 72.67 72.49 72.81 73.11 72.98 72.73 72.72 71.87 71.47 70.80 70.37 70.31 70.18 69.91 69.33 69.44 70.05 70.21 69.82 70.00 69.98 69.71 69.82 70.02 69.96
70.67 71.38 71.37 70.25 70.20 71.26 72.02 72.28 72.22 72.25 72.96 73.20 73.21 73.44 73.42 73.12 73.08 73.02 72.35 72.32 72.56 72.69 72.98 72.58 72.06 71.27 70.54 69.68 69.44 69.23 68.84 68.11 67.68 69.01 69.77 69.54 69.94 69.56 69.76 69.53 69.19 69.21 69.33
70.80 71.10 70.47 69.88 70.32 70.70 71.83 71.94 72.23 71.44 70.81 72.50 72.54 72.84 73.22 73.20 73.08 72.57 71.83 72.11 72.53 72.66 72.73 72.21 71.06 70.21 69.36 68.89 68.54 68.18 67.56 66.81 67.11 68.66 68.69 68.48 68.56 68.44 68.32 68.30 68.34 68.04 68.47
69.65 70.92 71.35 69.60 70.19 70.87 71.60 71.54 71.63 71.48 70.15 71.45 72.02 72.20 72.19 72.40 72.42 71.25 70.92 71.27 71.11 71.72 71.67 71.28 70.34 69.44 68.71 68.15 67.72 67.10 65.97 65.87 67.59 67.71 67.42 67.48 67.10 67.13 66.89 66.81 66.31 66.47 66.62
70.09 69.61 70.34 70.22 70.65 70.47 70.65 70.78 70.49 69.46 70.07 70.19 71.25 71.61 71.78 71.26 70.98 70.68 69.84 69.85 70.22 70.54 70.13 69.90 69.07 68.67 68.20 67.50 66.74 65.60 64.76 64.87 65.95 66.38 66.46 66.62 66.77 66.26 65.90 65.48 65.00 64.89 65.15
70.53 70.91 69.65 69.88 70.64 69.71 68.89 69.29 68.06 68.24 68.83 69.58 69.38 69.39 68.95 68.30 68.66 68.69 69.05 69.35 69.69 69.33 69.31 68.84 68.44 67.84 67.57 66.68 65.60 64.47 63.48 64.34 65.40 65.51 65.34 65.35 65.78 65.34 64.93 64.25 64.10 63.97 64.08
69.23 70.29 69.99 69.19 70.03 71.03 71.76 66.83 67.26 67.79 67.99 68.24 68.02 67.59 66.45 66.61 66.55 67.45 67.84 68.86 68.74 68.80 68.24 68.04 67.75 67.17 66.71 65.62 64.56 63.53 63.11 63.51 64.94 64.72 64.81 65.14 65.34 64.33 64.27 63.97 63.48 63.36 63.37
67.69 68.67 68.22 68.11 69.83 69.46 71.28 68.26 67.77 67.91 68.02 67.34 67.70 66.38 65.67 66.93 65.95 65.99 66.20 67.00 67.76 66.90 67.09 67.29 66.82 66.03 65.14 64.61 63.81 62.96 62.99 64.35 64.50 64.07 64.10 64.20 64.84 64.44 64.11 63.23 63.21 62.89 62.51
66.23 67.02 67.93 67.99 67.30 67.81 68.80 68.20 69.47 69.00 69.61 68.58 66.87 65.70 67.17 66.44 65.54 64.32 64.92 66.16 66.50 66.34 66.07 66.36 65.72 64.70 64.63 65.12 63.83 62.07 63.61 63.60 63.51 63.65 63.69 63.95 63.92 64.56 63.96 63.30 62.42 62.05 61.84
66.25 66.21 66.97 66.21 66.43 66.74 65.89 67.15 67.63 68.20 68.79 67.48 65.98 65.58 66.57 66.53 65.49 65.24 64.69 64.99 64.73 65.58 66.20 66.13 65.49 65.38 65.17 64.59 63.40 62.90 62.72 62.59 62.78 62.74 63.17 63.18 64.12 63.85 63.39 62.20 62.19 61.98 61.53
64.54 65.74 66.08 65.62 65.33 65.01 65.32 64.78 66.16 65.96 66.05 65.59 66.05 65.58 65.34 65.83 64.17 63.95 63.25 64.56 64.31 64.08 65.62 65.92 65.20 64.65 64.27 63.32 62.75 62.13 62.37 62.14 61.90 61.69 62.22 62.44 63.31 63.37 62.90 62.45 62.33 61.86 61.83
63.80 64.87 64.34 64.36 64.55 64.64 64.05 63.92 64.48 64.92 65.36 64.41 64.70 64.27 63.87 64.99 64.53 63.84 63.04 64.78 63.39 62.01 64.84 64.42 63.91 63.13 62.66 62.05 62.16 61.51 61.22 61.56 61.53 61.43 62.13 61.72 62.27 62.42 62.84 63.23 62.83 62.34 61.78
63.29 64.25 63.44 63.46 64.36 64.36 63.42 62.99 63.34 64.39 64.25 63.64 63.43 63.75 64.03 65.20 64.69 62.60 63.29 63.61 61.78 60.89 62.92 63.15 63.16 62.39 62.18 61.96 60.97 61.31 61.05 61.32 61.49 61.78 62.06 62.00 60.91 62.30 63.21 62.76 62.91 61.98 61.62
62.98 64.13 62.54 63.07 64.08 63.29 62.95 62.47 62.55 62.41 62.93 62.79 62.46 63.17 63.59 64.41 63.46 62.99 63.39 62.49 61.19 60.43 61.22 62.00 61.98 61.89 61.46 61.29 60.63 60.86 60.73 61.06 60.44 61.47 61.97 62.00 60.91 60.22 61.40 62.34 62.63 61.77 61.51
63.03 62.65 62.39 62.28 62.84 62.56 62.40 61.98 62.45 62.01 61.63 62.05 61.96 62.82 63.00 63.64 64.28 62.89 62.35 61.74 60.84 58.81 59.78 60.15 60.62 60.34 60.52 60.16 59.84 59.95 60.18 60.51 60.43 61.24 61.51 61.61 61.58 61.24 60.34 60.96 61.81 62.05 61.12
62.66 62.80 61.24 61.90 61.93 62.06 62.04 61.88 62.19 62.39 61.90 61.82 61.91 61.51 61.88 62.89 63.64 63.27 61.95 60.98 59.74 59.77 59.01 59.52 60.15 60.41 59.62 59.47 59.15 59.47 59.57 59.57 60.15 59.85 60.84 61.36 61.81 61.62 61.33 60.07 60.03 60.14 61.25
62.74 62.72 61.51 62.05 61.56 61.95 61.89 61.87 62.27 62.05 62.03 62.51 62.12 61.52 62.05 62.95 63.11 62.51 61.44 60.11 59.72 59.36 58.49 58.71 58.93 60.01 59.76 59.32 58.26 58.12 59.13 59.57 59.92 59.47 60.10 60.53 61.29 61.55 61.77 61.44 61.18 60.08 59.11
61.86 60.88 60.75 61.10 61.27 61.08 60.71 60.56 60.01 59.24 60.81 60.57 62.10 62.81 62.04 61.71 62.82 61.47 59.96 59.12 59.55 59.17 59.36 58.59 58.34 58.57 58.53 59.64 57.52 57.03 57.63 58.79 58.95 59.03 59.51 59.64 60.13 60.66 60.99 61.33 61.28 60.94 59.92
60.03 60.59 60.75 61.17 61.12 61.60 61.45 60.37 60.54 60.13 60.23 60.68 61.82 61.91 62.97 61.53 61.22 60.08 59.04 59.03 58.90 59.95 59.12 58.81 58.63 57.92 58.36 58.90 57.13 56.40 53.34 55.18 57.14 57.91 57.64 58.29 59.27 59.76 59.52 59.93 60.41 60.66 60.55
59.59 60.16 60.12 60.50 61.30 61.83 61.97 61.38 60.08 60.13 59.93 59.04 58.97 60.33 60.25 60.01 59.51 58.80 58.90 58.31 58.54 58.91 57.98 57.99 58.25 57.93 56.04 57.84 59.12 57.61 53.27 53.09 54.49 56.83 57.09 57.47 58.06 58.04 59.02 59.73 59.33 59.60 59.77
60.11 60.96 60.22 59.86 60.46 61.32 61.19 60.07 58.93 58.03 57.49 58.61 59.04 59.62 60.43 60.44 59.66 58.66 57.19 57.28 57.70 58.12 58.25 58.00 57.95 57.04 56.63 55.15 57.52 57.68 59.25 57.53 54.19 52.01 54.84 56.73 57.20 57.05 57.47 58.24 59.24 58.92 59.29
60.43 59.66 59.09 59.26 59.75 60.59 60.90 60.06 59.01 58.58 59.89 59.61 59.27 59.12 59.66 60.31 59.51 59.19 57.93 56.86 55.80 56.98 58.19 57.59 57.73 57.75 58.76 58.21 57.22 56.57 56.66 56.82 57.94 56.00 53.09 53.03 55.52 56.95 58.64 58.92 58.84 59.18 59.66
60.04 58.92 57.48 58.14 58.53 60.00 60.35 60.47 59.65 58.67 58.12 58.35 58.09 59.09 59.36 59.36 59.71 58.67 58.49 57.30 56.50 55.75 55.58 55.82 56.33 58.39 58.23 58.82 58.55 58.59 56.82 55.67 54.44 54.39 53.02 53.81 54.19 55.01 57.65 58.65 59.27 59.26 59.47

GFSSE_sfc_wetblb_078.txt.gz
Wetbulb
71.17 73.32 71.84 72.64 73.02 73.07 73.20 73.23 73.58 73.69 73.74 73.80 73.96 74.19 74.07 74.24 74.16 74.06 74.09 73.95 73.84 74.10 73.72 73.44 73.10 72.64 72.64 72.60 72.46 72.90 72.69 72.35 71.99 72.15 71.92 72.28 72.26 71.92 71.75 71.91 71.52 71.79 71.53
72.99 73.68 70.84 71.58 72.70 72.86 73.20 73.38 73.44 73.77 73.91 73.94 73.86 74.09 73.97 74.04 74.06 73.76 73.77 73.85 73.60 74.37 73.81 73.19 72.97 72.91 72.64 72.81 72.68 72.25 71.87 71.56 71.50 71.25 71.63 71.97 71.79 71.47 71.37 71.37 71.07 71.29 71.25
73.28 74.52 72.86 71.03 71.97 72.88 73.05 73.32 73.84 74.32 74.15 74.04 73.91 73.99 73.99 73.91 73.81 73.24 73.13 73.45 73.72 74.00 74.07 73.34 73.29 73.10 72.58 72.10 71.61 71.40 71.29 71.01 70.94 70.79 71.25 71.34 71.18 71.00 70.99 71.02 70.60 70.98 70.98
73.10 74.37 74.09 70.92 71.52 72.56 72.82 73.23 73.63 74.07 74.19 74.01 73.61 73.72 73.86 73.74 73.54 73.03 72.93 73.03 73.30 73.83 74.15 73.54 73.04 72.81 71.98 71.28 70.83 70.77 70.62 70.47 69.86 69.85 71.46 70.87 70.65 70.71 70.66 70.41 70.31 70.39 70.45
72.95 73.83 74.01 70.66 70.97 72.29 72.62 72.73 72.73 73.41 73.40 73.48 73.68 73.99 73.89 73.61 73.32 73.06 72.58 72.83 73.38 73.70 74.12 73.46 72.70 71.98 71.04 70.24 70.04 69.97 69.85 69.62 69.60 69.94 69.57 69.50 70.25 70.45 70.22 70.04 69.89 69.94 69.80
72.81 73.48 71.18 69.84 70.14 71.81 72.30 72.44 72.32 72.16 72.47 72.77 73.01 73.56 73.64 73.60 73.33 72.68 72.42 72.64 73.33 73.35 73.28 72.68 71.50 71.02 69.97 69.49 69.22 69.01 68.42 68.31 68.20 69.48 69.41 69.53 69.65 69.78 69.83 69.03 69.29 69.44 69.05
72.61 73.51 73.04 69.00 69.90 70.80 71.98 72.33 72.09 71.64 71.05 72.20 72.66 72.84 72.95 72.77 72.62 71.67 71.97 72.06 72.19 72.43 72.19 71.58 70.95 69.94 69.32 68.73 68.46 67.66 67.36 67.26 69.23 68.83 68.31 68.96 68.86 68.80 68.77 68.29 67.96 67.71 67.63
72.69 73.29 73.71 70.66 70.31 70.29 70.92 71.23 71.18 70.94 70.02 71.15 71.94 71.71 72.08 71.51 71.61 70.88 70.49 71.15 71.24 70.45 69.99 70.44 69.67 69.29 68.60 68.02 67.30 66.30 65.91 66.56 68.84 67.96 68.13 67.08 67.90 67.88 67.63 67.11 66.84 67.32 66.68
73.21 73.24 73.43 71.62 71.66 69.53 68.88 69.51 69.51 69.63 69.56 69.36 69.96 69.74 69.75 68.76 69.26 69.41 69.42 69.36 69.77 69.71 69.73 69.49 68.96 68.47 67.99 67.19 65.99 65.23 64.98 66.01 68.46 67.73 67.55 66.70 66.97 66.70 66.24 65.66 65.67 65.69 65.69
73.00 73.46 71.04 71.04 71.94 72.70 72.60 68.44 68.73 68.84 68.79 68.93 68.65 68.06 67.35 67.92 68.06 67.93 67.54 68.21 68.35 69.00 69.18 69.01 68.40 67.86 67.17 65.82 64.91 64.16 64.23 65.25 68.14 67.48 66.89 66.95 66.55 65.85 65.20 64.68 64.53 64.73 64.62
71.28 72.25 71.75 70.31 71.10 71.79 72.37 71.87 68.94 68.83 68.49 68.01 68.06 67.19 66.85 69.07 67.38 67.56 67.16 67.52 67.98 67.16 67.59 67.92 67.34 66.40 65.53 64.89 64.38 63.87 63.87 67.25 67.07 66.67 66.70 65.06 65.49 65.06 64.82 63.92 63.90 63.81 63.64
69.22 70.62 71.40 69.74 69.96 70.72 70.54 72.08 72.31 71.63 70.84 70.48 70.42 69.80 69.91 68.15 67.79 68.04 66.96 66.76 66.90 66.36 66.63 66.72 65.98 65.07 65.46 66.77 65.96 63.95 66.72 66.63 66.39 65.67 66.05 65.01 64.89 64.82 64.39 63.79 63.15 63.15 62.89
68.99 69.83 70.75 71.10 71.86 71.53 69.86 70.05 71.27 70.93 70.58 70.58 70.41 69.24 68.71 67.73 67.70 66.10 65.86 67.57 66.82 66.17 66.74 66.50 66.53 67.62 67.49 66.22 66.16 66.27 66.02 66.18 65.75 65.56 64.28 63.94 65.18 64.89 64.30 63.28 63.04 62.45 62.42
68.31 69.17 69.85 69.20 69.23 69.19 69.11 68.22 69.24 69.82 70.12 69.66 69.83 69.39 67.12 66.56 65.78 66.02 65.13 66.50 65.32 66.36 65.17 67.22 68.35 67.41 66.39 65.91 66.45 65.69 65.78 64.98 64.74 64.22 63.80 63.38 64.53 64.06 63.84 63.17 62.48 62.26 62.00
67.67 68.62 69.14 68.11 67.13 67.22 67.00 67.33 67.28 68.97 67.60 67.97 68.77 69.44 67.92 66.38 66.81 66.12 65.99 65.91 64.43 64.96 64.69 67.56 67.08 65.72 65.90 66.13 65.98 65.27 64.77 64.34 63.62 63.29 63.48 62.29 63.11 64.07 63.32 62.95 62.58 62.35 62.21
67.57 68.34 69.29 67.96 67.73 68.36 67.51 66.45 66.55 67.07 67.80 66.83 67.28 68.05 68.78 66.67 65.61 64.77 64.30 65.20 64.32 63.74 64.47 66.69 65.69 65.32 65.28 65.63 65.15 64.90 64.18 63.05 62.90 63.17 63.17 62.82 61.47 62.62 63.45 63.32 63.18 62.75 62.45
67.30 68.37 68.11 66.87 66.37 67.34 67.58 65.79 65.18 65.40 66.43 66.29 66.00 66.94 65.88 65.86 65.64 64.32 63.42 64.23 63.79 63.78 63.70 65.63 65.44 65.15 64.40 64.64 64.39 64.04 63.33 62.52 62.45 62.57 62.76 62.81 60.96 60.54 62.22 63.32 63.20 62.49 62.27
67.28 67.32 67.44 65.97 66.78 67.66 65.90 64.93 64.21 64.47 65.42 65.92 65.47 65.86 65.13 65.21 65.50 64.87 63.35 62.98 62.31 61.59 62.90 64.14 64.06 63.73 63.78 63.48 63.13 63.07 62.87 62.60 62.02 62.42 62.15 62.83 62.19 60.94 61.00 61.60 62.21 62.52 62.04
67.30 67.51 66.81 66.19 65.79 65.93 65.07 64.44 63.86 63.83 64.60 63.83 63.96 63.92 64.58 65.14 65.09 64.67 63.60 63.54 61.77 60.18 61.00 63.44 63.75 63.84 62.48 62.55 62.39 62.48 62.75 62.45 62.12 61.35 62.10 62.39 62.99 62.69 62.57 60.71 60.67 60.71 61.35
67.04 67.68 66.77 64.46 65.21 64.99 64.91 63.72 63.26 63.94 63.57 63.13 62.54 63.04 63.18 63.32 63.80 63.45 63.98 61.87 62.11 59.43 59.38 62.43 63.12 63.31 63.02 62.41 60.71 61.22 62.25 62.45 62.47 61.72 61.56 61.83 62.25 62.30 62.55 63.04 62.16 61.18 59.66
66.63 66.74 66.08 63.66 64.18 63.73 62.96 61.46 61.57 62.07 62.38 62.25 62.92 63.26 63.17 62.84 63.10 63.11 62.03 60.79 61.28 58.78 58.93 60.24 62.93 62.44 61.64 62.50 59.60 59.29 60.29 60.93 61.18 61.04 61.50 60.90 61.55 62.00 62.37 62.28 62.33 61.82 60.94
65.35 66.30 65.42 64.51 63.45 63.54 63.15 61.69 61.78 61.60 62.23 62.99 63.19 63.17 63.46 64.62 63.24 62.27 60.92 60.21 59.58 58.73 58.72 61.39 62.23 61.22 61.04 61.85 59.22 58.78 54.24 56.41 58.78 60.65 61.55 61.20 61.51 61.59 61.35 61.70 61.91 61.93 61.80
64.77 65.40 65.01 64.82 65.00 64.27 64.50 63.44 64.19 62.14 61.92 61.30 61.66 62.10 62.80 64.39 61.98 61.79 61.16 60.15 59.97 59.67 58.88 60.74 62.38 61.92 59.27 61.02 61.92 58.93 54.79 53.68 56.51 59.82 60.03 60.52 60.64 60.07 60.53 60.94 61.09 61.34 61.78
64.35 65.85 65.45 65.32 63.82 64.71 64.83 63.04 62.47 60.28 58.24 61.12 61.35 60.65 62.50 62.22 60.67 60.47 60.36 60.09 59.85 60.72 59.81 60.96 62.26 62.20 61.38 58.99 60.64 60.79 61.33 59.52 55.73 54.85 59.43 60.11 60.70 59.72 60.38 60.32 60.76 61.02 60.81
64.52 64.79 65.56 65.15 63.53 64.55 64.07 63.41 62.25 60.13 59.94 61.83 61.13 60.06 61.04 60.62 59.77 59.01 59.28 59.01 59.31 60.12 61.75 62.46 61.83 61.58 61.50 60.45 59.46 60.10 60.28 60.26 60.41 57.33 54.57 56.62 59.22 59.16 60.29 61.29 60.66 61.44 61.75
64.20 64.57 64.09 63.63 62.21 63.53 63.63 63.04 61.56 60.22 60.07 60.92 59.96 60.03 59.40 59.56 59.40 59.27 58.60 58.58 58.61 59.00 61.17 61.45 61.24 61.36 61.10 60.94 60.19 58.99 59.34 58.23 57.73 57.38 55.78 57.08 57.26 58.99 59.83 60.40 61.43 62.13 62.35

GFSSE_sfc_wetblb_081.txt.gz
Wetbulb
70.49 73.87 72.29 73.11 73.33 73.58 73.58 73.78 73.58 73.54 73.77 73.78 74.10 74.28 74.21 74.36 74.21 74.31 74.16 74.10 74.12 74.43 74.87 74.32 73.75 72.80 72.43 72.58 72.39 73.31 73.06 72.69 72.29 72.58 72.44 72.78 72.34 71.99 71.77 71.89 71.72 71.51 71.73
72.62 73.55 71.36 72.65 73.06 73.46 73.56 73.48 73.68 73.63 73.63 74.01 74.08 74.08 74.21 74.23 74.15 74.03 74.01 73.93 74.02 74.53 74.50 74.18 73.13 72.70 72.60 72.44 73.10 72.58 72.36 71.78 71.51 71.66 71.87 72.24 71.87 71.71 71.46 71.45 71.55 71.23 71.52
73.01 73.46 72.82 71.84 72.80 73.13 73.33 73.46 73.83 74.09 74.06 73.89 74.03 74.03 74.01 74.05 74.15 73.83 73.66 73.65 73.74 74.43 74.37 73.40 72.99 72.99 72.56 72.49 71.94 71.82 71.77 71.48 71.07 71.06 70.93 70.84 71.13 71.55 71.35 71.08 70.97 71.12 70.86
72.99 74.28 73.27 71.21 72.36 73.01 73.13 73.26 73.48 74.38 74.22 73.99 73.98 74.05 73.26 74.03 73.93 72.99 73.40 73.27 73.74 74.03 73.85 73.29 73.39 73.23 72.35 71.67 71.22 71.21 71.22 70.84 70.46 70.74 70.49 70.25 70.71 71.03 70.88 70.55 70.67 70.63 70.60
71.46 73.35 74.04 70.87 71.72 72.54 72.91 73.13 73.19 73.74 73.75 73.68 73.58 74.03 73.96 73.98 73.89 73.09 72.57 73.21 73.37 73.95 73.35 73.07 73.23 72.36 71.38 70.66 70.42 70.44 70.40 70.01 69.03 69.26 69.86 70.29 70.17 70.60 70.93 70.58 70.00 69.97 69.94
71.38 72.49 70.36 70.30 71.05 72.11 72.66 72.86 73.06 73.04 72.70 73.05 73.12 73.65 73.93 73.86 73.52 72.08 71.42 73.00 73.35 73.75 73.28 73.05 72.22 71.46 70.25 69.80 69.79 69.70 69.46 69.24 67.77 69.24 69.08 69.30 69.52 69.98 70.02 69.68 70.00 69.71 69.48
71.87 73.31 73.51 69.53 70.21 71.68 72.47 72.69 72.37 72.06 72.30 72.45 72.99 72.93 73.13 73.31 73.05 71.32 71.71 72.30 72.60 72.39 72.29 71.83 71.53 70.25 69.85 69.44 69.33 68.92 68.62 68.67 69.20 68.73 69.30 69.40 69.56 69.60 69.79 69.11 68.67 68.99 68.57
72.57 73.36 74.03 70.44 70.25 70.59 71.33 71.88 71.44 71.31 71.50 71.90 72.34 71.73 72.56 71.25 71.30 70.60 70.69 70.82 70.81 70.54 70.03 70.76 70.05 69.65 69.29 68.92 68.43 67.87 67.36 67.52 68.18 68.55 68.40 69.22 68.59 68.87 68.80 68.41 67.94 67.92 67.29
73.51 73.55 74.29 72.75 71.39 69.56 69.28 70.06 70.43 70.77 70.43 69.82 70.34 69.76 70.22 69.06 69.33 69.70 69.67 69.72 69.85 69.30 69.47 69.76 69.34 68.82 68.61 67.85 67.29 66.06 65.64 66.86 67.92 67.28 67.44 67.89 68.13 68.29 67.97 67.44 67.33 66.71 66.46
72.90 73.45 73.83 73.38 73.42 72.86 72.64 69.08 69.54 70.04 69.19 69.72 70.51 68.92 68.46 68.76 67.69 68.22 67.60 67.81 67.79 68.65 68.86 69.18 67.98 67.75 67.48 66.50 65.82 64.94 64.86 65.39 67.83 66.65 66.01 67.02 67.63 67.03 66.79 66.37 66.43 65.93 65.74
71.69 72.69 72.02 72.14 72.97 73.26 72.11 71.60 69.57 69.43 69.33 68.53 68.89 67.89 67.39 69.95 68.91 68.16 65.38 65.63 67.08 67.17 67.20 67.76 67.29 66.57 65.26 65.35 65.09 64.43 64.62 66.93 66.30 66.72 66.09 66.20 66.67 65.88 65.49 65.18 65.26 65.00 64.68
69.73 71.53 72.79 70.91 72.71 72.71 71.40 72.35 72.24 71.80 71.18 70.91 70.04 70.55 70.72 70.47 68.88 66.86 64.24 64.37 66.86 66.53 67.15 67.08 66.10 65.12 65.34 66.63 65.70 64.58 66.85 66.79 66.01 65.95 65.39 65.25 66.06 65.71 64.94 64.20 64.24 64.14 63.81
69.80 70.78 71.76 71.42 72.21 72.03 71.21 71.73 72.20 71.10 70.68 71.07 70.74 70.53 70.63 70.35 67.83 68.43 65.88 66.82 67.48 67.33 67.63 66.10 65.46 67.83 67.88 67.47 66.37 66.42 65.80 66.02 65.29 65.73 64.69 64.90 65.96 65.18 64.63 63.89 63.58 63.62 63.24
68.91 70.02 70.97 71.75 71.54 71.49 70.78 71.46 71.35 70.41 70.07 70.39 70.17 69.85 69.54 69.15 67.57 66.61 67.28 67.29 67.23 67.75 66.32 65.63 66.24 68.22 67.17 66.69 66.50 65.88 65.27 64.64 64.85 65.09 64.17 64.21 65.16 64.78 64.39 63.58 63.37 63.13 62.57
67.48 69.43 70.80 71.25 70.78 70.14 69.45 69.34 70.11 70.70 70.49 70.56 69.93 69.87 69.24 68.05 66.77 65.47 65.88 65.94 66.38 67.15 65.70 65.07 65.24 67.40 66.68 65.84 65.54 64.36 64.52 64.54 64.49 64.72 63.63 63.12 63.70 64.72 63.92 63.70 63.51 62.85 62.47
66.99 69.01 70.54 70.39 69.87 69.25 68.09 68.01 68.40 69.83 69.66 69.87 69.28 69.49 68.84 68.37 67.42 66.20 64.48 65.92 66.66 66.34 64.57 64.10 64.48 65.81 66.19 64.35 64.21 64.22 64.26 64.07 63.58 63.46 63.27 63.52 61.98 63.15 63.74 63.41 63.25 62.80 62.69
64.97 68.82 69.89 70.20 69.95 69.54 69.21 67.64 67.98 67.87 68.20 67.33 67.80 69.12 68.44 68.46 68.00 67.30 66.62 65.61 65.48 64.53 63.47 63.63 63.74 66.18 65.55 63.74 63.64 63.76 63.79 62.80 62.48 62.78 62.78 62.90 61.95 60.94 62.29 63.75 63.63 62.92 62.80
64.71 68.09 69.86 69.40 69.02 69.23 68.74 67.42 66.06 67.40 67.99 66.74 67.29 67.76 67.80 67.64 67.35 64.98 64.11 64.15 64.66 63.60 63.42 63.09 62.86 64.79 63.40 63.59 61.18 63.01 62.72 62.13 62.15 62.38 62.18 62.22 61.92 61.25 61.41 62.24 63.08 63.26 62.91
65.91 68.21 69.20 69.05 68.06 68.52 68.55 65.66 65.29 65.99 65.59 65.97 66.77 66.54 66.96 66.18 65.90 65.15 64.91 63.38 63.74 63.18 62.69 62.35 62.04 64.66 62.83 61.51 61.09 62.37 62.47 61.67 61.27 61.40 62.02 62.21 62.09 61.63 61.79 60.90 61.18 61.51 62.19
66.70 68.43 69.32 68.41 68.39 68.25 66.88 64.92 65.58 64.21 64.48 64.88 64.72 65.05 66.13 66.19 64.66 65.27 63.75 62.47 62.77 61.94 61.65 61.87 61.55 63.84 62.95 62.29 60.52 60.51 62.10 61.71 61.36 61.17 61.52 61.98 62.16 62.22 62.11 61.68 61.34 60.57 60.29
67.04 67.96 68.44 67.58 67.74 66.96 65.57 64.18 63.71 63.82 64.08 64.14 64.41 64.28 64.24 64.81 65.63 65.14 63.10 61.95 61.59 61.56 60.87 61.40 60.92 61.61 61.76 61.82 59.87 58.42 60.28 61.34 61.96 60.83 61.24 60.91 61.48 61.72 62.52 63.33 62.16 61.12 60.24
66.22 67.52 68.04 67.02 66.99 66.40 65.73 64.80 64.22 63.83 64.78 64.94 64.93 64.56 63.99 63.84 64.48 62.84 62.65 61.27 61.66 60.57 59.58 59.76 60.58 60.19 61.27 61.95 57.74 58.15 54.25 56.87 59.41 60.29 60.65 60.77 61.44 61.45 61.15 61.98 61.98 61.57 62.04
65.34 67.16 67.43 66.91 66.40 66.00 65.78 64.97 64.10 62.70 63.82 62.64 63.58 64.28 63.72 64.58 64.54 64.08 61.88 60.87 60.66 59.90 58.77 59.31 60.09 59.78 58.92 60.98 61.71 58.40 53.80 52.90 56.20 59.48 60.18 60.45 61.97 60.93 61.48 61.30 61.36 61.66 62.30
64.95 67.19 67.48 66.96 66.17 66.00 65.71 64.08 62.67 61.62 60.00 62.59 62.99 63.74 63.79 63.93 64.23 63.60 61.34 60.76 60.19 59.73 58.86 59.50 60.91 60.63 60.29 59.12 61.23 61.63 60.47 59.16 55.31 54.46 59.04 59.78 60.70 60.20 61.37 60.88 60.80 61.36 61.92
65.15 66.40 67.28 67.02 66.31 65.94 65.60 65.29 63.59 62.35 62.70 63.32 62.66 62.29 62.04 62.38 61.51 61.01 60.90 60.25 59.70 59.51 59.12 59.40 60.09 60.64 61.03 60.17 60.49 60.89 60.35 59.90 58.59 56.78 54.37 56.78 59.71 60.13 60.82 61.45 61.31 61.39 61.77
64.76 66.60 66.54 66.10 65.59 65.78 66.00 65.12 63.78 62.84 62.23 62.30 61.69 61.25 60.53 60.48 59.78 59.14 59.98 60.29 60.40 59.95 59.23 59.50 60.59 61.49 61.65 61.79 61.42 60.81 59.52 58.23 57.49 57.36 56.37 56.97 57.70 59.44 60.57 61.10 60.76 61.14 61.92

GFSSE_sfc_wetblb_084.txt.gz
Wetbulb
71.44 71.92 72.67 73.30 73.76 74.21 74.00 73.55 73.40 73.54 73.74 74.11 74.31 74.39 74.30 74.50 74.34 74.36 74.20 74.19 74.40 75.04 75.49 74.89 74.17 73.17 73.12 72.98 73.29 73.35 72.99 72.81 72.57 72.74 72.73 73.22 72.75 72.11 72.31 72.00 71.69 70.60 72.21
72.74 72.38 72.13 72.90 73.39 73.87 74.25 73.85 73.53 73.57 73.93 74.19 74.31 74.34 74.34 74.31 74.38 74.41 74.27 74.06 74.31 75.07 74.99 74.04 73.45 73.29 72.90 72.92 72.83 72.55 72.30 71.72 71.73 71.92 72.22 72.70 72.51 71.90 71.49 71.54 71.47 71.03 71.80
72.07 72.31 72.42 72.36 73.19 73.58 73.81 74.12 73.95 73.83 74.02 74.12 74.18 74.23 74.31 74.36 74.23 74.25 73.86 73.70 74.28 74.64 74.52 73.74 73.71 72.82 72.53 72.66 72.23 71.99 71.67 71.56 71.32 71.21 71.45 69.34 70.15 71.89 71.62 71.27 71.42 71.47 71.12
71.50 71.90 72.22 72.17 72.62 73.21 73.21 73.49 73.91 74.04 74.20 74.09 74.06 74.13 74.08 74.23 74.08 73.70 73.42 73.36 73.95 74.04 73.77 73.44 72.98 73.10 72.61 71.90 71.36 71.28 71.18 70.77 70.39 70.67 69.08 69.53 69.89 71.26 71.40 71.24 71.29 71.03 70.73
72.02 71.76 72.22 71.51 72.10 72.84 72.93 72.97 73.33 73.78 73.69 73.57 73.60 74.01 73.85 73.92 73.50 73.52 72.79 73.16 73.48 73.97 73.50 73.35 73.22 72.67 71.51 70.66 70.68 70.61 70.45 69.31 69.10 69.24 68.65 68.66 68.67 70.58 71.17 70.79 70.50 70.55 70.27
71.60 72.42 69.51 70.39 71.45 72.47 72.78 72.88 73.04 73.28 72.94 72.91 73.06 73.41 73.85 73.85 73.49 72.96 72.15 72.57 73.44 73.70 73.20 73.22 72.66 71.46 70.40 69.95 70.05 69.95 69.39 69.31 68.67 67.89 67.70 68.78 68.57 70.34 70.34 70.22 70.25 70.05 69.68
72.48 72.53 70.85 69.79 71.09 72.08 72.75 72.73 72.73 72.65 72.44 72.63 72.78 73.02 73.30 73.19 72.63 71.96 71.79 72.19 72.74 72.31 72.50 72.43 71.91 70.51 69.95 69.58 69.59 69.03 68.93 68.69 67.70 67.26 67.45 67.79 67.93 70.06 70.14 69.92 69.48 69.48 69.25
72.95 73.54 71.54 70.56 70.84 71.19 71.64 71.83 71.51 71.73 72.12 72.19 72.22 72.46 73.17 72.46 71.02 70.37 70.74 71.01 71.07 70.57 70.40 70.31 70.22 69.91 69.63 69.42 69.08 68.19 67.81 67.35 67.63 66.62 67.24 67.17 68.70 69.66 69.71 68.92 68.43 68.56 68.28
74.08 73.95 72.08 70.95 70.49 70.25 69.97 70.23 70.56 70.92 70.71 71.43 71.50 70.93 71.40 69.74 69.01 69.87 69.30 68.70 68.89 69.19 69.16 69.16 69.60 69.35 69.23 68.62 68.12 66.55 65.88 67.39 66.11 67.04 67.22 66.42 68.64 68.81 69.07 68.39 67.66 67.35 67.06
73.49 74.02 73.08 71.89 71.26 70.79 70.55 69.34 69.85 70.60 70.22 70.32 70.64 69.93 68.72 68.86 69.11 68.74 68.17 66.73 67.56 67.70 68.31 69.15 68.77 68.72 67.92 67.09 66.88 66.04 65.25 66.50 65.47 66.13 65.89 66.34 68.56 68.67 68.47 68.09 67.50 66.74 66.28
71.38 72.45 73.22 72.51 72.01 72.21 71.69 70.36 69.64 70.11 69.74 68.95 69.34 68.30 67.05 69.23 68.40 68.21 67.29 67.36 67.58 66.66 66.75 68.00 67.79 66.82 65.90 65.66 64.46 64.07 64.94 64.90 65.64 65.40 65.15 66.96 68.16 68.14 67.94 67.40 66.91 66.48 65.92
69.50 70.81 71.54 71.31 72.23 72.38 70.80 70.97 70.47 70.51 70.11 69.80 69.40 68.89 69.64 69.26 68.19 67.37 65.97 66.67 66.71 66.30 66.42 67.00 66.66 65.48 65.15 65.11 64.21 63.80 63.43 64.25 64.45 64.21 64.80 66.09 67.37 67.10 66.68 66.29 65.91 65.47 65.39
68.95 70.05 71.35 70.71 72.19 71.94 70.41 71.56 71.13 70.46 70.12 69.74 69.67 69.16 69.30 69.12 66.84 65.01 63.47 64.42 65.66 66.53 66.08 66.35 65.47 65.66 65.98 64.90 64.26 63.96 63.96 64.18 63.98 63.47 64.46 65.17 66.40 65.87 65.30 65.29 64.97 64.85 64.27
67.54 69.35 71.44 70.43 70.68 70.97 70.32 70.22 70.41 70.44 70.12 69.26 69.31 68.79 68.45 67.72 65.28 64.78 64.16 64.47 65.26 65.53 65.85 65.59 65.00 65.95 65.90 65.62 64.67 64.02 64.10 62.53 62.89 62.75 63.58 64.55 65.25 65.22 64.94 64.31 64.03 63.60 63.78
65.99 68.41 69.90 70.60 70.46 70.67 70.56 69.75 70.11 70.19 69.02 68.90 69.07 68.70 68.19 67.45 65.97 66.56 65.67 65.04 65.32 65.53 65.48 64.89 64.82 65.15 65.01 64.80 64.62 63.95 61.84 62.40 62.67 62.44 62.39 63.57 64.19 64.95 64.48 64.26 64.03 63.15 62.89
64.01 67.63 69.98 70.26 70.46 70.07 69.03 69.14 69.13 69.67 69.69 69.19 68.72 68.18 67.74 67.14 66.15 65.62 65.41 65.18 64.84 65.20 65.35 64.49 64.17 64.01 63.72 63.78 63.25 62.23 61.24 61.09 61.90 61.03 61.73 61.90 62.58 63.55 64.14 63.77 63.46 62.90 62.65
62.98 66.48 69.43 69.79 69.73 68.72 68.03 68.22 68.01 68.68 68.61 68.27 67.84 67.95 67.70 67.01 66.09 64.99 64.37 64.33 64.34 65.38 64.59 63.67 63.43 63.58 63.29 63.70 61.91 62.11 61.53 61.17 59.59 60.66 60.84 60.94 60.82 61.51 62.33 63.50 63.89 62.96 62.46
61.62 64.49 69.55 69.34 68.43 68.30 67.80 67.25 66.91 66.32 67.55 67.13 67.49 67.31 67.14 66.67 66.26 65.08 64.11 64.20 65.00 64.48 63.18 62.61 62.36 62.55 62.49 62.26 60.54 60.08 60.10 58.86 58.67 60.56 60.82 60.31 59.82 59.99 60.60 61.99 62.76 63.33 63.73
59.96 64.31 68.56 68.59 67.88 68.24 68.04 66.66 65.90 65.48 66.79 66.55 66.53 66.78 66.67 65.84 65.63 65.02 64.33 64.40 63.87 63.32 62.44 62.27 62.09 62.07 61.13 60.96 59.84 59.33 58.84 57.28 58.16 59.51 59.73 59.59 59.29 59.31 59.33 60.96 61.34 61.67 62.57
59.50 66.74 69.01 68.16 67.37 67.75 67.09 65.17 64.55 64.53 65.49 65.93 65.39 64.99 65.46 65.28 65.07 64.95 63.64 63.60 63.27 62.44 62.18 62.12 61.70 61.64 61.14 60.28 59.84 59.16 59.07 57.64 57.39 57.20 59.68 59.40 58.57 58.70 59.09 59.72 59.25 59.67 60.60
63.62 66.92 68.38 67.00 66.54 66.81 64.19 62.93 62.71 61.81 63.14 63.35 63.99 64.11 64.69 64.62 64.87 64.19 63.35 62.81 62.83 62.00 61.65 61.51 61.10 60.23 59.91 59.76 57.56 57.63 58.10 58.73 57.66 57.25 58.02 58.85 58.80 59.38 58.90 58.95 58.71 58.41 58.75
64.86 66.42 67.74 66.80 66.83 66.48 64.81 63.77 63.66 63.04 63.34 62.95 63.41 63.61 64.34 64.38 64.45 63.55 62.91 62.08 62.04 61.34 61.36 60.81 60.50 59.23 59.68 59.89 56.05 55.31 52.46 55.11 57.36 58.04 56.70 57.07 58.83 58.57 59.92 59.71 58.91 58.28 57.82
64.63 66.16 67.26 66.35 66.73 66.13 65.20 64.32 63.42 63.41 62.89 61.72 62.11 62.85 63.28 63.81 63.54 63.55 62.92 61.51 61.26 61.30 60.45 60.65 60.14 59.25 57.77 58.80 58.22 55.43 52.12 50.60 53.60 56.53 56.06 56.43 57.00 56.87 56.66 58.80 59.66 58.72 58.56
63.70 66.97 67.41 66.78 66.14 65.85 65.30 63.41 61.74 60.41 59.84 61.00 61.04 62.77 63.06 63.69 63.04 63.09 62.36 61.54 61.23 61.02 60.46 60.12 60.85 59.82 58.73 56.69 58.04 58.68 56.81 55.07 51.40 50.80 55.31 56.75 57.77 57.36 57.15 58.50 57.16 58.00 58.85
63.90 66.27 67.12 66.39 65.53 65.15 64.78 63.55 61.88 60.54 61.09 61.24 61.49 61.64 61.77 62.05 62.94 63.17 61.43 61.05 60.54 60.52 59.69 59.87 59.87 59.57 59.34 57.78 56.87 56.79 56.24 56.35 55.90 53.25 51.03 54.01 55.93 56.89 57.08 57.42 57.65 57.04 58.07
63.44 65.81 66.57 65.62 64.64 64.60 64.50 63.23 62.50 61.09 60.56 60.29 60.18 59.95 60.94 60.14 59.89 60.65 61.22 60.54 60.42 60.20 58.94 59.22 60.03 59.76 59.45 58.59 58.23 57.87 56.81 55.27 55.12 54.04 53.50 53.86 53.90 55.67 56.68 56.85 56.97 57.41 57.67

GFSSE_sfc_wetblb_087.txt.gz
Wetbulb
69.72 71.45 72.72 73.47 73.45 73.15 73.11 72.97 73.06 73.36 73.62 74.04 74.10 74.12 74.28 74.47 74.59 74.29 74.39 74.50 74.67 74.89 75.41 74.89 74.41 73.99 73.86 73.26 73.49 73.29 72.71 72.32 71.94 72.42 72.56 72.89 72.95 72.62 72.99 72.31 71.94 71.02 72.32
70.57 71.67 71.83 73.03 73.47 73.60 73.42 73.08 73.02 73.36 73.75 74.11 74.14 74.15 74.20 74.16 74.28 74.11 74.09 74.55 74.72 75.21 74.61 74.04 73.67 73.49 72.75 73.16 72.88 72.59 72.43 71.97 71.50 71.62 71.99 72.57 72.95 72.60 72.25 72.03 71.46 70.98 71.94
70.27 71.50 71.92 72.21 73.33 73.71 73.54 73.36 73.25 73.68 73.99 74.09 74.23 74.21 74.17 74.10 74.17 73.92 73.75 74.01 74.49 75.01 74.61 73.86 73.36 73.34 73.08 72.50 72.10 71.98 71.91 71.57 71.37 70.97 71.27 69.36 70.17 72.40 71.99 71.83 71.53 71.53 71.18
70.77 71.26 71.62 71.99 72.61 73.36 73.35 73.27 73.19 73.85 74.18 74.16 74.11 74.26 74.16 74.04 74.14 73.86 73.41 73.44 74.38 74.71 74.59 73.60 73.27 72.95 72.37 71.93 71.44 71.38 71.34 70.95 70.62 70.41 69.09 69.17 70.26 71.78 71.69 71.31 71.21 71.16 71.08
69.43 70.90 71.47 71.49 71.87 72.44 72.76 73.00 72.99 73.36 73.56 73.64 73.74 74.18 74.24 74.03 73.81 73.53 73.00 73.27 74.08 74.31 74.36 73.40 73.36 72.93 71.68 70.87 70.52 70.48 70.31 69.86 69.36 68.62 67.74 68.05 69.05 70.74 71.38 70.80 70.70 70.69 70.36
68.72 70.90 69.99 70.48 71.38 72.09 72.48 72.49 72.80 72.82 72.44 72.62 73.04 73.64 73.90 73.72 73.75 73.07 72.40 73.04 74.12 73.93 73.62 73.52 73.41 71.94 70.54 70.04 69.93 69.79 69.20 68.75 68.04 67.16 67.55 69.05 68.36 70.61 70.90 70.20 70.25 70.26 69.85
68.95 69.45 69.83 69.70 71.00 71.88 72.32 72.38 72.38 72.38 72.09 72.28 72.80 72.86 73.15 73.17 73.05 72.42 72.02 71.87 72.99 72.90 72.10 72.41 72.22 70.90 70.20 69.70 69.65 69.08 68.38 68.05 67.06 66.96 67.12 67.19 68.19 70.37 70.35 70.13 69.84 69.89 69.75
69.22 69.01 69.39 70.62 70.80 71.10 71.54 71.53 71.36 71.80 71.84 71.77 72.02 72.41 72.86 72.55 71.85 71.23 71.25 70.51 70.61 70.02 69.92 70.61 70.25 70.24 69.72 69.42 69.01 68.28 67.15 67.85 67.27 66.73 66.82 67.08 69.26 70.04 70.21 69.30 69.15 68.94 68.78
70.58 68.70 68.63 69.32 70.39 70.24 69.64 69.88 69.99 70.83 71.33 71.46 71.41 71.42 71.65 70.70 69.52 69.97 69.94 69.11 68.40 68.20 68.18 68.74 69.33 69.53 69.45 68.71 68.07 66.94 66.18 66.84 66.14 66.58 66.81 66.96 69.25 69.47 69.71 68.69 68.42 67.94 67.97
70.17 69.07 67.86 67.61 68.20 67.93 68.17 68.90 69.50 69.69 69.58 70.08 70.55 69.78 69.54 69.09 69.60 69.18 68.43 68.44 68.54 67.40 66.83 67.82 68.38 68.97 68.92 67.55 66.92 65.58 65.40 66.72 66.03 65.82 65.74 66.93 68.99 68.98 68.99 68.40 68.03 67.44 67.05
69.64 69.64 68.56 67.97 67.95 67.77 67.46 68.85 69.57 70.17 69.74 69.33 69.42 68.24 66.78 67.43 67.28 67.93 65.94 66.81 67.31 65.34 66.83 67.50 67.79 67.16 66.67 66.51 65.85 65.69 64.69 64.25 64.96 65.18 66.12 67.67 69.18 69.44 68.99 68.02 67.56 66.98 66.41
66.87 69.30 68.97 68.85 68.71 68.69 69.88 67.64 67.21 68.69 67.77 67.50 67.75 66.49 67.14 66.15 65.98 66.67 65.35 66.79 66.61 66.54 66.67 66.81 67.11 66.01 65.57 64.20 63.96 64.31 62.70 62.76 63.73 64.81 65.93 67.13 68.81 68.74 68.80 67.96 67.27 66.84 66.16
67.45 69.38 68.72 68.08 69.16 68.82 67.79 67.59 67.81 67.72 67.36 67.07 66.61 66.06 66.78 66.48 65.28 65.62 65.24 65.68 65.41 66.11 65.45 66.11 65.69 65.53 65.06 63.92 62.89 62.45 62.40 63.76 63.44 64.41 65.50 66.24 67.95 67.99 67.87 67.36 66.75 65.92 65.20
67.20 68.54 68.62 68.40 69.28 68.44 67.68 68.27 68.13 67.90 67.19 66.67 66.31 66.27 66.78 65.37 63.95 63.01 62.45 62.90 64.24 64.89 65.07 65.04 64.69 65.05 64.57 64.00 63.37 62.61 62.10 62.74 62.28 63.41 64.58 64.67 66.01 66.51 66.69 66.78 66.46 65.35 64.25
63.75 68.23 68.48 68.25 68.62 68.30 66.72 66.69 66.44 67.41 67.37 66.83 66.20 66.36 66.44 64.79 64.23 63.01 61.85 62.87 64.08 64.87 65.11 64.39 64.06 64.73 64.77 64.08 63.18 62.82 61.41 61.51 61.86 62.93 63.11 63.53 64.11 65.22 65.32 65.48 65.08 64.43 63.64
57.15 67.11 68.90 68.10 68.55 68.35 66.29 65.78 65.72 65.97 66.00 66.22 66.11 66.09 66.31 65.63 63.97 63.45 63.03 62.86 63.46 64.43 65.28 64.81 64.06 63.69 63.98 64.37 63.28 62.63 60.86 61.25 61.06 61.91 62.21 62.43 62.58 63.71 64.40 64.26 63.52 63.71 63.55
56.05 62.22 68.29 67.79 68.06 67.86 66.36 65.75 65.29 65.17 65.71 65.34 65.71 65.82 65.91 65.60 64.88 63.81 63.74 63.56 63.66 64.28 64.31 63.42 62.54 62.49 62.86 63.73 63.00 62.17 61.07 60.67 60.53 61.19 61.16 61.09 61.36 61.47 62.58 63.71 63.83 63.45 62.98
53.26 61.50 68.16 68.49 67.13 66.26 66.18 65.21 64.70 64.59 64.67 64.17 64.67 65.14 65.27 65.00 65.67 64.00 63.42 63.25 63.74 63.55 63.40 62.65 62.48 61.49 62.05 62.23 61.55 61.14 59.93 60.46 60.02 60.20 60.54 60.23 59.51 59.75 60.86 61.98 62.78 62.94 63.09
52.42 61.23 67.06 66.98 65.93 65.45 65.49 64.88 63.64 64.15 63.87 63.40 63.83 64.31 64.67 64.31 64.14 63.38 62.73 62.71 63.65 63.25 62.49 61.63 60.83 61.36 61.40 61.65 61.50 59.95 57.53 58.44 59.41 60.17 59.30 58.96 58.31 57.69 58.27 60.75 61.02 61.15 62.44
52.15 62.70 66.76 66.30 65.79 64.74 64.93 63.51 62.21 63.37 64.41 62.69 62.44 63.25 65.58 64.17 64.02 62.40 61.73 61.92 62.53 61.92 60.88 60.48 60.91 61.29 61.42 61.27 61.65 59.17 56.64 57.08 57.68 58.59 58.02 58.84 58.12 57.85 58.65 59.18 59.35 59.32 60.49
51.83 65.42 65.95 65.35 65.34 64.32 63.17 61.70 61.06 60.64 63.37 61.45 61.51 62.45 62.54 62.45 62.98 61.34 61.74 62.89 62.37 61.03 61.55 61.08 61.11 60.48 60.23 60.70 57.84 56.83 56.36 55.64 54.56 57.07 57.64 57.65 56.88 57.62 58.38 59.02 58.89 58.00 59.11
56.58 65.55 65.68 65.21 64.92 63.41 63.02 62.05 60.05 59.71 62.08 60.27 60.43 61.44 63.54 62.30 62.05 61.70 62.39 62.05 61.74 61.46 61.17 61.16 60.56 60.00 59.95 60.21 56.50 55.37 52.37 54.20 55.92 54.86 57.08 57.35 56.12 57.66 57.99 58.65 58.33 57.44 57.39
61.78 64.88 64.72 64.70 64.65 63.20 62.30 61.92 60.98 60.07 59.37 58.87 59.79 60.39 62.45 63.36 62.46 62.24 62.02 61.95 61.75 61.57 60.78 60.73 60.47 59.62 58.20 59.40 58.12 54.89 51.46 49.91 53.67 54.87 54.55 56.31 56.52 57.24 57.68 58.06 57.74 57.32 57.16
64.07 65.41 64.52 64.52 64.29 62.73 62.32 60.90 60.37 59.53 58.30 58.38 59.38 61.40 60.87 61.59 62.39 62.51 62.38 61.89 61.44 61.46 60.97 60.72 60.76 59.85 59.09 57.25 57.19 57.22 55.93 54.94 51.13 50.08 53.78 54.42 55.75 56.29 55.98 57.47 57.34 57.36 57.19
63.63 64.73 64.27 64.33 64.13 62.98 61.99 60.78 59.64 57.87 57.72 57.95 58.72 59.70 60.37 61.04 61.53 61.32 61.06 61.36 60.94 61.15 61.05 61.05 60.27 59.48 59.36 58.30 56.84 55.61 54.20 54.81 54.34 52.22 49.76 51.66 53.83 55.35 54.99 56.25 57.47 57.47 57.60
62.61 64.38 63.89 63.55 63.32 62.65 61.55 60.59 59.86 58.20 57.83 57.85 57.70 58.55 58.43 59.73 60.52 60.87 61.04 61.08 61.23 60.81 60.47 60.65 60.46 59.82 59.18 58.72 58.16 57.05 55.33 54.34 53.55 52.98 51.08 51.44 52.22 53.15 54.69 55.31 55.59 55.82 55.98

GFSSE_sfc_wetblb_090.txt.gz
Wetbulb
69.18 71.68 72.53 73.04 73.29 73.21 72.95 72.80 72.80 72.94 73.43 73.68 74.01 74.27 74.55 74.44 74.32 74.27 74.47 74.34 74.18 74.96 75.54 74.34 74.44 74.49 74.21 73.46 73.96 73.19 72.85 72.55 72.16 72.55 72.67 73.11 72.87 72.65 72.49 72.42 72.11 71.35 72.64
69.99 71.95 71.91 72.68 73.00 73.34 73.15 72.87 72.96 73.27 73.82 73.93 73.87 74.05 74.26 74.21 74.06 74.21 74.34 74.35 74.57 74.84 74.81 74.02 74.19 74.06 73.34 73.22 72.62 72.42 71.92 71.70 71.79 71.83 72.65 72.52 72.62 72.33 72.05 71.97 71.62 71.29 72.06
69.95 71.61 72.42 72.10 72.99 73.25 73.28 73.25 73.39 73.88 74.14 74.05 73.97 73.91 74.01 74.20 74.13 74.02 74.17 74.22 74.47 75.04 74.44 73.84 73.52 73.87 73.19 72.59 72.26 72.17 71.88 71.62 71.49 71.44 71.70 69.46 70.51 72.03 71.99 71.68 71.75 71.72 71.48
70.22 71.08 71.70 72.29 72.54 72.82 72.71 72.78 73.28 73.89 73.75 73.93 73.88 73.84 73.95 74.12 73.87 73.62 73.68 73.81 74.28 74.68 74.27 73.86 73.67 73.49 72.62 71.86 71.50 71.49 71.32 70.98 70.44 70.39 69.15 68.97 70.61 71.71 71.60 71.28 71.21 71.27 71.11
70.03 70.88 71.43 71.64 72.12 72.66 72.54 72.54 72.82 73.15 73.27 73.45 73.65 74.06 74.07 74.09 74.00 73.67 73.11 72.78 74.36 74.73 74.22 73.73 73.49 72.45 71.57 70.70 70.61 70.84 70.64 69.96 69.62 68.63 66.59 68.40 69.56 71.03 71.53 71.05 71.01 70.78 70.72
69.51 70.59 70.34 70.41 71.53 72.38 72.55 72.44 72.71 72.56 72.25 72.49 72.96 73.83 74.01 74.02 73.85 73.29 72.70 73.09 74.31 74.10 74.02 73.72 73.11 71.21 70.48 69.98 70.10 70.06 69.64 68.74 68.22 67.35 67.71 69.33 68.48 70.72 70.72 70.53 70.52 70.23 69.91
68.44 69.43 70.05 69.67 70.88 71.77 72.45 72.52 72.18 72.09 71.76 72.05 72.47 73.03 73.40 73.56 73.29 72.78 71.95 72.58 73.23 72.45 72.08 71.98 71.25 70.10 70.07 69.75 69.59 68.97 68.34 67.85 66.97 66.77 66.77 67.62 68.37 70.42 70.69 70.27 70.19 69.96 69.85
68.17 68.79 69.40 70.70 70.84 70.93 71.17 71.19 71.13 71.29 71.36 71.69 71.89 72.24 72.82 72.56 72.19 72.04 71.65 71.15 70.90 69.95 69.75 70.29 69.99 69.48 68.96 69.48 68.97 67.90 67.32 67.57 67.04 66.48 66.79 67.00 69.72 70.14 70.36 69.86 69.52 69.58 69.33
68.06 68.07 68.41 69.13 70.32 69.83 69.27 69.38 69.60 70.35 70.85 70.96 71.04 71.15 71.66 71.21 70.79 71.08 70.87 70.45 69.71 69.32 69.02 69.03 68.80 68.88 68.66 68.39 68.10 66.83 66.44 66.90 66.07 66.19 66.92 67.48 69.65 70.04 70.16 69.46 69.08 68.55 68.41
67.39 67.44 67.49 67.51 67.91 68.18 68.82 68.55 69.11 69.74 69.85 70.12 70.39 70.17 69.71 69.89 70.15 69.80 69.27 69.35 68.73 68.67 68.58 68.51 67.85 67.89 68.09 67.34 67.08 65.90 66.12 66.70 66.24 65.90 66.26 67.07 69.49 69.73 69.55 68.76 68.42 67.96 67.52
67.29 66.52 66.92 66.97 66.83 66.71 67.23 68.59 69.47 69.80 69.44 69.06 69.33 68.77 67.60 68.30 68.05 68.16 67.33 68.15 67.17 67.08 67.60 67.62 67.24 66.30 66.66 66.68 65.83 65.68 65.68 65.35 65.40 65.50 65.20 67.65 69.07 69.50 69.25 68.69 68.29 67.83 67.18
66.49 66.35 66.36 66.41 66.42 66.42 68.58 67.06 67.17 68.64 67.69 67.71 67.78 67.08 66.83 65.93 66.02 66.21 65.86 66.77 65.83 65.68 66.39 67.11 66.84 66.20 65.93 65.68 65.23 64.91 63.23 63.78 64.41 64.90 65.99 67.06 69.35 69.67 69.33 68.37 68.03 67.30 66.72
67.58 67.49 67.20 66.88 66.95 66.99 67.67 66.17 66.26 67.87 66.76 66.08 65.98 65.25 65.13 65.79 66.38 64.68 64.00 65.49 64.35 65.83 64.89 65.77 65.88 65.68 65.25 64.43 64.42 62.62 62.36 63.12 63.65 64.12 65.92 66.17 68.73 69.18 69.07 68.09 67.53 67.04 66.52
67.05 68.02 67.89 67.80 67.89 67.89 67.96 66.56 66.22 66.51 66.15 65.74 65.18 65.52 66.02 65.27 64.93 64.87 64.65 64.15 64.06 63.77 63.87 63.80 64.08 65.12 64.84 64.78 63.79 62.21 61.77 62.51 63.38 63.80 64.95 65.21 67.08 68.49 68.60 68.19 67.29 66.65 65.75
65.59 67.86 67.72 68.40 68.42 68.34 67.56 66.81 66.72 66.49 66.40 65.91 64.96 66.18 66.18 64.53 63.05 63.78 62.70 63.68 64.02 64.16 64.21 62.96 63.36 64.65 64.72 64.36 63.09 62.33 61.37 61.59 63.29 64.03 64.53 64.30 65.23 67.03 67.79 67.68 67.15 66.01 64.88
65.45 67.19 67.98 67.37 68.66 68.22 67.49 66.86 66.61 66.97 66.47 65.36 64.98 65.82 65.39 64.73 63.12 62.59 61.54 63.11 63.55 63.84 64.01 63.60 62.46 63.35 64.18 64.21 62.93 62.21 60.96 61.44 62.27 62.64 62.93 62.98 63.03 64.43 66.02 66.71 66.42 65.60 64.81
54.34 66.76 67.49 67.24 67.96 67.71 66.82 66.75 66.05 65.46 66.02 65.80 65.14 65.33 65.26 63.91 63.07 62.12 61.55 61.74 63.28 63.64 63.59 63.99 62.72 62.56 62.37 63.64 62.85 61.41 61.41 61.01 61.50 61.53 61.55 61.50 61.57 61.64 62.90 64.34 64.68 64.62 63.62
52.71 63.83 67.82 68.09 67.43 66.95 66.46 66.32 65.49 64.87 65.12 65.39 65.07 65.19 64.94 64.47 63.94 62.96 62.39 61.60 62.74 64.23 63.80 63.08 62.55 61.48 60.98 61.29 61.60 60.81 60.78 60.51 60.96 61.05 60.93 60.73 59.92 60.36 60.95 62.14 62.98 63.87 63.59
51.01 57.42 66.88 67.33 66.87 66.63 65.74 65.92 64.95 64.20 63.97 63.67 64.55 64.71 64.34 64.50 64.24 63.44 62.89 62.88 62.87 63.25 63.29 62.40 61.79 61.36 60.16 60.43 61.40 61.06 59.85 59.57 59.82 60.94 59.92 59.53 58.62 58.30 58.52 60.83 61.30 61.27 62.51
51.85 58.42 66.60 66.98 66.73 66.17 65.52 64.59 63.90 63.80 63.24 64.44 63.23 64.20 63.83 64.05 63.40 62.96 62.57 62.27 63.57 63.00 62.02 61.72 60.86 60.29 60.29 60.81 61.94 60.88 57.22 58.84 59.65 59.54 59.20 59.23 57.84 57.53 57.59 58.57 59.34 58.87 60.34
51.56 61.20 65.32 65.89 65.59 65.21 64.14 62.87 62.24 62.23 62.56 61.80 62.58 62.13 63.22 63.45 63.21 62.71 61.31 62.11 63.52 61.93 61.23 60.49 60.07 59.60 60.03 61.26 60.34 57.50 56.03 57.92 58.17 58.21 58.13 57.94 57.17 57.43 57.10 58.24 58.02 57.70 58.92
50.12 60.20 64.92 65.18 64.70 65.01 64.30 63.54 62.22 61.54 61.49 63.07 60.84 60.83 61.62 61.28 61.82 61.75 61.69 61.65 62.42 60.86 60.81 60.53 59.95 59.27 59.12 60.93 57.76 55.62 51.90 53.46 54.62 56.61 56.72 56.66 56.14 56.61 57.33 57.85 57.74 57.30 57.46
50.15 62.32 64.41 64.83 64.33 64.26 63.67 60.92 60.24 58.94 58.83 60.29 61.06 59.13 60.29 61.03 61.24 61.50 62.17 62.40 61.74 60.96 60.36 60.88 60.16 59.28 58.15 59.19 59.14 55.38 51.29 49.96 52.95 53.89 53.77 55.74 54.53 55.53 56.76 57.56 57.91 57.50 56.82
51.15 62.34 64.71 64.88 64.23 63.38 62.31 61.15 60.11 59.30 58.18 59.58 60.91 58.28 59.16 60.64 60.59 61.27 62.22 61.77 61.44 61.65 60.75 60.28 60.51 59.91 59.89 57.16 57.68 58.51 56.02 54.88 50.82 49.94 52.80 54.16 55.57 55.12 55.53 56.65 57.20 56.87 56.80
58.43 62.83 64.52 64.63 63.29 62.32 62.43 61.11 59.75 58.43 57.37 58.65 58.40 57.84 58.04 58.56 59.87 61.35 61.75 61.66 61.27 61.08 60.94 60.33 60.35 59.79 59.95 58.02 56.79 55.78 54.68 54.91 53.87 51.49 50.19 51.62 53.43 55.57 56.16 56.18 56.66 56.60 56.55
52.18 62.47 63.85 63.73 62.34 62.10 61.76 60.68 59.53 58.59 57.31 57.71 58.00 57.94 59.14 59.61 59.83 60.61 61.59 61.65 61.39 60.98 60.82 60.62 60.74 59.86 59.60 59.11 57.93 56.48 55.12 53.87 53.00 52.28 50.92 50.40 52.16 52.71 54.24 55.86 56.01 56.39 56.67

GFSSE_sfc_wetblb_093.txt.gz
Wetbulb
68.37 71.09 72.31 72.96 73.22 73.15 72.76 72.38 72.51 72.81 73.35 73.94 74.15 74.58 74.60 74.75 74.64 74.28 74.11 74.32 74.55 75.10 74.70 74.22 74.18 74.50 74.65 73.97 74.10 73.75 73.34 72.95 72.37 72.86 72.98 73.08 72.76 72.64 72.63 72.73 72.22 71.32 72.33
69.58 71.40 71.80 72.69 73.34 73.35 73.14 72.67 72.60 73.02 73.43 73.93 73.98 74.13 74.22 74.40 74.37 74.23 74.16 74.36 74.29 75.22 74.60 73.88 74.00 74.15 73.65 73.65 72.96 72.72 72.34 72.04 71.65 72.30 72.66 72.46 72.19 71.89 72.20 71.83 71.84 71.48 72.14
69.73 71.52 71.66 72.14 72.90 73.15 73.09 72.99 72.98 73.42 73.51 73.73 73.89 73.99 74.10 73.99 74.15 73.99 73.86 73.78 74.40 75.12 74.38 73.80 73.49 73.30 73.26 72.88 72.13 72.08 71.65 71.71 71.96 71.77 72.16 69.38 69.98 71.70 71.78 71.52 71.74 71.84 71.54
70.37 71.18 71.57 72.05 72.56 73.00 72.89 72.97 73.09 73.60 73.78 73.53 73.73 73.96 73.96 73.81 74.01 73.92 73.61 73.74 74.27 74.57 73.70 73.57 73.67 73.31 72.60 71.65 71.01 71.59 71.45 71.21 70.99 71.22 69.25 69.85 69.66 71.25 71.23 71.39 71.40 71.48 71.22
70.08 71.11 71.51 71.80 71.91 72.54 72.54 72.61 72.75 73.21 73.14 73.02 73.21 73.66 73.87 73.96 73.91 73.87 73.14 73.18 74.32 74.34 74.30 72.91 73.06 72.31 71.48 70.56 70.82 71.00 70.61 70.32 69.82 68.69 67.45 68.77 68.98 70.71 71.25 71.19 70.90 71.13 70.98
69.63 70.74 70.56 70.87 71.55 72.08 72.31 72.43 72.65 72.48 72.18 72.42 72.79 73.40 73.80 73.83 73.66 73.52 72.90 73.11 74.38 74.32 73.75 73.58 73.02 71.32 70.35 69.89 70.24 70.30 69.65 69.08 68.21 66.75 67.09 69.68 68.71 70.94 71.03 70.85 70.67 70.72 70.60
68.64 69.41 70.37 70.04 71.09 71.80 72.40 72.29 72.16 71.78 71.51 71.91 72.45 72.85 73.12 73.54 73.47 72.62 72.10 72.98 73.24 72.67 72.25 71.66 71.12 70.47 70.00 69.92 70.16 69.45 68.63 68.05 66.57 65.86 66.20 66.43 68.38 70.85 70.80 70.63 70.33 70.22 70.33
68.14 69.18 69.81 70.87 71.16 71.21 71.61 71.33 70.91 70.98 71.22 71.40 71.83 72.30 72.85 72.73 72.40 72.05 71.87 71.91 71.15 71.01 70.38 70.60 70.04 69.74 69.73 69.60 69.33 68.05 67.51 67.71 66.89 65.39 66.00 66.61 69.85 70.68 70.60 70.13 70.08 69.80 69.97
67.85 68.55 69.02 69.88 70.42 70.04 69.59 69.72 69.59 70.01 70.62 70.75 70.84 71.22 71.69 71.27 71.01 71.51 71.36 71.18 70.98 69.75 69.53 69.54 69.32 69.26 69.38 68.81 68.10 66.21 66.71 67.11 65.55 65.57 66.60 67.33 70.15 70.46 70.24 69.53 69.51 69.42 69.31
65.94 66.55 67.42 68.73 69.23 69.36 69.09 68.62 69.05 69.54 69.70 69.84 70.40 70.10 69.88 69.85 70.49 70.51 70.33 70.39 69.85 69.30 69.18 69.24 68.67 67.96 68.08 67.49 66.51 66.14 65.61 66.69 65.58 65.06 65.85 67.14 69.85 70.39 70.36 69.43 69.24 68.95 68.57
65.45 64.87 67.09 67.60 68.12 68.32 68.81 68.78 69.38 70.02 69.79 69.43 69.86 69.41 67.96 68.82 68.53 68.71 68.17 68.80 68.86 67.71 68.09 68.43 67.67 67.40 66.66 66.24 66.14 65.85 65.74 65.35 65.22 65.10 65.66 68.11 69.80 70.24 69.95 69.18 68.89 68.25 67.70
64.49 64.93 65.64 66.32 66.75 66.24 67.99 67.49 67.42 68.64 68.80 68.26 67.94 67.53 67.47 66.54 66.18 66.21 66.84 67.62 67.38 66.71 67.34 66.64 66.33 64.82 65.71 65.07 65.64 65.93 63.98 64.44 64.60 65.06 66.08 67.63 69.55 69.85 69.33 68.28 68.16 67.55 67.37
65.77 65.58 65.46 65.50 65.95 66.41 67.08 67.33 67.94 68.55 66.01 66.29 66.23 65.93 65.30 65.63 66.79 63.75 64.91 64.73 63.49 65.11 64.21 65.40 64.64 64.37 63.87 64.92 64.87 64.67 63.47 63.63 63.83 64.03 65.59 66.59 69.01 69.75 69.12 68.21 68.10 67.78 67.16
65.63 65.93 65.83 65.43 65.71 65.89 66.61 66.66 66.84 67.00 66.88 65.45 64.91 64.53 66.18 66.24 65.63 64.67 64.17 64.61 62.60 64.23 63.66 64.33 64.58 64.62 64.53 64.50 64.89 63.57 62.78 62.89 63.01 63.25 65.04 65.37 66.88 69.33 69.03 68.72 68.19 67.78 66.86
62.85 66.53 66.12 65.61 65.47 65.83 65.55 65.57 65.61 66.26 66.53 65.45 64.12 65.64 66.42 65.04 64.30 64.73 64.50 63.79 63.28 63.25 62.77 61.99 63.31 63.71 63.37 64.31 64.26 63.37 62.34 62.32 62.95 63.21 64.34 64.37 65.22 67.83 68.50 68.21 67.82 67.28 66.50
59.83 65.85 66.62 66.50 66.37 66.62 66.32 65.44 65.28 65.50 65.48 64.93 64.39 66.24 65.82 64.68 63.67 63.64 62.81 62.96 62.66 63.01 63.05 61.52 62.32 62.69 62.73 63.79 63.21 63.02 62.31 62.26 62.39 62.80 62.74 63.43 63.55 65.02 66.75 67.45 67.27 66.69 66.08
54.81 64.90 66.78 66.93 67.52 67.11 66.75 66.01 65.42 65.57 65.46 64.96 64.64 65.95 65.15 64.75 62.87 62.53 61.93 62.62 62.62 63.32 63.28 61.00 60.53 61.48 63.06 63.46 62.84 62.03 61.52 61.45 61.55 61.59 62.81 61.95 62.06 62.32 63.76 66.05 66.37 66.56 65.42
49.71 61.20 66.83 67.61 67.69 67.11 66.71 66.41 66.12 65.55 65.53 65.06 64.62 65.60 65.16 63.72 62.41 62.09 61.78 62.32 62.85 63.10 63.17 62.56 61.23 61.78 62.18 62.92 61.23 60.99 61.10 61.47 60.82 61.11 61.34 61.08 60.36 60.76 61.34 63.08 64.17 65.03 64.77
48.63 53.22 64.63 66.91 66.71 67.20 66.42 66.37 65.84 65.00 65.64 65.32 64.78 65.21 65.32 63.71 62.76 62.01 61.58 61.76 62.56 62.36 62.14 62.55 62.02 61.54 60.33 61.09 60.55 60.82 60.34 60.34 60.96 61.80 60.62 59.67 59.01 59.02 58.82 60.59 61.18 61.75 62.94
48.22 49.34 61.74 66.53 66.70 67.09 65.74 64.45 64.26 63.60 63.55 64.87 64.60 64.65 64.70 64.46 63.78 63.35 62.60 61.86 62.14 61.81 61.97 61.92 61.42 61.64 60.04 60.60 60.70 59.38 58.98 59.67 60.58 60.50 60.03 59.74 58.27 58.14 58.21 58.67 59.07 59.71 60.80
46.76 47.87 57.93 64.84 66.13 66.17 64.85 64.09 63.81 63.47 63.38 63.51 63.90 64.21 63.76 64.20 63.77 63.39 62.76 61.94 61.77 61.50 61.24 61.82 61.53 60.08 59.05 60.77 59.97 57.40 56.46 58.78 59.45 59.68 59.62 58.94 57.60 57.83 56.97 57.69 57.04 56.86 58.93
48.48 49.66 56.82 64.16 65.51 65.84 65.30 64.72 63.58 64.61 63.85 63.61 63.48 63.62 64.06 62.94 62.87 62.99 62.05 61.57 62.28 61.97 61.79 60.72 60.43 59.10 59.50 60.58 58.40 55.52 52.01 54.10 56.21 58.04 58.21 58.29 57.01 57.28 56.85 57.19 56.87 56.53 56.71
48.85 50.01 59.83 63.32 65.06 65.44 65.28 62.42 60.21 60.89 61.04 61.10 61.70 62.53 62.31 61.74 61.65 62.43 61.12 62.41 62.01 61.55 60.81 60.34 60.23 59.59 58.49 60.09 57.47 55.68 51.61 50.74 53.73 54.78 55.66 56.55 55.86 55.64 56.73 57.17 56.93 56.84 56.51
49.10 51.31 60.03 63.61 64.38 65.15 64.26 61.84 60.62 61.04 60.33 61.92 62.49 62.54 60.87 60.57 60.83 60.92 60.78 61.94 62.16 61.40 60.24 60.23 60.70 59.88 58.60 58.00 58.84 58.31 56.53 55.16 52.09 50.36 53.77 54.51 54.59 55.37 55.48 56.51 56.77 56.67 56.59
49.47 51.02 59.07 63.62 64.05 64.60 63.12 62.48 60.94 60.14 60.01 58.76 59.56 60.29 59.18 59.73 60.67 61.71 62.13 61.82 61.06 60.99 60.78 60.57 60.57 59.96 59.37 58.26 58.10 56.74 55.49 55.32 54.58 52.69 50.51 51.68 53.08 54.70 55.20 56.03 56.69 57.01 56.66
48.46 51.48 59.44 62.40 62.97 63.43 62.60 61.34 61.07 58.98 57.85 58.06 58.70 58.74 58.06 58.77 60.27 60.92 60.87 61.42 61.39 60.66 60.74 60.01 60.05 59.89 59.87 59.51 58.26 57.46 55.53 53.70 53.07 52.44 50.88 51.43 51.92 52.56 54.72 55.38 55.70 56.36 56.43

GFSSE_sfc_wetblb_096.txt.gz
Wetbulb
67.10 70.30 72.27 73.20 73.43 73.22 72.79 72.63 72.71 72.86 73.90 74.62 74.75 74.80 74.52 74.22 74.11 73.94 74.11 74.60 74.89 75.42 75.58 74.53 74.68 74.31 74.75 74.15 74.53 74.09 73.56 72.91 72.61 72.61 72.77 73.23 72.82 72.67 72.87 72.84 72.34 71.25 72.40
68.26 70.84 71.74 72.75 73.20 73.30 73.01 72.69 72.77 73.02 73.85 74.50 74.61 74.77 74.49 74.31 74.15 74.04 74.13 74.60 74.60 75.48 74.98 74.28 74.28 74.65 74.15 74.23 73.07 73.16 72.90 72.13 71.92 71.94 72.29 73.23 73.06 72.59 72.50 72.28 71.99 71.36 71.86
69.13 70.76 71.43 71.83 72.99 73.17 72.97 73.00 73.13 73.50 73.78 73.97 74.34 74.40 74.46 74.39 74.21 73.98 73.95 74.08 74.53 75.13 74.50 73.85 73.75 73.67 73.41 72.70 72.09 72.17 72.14 71.66 71.52 71.60 72.19 69.93 70.20 72.05 72.28 71.95 72.15 71.81 71.52
69.60 70.37 70.79 71.94 72.10 72.88 72.62 72.79 73.03 73.63 73.81 73.69 73.98 74.18 74.33 74.31 74.23 73.93 73.64 73.55 74.40 74.80 74.53 73.62 73.64 73.51 73.23 71.67 71.53 71.65 71.61 71.67 71.40 71.38 69.77 69.43 70.20 71.72 71.48 71.69 71.60 71.66 71.55
69.67 70.55 71.03 71.62 72.13 72.67 72.55 72.58 72.74 73.03 73.01 73.09 73.37 73.91 74.02 74.23 74.19 73.85 73.18 73.79 74.55 74.62 74.08 73.66 73.58 73.34 71.55 70.82 70.75 71.05 71.24 70.86 70.51 69.29 68.88 68.89 69.75 70.86 71.41 71.76 71.26 71.26 71.11
69.51 70.45 70.41 70.86 71.58 72.06 72.53 72.64 72.77 72.43 72.04 72.19 72.80 73.56 73.93 73.93 74.02 73.68 73.06 73.45 74.43 74.43 74.33 74.03 72.65 72.09 70.44 70.22 70.52 70.45 70.08 69.63 68.80 67.98 67.91 69.34 69.06 71.11 71.28 71.04 71.15 70.93 70.74
69.04 69.87 70.39 70.10 71.13 71.81 72.49 72.46 72.27 71.72 71.38 71.85 72.41 72.81 73.31 73.38 73.50 72.93 72.57 72.74 73.66 73.64 73.33 73.03 72.03 70.85 70.26 70.19 70.15 69.70 68.89 68.53 67.50 67.12 67.69 68.27 68.71 71.21 70.96 70.96 70.73 70.60 70.55
68.47 69.42 70.16 70.99 70.99 71.10 71.46 71.44 70.99 70.92 71.16 71.27 71.90 72.19 72.86 72.74 72.38 72.33 72.15 72.04 72.50 71.97 71.49 71.23 70.67 70.16 70.09 70.08 69.70 68.51 67.80 67.84 67.33 66.47 66.74 67.17 69.72 70.75 70.98 70.50 70.30 70.41 70.26
67.53 68.45 69.87 70.58 70.74 70.07 69.44 69.53 69.62 70.13 70.38 70.58 71.06 71.37 71.71 71.26 71.10 71.63 71.67 71.57 71.52 70.69 70.46 70.35 69.80 69.52 69.75 69.34 67.93 66.86 66.90 67.30 66.29 66.74 67.01 67.12 70.33 71.05 70.76 70.26 70.05 70.14 69.94
66.90 68.33 68.82 69.36 70.19 69.44 69.20 68.81 69.13 69.24 69.62 69.91 70.45 70.36 70.07 70.20 70.47 70.86 70.59 71.00 70.71 69.66 69.69 69.66 68.96 69.09 68.89 68.09 66.90 66.29 66.56 66.83 66.00 65.32 66.06 67.64 69.51 70.93 70.56 69.77 69.68 69.61 69.35
64.70 65.32 67.41 67.71 68.40 69.04 69.49 68.79 69.53 69.98 69.62 69.29 69.87 69.38 68.25 68.52 68.81 69.05 68.94 69.59 69.53 68.17 68.39 68.65 68.27 67.74 67.35 66.90 66.47 66.29 66.45 66.01 65.07 64.79 65.49 67.34 69.74 70.63 70.35 69.69 69.44 69.24 68.99
62.14 64.47 66.47 66.67 67.05 67.46 68.12 68.65 68.36 69.72 69.90 69.80 69.75 68.47 67.61 67.19 66.96 67.26 67.42 68.27 68.09 67.26 67.75 66.99 67.39 66.45 66.08 65.29 65.52 66.05 65.20 65.20 64.93 64.23 65.79 66.97 69.85 70.47 70.13 69.32 69.12 69.04 68.62
64.13 63.86 65.13 65.39 66.20 66.10 66.47 67.50 68.18 67.90 68.22 68.16 67.77 67.30 66.21 66.44 66.59 64.78 65.71 65.08 65.24 66.70 65.80 65.70 64.49 63.67 63.54 64.70 64.79 64.79 64.46 64.80 64.99 64.43 65.53 66.70 68.71 70.25 70.04 69.17 68.47 68.12 67.63
65.54 65.00 64.97 64.80 65.23 65.65 66.61 66.61 66.89 67.05 66.86 66.97 66.51 65.58 67.14 67.21 66.69 64.55 65.27 63.21 62.57 62.79 63.68 63.62 63.92 62.91 62.78 64.01 64.49 64.18 63.70 64.19 64.27 63.95 64.48 65.20 67.73 69.44 69.47 68.91 68.60 68.21 67.51
62.04 65.31 65.65 64.87 64.88 65.16 65.65 66.10 66.22 66.43 66.71 66.90 66.06 66.06 67.57 66.85 66.11 65.31 64.85 63.93 61.64 62.35 63.16 63.38 63.13 63.63 63.09 64.36 64.50 63.81 63.14 63.07 63.63 63.87 64.88 63.85 64.90 68.10 69.24 68.98 68.66 68.14 67.62
55.88 62.48 66.37 65.55 65.47 64.60 65.29 65.15 65.32 65.70 66.18 65.79 65.98 66.70 67.04 66.39 65.56 64.73 64.46 63.96 63.48 63.41 62.88 62.58 62.30 63.16 63.71 63.94 63.22 63.36 62.92 62.74 63.41 63.48 64.13 63.88 63.35 65.05 67.56 68.34 67.97 67.42 67.29
49.11 55.89 63.97 66.07 65.58 64.74 65.15 64.51 64.52 65.02 65.01 64.76 65.21 66.01 65.81 65.41 64.76 63.98 63.14 62.93 62.83 63.13 62.25 60.06 61.76 62.26 62.12 62.72 62.61 62.90 62.60 62.35 62.88 62.78 63.46 63.20 63.24 62.80 64.13 66.14 66.89 66.86 66.78
45.45 49.26 56.21 66.19 66.14 65.45 65.14 65.51 64.57 64.34 64.55 64.65 65.00 65.30 65.07 64.74 64.03 63.01 62.28 62.68 62.78 62.82 62.80 61.44 61.49 61.76 61.99 61.43 61.93 61.90 61.60 61.69 61.90 62.04 62.52 62.93 62.45 62.81 62.67 63.92 65.29 65.84 66.02
44.83 46.69 52.89 63.75 66.14 66.30 65.85 66.01 65.48 64.36 64.80 64.39 64.79 64.94 64.47 64.07 63.33 62.55 62.10 62.14 62.77 62.80 62.41 61.83 61.42 61.58 61.08 61.20 61.02 61.37 61.11 61.20 61.42 62.28 61.65 61.75 61.63 61.02 60.99 61.83 62.44 62.74 63.92
49.62 45.03 49.02 59.79 65.56 66.48 66.90 66.14 65.88 65.09 65.14 65.53 64.54 64.76 64.32 63.74 62.36 62.14 62.13 61.79 62.45 62.26 61.91 62.07 61.17 61.43 61.23 61.26 61.16 60.67 60.55 61.07 61.29 61.24 61.24 61.61 60.69 59.72 59.78 60.00 60.89 60.66 61.15
49.81 47.55 45.87 53.98 64.23 66.25 66.57 64.88 64.13 63.54 64.48 65.05 64.91 64.52 64.32 64.00 63.49 63.37 62.32 61.13 61.79 61.41 61.47 61.34 61.33 60.46 59.77 61.12 59.51 57.26 57.18 59.32 60.43 60.65 60.73 59.70 59.37 58.75 58.84 58.70 58.42 58.80 60.26
48.83 49.57 49.36 49.69 61.24 65.38 65.90 65.76 64.37 64.82 64.67 64.98 64.87 64.62 64.88 64.24 63.83 63.51 62.60 61.86 61.20 61.08 61.08 61.15 60.95 59.95 60.18 61.28 58.34 56.24 52.65 54.93 57.24 59.53 59.47 59.14 57.77 57.91 57.81 58.32 57.69 57.27 58.27
47.44 48.01 49.69 50.69 58.33 64.61 65.45 65.61 61.46 62.83 61.82 61.32 62.56 63.05 63.54 63.92 63.37 63.36 62.60 61.77 61.55 61.69 60.81 60.99 60.84 60.04 58.77 60.15 59.10 55.90 51.49 51.12 54.11 55.99 57.78 58.14 57.00 57.06 57.76 57.79 57.59 57.20 57.11
46.89 47.70 49.05 52.02 54.47 64.32 65.52 64.70 62.92 62.43 61.08 62.23 62.10 62.67 62.82 63.22 62.86 63.03 62.08 61.79 61.22 61.90 61.57 61.03 61.13 60.27 59.37 57.94 58.48 58.23 56.31 55.22 52.90 50.66 54.77 56.03 56.26 56.14 56.26 57.02 57.08 57.21 56.94
46.40 46.47 49.00 51.41 55.72 63.40 64.92 64.04 62.33 61.91 61.93 61.84 62.22 58.41 61.19 61.81 62.18 62.20 61.74 61.12 61.73 61.72 61.41 60.78 60.45 60.12 59.77 58.64 58.69 57.18 55.82 55.54 55.10 53.29 51.52 52.29 54.39 55.54 55.98 56.53 57.08 57.38 56.93
45.09 45.70 47.41 50.52 58.22 63.32 64.36 63.55 61.47 61.44 58.52 60.49 61.19 60.63 61.13 60.84 61.29 61.79 61.78 61.52 61.25 60.88 60.67 60.64 60.63 60.18 59.59 59.55 59.10 58.49 57.42 54.69 53.72 53.12 52.06 53.27 53.55 53.45 55.58 56.04 56.12 56.73 56.90

GFSSE_sfc_wetblb_099.txt.gz
Wetbulb
69.04 73.10 72.64 73.26 73.45 73.01 72.94 72.92 73.01 73.74 74.19 74.29 74.34 74.02 74.21 74.30 74.12 73.84 73.92 74.28 74.64 75.32 75.45 75.25 75.00 74.22 74.09 74.32 74.72 74.06 73.54 73.18 73.24 73.41 73.16 73.37 73.08 72.66 72.80 73.21 72.62 72.30 72.52
70.55 73.40 71.85 72.91 73.28 73.23 73.19 72.75 72.82 73.69 74.47 74.80 74.46 74.04 74.06 74.15 73.87 73.80 74.13 74.51 74.72 75.40 75.55 74.70 74.45 74.60 74.92 74.25 74.22 73.32 72.94 72.36 71.97 72.39 72.90 73.62 73.20 72.86 72.82 72.31 71.94 72.35 72.39
71.19 73.11 73.15 72.24 72.97 73.22 73.12 73.05 73.30 73.92 74.66 74.86 74.86 74.33 74.13 74.05 73.89 73.81 73.83 74.09 74.78 75.37 75.58 74.42 74.09 74.62 74.75 73.70 73.05 72.70 72.40 71.96 71.85 72.04 72.50 72.59 72.30 72.66 72.47 72.13 72.21 72.40 72.36
71.66 72.90 73.20 72.32 72.68 72.89 72.80 72.86 73.18 74.01 74.52 74.67 74.67 74.62 74.24 74.06 73.79 73.88 73.79 73.76 74.59 75.19 75.02 74.27 74.14 74.17 73.53 72.28 72.10 72.04 71.84 71.59 71.31 71.68 72.24 71.94 71.37 72.58 72.16 71.87 71.97 71.90 71.77
71.62 72.58 72.94 71.61 71.99 72.59 72.66 72.74 72.95 73.27 73.31 73.76 74.08 74.62 74.56 74.40 74.21 73.97 73.42 73.66 74.75 74.92 74.82 74.16 74.44 73.96 71.94 71.09 71.22 71.30 71.33 71.16 70.75 71.10 72.03 71.78 71.48 71.86 72.02 72.13 72.04 71.64 71.24
71.54 72.33 71.38 70.76 71.42 72.28 72.32 72.66 72.74 72.45 71.98 72.41 73.05 74.02 74.24 74.39 74.33 73.68 73.13 74.09 74.78 74.77 74.75 74.42 74.12 72.79 70.68 70.39 70.46 70.76 70.71 70.49 69.73 71.91 71.53 71.27 70.91 71.70 71.57 71.49 71.27 71.33 70.94
71.47 72.39 72.69 70.25 71.19 72.10 72.38 72.54 72.18 71.84 71.60 71.94 72.50 73.05 73.54 73.88 73.86 73.09 72.80 73.24 74.13 73.79 73.70 73.52 72.78 71.31 70.41 70.20 70.48 70.24 69.73 69.12 71.11 71.45 71.34 71.39 70.70 71.79 71.59 71.32 71.25 71.00 70.93
71.15 72.14 72.73 71.46 71.31 71.32 71.52 71.52 70.98 70.86 71.12 71.37 71.95 72.44 73.11 73.05 72.63 72.62 72.57 72.55 72.55 72.67 72.08 71.94 71.02 70.76 70.23 70.26 69.77 68.90 68.41 68.44 70.27 70.59 71.24 71.13 70.53 71.22 71.69 70.91 70.89 70.50 70.52
70.90 71.73 72.58 73.05 72.48 70.33 69.56 69.63 69.47 70.15 70.41 70.77 71.04 71.54 71.83 71.54 71.36 71.95 72.12 71.57 71.99 71.55 71.08 70.92 70.41 69.86 70.12 69.91 69.03 67.58 67.38 67.89 69.62 70.47 70.62 71.13 70.47 70.92 71.24 70.73 70.46 70.30 70.11
69.58 70.42 70.81 71.65 71.78 72.38 72.84 68.95 69.00 69.33 69.42 69.98 70.33 70.32 70.12 70.57 70.85 70.87 70.95 71.27 71.45 70.17 70.38 69.69 69.62 69.53 69.47 68.96 67.80 67.06 66.79 67.20 69.35 70.01 70.78 71.15 69.61 70.61 70.90 70.65 70.12 70.07 69.99
68.24 67.70 69.28 70.07 70.39 71.13 71.33 71.79 69.96 69.87 69.51 69.24 70.24 69.42 69.26 72.50 72.72 72.41 71.06 70.10 69.44 68.62 68.87 68.60 68.77 68.46 68.00 67.53 67.20 66.75 66.70 69.10 68.17 68.11 70.43 68.11 69.76 70.51 70.65 70.61 69.93 69.47 69.50
67.13 67.10 68.11 68.50 68.95 69.83 69.33 70.12 71.89 71.96 71.89 71.68 71.86 72.26 72.36 72.54 72.67 71.91 70.52 68.72 68.54 67.57 67.98 67.24 67.44 67.26 66.97 70.17 69.44 67.37 69.73 68.91 67.90 67.06 70.10 66.48 69.40 70.46 70.38 69.86 69.55 69.38 69.04
67.18 67.78 67.52 67.09 68.11 68.31 68.05 68.40 69.54 69.85 69.93 70.37 70.36 70.49 71.90 72.07 71.77 71.70 72.10 71.32 71.89 68.71 70.71 68.69 69.24 69.80 69.60 69.53 69.16 69.17 68.14 68.00 66.97 67.15 67.75 65.96 68.27 70.34 70.11 69.46 69.10 69.17 68.80
67.91 67.88 68.30 67.94 66.45 67.09 67.28 67.53 68.23 68.28 68.78 68.92 68.77 69.60 69.15 69.70 70.05 70.04 69.63 70.42 70.91 70.00 68.97 70.14 69.14 69.34 68.83 68.92 68.90 68.19 67.22 66.71 65.69 66.26 67.19 64.92 66.43 69.74 69.98 69.56 69.27 68.89 68.42
57.60 65.68 68.59 68.14 67.34 66.95 66.48 67.07 67.35 67.76 67.64 67.77 68.30 68.71 69.69 68.57 68.09 68.13 68.29 68.22 69.37 69.07 68.24 68.18 68.02 67.94 67.78 68.00 68.15 67.56 66.62 66.03 64.71 65.43 66.54 64.67 64.99 68.09 69.63 69.73 69.13 68.81 68.33
53.42 55.21 66.67 68.39 68.35 67.93 67.99 66.95 66.56 67.20 67.99 67.43 67.57 67.91 68.99 68.53 68.14 67.31 66.48 66.48 66.40 66.86 66.74 66.50 65.81 66.38 66.78 66.84 66.10 65.83 65.77 65.71 63.74 64.28 65.24 66.23 63.46 65.83 67.95 69.52 69.05 69.00 68.46
51.62 52.49 55.33 65.98 69.31 68.21 67.71 68.01 67.49 67.24 67.06 66.33 66.61 67.83 68.09 68.28 67.96 67.01 66.39 65.90 65.84 65.86 65.68 64.40 63.97 64.50 65.35 66.55 66.11 64.77 65.36 64.01 62.97 63.28 64.36 64.74 65.30 62.79 65.12 66.46 67.49 68.06 67.67
54.93 54.27 54.11 54.82 66.71 68.79 68.49 67.28 68.03 67.33 66.72 66.21 66.12 66.88 67.72 67.54 67.16 66.24 65.88 65.55 66.35 65.26 64.11 63.21 63.07 62.88 63.79 63.31 62.97 63.26 65.50 63.50 63.06 62.90 63.47 64.43 68.12 67.34 64.01 64.78 65.19 66.60 66.64
55.48 55.51 54.68 54.15 58.15 67.08 68.48 68.83 68.19 67.55 67.14 66.39 66.50 66.12 67.01 66.84 65.74 65.39 64.85 64.99 66.16 64.86 64.13 63.03 62.72 62.78 62.40 62.74 62.79 63.14 63.60 63.33 62.63 62.78 62.51 63.09 66.70 67.26 67.76 63.12 62.75 63.66 64.97
54.84 55.07 55.25 55.38 54.64 63.57 67.91 68.15 68.01 67.26 67.83 67.73 66.39 65.72 66.34 66.59 65.01 64.54 64.35 64.52 65.32 64.53 63.42 62.97 61.53 62.59 62.95 62.50 62.34 62.13 62.96 63.12 63.00 62.43 62.13 62.39 63.10 66.28 66.85 66.59 66.58 64.99 62.17
53.88 53.49 54.13 54.40 55.90 56.78 66.49 65.86 64.50 63.64 65.22 65.98 66.65 65.91 66.02 65.72 64.65 63.65 63.42 63.66 64.22 63.52 63.07 62.76 61.82 61.66 61.44 62.45 60.32 59.18 59.37 61.34 61.33 62.16 62.23 61.76 60.84 61.33 63.51 65.69 65.87 65.71 64.42
51.09 51.98 52.24 53.37 54.42 55.17 62.70 66.47 66.11 64.50 65.23 66.66 66.42 65.55 65.79 65.08 64.30 63.22 63.14 63.07 63.20 62.95 62.80 62.52 61.75 60.61 61.18 62.14 58.83 57.17 54.35 55.88 58.92 61.29 61.62 61.20 60.70 60.43 60.38 62.84 64.33 64.66 64.77
49.11 49.88 50.49 51.76 52.94 54.88 57.32 65.68 66.38 65.72 65.79 64.36 64.93 64.49 65.19 65.37 64.08 63.63 63.84 63.63 62.67 63.09 61.85 62.39 62.27 60.74 59.36 61.15 60.20 57.81 52.83 52.94 54.82 57.97 59.58 61.22 60.17 59.29 59.88 60.75 62.52 62.72 62.84
47.86 48.07 47.61 49.55 52.17 54.56 57.69 63.25 64.30 62.25 61.15 64.03 65.04 64.83 64.56 63.87 63.25 63.02 63.59 64.03 63.05 62.58 62.12 62.76 62.81 61.65 61.07 59.13 60.20 61.56 59.28 58.57 54.96 52.67 56.33 58.66 59.43 59.22 58.98 60.03 61.81 61.70 62.08
45.11 44.55 46.02 47.52 49.56 53.10 57.89 61.86 65.04 63.13 64.75 65.81 65.70 63.53 63.46 64.43 62.85 59.92 59.41 62.77 62.72 62.60 62.98 63.38 61.74 61.42 61.37 60.36 59.37 57.87 57.12 57.68 58.29 56.07 53.29 54.88 56.37 58.68 58.76 59.27 60.46 61.34 61.53
43.29 43.54 44.20 45.66 47.28 50.78 58.11 61.79 64.37 63.72 63.98 64.02 63.60 62.88 64.20 63.09 60.43 60.18 61.73 62.55 62.82 62.38 63.00 63.64 62.80 61.78 61.17 60.97 60.18 59.09 57.58 56.40 56.76 57.82 55.90 55.47 54.73 55.44 56.87 57.55 58.36 59.63 61.11

GFSSE_sfc_wetblb_102.txt.gz
Wetbulb
72.07 75.67 72.76 73.50 73.44 73.44 73.55 73.58 73.91 74.10 73.95 74.02 74.14 74.21 74.45 74.65 74.25 74.14 74.33 74.74 74.68 75.47 75.77 75.52 75.58 75.22 74.42 74.26 74.30 74.32 74.11 73.76 73.52 73.60 73.65 73.60 73.03 73.03 73.00 73.33 72.72 72.93 72.77
73.66 76.10 72.10 73.08 73.22 73.53 73.78 73.41 73.94 74.27 74.36 74.34 74.24 74.31 74.42 74.45 74.17 74.11 74.31 74.81 74.91 75.50 75.43 75.39 75.17 74.75 74.42 74.80 74.53 73.88 73.28 72.87 72.97 72.86 73.49 73.68 73.13 73.08 72.90 72.87 72.71 72.83 72.61
73.29 75.77 74.38 72.51 73.07 73.22 73.62 73.60 74.13 74.90 75.05 75.00 74.56 74.37 74.52 74.49 74.07 73.94 74.12 74.25 74.85 75.58 75.70 74.85 74.14 74.26 75.33 74.68 73.48 72.79 72.99 72.36 72.22 72.59 72.91 73.28 73.18 72.88 72.66 72.49 72.37 72.58 72.39
73.56 75.35 75.30 72.30 72.70 73.08 73.06 73.24 73.86 75.02 75.13 74.99 74.70 74.54 74.58 74.49 74.19 74.07 73.98 73.96 74.78 75.65 75.63 74.39 74.38 75.12 74.61 73.41 72.65 72.30 72.13 71.80 71.73 72.02 73.21 72.40 72.26 72.56 72.51 72.20 72.22 72.20 72.10
73.66 74.82 74.77 71.93 72.07 72.71 72.75 72.76 73.19 74.02 74.29 74.44 74.52 74.59 74.58 74.41 74.24 74.25 73.63 74.06 75.07 75.57 75.45 74.43 74.79 74.54 72.69 72.00 71.74 71.61 71.54 71.32 71.17 71.76 72.59 72.45 72.27 72.30 72.29 71.98 71.87 71.98 71.65
73.72 74.48 72.18 71.09 71.77 72.11 72.57 72.56 72.81 72.97 72.98 73.42 73.87 74.39 74.66 74.51 74.39 74.04 73.49 74.16 75.25 75.29 75.07 74.95 74.67 72.79 71.29 71.01 71.07 71.20 70.76 70.69 70.20 72.88 72.21 71.80 72.30 72.12 72.21 72.16 71.58 71.18 70.97
73.78 74.41 74.92 69.82 71.31 71.87 72.37 72.33 72.32 72.14 72.06 72.70 73.35 73.62 74.02 74.14 74.04 73.39 73.01 73.85 74.24 74.56 74.37 74.15 73.38 71.75 70.73 70.51 70.79 70.57 70.12 69.65 72.24 72.48 71.63 72.14 72.36 72.63 72.07 71.61 71.46 70.78 70.58
74.13 74.74 75.08 71.94 71.38 71.33 71.52 71.72 71.14 71.15 71.36 71.88 72.54 72.98 73.70 73.58 73.22 72.94 72.96 72.74 73.45 73.39 72.91 72.74 71.77 70.98 70.48 70.32 70.39 69.70 69.01 69.26 71.41 71.56 71.31 70.84 71.37 71.88 71.99 71.39 70.82 70.59 70.86
74.22 74.40 74.65 74.91 73.49 70.75 70.11 70.13 69.94 70.25 70.60 71.02 71.39 71.96 72.43 71.99 71.98 72.22 72.44 72.66 72.20 71.88 71.62 71.89 70.91 70.44 70.34 69.99 69.55 68.58 67.93 68.69 71.94 71.37 70.53 70.91 70.74 71.56 71.57 71.03 70.64 70.90 70.81
73.36 74.11 73.96 73.99 73.59 74.72 74.48 69.62 69.46 69.76 69.92 70.12 70.72 70.68 70.44 70.86 71.37 71.54 71.50 71.83 71.91 71.36 71.31 70.59 69.76 69.97 69.79 69.44 68.53 67.61 67.32 67.92 71.28 70.96 70.91 70.54 70.25 70.92 70.95 70.92 70.56 70.55 70.39
71.92 72.94 72.79 72.35 72.39 72.73 74.07 73.47 70.73 70.24 69.81 69.65 70.55 69.86 69.76 73.53 74.13 73.63 71.59 70.60 71.19 69.69 69.83 69.22 68.66 69.06 68.75 68.51 67.84 67.32 67.12 71.55 71.91 71.57 71.27 68.81 70.28 70.90 70.96 70.60 70.32 70.32 70.11
70.53 71.68 72.80 72.59 71.67 71.72 70.96 72.31 73.65 74.06 73.56 73.44 73.25 73.58 73.52 73.62 73.75 72.51 71.28 69.43 69.65 68.66 68.81 68.84 68.04 67.77 68.39 72.01 70.83 67.94 70.87 70.93 71.58 70.75 70.22 67.48 69.92 70.68 70.13 69.86 69.98 70.02 69.64
68.97 71.33 71.94 72.52 73.23 73.00 71.31 71.75 71.37 72.11 72.68 73.01 73.90 73.78 73.67 73.43 73.61 73.08 72.87 72.81 72.97 69.66 71.91 70.26 70.59 71.16 70.85 70.92 71.03 70.43 70.37 70.53 70.64 70.03 69.17 66.22 68.31 70.00 69.57 69.47 69.32 68.99 69.20
59.98 66.01 71.09 71.93 72.34 72.60 72.26 71.06 70.91 70.64 71.04 70.64 71.33 72.28 72.51 72.17 72.72 72.60 71.71 72.08 72.09 72.06 71.39 71.60 70.57 70.98 71.02 70.45 70.56 70.13 69.89 70.03 69.53 68.87 68.37 65.27 65.22 69.04 69.57 69.60 69.90 69.55 69.10
56.55 58.63 64.73 71.08 71.71 71.95 71.85 71.25 71.30 70.47 71.14 71.45 70.86 70.81 70.96 70.86 71.17 71.84 71.32 71.69 71.55 71.47 71.49 70.72 70.48 70.15 70.42 69.60 69.66 68.97 68.55 69.37 69.10 68.68 67.68 64.71 64.50 67.22 68.72 69.67 70.19 69.56 68.81
56.99 57.58 59.12 63.99 70.34 71.52 71.08 71.22 70.78 70.81 71.35 70.25 69.60 69.73 70.41 70.45 71.35 69.89 70.04 69.92 70.94 70.61 70.73 70.48 69.80 70.06 69.72 69.55 68.39 68.33 68.58 68.64 69.01 68.44 66.74 66.71 63.54 65.13 67.50 69.36 69.90 69.49 69.06
59.66 60.37 61.03 60.12 63.83 69.61 70.75 70.79 70.55 70.45 70.36 70.48 69.31 69.86 69.68 70.27 70.73 70.08 68.83 68.88 69.74 70.35 70.37 69.93 69.43 69.38 68.61 68.27 67.94 67.73 67.89 67.62 67.47 67.94 66.47 65.76 67.54 62.50 64.78 67.25 68.19 68.87 68.69
60.10 60.40 61.19 61.48 61.34 62.93 68.49 69.62 70.68 70.76 70.60 70.28 70.04 69.21 69.56 69.60 69.78 69.60 68.07 68.54 68.35 68.69 67.73 67.27 66.38 65.53 65.55 67.12 66.77 67.35 67.38 67.25 66.64 67.23 64.98 64.42 66.68 65.66 63.57 63.73 65.53 66.83 67.50
59.00 59.93 60.54 61.71 61.64 61.00 62.79 67.97 69.30 70.86 70.67 70.57 70.00 69.59 70.12 69.41 69.27 69.28 68.14 68.08 68.18 67.25 67.03 65.92 65.25 64.96 64.65 66.13 66.12 66.19 66.33 65.46 65.73 65.29 63.23 63.81 64.54 64.87 65.44 63.43 63.39 63.75 65.03
58.31 58.95 59.31 60.54 61.05 61.93 61.25 63.61 67.69 68.26 69.66 70.26 69.66 69.09 69.67 69.82 68.89 68.69 68.26 67.64 67.31 66.07 66.77 66.05 64.89 64.38 64.40 64.29 63.33 62.80 63.96 65.69 65.52 64.23 62.94 63.26 63.59 64.18 65.20 65.59 64.97 64.71 62.90
57.66 57.21 57.52 58.22 59.44 59.94 60.08 59.18 64.49 65.88 67.65 68.12 69.66 69.69 69.41 69.28 68.80 68.22 67.40 66.51 66.09 65.39 65.51 65.19 64.23 62.71 63.21 64.60 62.42 61.26 61.66 63.48 63.26 63.11 63.44 62.68 62.29 63.41 64.53 67.56 67.03 67.05 65.74
55.71 56.28 56.03 56.30 57.07 57.72 58.88 59.80 61.95 65.69 66.60 67.18 68.76 70.10 69.17 68.39 68.71 67.50 66.36 65.11 65.42 65.19 64.71 65.09 64.68 61.61 62.67 63.79 60.26 58.97 56.13 57.47 61.95 62.66 62.86 62.29 62.08 61.90 63.10 65.35 66.48 66.31 66.37
53.64 53.92 53.70 54.23 55.00 56.06 57.59 58.97 59.79 64.79 66.58 66.51 66.77 67.82 68.63 68.24 67.60 67.06 65.86 64.54 64.69 64.98 64.76 65.30 64.10 62.39 60.52 62.04 62.43 60.20 55.17 55.67 56.79 60.26 61.08 62.24 61.40 60.86 61.50 61.58 62.10 65.12 65.46
51.79 51.90 50.56 51.09 52.46 53.23 55.28 57.11 58.97 59.95 63.41 65.41 66.01 66.60 66.95 66.67 66.22 66.04 64.67 64.27 63.94 64.76 64.58 64.93 64.58 64.14 63.07 60.01 61.43 62.90 63.80 59.99 56.77 53.88 56.97 60.97 62.56 61.01 61.21 60.68 61.18 61.71 63.67
49.84 48.51 46.79 47.30 48.85 49.67 50.92 52.43 57.11 59.51 65.29 66.00 65.96 65.25 65.25 65.31 65.11 65.35 64.43 64.73 64.06 64.47 64.34 64.89 65.30 65.45 64.40 61.94 60.82 60.73 61.19 60.96 62.28 58.72 54.51 55.87 59.82 60.63 62.14 62.10 61.42 61.10 60.87
49.25 47.55 44.71 44.28 44.94 47.09 48.68 50.69 53.97 60.03 62.34 65.17 65.03 63.79 63.76 63.87 64.33 64.76 65.05 65.53 64.74 63.87 63.76 63.35 64.25 65.50 64.60 63.48 62.08 61.41 61.04 59.45 59.45 58.13 57.07 56.92 56.79 57.63 60.78 60.68 60.18 61.08 60.52

GFSSE_sfc_wetblb_105.txt.gz
Wetbulb
71.93 74.85 72.97 73.55 73.82 73.99 74.08 74.31 74.44 73.72 73.97 74.32 74.18 74.40 74.59 74.62 74.59 74.57 74.73 74.89 74.84 75.45 75.93 75.42 75.30 74.95 74.52 74.22 73.95 73.86 73.66 73.55 73.51 73.90 73.84 73.43 73.01 73.26 73.13 73.43 72.95 72.08 72.70
74.38 75.73 72.21 73.06 73.58 74.04 74.16 74.14 74.16 74.06 74.15 74.39 74.20 74.34 74.44 74.57 74.33 74.35 74.55 74.93 75.08 75.55 75.80 75.02 74.85 74.47 74.39 74.90 74.42 74.04 73.47 73.23 73.03 73.40 73.55 73.76 73.01 72.91 72.84 73.12 72.27 72.37 72.77
74.01 76.81 74.37 72.54 73.30 73.88 74.01 74.29 74.49 74.44 74.49 74.54 74.48 74.39 74.53 74.58 74.33 74.19 74.46 74.57 75.11 75.43 75.52 74.94 74.82 74.54 74.63 74.97 73.79 73.23 73.03 72.86 72.59 72.74 73.23 72.93 72.67 72.91 72.41 72.16 72.30 72.62 72.69
74.26 75.79 75.24 72.52 72.71 73.49 73.49 73.98 74.34 74.80 74.67 74.61 74.40 74.46 74.58 74.56 74.28 74.10 74.35 74.36 75.03 75.28 75.68 75.20 74.54 74.65 75.07 74.08 72.86 72.50 72.46 72.28 72.14 72.35 72.75 72.38 72.18 72.76 72.57 72.19 72.09 72.40 72.45
73.07 75.25 75.98 72.10 72.05 72.83 73.00 73.40 74.09 74.53 74.46 74.34 74.27 74.54 74.61 74.53 74.41 74.25 74.08 74.04 74.83 75.53 75.40 74.67 74.31 74.95 73.64 72.71 72.00 71.83 71.90 71.64 71.50 71.73 72.34 70.28 72.03 72.26 72.54 72.31 72.07 72.06 71.42
73.70 75.03 72.18 71.29 71.66 72.52 72.71 73.00 73.59 73.85 73.47 73.64 73.86 74.36 74.56 74.46 74.36 74.20 73.67 74.15 74.99 75.77 75.45 74.88 74.95 73.90 72.11 71.75 71.45 71.42 71.03 70.94 70.57 72.09 71.29 71.21 72.19 72.64 72.32 72.44 72.14 71.32 71.09
74.49 75.07 74.93 70.63 71.38 72.15 72.55 72.74 72.87 72.77 72.92 73.21 73.61 73.78 74.04 74.18 74.08 73.66 73.22 73.94 74.45 74.99 74.97 73.87 73.30 72.27 71.28 71.03 71.24 70.86 70.38 70.19 72.01 71.11 70.60 71.20 72.35 72.31 72.34 71.64 71.74 71.19 70.52
75.20 75.20 75.72 71.94 71.55 71.47 71.70 71.62 71.65 71.60 72.22 72.79 73.10 73.37 73.92 73.62 73.27 73.09 72.92 73.45 73.48 73.53 73.03 73.34 72.53 71.51 70.90 70.72 70.64 69.96 69.46 69.50 71.05 70.67 70.20 70.22 71.62 72.14 72.20 71.71 70.93 70.79 70.83
75.05 75.84 75.93 75.53 73.25 71.33 70.83 70.49 70.20 70.67 71.24 71.81 72.25 72.63 72.97 72.58 72.33 72.51 72.77 72.96 73.08 72.70 72.14 72.35 71.42 70.92 70.58 70.26 70.02 69.17 68.30 69.09 71.39 70.18 69.75 71.05 71.12 72.04 72.05 71.50 70.96 70.60 70.70
74.25 74.59 75.49 75.48 74.70 74.46 73.91 70.36 69.98 70.04 70.23 70.82 71.32 71.44 71.36 71.61 71.70 71.78 71.78 72.30 72.41 72.01 71.34 71.78 70.88 70.28 69.90 69.49 68.94 68.30 67.67 67.89 71.03 70.19 70.22 70.08 70.77 71.62 71.80 71.44 70.98 70.51 70.51
72.75 73.47 74.60 74.50 74.47 74.68 74.74 73.10 70.70 70.73 70.34 70.22 70.91 70.56 70.16 74.26 74.25 73.78 71.75 70.87 71.44 70.31 70.01 69.77 68.81 69.12 69.02 68.88 68.48 67.96 67.71 70.90 70.48 70.82 70.66 69.09 69.88 71.68 71.32 71.38 70.78 69.88 70.40
70.48 72.12 73.10 73.14 73.16 73.49 73.66 74.74 73.82 73.29 72.82 72.69 72.49 72.88 73.16 73.55 73.98 73.16 71.74 69.91 70.39 69.48 69.45 69.01 68.68 68.00 68.47 71.43 70.90 68.21 70.29 70.46 71.56 71.01 70.69 68.07 69.39 71.36 71.50 70.38 69.75 70.26 69.50
64.32 71.96 73.06 73.59 73.47 73.04 73.01 73.16 73.18 73.88 73.42 73.62 73.74 73.69 73.50 73.39 73.91 73.04 72.93 72.63 73.23 70.14 72.28 70.91 71.06 71.48 71.18 70.57 71.35 70.73 69.94 70.68 70.76 70.61 69.23 66.90 68.84 71.16 70.79 69.62 69.94 70.30 69.20
58.80 64.35 71.69 72.95 73.26 73.94 74.11 73.07 73.43 73.35 73.57 73.35 73.48 74.87 74.23 73.22 73.40 73.07 71.78 72.27 72.47 72.26 71.79 71.91 71.26 70.93 70.56 70.56 70.75 70.73 70.78 70.48 70.02 69.25 66.98 65.61 66.53 69.30 70.28 69.47 69.18 69.57 68.97
57.64 59.16 61.55 68.81 71.90 73.09 73.18 73.51 73.11 72.88 72.79 73.03 72.72 73.40 73.19 72.40 72.95 72.34 71.99 71.60 72.00 70.91 72.01 71.48 69.96 70.26 70.58 70.20 70.55 70.02 70.04 69.91 69.95 67.75 68.41 64.92 64.83 66.10 69.17 69.36 69.51 69.22 69.08
58.69 59.17 60.84 61.47 65.42 70.64 71.88 72.79 72.33 72.49 72.48 72.37 72.29 72.05 72.04 72.27 72.11 71.51 71.64 71.06 70.54 71.48 72.14 71.36 70.97 70.28 70.24 70.50 69.94 69.85 69.64 69.70 69.27 68.88 68.51 67.60 63.72 64.24 67.39 68.86 69.30 69.07 69.63
60.09 60.83 62.15 63.31 62.50 63.88 69.48 70.89 71.66 71.98 71.57 71.10 71.37 72.35 70.89 71.18 72.32 72.40 70.48 70.58 70.55 71.48 71.74 70.99 71.12 71.17 69.93 69.29 68.70 69.67 69.31 69.31 68.68 68.25 68.60 68.20 66.32 62.42 64.10 66.24 67.29 66.59 69.39
60.00 60.95 62.44 62.74 63.55 64.11 63.61 66.16 69.70 70.34 71.54 71.07 71.32 71.76 71.24 71.21 72.16 72.14 70.58 69.36 70.27 70.84 70.72 70.05 70.17 69.32 68.61 68.53 67.75 67.76 68.68 68.39 68.19 68.10 68.10 68.05 66.56 66.72 64.31 64.12 62.83 65.12 68.04
60.05 60.59 60.87 61.94 62.43 63.38 63.92 63.42 65.61 70.31 70.92 71.36 71.72 71.86 71.78 71.22 71.23 71.62 70.52 69.18 70.44 69.72 69.60 68.58 68.93 68.52 67.64 67.73 67.01 67.44 67.76 67.28 67.55 67.11 66.72 66.77 65.80 66.21 66.82 63.76 62.66 62.80 64.04
60.10 60.38 60.43 60.60 61.25 62.17 62.58 63.10 62.99 64.58 69.61 70.95 70.72 71.97 72.37 71.76 71.55 71.27 69.64 69.39 69.22 67.53 68.43 67.17 66.42 67.24 66.39 66.58 65.89 64.92 65.98 66.93 67.24 65.70 65.59 65.49 65.26 65.56 65.75 66.05 64.39 63.76 62.67
59.09 58.75 58.82 58.84 59.84 60.09 59.89 60.34 61.04 60.20 65.34 68.41 69.65 70.82 72.24 71.54 71.66 70.24 69.13 69.49 68.90 66.56 67.96 66.23 66.04 65.64 64.84 66.07 64.24 63.05 64.26 65.67 65.46 65.27 65.34 64.78 63.45 62.70 64.36 64.12 63.69 64.23 64.27
56.87 57.29 56.96 57.16 57.80 58.10 58.51 59.18 60.27 61.58 62.76 66.18 68.97 69.96 71.07 70.00 70.13 68.47 68.61 68.54 68.32 66.58 67.66 65.70 65.42 64.06 64.33 64.53 61.61 59.75 56.79 58.57 62.30 64.37 64.16 63.26 62.66 62.29 62.14 63.56 63.61 63.94 64.19
55.14 54.97 54.64 54.77 55.22 56.77 57.48 57.65 58.70 60.68 61.75 62.94 67.68 68.16 69.17 70.66 70.26 68.63 68.82 68.51 67.31 67.02 65.74 65.46 65.52 63.56 61.86 63.20 63.05 60.62 56.11 55.91 57.86 61.86 62.89 63.01 62.50 61.90 62.28 61.97 63.06 64.03 65.40
54.17 54.41 53.95 53.55 53.32 54.21 55.39 54.74 54.68 56.27 58.19 60.73 64.93 67.26 68.18 69.55 68.36 68.51 69.10 67.26 66.45 66.69 65.80 65.39 65.42 64.68 64.76 61.09 62.77 63.26 64.28 62.64 58.02 55.27 59.66 62.09 62.30 61.54 61.69 61.75 61.68 62.28 62.95
53.44 52.96 52.84 51.94 51.54 52.45 52.40 51.81 50.90 52.50 57.06 61.26 63.01 66.91 68.28 68.81 67.89 68.08 68.43 66.87 65.68 65.58 65.50 64.81 64.93 65.23 65.68 63.39 61.89 61.20 63.33 62.77 62.62 59.57 54.56 57.47 60.50 61.83 62.19 61.73 61.48 61.62 61.83
52.20 51.78 50.92 50.00 49.26 49.76 47.96 47.69 47.95 49.41 52.43 57.70 61.62 64.83 67.09 68.14 66.74 66.59 66.13 65.87 65.71 66.59 64.93 64.50 65.59 66.45 66.23 65.23 64.58 63.31 62.26 60.36 59.52 59.94 58.88 57.93 57.43 59.61 61.01 61.65 62.02 61.72 61.56

GFSSE_sfc_wetblb_108.txt.gz
Wetbulb
72.78 72.57 73.01 73.68 74.32 74.44 74.39 74.05 73.61 73.90 74.27 74.50 74.38 74.43 74.36 74.61 74.65 74.55 74.45 74.66 74.90 75.45 75.95 75.90 75.45 75.32 75.00 73.96 73.82 73.68 73.62 73.49 73.57 73.92 73.51 73.57 73.55 73.55 73.62 73.31 72.85 71.68 72.97
74.58 72.80 72.25 73.07 73.93 74.50 74.61 74.24 73.73 73.83 74.40 74.53 74.45 74.54 74.52 74.77 74.69 74.66 74.74 74.61 75.05 75.57 75.75 75.45 75.30 75.15 74.67 74.80 73.82 73.42 72.87 72.92 72.98 73.12 73.35 73.67 73.82 73.28 73.08 72.66 72.36 71.97 72.58
74.93 73.83 72.97 72.66 73.50 74.11 74.44 74.61 74.44 74.17 74.57 74.46 74.48 74.59 74.57 74.72 74.61 74.60 74.60 74.49 75.07 75.72 75.72 74.94 74.75 74.67 74.82 74.49 73.44 73.00 72.70 72.68 72.68 72.74 73.02 70.98 71.35 73.28 72.56 72.29 72.04 72.50 72.58
74.40 75.20 73.48 72.39 72.93 73.47 73.68 74.10 74.35 74.69 74.62 74.46 74.50 74.57 74.61 74.47 74.47 74.40 74.39 74.18 74.82 75.52 75.50 74.74 74.59 75.05 74.74 74.00 72.82 72.37 72.39 72.32 72.00 72.09 71.39 71.24 70.70 73.17 72.63 72.89 72.63 72.63 72.50
73.17 75.99 74.47 71.85 72.35 73.13 73.30 73.64 74.02 74.28 74.10 74.19 74.11 74.72 74.64 74.42 74.28 74.39 74.19 74.08 74.82 75.35 75.37 75.47 74.85 74.77 73.92 72.89 72.13 71.73 71.92 71.54 71.26 71.44 69.65 69.87 70.34 72.34 72.73 72.97 72.38 72.34 71.69
74.07 75.60 71.00 71.00 71.94 72.85 72.97 73.53 73.73 73.71 73.45 73.48 73.57 74.41 74.59 74.40 74.38 74.11 73.71 74.16 74.83 75.57 75.30 75.15 74.65 73.97 72.52 72.00 71.41 71.42 71.07 70.83 70.48 70.14 68.90 70.01 69.91 72.53 72.70 72.39 71.75 71.48 71.14
74.91 74.15 72.96 70.51 71.49 72.27 72.89 73.32 73.36 73.30 73.10 73.04 73.28 73.76 74.22 74.31 74.02 73.82 73.26 73.78 74.28 74.90 74.79 74.54 74.13 72.72 71.88 71.31 71.44 70.92 70.38 69.87 70.21 69.24 68.21 69.55 70.17 72.24 72.68 72.69 71.70 71.12 70.94
75.05 75.57 73.01 71.89 71.63 71.67 71.87 72.00 71.95 72.26 72.45 72.67 72.96 73.34 73.83 73.76 73.25 73.25 72.83 73.14 73.55 73.84 73.44 73.04 72.37 71.82 71.07 70.92 70.89 70.17 69.48 69.33 69.95 69.32 67.79 68.73 70.13 72.13 72.41 72.26 71.12 70.99 70.99
75.63 76.79 74.70 73.58 72.37 71.14 70.90 70.72 70.57 71.38 71.90 72.24 72.45 72.61 72.81 72.48 72.30 72.58 72.42 72.80 73.21 72.82 72.38 72.34 71.83 71.19 70.64 70.39 70.00 69.11 68.42 68.80 68.72 69.17 69.03 68.68 70.60 71.91 72.09 71.74 71.14 70.77 70.69
74.44 75.18 75.61 74.43 73.20 72.44 71.93 70.59 70.23 70.52 70.89 71.32 71.86 71.68 71.55 71.61 71.96 71.98 71.77 72.19 72.58 72.22 71.87 72.06 71.14 70.56 70.08 69.40 69.06 68.35 67.72 68.33 68.72 68.85 68.19 68.78 69.44 72.80 72.41 71.78 71.31 70.99 70.59
72.60 73.50 73.83 73.43 73.18 73.45 72.92 71.66 70.65 70.86 70.73 70.61 71.31 71.23 70.27 73.20 72.60 72.28 71.26 70.77 71.78 70.65 70.34 70.89 70.43 69.53 69.06 68.88 68.72 68.22 67.97 68.76 68.43 67.97 68.27 69.09 69.90 71.87 72.06 71.41 70.73 69.98 70.39
66.44 72.89 73.16 72.73 72.58 73.11 73.41 72.51 71.69 71.57 71.12 71.21 71.38 71.77 72.51 72.72 73.06 72.51 71.12 70.02 70.55 69.90 69.74 69.83 69.29 68.64 68.04 69.09 68.52 68.04 68.12 68.74 67.97 67.76 67.61 68.48 70.42 71.69 72.48 70.59 69.90 69.69 69.30
64.08 71.56 72.81 72.83 72.13 71.72 71.83 72.70 72.30 71.75 71.19 71.23 71.35 71.48 71.59 71.73 71.94 71.29 71.61 70.70 70.91 69.94 70.67 69.30 68.96 69.49 69.46 69.34 68.82 68.51 68.48 68.52 68.02 67.24 67.61 66.99 69.24 71.40 71.84 70.94 70.21 69.61 68.82
64.38 63.44 72.07 72.39 72.34 72.07 71.98 71.79 72.96 72.75 71.89 71.50 71.53 71.94 71.55 70.93 71.00 71.23 70.50 71.08 70.97 70.90 70.21 69.63 69.52 69.54 69.19 69.05 68.63 68.65 68.50 68.01 67.92 66.99 66.56 66.06 67.85 70.24 70.91 70.69 70.19 69.68 68.64
60.93 60.90 61.89 64.74 70.39 72.00 71.24 71.98 71.74 71.37 71.92 71.88 72.19 72.08 71.63 71.09 70.66 70.69 70.35 70.14 70.66 70.55 70.14 69.37 69.10 69.24 68.78 68.40 68.66 68.29 67.94 67.69 67.38 66.92 65.74 65.31 65.51 66.24 69.71 69.95 69.87 69.33 68.94
59.86 61.13 62.39 63.42 63.55 63.62 70.98 70.72 70.98 71.46 71.35 71.96 71.68 71.54 72.09 71.66 70.34 70.10 69.81 68.80 70.11 69.65 69.60 69.58 68.88 68.04 68.11 67.74 67.40 67.62 67.41 67.53 67.53 66.60 65.23 64.52 63.64 64.40 66.66 69.74 69.28 68.98 68.99
60.33 61.58 62.61 63.40 64.69 64.52 63.86 66.09 70.41 70.66 70.89 70.61 70.99 71.53 70.96 70.93 70.87 70.09 69.24 68.64 68.73 69.44 68.36 69.00 68.56 68.68 67.76 67.59 66.89 67.02 67.14 67.26 67.02 66.54 66.03 64.68 63.79 62.11 63.30 66.65 68.09 67.41 67.37
59.95 60.89 62.02 62.33 63.16 64.16 64.07 63.91 63.48 64.74 70.26 70.39 70.11 70.72 70.91 70.37 70.20 69.63 69.41 68.08 68.85 68.32 68.73 68.69 68.13 67.39 66.91 66.66 66.02 66.45 66.31 66.61 66.49 65.65 65.84 65.55 65.22 65.20 62.90 63.26 65.14 66.86 67.29
59.32 60.15 60.53 61.54 61.57 62.09 63.08 63.39 63.46 63.37 62.75 69.37 69.94 69.56 70.32 69.78 69.43 69.51 69.44 68.78 68.60 67.76 67.69 68.22 67.34 67.18 66.04 65.42 66.21 65.80 65.59 65.33 65.27 66.01 65.10 64.45 64.32 64.99 64.48 62.77 62.96 63.83 64.56
59.31 59.64 59.45 59.39 60.03 60.78 60.73 62.09 62.23 62.06 61.79 62.85 67.86 69.61 69.76 69.88 69.41 69.18 69.22 68.85 68.33 67.80 67.31 67.76 66.59 66.81 66.02 65.42 64.70 64.74 64.65 64.62 64.93 64.85 64.90 64.56 64.45 63.94 64.00 64.37 62.51 62.40 61.89
57.81 57.40 56.86 56.76 57.03 57.22 57.31 57.17 57.68 58.32 60.57 60.83 64.60 67.49 69.03 69.31 69.44 68.71 68.71 68.51 68.13 67.14 66.33 67.13 65.51 65.29 63.97 64.59 62.69 62.91 62.22 63.44 64.03 63.24 63.15 63.72 62.67 62.66 62.39 63.70 63.77 64.39 62.60
55.83 55.11 54.86 54.77 54.72 54.89 55.63 56.05 56.52 56.58 57.53 59.11 60.56 61.77 66.70 67.71 68.12 68.62 68.36 68.07 67.54 66.54 65.92 65.92 65.05 63.56 64.04 64.58 61.40 59.01 55.94 58.09 60.50 62.68 63.62 62.83 62.06 62.21 60.87 62.14 63.37 63.55 63.68
54.22 53.92 53.36 53.24 53.01 53.56 54.33 54.26 54.98 55.74 56.18 57.50 58.37 59.34 61.16 66.86 67.69 67.92 68.25 67.70 66.50 66.13 65.01 65.53 64.82 63.13 61.97 63.42 62.54 57.90 54.43 53.60 55.72 60.45 61.81 61.15 60.90 60.73 60.28 60.42 61.93 63.43 63.53
52.85 53.08 52.59 52.19 51.98 52.19 52.34 51.14 50.58 50.49 50.55 53.15 55.53 58.65 60.84 66.80 66.83 67.37 67.66 67.56 66.19 65.44 64.67 64.66 65.38 63.28 62.39 60.90 62.39 61.60 60.17 58.60 54.51 53.87 58.13 61.33 61.08 60.78 60.01 60.48 61.61 62.13 62.74
51.53 51.07 51.04 50.07 49.57 49.31 49.55 48.70 46.84 46.55 49.47 51.67 53.66 55.57 58.58 60.99 66.09 66.74 66.76 66.60 65.51 64.87 64.09 64.98 64.53 63.81 62.49 61.24 61.12 60.42 60.47 60.49 59.47 55.85 52.01 56.14 59.73 60.10 60.65 60.05 60.34 60.82 62.17
49.95 49.60 48.22 47.24 46.55 47.44 47.28 45.76 44.38 43.78 45.36 47.05 49.19 51.69 54.81 59.58 63.18 65.42 65.54 66.64 66.40 65.00 64.40 64.07 61.74 63.56 62.54 62.55 62.10 61.23 59.53 59.21 58.46 56.88 54.93 54.03 55.47 57.87 59.91 60.34 59.83 60.32 61.12

GFSSE_sfc_wetblb_111.txt.gz
Wetbulb
70.65 72.39 73.02 73.85 74.11 73.93 73.64 73.31 73.31 73.57 74.06 74.22 74.18 74.26 74.47 74.38 74.07 74.09 74.46 74.85 75.27 75.70 75.88 75.23 75.55 75.15 74.65 74.10 73.56 73.26 73.24 72.99 72.96 73.59 73.21 73.80 73.48 73.61 73.60 73.21 72.63 72.05 72.78
71.30 72.51 71.79 73.37 73.93 74.14 73.82 73.24 73.23 73.75 74.06 74.27 74.22 74.30 74.30 74.11 74.11 74.18 74.13 74.56 75.15 75.73 75.48 74.91 74.68 74.38 74.28 74.33 72.86 72.28 72.52 72.27 72.37 72.63 73.10 73.17 73.78 73.29 73.11 72.97 72.18 72.28 72.89
71.25 72.49 72.43 72.45 73.64 74.23 74.12 73.48 73.40 73.97 74.32 74.32 74.29 74.20 74.29 74.17 74.17 74.09 73.88 74.13 74.82 75.55 75.11 74.78 74.48 74.23 74.53 73.98 72.68 72.00 71.77 72.14 72.14 72.18 72.82 70.54 71.88 73.41 72.54 72.61 72.56 72.61 72.73
71.85 71.97 72.13 72.08 72.92 73.49 73.63 73.55 73.27 74.21 74.38 74.14 74.15 74.36 74.33 74.22 74.14 74.08 73.63 73.57 74.56 75.62 75.46 74.50 74.25 74.53 74.22 73.18 72.28 71.68 71.63 71.68 71.22 71.82 70.96 70.61 70.94 72.56 72.42 72.54 72.43 72.52 72.66
72.93 72.02 72.20 71.64 72.07 72.87 73.08 73.40 73.46 73.56 73.55 73.64 73.94 74.41 74.24 74.10 74.25 74.26 73.59 73.53 74.60 75.79 75.70 74.62 74.88 74.75 73.29 72.45 71.76 71.23 71.31 71.04 70.75 70.96 68.50 68.86 70.26 72.12 72.07 72.45 72.26 72.24 72.04
71.94 72.48 70.65 70.63 71.70 72.46 72.89 73.06 73.23 73.07 72.76 72.88 73.46 73.99 74.19 74.26 74.28 73.95 73.29 73.69 74.71 75.12 75.41 75.73 74.62 73.46 72.36 71.79 71.18 70.80 70.58 70.30 70.08 69.70 67.94 69.33 66.92 70.56 71.53 71.51 71.63 71.55 71.34
71.81 71.42 70.85 70.25 71.10 72.07 72.64 72.99 72.84 72.70 72.41 72.43 72.97 73.33 73.66 73.94 73.64 73.29 72.77 73.30 73.88 74.50 74.72 74.36 73.46 72.93 71.70 71.04 70.99 70.35 69.77 69.30 69.50 67.43 67.90 65.29 63.22 66.63 69.89 71.46 71.46 71.16 71.48
72.05 72.08 71.00 71.46 71.27 71.32 71.74 71.97 71.99 72.08 72.01 72.03 72.28 72.91 73.53 73.14 72.71 72.59 72.50 72.75 72.92 73.27 73.22 72.78 72.37 71.70 71.18 70.59 70.27 69.69 68.86 68.80 69.51 67.59 67.56 67.82 66.20 67.91 70.06 71.38 71.07 70.94 71.30
72.12 71.47 70.87 70.97 71.43 70.74 70.21 70.35 70.47 71.28 71.54 71.72 71.69 72.17 72.47 72.04 71.74 71.97 72.19 72.34 72.45 72.27 71.98 72.14 71.72 70.87 70.39 69.91 69.50 68.71 68.06 68.35 67.88 66.78 68.44 67.54 68.60 69.38 71.58 71.99 71.25 70.78 70.53
70.91 71.52 70.75 70.56 70.45 69.73 69.50 69.63 69.95 70.56 70.85 70.92 71.32 71.21 71.03 71.07 71.45 71.51 71.19 71.57 72.01 71.70 71.59 71.53 70.79 70.45 69.63 68.99 68.62 67.97 67.36 67.79 67.86 66.60 67.48 68.24 69.08 70.31 71.87 71.35 71.20 70.48 70.10
69.88 70.11 71.68 71.05 71.02 70.00 69.75 70.02 70.10 70.53 70.47 70.61 71.24 70.74 69.89 71.31 71.44 71.61 70.77 70.43 71.23 70.23 70.28 70.56 70.10 69.45 68.91 68.37 68.08 67.93 67.84 67.56 67.86 67.24 66.22 68.06 69.15 68.56 71.85 71.33 70.85 70.63 70.34
65.73 68.85 69.63 70.89 70.71 71.01 71.50 69.57 68.81 69.91 69.71 70.02 70.63 70.79 71.54 70.82 71.11 71.78 70.32 69.58 69.89 69.54 69.59 69.61 69.25 68.53 68.08 67.97 67.59 67.75 66.66 67.66 67.43 66.71 66.87 67.31 69.30 71.26 72.52 71.30 70.45 70.22 70.01
65.67 69.87 69.81 70.32 70.70 71.44 71.27 69.37 69.18 69.22 68.83 69.05 69.01 70.07 70.32 71.26 70.95 70.92 70.55 70.12 69.59 69.74 69.82 69.08 68.49 68.24 67.95 67.84 67.29 66.93 66.98 67.16 66.64 66.60 66.37 66.86 69.05 70.91 70.99 70.81 70.46 70.27 69.90
52.10 66.75 70.21 70.11 69.51 68.59 69.81 71.38 70.59 69.36 68.69 68.72 68.90 69.25 69.59 69.07 68.84 70.11 69.58 69.42 69.32 69.72 68.96 68.76 68.31 67.97 67.97 68.28 67.81 67.39 67.16 66.74 66.49 66.05 65.49 65.80 67.37 70.20 70.91 71.23 71.17 70.02 69.30
52.98 55.67 58.07 66.39 67.35 69.16 68.95 69.34 70.30 70.11 69.44 69.37 69.28 69.52 70.08 69.00 68.80 68.51 69.21 69.63 69.48 69.57 69.00 68.35 68.10 68.28 67.99 68.00 67.90 67.11 67.30 66.85 66.69 65.95 64.93 65.06 65.41 68.42 70.49 70.68 70.42 70.44 69.47
55.00 56.30 56.86 58.02 58.90 60.39 62.33 65.73 67.63 67.75 68.38 69.48 69.46 69.54 70.02 69.97 68.97 68.84 67.95 68.23 69.21 69.62 69.24 68.66 67.81 67.75 67.67 67.68 66.89 66.53 66.49 66.47 66.20 65.13 64.55 63.76 63.75 64.98 67.02 69.37 70.57 70.18 69.48
56.07 56.72 57.35 58.35 58.32 59.16 61.09 60.54 60.82 65.06 68.55 67.30 68.17 68.92 70.07 69.57 68.74 68.68 67.75 67.18 68.73 69.35 68.62 68.43 66.90 67.36 67.00 66.84 66.02 65.85 65.82 65.82 65.82 65.16 63.95 63.41 62.75 62.17 63.55 66.80 69.01 69.27 69.21
55.67 55.63 56.60 58.38 57.46 57.31 57.65 58.70 59.60 60.33 60.61 63.98 67.60 67.88 68.37 69.34 68.79 68.13 67.39 66.16 66.17 68.52 67.25 67.53 67.06 66.05 65.93 65.54 64.40 64.71 64.97 65.22 65.44 64.89 64.20 63.48 62.84 62.84 61.72 63.28 66.11 67.48 67.83
54.59 55.18 55.04 55.47 55.43 55.78 56.27 56.84 57.68 58.23 58.59 59.78 61.97 66.29 67.61 68.80 68.75 68.46 67.30 67.10 66.29 65.93 66.72 66.73 65.67 66.24 65.22 64.88 64.41 64.37 64.35 64.46 64.56 65.22 63.82 63.58 63.15 63.64 63.54 61.86 62.49 63.81 65.44
53.50 53.46 53.68 54.03 53.48 53.69 54.41 55.01 55.32 55.57 57.02 57.91 58.16 60.56 66.40 67.70 68.72 67.60 67.51 67.43 66.52 65.96 64.74 65.52 66.15 65.58 65.79 65.14 64.91 63.50 63.32 64.65 64.68 62.91 63.31 63.85 64.05 63.32 63.27 63.09 61.57 62.55 62.85
51.72 51.55 51.57 51.35 51.12 51.61 51.49 51.33 51.95 52.38 53.78 54.81 56.22 57.59 58.51 64.93 67.53 67.84 67.33 67.05 67.78 66.75 66.15 65.71 65.51 65.00 62.04 64.22 61.49 60.66 59.89 63.11 63.25 62.80 64.06 63.42 63.07 62.65 61.75 62.21 62.18 61.45 62.58
49.61 49.60 49.72 49.63 49.40 49.73 50.41 50.49 50.55 51.27 52.59 54.12 55.51 56.62 57.12 58.12 60.61 67.03 67.34 66.94 67.25 66.49 65.42 64.87 65.02 62.94 62.40 63.76 59.89 59.07 57.13 57.79 59.99 62.91 63.02 62.33 61.91 61.47 60.46 60.95 62.97 63.27 63.33
47.63 47.60 47.90 47.88 47.87 48.03 48.18 48.60 48.13 48.37 48.95 50.26 51.55 52.53 54.07 56.02 57.88 60.60 66.36 66.81 66.82 66.09 65.34 64.53 63.42 62.94 60.78 61.51 60.94 57.33 53.63 52.17 53.69 56.85 60.58 62.18 61.65 60.35 58.96 59.33 61.03 62.63 63.61
46.21 47.14 46.40 46.46 45.64 46.77 46.51 45.24 43.79 43.24 43.21 45.77 47.24 49.98 51.25 53.07 54.86 57.76 61.10 65.44 66.37 65.73 64.14 62.69 59.27 59.45 57.19 59.86 61.12 61.61 57.43 55.93 52.05 53.33 55.96 59.16 61.19 60.41 60.15 59.68 60.59 60.82 62.91
45.51 44.24 44.52 44.98 44.81 44.98 44.71 43.90 42.28 41.26 42.65 44.49 45.52 46.51 48.22 50.23 52.96 55.40 58.67 62.52 64.25 64.90 63.99 59.94 58.09 60.01 61.73 61.32 58.37 60.67 60.36 57.91 56.11 53.19 52.60 55.54 59.64 60.59 59.87 59.78 59.91 60.79 60.51
43.66 42.48 42.59 42.97 42.94 43.68 42.84 42.51 41.24 40.44 41.34 41.98 42.93 44.04 46.05 48.13 50.23 52.92 56.93 60.90 63.50 63.82 63.58 62.45 61.13 61.34 61.42 61.46 61.53 61.10 59.49 58.29 57.77 56.03 52.46 51.39 55.49 58.27 59.85 60.39 59.25 60.32 60.96

GFSSE_sfc_wetblb_114.txt.gz
Wetbulb
70.35 72.28 72.85 73.55 73.63 73.57 73.41 73.18 72.92 73.25 73.51 73.77 74.07 74.31 74.14 74.43 74.49 74.36 74.56 74.81 75.35 75.92 76.18 75.88 75.60 74.96 74.43 73.73 73.31 73.12 72.46 72.54 72.56 73.04 73.17 73.78 73.56 73.51 73.37 73.18 72.47 71.97 73.11
70.98 72.59 72.17 73.20 73.69 73.92 73.58 73.18 73.07 73.44 73.79 73.84 73.94 74.00 73.93 74.00 74.06 74.38 74.51 74.64 75.20 75.72 75.38 75.18 74.86 74.51 74.43 73.88 72.53 72.45 72.37 72.07 72.07 72.12 72.64 73.35 73.38 73.14 73.01 72.68 72.21 72.20 73.31
70.77 72.19 72.75 72.65 73.46 73.62 73.75 73.49 73.57 73.96 74.07 74.01 74.05 73.89 73.83 73.85 73.94 73.97 74.19 74.46 75.09 75.42 74.88 74.51 74.38 74.26 74.43 73.55 71.82 71.79 72.12 71.91 71.84 71.98 72.04 70.41 71.48 73.56 72.81 72.59 72.45 72.62 72.86
71.26 71.72 72.13 72.49 73.09 73.32 73.03 72.90 73.44 74.19 74.22 74.14 73.94 74.03 73.77 73.80 73.76 73.60 73.56 73.90 74.78 75.34 74.78 74.46 74.18 74.13 74.27 73.02 71.89 71.21 71.38 71.61 71.20 71.67 69.93 70.44 71.06 73.18 72.76 72.32 72.60 72.76 72.72
71.20 71.43 71.75 71.82 72.36 73.14 72.86 72.68 72.92 73.58 73.48 73.63 73.69 73.99 73.91 73.92 74.06 73.59 73.12 73.53 74.81 75.23 74.76 74.15 74.10 74.50 73.07 71.84 71.15 70.84 70.94 70.87 70.74 71.02 68.23 68.58 69.87 72.22 72.79 72.67 72.40 72.60 71.75
71.35 71.23 70.56 70.63 71.68 72.60 72.99 72.84 72.71 72.74 72.46 72.71 73.17 73.69 73.95 73.96 74.05 73.66 72.73 73.50 74.63 75.38 75.37 74.73 74.55 73.60 71.92 71.16 71.00 70.55 70.29 70.12 69.95 68.68 68.10 68.80 69.64 72.83 72.36 72.02 71.63 71.71 71.22
70.65 70.47 70.65 69.83 70.99 72.16 72.77 72.94 72.70 72.29 71.92 72.14 72.75 73.17 73.46 73.71 73.83 73.06 72.61 73.08 73.90 74.68 74.65 74.79 73.63 72.27 71.54 71.28 70.93 70.19 69.54 69.24 69.07 66.98 66.62 64.35 64.68 71.17 71.90 72.02 71.79 71.52 71.40
70.11 70.33 70.51 70.96 71.01 71.23 71.52 71.66 71.34 71.41 71.68 71.65 72.26 72.69 73.21 73.00 72.66 72.57 72.32 72.43 72.59 73.00 72.96 72.68 71.91 71.72 71.28 70.69 70.46 69.28 68.57 68.62 69.03 67.00 67.32 63.52 64.15 69.40 71.24 72.22 71.37 70.85 71.13
70.80 69.93 70.01 70.51 71.14 70.28 69.90 69.86 70.20 70.67 70.99 71.05 71.28 71.53 72.15 71.63 71.24 71.83 71.96 72.09 72.05 71.99 71.77 71.69 71.29 71.01 70.83 70.13 69.51 68.53 67.72 68.10 66.78 66.96 67.31 65.82 66.68 68.61 70.33 72.20 71.44 70.72 71.07
70.27 69.36 69.25 69.77 70.02 69.75 69.59 69.01 69.52 69.91 70.22 70.27 70.74 70.54 70.61 70.56 70.89 71.01 70.92 71.36 71.52 71.39 71.33 71.36 70.74 70.37 69.89 69.01 68.44 67.83 67.16 67.65 66.82 66.53 67.14 66.80 68.06 69.65 70.62 72.21 71.67 70.86 70.84
69.67 69.16 68.56 68.87 69.16 68.83 69.12 69.65 69.97 70.51 70.09 69.89 70.27 69.97 69.53 71.30 70.99 70.98 70.30 70.01 70.63 69.67 69.94 70.30 70.05 69.27 68.57 68.10 67.97 67.34 67.20 67.24 67.23 66.79 66.23 67.58 68.78 69.90 71.28 71.10 71.06 70.52 70.41
66.99 68.28 69.48 68.96 68.89 68.62 70.25 69.10 68.80 69.95 70.29 70.66 71.42 71.26 71.32 71.15 70.48 71.29 70.22 69.05 69.56 69.05 69.02 69.36 69.00 68.26 67.99 67.70 67.18 67.54 66.50 66.95 66.98 66.31 66.05 67.09 69.21 70.98 69.68 71.10 70.65 70.23 69.73
55.35 67.86 68.89 69.30 68.98 68.89 69.37 68.40 68.12 68.42 68.15 68.71 69.71 70.38 70.59 70.20 70.75 70.57 70.27 69.77 69.12 69.25 69.41 69.19 68.71 68.65 67.88 67.27 66.23 66.23 66.32 66.41 66.25 66.39 66.57 66.51 69.16 70.55 69.96 71.81 70.90 70.26 68.95
59.53 67.39 68.84 68.85 68.51 68.67 68.67 68.40 67.99 67.81 67.49 67.85 68.35 68.94 69.45 69.61 69.82 70.32 70.02 69.19 68.62 69.03 68.83 68.94 68.85 68.19 67.38 67.38 66.89 66.48 66.30 66.23 66.00 65.91 65.25 65.35 67.30 70.27 71.60 71.21 71.06 70.61 69.72
56.10 62.08 65.33 65.47 63.99 65.95 69.14 69.03 69.66 68.89 68.04 67.90 67.86 68.60 69.32 69.05 68.76 69.64 69.68 69.28 68.91 68.78 68.87 68.42 68.06 67.68 67.29 67.20 67.47 66.78 66.39 66.17 66.04 65.78 64.85 64.56 65.29 68.24 70.25 71.08 71.43 70.81 70.49
55.34 55.95 57.12 57.57 58.21 59.84 60.51 60.92 64.64 67.61 67.40 67.29 67.97 67.95 68.78 68.49 68.28 68.37 68.99 68.93 68.87 68.97 68.60 68.26 67.63 67.52 67.14 67.16 66.60 66.30 66.76 66.49 66.13 65.27 64.58 64.23 63.62 65.17 67.95 69.74 70.69 70.69 70.86
55.32 55.38 56.19 56.43 56.01 56.37 56.77 58.29 59.50 60.77 62.76 65.68 68.13 67.43 67.75 68.77 68.51 68.46 68.05 68.14 69.06 69.24 68.62 68.31 67.50 67.09 66.73 66.64 66.20 65.99 65.97 65.97 65.57 64.80 64.06 63.44 63.37 62.55 64.09 66.97 68.81 69.67 70.18
54.18 53.81 53.88 54.66 53.40 53.48 54.00 55.20 56.48 57.51 58.53 59.90 61.31 64.26 66.98 68.94 69.25 67.83 67.86 67.68 67.48 68.60 68.46 67.97 67.23 66.08 66.26 65.90 65.51 64.86 64.71 64.91 65.01 64.47 63.68 62.98 62.53 62.74 61.86 63.09 65.49 67.65 68.81
51.99 52.19 51.42 51.55 51.33 51.82 52.36 53.02 53.58 54.23 55.23 56.20 57.19 58.49 62.38 65.57 67.30 68.04 67.59 67.39 66.42 66.71 67.21 67.56 67.07 65.98 65.11 64.95 65.07 63.86 64.21 64.49 64.40 64.58 63.54 62.87 62.16 61.79 61.26 61.20 62.77 64.12 66.00
50.56 50.59 50.42 50.35 50.19 50.67 50.82 51.00 51.42 51.82 52.71 54.14 54.37 55.78 57.01 57.84 61.49 65.84 67.00 67.02 66.33 65.26 65.54 66.06 66.36 65.93 65.24 65.09 64.67 63.63 63.51 64.04 64.10 63.85 63.35 63.44 62.59 62.94 62.75 61.83 61.05 61.91 62.19
49.00 48.53 48.30 47.87 48.06 47.83 47.95 47.87 48.28 47.79 48.98 50.33 52.05 53.84 55.20 56.48 57.56 57.58 64.36 66.35 65.82 65.66 65.50 64.78 64.60 63.01 63.26 64.22 61.14 59.23 60.38 62.93 62.94 63.42 63.11 62.68 62.33 62.73 63.73 61.92 61.22 60.90 61.30
46.20 46.19 45.97 45.64 45.86 45.71 46.27 46.62 46.71 46.31 48.09 48.19 50.65 50.45 51.95 52.79 53.73 54.95 56.39 60.89 65.89 65.70 64.78 63.55 64.41 63.24 64.16 64.00 62.46 61.35 57.83 58.93 60.67 62.29 63.13 62.72 62.31 63.15 62.21 62.01 62.33 61.06 60.84
43.65 43.88 44.04 44.03 44.20 45.04 45.19 44.81 43.94 44.21 45.12 45.70 45.60 46.38 48.36 49.60 50.49 51.83 53.60 55.69 57.23 64.20 65.53 65.06 63.27 62.93 61.62 61.43 61.08 59.09 54.65 54.98 56.46 58.32 60.78 61.54 61.21 61.69 61.75 59.77 60.78 62.66 62.71
42.12 42.98 43.18 44.38 43.47 44.16 43.54 42.32 40.98 39.88 39.61 42.07 43.05 44.90 45.84 47.83 48.82 50.35 52.53 53.99 56.01 58.77 62.80 64.97 63.40 62.07 58.97 56.18 56.48 57.66 58.30 56.80 53.11 52.88 57.58 61.18 60.84 60.35 60.43 59.85 58.73 60.91 61.44
41.74 41.04 41.35 41.02 40.87 41.56 41.57 41.01 40.39 39.56 40.10 41.12 42.96 43.76 45.09 46.40 47.89 49.27 50.16 51.59 53.50 55.22 59.02 64.00 61.47 57.80 57.64 55.60 54.85 56.36 56.83 58.69 56.84 53.64 51.39 56.86 60.01 60.78 60.00 60.39 59.28 59.91 60.49
40.57 40.35 40.17 38.80 37.61 39.45 40.31 39.30 40.44 39.16 39.19 39.90 41.07 42.34 44.31 45.97 47.32 49.00 50.22 50.81 52.63 55.58 58.41 62.41 62.33 60.40 57.53 57.12 56.22 57.92 58.52 58.08 56.28 54.71 51.32 54.28 56.17 58.69 60.18 59.45 58.84 59.10 60.23

GFSSE_sfc_wetblb_117.txt.gz
Wetbulb
69.52 71.84 72.71 73.32 73.59 73.41 73.11 72.80 72.63 72.90 73.60 74.04 74.20 74.62 74.69 74.76 74.63 74.46 74.63 74.84 74.92 75.27 76.03 75.33 75.08 74.48 73.88 72.76 72.59 72.63 72.75 72.32 72.25 72.85 73.33 73.97 73.56 73.53 73.15 72.94 72.58 70.98 72.40
70.24 72.25 72.02 73.01 73.44 73.61 73.27 72.92 72.98 73.11 73.73 74.12 73.95 74.12 74.26 74.19 74.31 74.21 74.64 74.92 75.24 75.65 75.28 74.98 74.58 74.31 73.98 72.59 72.47 72.16 71.98 71.77 71.54 71.99 73.08 73.60 73.55 73.19 72.54 72.69 72.23 71.67 72.02
70.35 72.32 72.36 72.36 73.21 73.54 73.45 73.17 73.33 73.72 73.88 73.98 73.89 73.75 73.91 74.24 73.99 74.03 74.23 74.61 75.16 75.69 75.23 74.71 74.43 74.31 74.03 72.56 71.65 71.76 71.90 71.60 71.57 71.62 72.50 70.39 71.12 72.79 72.71 72.36 72.41 73.00 72.41
70.97 71.72 72.28 72.31 72.85 73.14 73.11 73.11 73.32 73.91 73.95 73.90 73.71 73.52 73.62 74.01 74.10 73.86 73.75 74.04 74.66 75.21 75.08 74.58 74.36 74.28 74.06 72.07 71.17 71.35 71.45 71.42 71.24 71.17 69.57 70.31 71.18 72.53 72.58 72.27 72.38 72.44 72.50
70.40 71.23 71.94 72.13 72.22 72.72 72.52 72.77 72.93 73.34 73.40 73.34 73.39 73.64 73.54 73.59 73.88 73.86 73.48 73.94 74.83 75.18 74.61 74.08 74.13 74.44 72.69 71.46 70.71 70.58 70.83 70.80 70.74 70.27 68.14 69.10 69.74 71.13 72.09 72.35 72.41 72.73 72.12
69.86 70.78 70.49 71.07 71.80 72.38 72.23 72.31 72.66 72.67 72.23 72.44 72.84 73.22 73.59 73.57 73.57 73.34 72.80 73.77 74.79 74.86 74.65 74.33 74.46 73.33 71.67 70.93 70.37 70.26 69.98 70.15 69.81 68.55 67.54 68.42 69.14 71.44 72.10 71.86 71.59 72.03 71.49
69.43 69.97 70.51 70.17 71.22 72.26 72.65 72.44 72.16 72.09 71.66 71.95 72.65 72.79 73.01 73.40 73.42 72.64 72.32 73.25 74.21 74.46 74.33 74.05 73.48 72.36 71.25 70.80 70.50 69.96 69.35 69.08 68.39 66.77 66.62 66.84 68.03 71.96 72.49 71.74 71.57 71.34 71.34
69.24 69.64 70.10 70.96 71.10 71.38 71.78 71.69 71.24 71.15 71.38 71.51 71.89 72.36 72.90 72.73 72.52 72.28 71.91 72.37 72.92 73.26 73.11 72.97 72.17 71.59 71.14 70.88 70.35 69.05 68.45 68.57 68.55 66.19 66.10 63.91 65.55 70.49 72.37 71.75 70.69 70.85 71.05
69.51 68.97 68.86 69.90 70.88 70.21 69.67 69.99 69.99 70.35 70.75 70.93 71.16 71.45 71.76 71.33 71.19 71.76 71.82 71.88 72.10 72.06 71.85 71.95 71.20 70.89 70.81 70.20 69.58 68.32 67.45 68.05 66.95 66.41 67.07 64.15 66.30 68.78 71.78 71.69 71.03 70.97 70.86
68.59 68.03 67.92 68.62 69.29 69.14 69.22 68.93 69.22 69.68 69.95 70.24 70.44 70.40 70.29 70.39 70.61 70.92 70.76 71.09 71.33 71.18 71.17 71.27 70.74 70.45 70.27 69.58 68.55 67.83 67.18 67.74 66.46 65.98 65.89 65.87 67.38 68.25 69.65 71.78 71.32 71.19 70.95
68.77 67.51 67.26 67.74 68.10 68.08 68.35 69.31 69.79 70.33 69.90 69.59 70.24 69.77 68.84 70.60 70.08 70.14 69.91 69.89 70.54 69.55 69.87 70.50 70.00 69.42 68.70 68.39 67.89 67.40 67.26 66.70 66.18 65.88 65.57 66.89 68.40 69.69 70.20 71.16 71.41 70.95 70.88
66.75 67.69 67.53 67.35 67.42 67.38 69.35 68.32 68.39 69.32 70.00 70.17 70.44 69.75 70.67 70.86 70.19 70.26 69.54 68.86 69.20 68.86 68.93 69.27 69.15 68.50 68.08 67.13 66.97 67.38 66.26 66.27 66.31 65.91 65.70 66.71 68.59 70.05 70.30 71.15 70.96 70.84 70.67
66.73 67.29 68.41 68.08 67.78 67.65 67.87 66.81 67.10 67.82 69.05 70.17 69.96 70.31 70.56 69.65 69.89 70.18 70.10 69.43 68.64 68.84 68.46 68.57 68.30 68.46 67.78 67.28 66.18 65.84 65.61 65.75 65.70 65.95 66.08 66.24 68.03 70.20 70.79 71.28 70.95 71.10 70.54
57.22 63.25 67.78 68.44 68.35 67.92 68.73 67.05 66.58 67.37 67.23 67.60 69.20 69.44 69.37 69.33 69.13 69.05 69.29 69.45 68.88 68.19 68.26 68.26 68.66 68.73 67.71 67.33 66.20 65.52 65.34 65.29 65.31 65.50 65.10 65.39 66.73 69.65 71.11 71.21 71.12 70.89 70.44
56.96 64.37 64.84 62.25 63.11 66.61 67.81 67.96 68.77 67.60 66.60 66.45 66.76 68.23 69.20 68.74 68.63 68.80 68.77 68.96 68.65 68.30 68.05 67.94 68.50 68.44 67.58 67.03 66.45 65.91 65.57 65.23 65.23 65.39 64.89 64.63 65.16 68.08 70.52 70.96 71.68 70.82 70.40
56.13 56.20 56.61 56.74 57.29 58.63 58.69 59.82 61.42 63.26 66.16 67.80 66.77 66.77 67.49 67.96 68.10 68.39 68.68 68.36 68.64 68.10 68.21 67.96 67.76 67.74 67.69 67.35 66.81 66.36 65.96 65.69 65.42 65.22 65.07 64.75 63.72 65.33 67.87 70.19 71.24 70.94 71.16
54.82 54.74 54.08 54.03 54.33 54.11 54.51 55.52 56.70 57.62 60.49 61.49 62.18 64.55 66.64 67.51 67.60 67.40 67.47 68.26 68.75 68.39 67.90 67.87 67.06 67.03 66.92 67.33 66.57 66.22 66.23 65.89 65.76 65.15 64.88 64.09 64.18 62.81 64.11 66.50 68.38 69.47 69.93
52.03 51.17 51.73 53.08 51.87 51.52 51.95 52.64 53.60 54.59 55.57 56.17 59.18 60.55 62.09 63.28 64.64 67.40 67.22 67.25 68.21 67.85 67.51 67.65 67.02 66.79 66.71 66.42 66.04 65.59 65.80 65.78 65.31 64.99 64.57 63.96 63.62 63.99 62.96 64.17 66.06 67.40 68.35
49.44 49.48 48.80 49.36 49.36 49.86 49.91 50.69 51.13 51.50 51.79 53.49 53.83 55.65 57.41 59.12 60.05 60.68 63.51 67.40 67.36 67.00 67.10 67.15 66.90 66.82 66.00 65.86 65.70 65.72 64.92 64.87 64.93 65.20 64.42 63.61 62.55 63.16 62.79 62.12 62.56 63.22 65.53
47.49 47.68 47.76 47.26 47.13 47.40 47.58 48.37 48.94 48.07 48.18 50.13 50.46 52.33 53.29 55.32 56.11 56.25 58.38 62.18 65.86 65.09 65.54 66.01 65.59 66.12 65.88 65.45 65.02 64.86 63.90 64.29 64.93 64.86 64.20 63.89 62.84 62.17 61.54 60.84 60.61 60.94 62.21
45.29 44.98 45.05 44.63 44.73 45.48 44.95 44.04 45.27 43.68 45.91 46.56 48.51 48.82 49.40 51.46 51.93 51.79 53.49 54.74 57.88 63.83 64.40 63.72 63.88 63.58 64.52 65.05 62.14 60.53 60.31 61.86 62.38 63.59 63.80 63.19 62.55 62.12 61.67 61.72 61.14 60.73 61.36
42.61 43.05 43.32 43.33 43.27 43.51 43.67 43.36 43.20 42.56 44.56 44.69 45.84 45.69 47.72 47.40 48.45 49.66 50.32 51.79 54.23 55.49 58.81 64.42 64.13 62.42 62.14 63.51 61.43 60.15 57.79 58.93 60.51 62.62 62.66 62.33 62.26 62.31 61.99 62.54 62.42 60.86 60.49
40.90 41.64 41.48 41.69 41.44 41.95 42.13 41.96 41.48 42.30 42.10 42.65 42.02 43.30 44.80 45.98 47.05 47.96 48.75 50.38 51.97 52.92 53.77 57.87 63.69 63.69 62.03 60.77 61.95 58.92 53.48 55.28 56.75 59.12 61.53 62.06 61.49 61.89 61.93 61.42 60.97 60.97 60.57
39.62 39.93 39.37 39.37 39.50 40.94 41.23 40.03 38.93 38.18 38.31 39.58 40.36 42.44 44.11 45.93 46.90 48.03 48.64 48.91 49.52 51.39 53.08 55.14 59.34 63.30 63.10 58.49 56.83 57.77 56.13 56.49 54.29 51.16 57.59 59.97 60.79 60.91 61.38 61.20 60.83 61.02 61.41
40.18 38.71 37.73 37.62 37.64 38.22 38.26 39.01 39.09 39.10 40.20 41.26 41.66 41.34 42.79 45.43 46.55 48.07 49.35 49.21 49.34 50.01 51.20 53.18 54.82 59.44 62.93 62.03 55.99 54.72 55.59 54.72 54.95 52.63 50.99 54.73 60.06 61.68 61.49 60.53 59.90 60.08 61.36
38.30 38.01 37.82 37.14 36.55 37.59 37.42 37.79 37.90 38.54 38.47 38.90 39.42 39.94 41.25 42.42 44.31 46.62 47.93 48.66 49.48 50.52 51.75 52.49 54.21 57.64 61.54 60.63 59.05 57.74 55.36 54.15 54.53 53.53 52.07 53.41 54.60 58.69 61.59 61.13 59.12 59.08 59.76

GFSSE_sfc_wetblb_120.txt.gz
Wetbulb
68.39 70.49 72.49 73.31 73.49 73.29 72.80 72.48 72.79 73.08 73.85 74.58 74.57 74.68 74.44 74.01 74.10 74.13 74.20 74.67 75.14 75.47 75.55 75.23 74.60 74.05 72.71 72.59 73.16 73.05 72.75 72.22 72.07 73.28 73.91 73.89 73.60 73.28 72.99 72.57 72.22 71.35 72.57
70.14 71.78 71.90 73.07 73.43 73.49 73.00 72.68 72.86 73.49 73.91 74.53 74.57 74.65 74.47 74.15 74.22 74.15 74.42 74.55 75.01 75.50 75.65 74.98 74.78 74.10 72.95 72.29 72.33 72.02 71.96 71.50 71.43 72.34 73.57 73.69 73.50 73.20 72.73 72.58 71.72 71.51 72.15
70.30 71.96 71.84 72.47 73.25 73.44 73.29 73.11 73.23 73.80 74.01 74.14 74.37 74.51 74.49 74.47 74.39 74.19 74.28 74.44 74.89 75.39 75.73 74.62 74.53 74.25 72.86 72.35 71.51 71.70 71.56 71.30 71.22 71.87 72.99 71.47 71.78 73.01 72.46 72.48 72.23 72.20 72.25
70.70 71.47 71.49 72.35 72.91 73.20 72.97 73.10 73.16 73.90 74.21 73.98 74.03 74.22 74.22 74.32 74.26 74.07 74.14 74.14 74.85 75.29 75.33 74.65 74.15 74.38 73.15 71.41 70.95 71.06 71.16 71.28 70.99 71.42 70.30 71.03 71.49 72.93 72.29 72.14 72.26 72.00 72.28
70.17 71.42 71.86 71.97 72.24 72.87 72.65 72.72 72.99 73.18 73.26 73.23 73.44 73.96 74.10 74.08 74.18 74.06 73.80 74.03 75.00 75.46 75.27 74.37 74.50 74.42 72.49 70.66 70.21 70.57 70.99 70.81 70.62 69.75 69.50 70.19 70.93 72.03 72.34 72.32 72.40 72.37 71.69
69.42 70.75 70.66 71.02 71.73 72.48 72.61 72.56 72.61 72.61 71.95 72.37 72.62 73.32 73.93 74.03 74.03 73.66 73.22 74.02 75.03 75.02 75.19 74.75 74.51 73.37 71.51 70.52 70.02 69.93 70.24 70.11 69.94 68.78 68.20 69.59 69.88 71.59 72.39 72.47 71.86 71.60 71.25
68.57 69.49 70.19 70.10 71.03 72.13 72.35 72.44 72.27 71.96 71.63 71.91 72.30 72.67 73.01 73.57 73.74 73.16 72.88 73.66 74.24 74.43 74.20 73.83 73.59 72.18 71.07 70.34 70.07 69.75 69.24 69.18 68.69 67.82 67.46 67.88 69.09 71.60 71.75 71.88 71.52 71.48 71.35
68.69 69.04 69.89 71.19 71.35 71.27 71.39 71.39 71.11 71.05 71.34 71.45 71.76 72.11 72.74 72.69 72.53 72.39 72.43 72.95 73.26 73.14 72.91 72.62 72.01 71.38 70.89 70.32 69.86 68.97 68.36 68.58 68.48 66.86 66.75 66.59 68.10 71.05 71.82 70.83 70.45 70.59 71.07
68.90 68.51 68.61 69.56 70.84 70.52 69.85 69.91 69.53 70.23 70.67 70.74 70.89 71.30 71.58 71.27 71.20 71.55 71.83 72.16 72.55 72.38 72.20 71.76 71.46 70.85 70.82 70.31 69.63 68.24 67.33 68.13 67.53 66.92 66.81 65.17 67.45 68.14 71.53 71.62 70.60 70.38 70.92
67.66 67.33 67.22 67.84 68.99 69.02 68.86 68.99 69.22 69.49 69.60 69.80 70.30 70.19 70.05 70.25 70.67 70.77 70.66 71.05 71.50 71.57 71.32 71.67 70.83 70.29 70.22 69.62 68.74 67.73 66.95 67.49 66.81 66.39 66.45 66.41 66.75 68.44 71.18 71.96 71.25 70.68 70.07
67.76 66.95 66.61 66.97 67.73 67.71 68.05 69.02 69.67 70.14 69.87 69.42 69.78 69.54 68.16 69.74 69.06 69.57 69.71 69.77 70.41 69.62 69.89 70.52 69.93 69.37 68.99 68.81 68.16 67.55 67.51 66.97 66.72 65.87 66.00 66.79 67.99 69.05 70.29 71.68 71.20 70.68 70.30
65.01 66.72 66.40 66.42 66.87 67.21 68.99 68.12 68.32 68.97 69.06 69.74 70.79 70.43 70.59 70.69 70.43 69.51 69.08 68.86 69.24 68.68 69.08 69.37 69.17 68.48 68.30 67.96 67.69 67.67 66.91 66.81 66.45 66.27 66.13 66.55 68.45 70.00 70.05 71.01 71.09 70.88 70.20
61.39 66.32 66.99 66.24 66.63 66.83 67.75 67.12 66.87 68.00 69.60 70.07 70.35 70.42 70.51 70.26 70.03 69.83 69.73 68.79 67.82 68.54 68.32 68.48 68.57 68.52 67.82 67.28 66.39 66.35 66.13 66.31 66.26 66.34 66.61 66.28 67.90 69.99 70.78 71.30 71.14 71.04 70.15
48.45 62.33 66.41 66.58 66.74 67.08 67.62 66.64 66.69 67.75 68.45 68.77 69.40 69.68 69.47 69.04 68.90 68.83 68.97 68.88 68.96 68.81 68.48 68.11 68.97 69.15 67.84 67.41 66.58 65.88 65.88 65.95 66.06 66.07 65.70 65.45 66.66 69.10 70.53 71.23 71.53 71.22 70.95
47.60 61.75 67.19 68.81 68.36 68.07 68.23 68.54 67.18 66.26 66.82 67.50 68.14 69.06 69.44 68.68 68.05 68.18 68.65 68.63 68.45 68.65 68.29 68.15 68.47 68.59 68.54 68.00 67.46 66.31 65.65 65.66 65.89 65.93 65.38 64.70 65.16 67.23 69.89 71.35 71.57 70.81 71.63
56.73 58.57 56.62 58.81 61.28 60.61 59.90 60.63 61.10 62.48 64.29 66.42 66.24 67.05 67.87 68.03 67.64 67.82 68.14 68.36 68.18 68.11 68.24 68.07 67.80 67.86 67.36 67.90 67.22 66.84 66.16 65.93 65.73 65.50 65.36 65.44 63.79 64.87 67.70 70.60 71.67 71.82 71.81
53.48 53.01 53.00 53.85 54.33 54.92 55.24 55.64 56.22 57.84 58.97 59.77 61.12 62.14 63.22 63.71 62.70 65.22 67.42 67.91 68.28 68.34 66.85 68.09 67.26 67.53 67.30 66.96 66.54 67.10 66.81 66.06 65.52 65.39 65.30 65.26 65.07 62.80 63.97 67.19 68.97 70.35 70.78
49.03 48.85 49.31 51.21 50.91 51.25 51.56 52.90 53.93 54.16 54.65 55.29 56.07 58.60 58.36 59.95 60.54 61.53 60.75 63.24 67.44 68.61 67.64 67.28 67.08 66.67 66.69 66.34 65.99 66.28 66.37 66.68 65.84 65.71 65.60 65.19 64.50 64.76 63.43 63.40 65.37 67.36 68.66
46.19 46.61 46.16 46.76 47.29 48.26 49.08 49.90 50.03 50.00 50.91 50.90 51.80 52.61 53.61 55.47 56.27 56.09 58.94 60.84 62.72 64.99 66.67 66.47 66.72 66.13 65.66 66.04 65.83 65.91 65.56 65.35 65.42 65.46 65.44 64.94 63.77 63.96 63.74 62.84 62.50 63.36 65.74
43.87 44.38 44.76 44.67 44.84 45.85 46.48 47.24 46.75 46.43 47.60 47.54 48.56 48.31 50.15 50.52 51.51 51.63 53.40 54.81 56.06 60.20 64.51 65.24 64.37 65.20 64.80 65.10 65.29 64.43 65.25 65.34 65.39 64.75 64.49 64.15 63.47 62.89 62.84 62.64 62.96 63.12 61.51
42.47 42.38 42.65 42.04 42.58 43.17 43.41 43.39 44.23 42.68 44.89 45.19 45.15 46.13 47.26 47.42 48.45 48.33 49.81 50.88 53.24 54.37 55.39 59.59 64.07 61.79 61.36 64.07 61.87 60.72 62.29 63.62 63.55 63.82 63.64 63.23 62.49 62.04 62.07 62.08 61.86 61.76 61.99
38.89 39.24 39.18 39.86 40.77 41.22 41.83 41.98 41.84 41.91 43.81 44.06 43.09 44.19 44.93 45.62 46.89 47.34 47.29 48.35 50.11 51.46 52.26 53.37 58.79 63.00 62.57 63.64 61.00 58.62 54.88 57.15 60.70 62.80 63.55 63.09 62.31 62.82 62.54 62.51 62.44 61.95 62.07
38.29 38.39 38.09 38.23 38.50 40.24 40.49 41.35 41.27 41.09 41.32 41.26 41.13 41.97 43.15 45.31 46.68 47.03 47.36 48.24 48.63 49.63 50.11 52.25 54.42 56.20 61.54 62.05 63.19 59.27 55.26 55.40 57.19 59.89 60.81 63.10 63.32 62.58 62.57 62.38 62.56 62.72 62.45
38.88 39.73 39.41 39.10 38.64 39.07 39.03 39.62 38.98 38.52 38.61 40.67 41.20 41.51 42.27 44.53 44.51 46.20 48.84 49.67 50.00 50.38 50.27 50.71 53.08 53.90 57.25 59.92 59.78 62.36 58.59 57.26 55.82 53.77 57.87 61.67 62.45 60.93 61.72 62.35 62.54 62.39 62.30
37.74 37.96 38.83 39.35 38.43 37.59 37.10 38.25 38.02 37.29 38.94 40.14 40.44 40.34 40.81 41.67 44.02 45.40 47.27 47.59 48.00 49.25 50.47 51.11 51.72 52.06 53.74 56.03 59.40 56.97 56.87 55.94 54.74 54.56 52.67 54.67 59.88 60.67 61.12 61.93 62.64 62.69 62.33
37.45 36.96 37.88 36.99 36.93 37.08 36.75 37.30 36.83 36.87 37.54 38.07 38.58 38.78 39.57 41.20 42.40 44.02 44.32 44.90 45.60 47.05 48.22 50.01 52.37 52.71 53.04 53.95 57.01 59.01 57.29 56.28 54.34 53.60 51.71 53.04 55.31 58.39 60.13 60.72 62.17 62.07 62.32

GFSSE_sfc_wetblb_123.txt.gz
Wetbulb
71.10 72.89 72.80 73.59 73.48 73.18 72.93 72.88 72.88 73.87 74.32 74.06 74.07 74.06 74.35 74.56 74.24 74.15 74.59 74.82 74.87 74.87 75.39 74.41 74.54 74.47 73.83 73.61 73.89 73.49 73.09 72.57 72.95 74.20 74.03 74.03 73.60 73.47 72.72 72.81 72.55 71.73 72.35
72.27 73.50 72.19 73.14 73.52 73.35 73.01 72.81 72.96 73.73 74.71 74.60 74.30 73.93 74.12 74.26 74.04 74.13 74.54 74.84 74.97 75.27 75.44 74.49 74.42 73.65 72.70 72.65 72.62 72.26 72.18 71.74 72.07 73.35 73.79 73.87 73.42 73.27 72.62 72.17 71.91 72.11 72.49
72.99 73.89 73.80 72.58 73.34 73.22 73.16 73.14 73.25 73.81 74.87 74.87 74.63 74.19 74.09 74.08 74.06 73.92 74.16 74.54 75.02 75.49 75.54 74.92 74.64 73.76 72.65 72.25 71.67 71.83 71.75 71.48 71.75 72.86 73.52 73.16 73.33 73.17 72.57 72.09 72.28 72.37 72.69
73.15 73.62 73.98 72.51 72.82 72.96 72.84 72.73 73.21 74.04 74.21 74.66 74.66 74.50 74.16 74.12 74.13 74.12 73.78 74.04 74.91 75.36 75.57 74.86 74.74 74.27 72.92 71.52 71.19 71.41 71.38 71.23 71.40 72.22 72.82 72.67 72.65 72.89 72.42 71.85 71.80 72.05 72.39
72.68 73.53 73.45 72.16 72.29 72.88 72.80 72.74 72.82 73.33 73.39 73.63 74.24 74.68 74.58 74.57 74.55 74.21 73.69 73.85 74.80 75.56 75.59 74.96 75.01 74.55 72.13 70.57 70.37 70.87 71.13 70.88 70.68 71.44 72.59 72.96 73.10 72.57 72.43 72.20 71.89 72.35 72.04
72.25 73.37 71.78 71.14 71.90 72.46 72.67 72.80 72.71 72.63 72.46 72.62 72.97 74.07 74.58 74.74 74.58 74.07 73.42 74.10 75.09 75.35 75.44 74.79 74.44 73.66 71.38 70.27 69.98 70.30 70.39 70.28 70.02 71.90 72.41 72.24 72.68 72.46 72.38 72.47 71.82 71.54 71.44
71.80 73.06 73.42 70.20 71.43 72.31 72.70 72.65 72.34 71.91 71.62 72.03 72.40 72.94 73.64 73.91 74.07 73.44 73.10 73.80 74.56 74.66 74.63 74.21 73.29 72.42 71.24 70.40 70.02 69.82 69.65 69.52 71.92 71.70 71.89 72.22 72.70 71.98 72.28 72.11 71.82 71.44 71.47
72.31 72.73 73.31 71.82 71.20 71.35 71.77 71.70 71.23 71.21 71.34 71.44 71.72 72.33 73.06 73.23 72.88 72.75 72.87 73.07 73.38 73.47 73.10 72.93 72.50 71.70 71.02 70.41 69.95 69.09 68.72 69.01 70.58 71.80 71.67 71.56 71.44 71.43 72.18 72.29 71.48 71.39 71.04
72.89 72.27 72.99 73.81 73.15 70.42 69.47 69.67 69.76 70.55 70.67 70.76 71.07 71.36 71.78 71.55 71.76 72.15 72.33 72.65 72.86 72.50 72.15 71.90 71.67 70.94 70.78 70.10 69.40 68.50 67.61 68.50 71.20 71.34 70.58 71.31 70.06 71.08 71.91 72.44 71.45 71.27 70.99
71.95 72.40 72.23 72.63 73.60 73.99 73.89 68.98 69.09 69.43 69.88 70.17 70.66 70.57 69.99 70.37 71.01 71.19 71.20 71.65 71.98 71.58 71.51 71.44 70.97 70.50 70.29 69.60 68.91 67.92 67.29 67.85 71.04 71.15 71.10 70.82 67.76 69.93 70.33 72.64 71.62 71.15 70.75
70.01 72.17 72.43 71.95 72.36 72.97 73.05 72.58 70.50 70.22 69.88 69.48 70.47 69.83 69.62 72.95 72.87 72.75 70.89 70.22 70.85 70.15 70.08 70.66 70.23 69.63 69.09 68.96 68.71 67.90 67.47 71.12 71.30 70.82 70.94 68.22 68.12 69.21 70.06 72.14 71.32 70.89 70.88
57.38 64.36 71.55 71.93 71.94 72.13 71.40 72.45 72.92 72.97 73.10 73.36 73.09 72.93 72.64 72.56 72.38 71.86 70.79 69.05 69.45 68.93 69.32 69.39 69.50 68.78 68.97 72.52 71.90 68.96 71.34 71.29 70.96 70.71 70.66 67.20 68.36 69.76 70.06 71.81 71.14 70.94 70.65
55.76 57.30 65.22 71.61 71.83 71.83 71.86 72.16 71.83 72.03 71.91 72.02 72.29 71.86 71.59 71.86 72.17 71.41 70.88 71.80 72.45 70.08 72.28 71.39 72.03 72.69 72.56 72.61 71.95 71.54 71.23 71.16 70.83 70.76 69.65 66.35 68.11 70.15 70.66 71.19 71.24 71.38 70.78
55.13 55.98 60.22 70.55 71.40 71.67 71.69 71.89 70.97 70.18 70.00 70.32 70.59 71.30 71.60 71.15 70.98 70.67 70.54 70.01 70.16 70.95 71.31 71.86 71.65 72.11 72.36 72.21 72.20 71.49 71.10 70.71 70.56 70.62 70.00 65.86 66.98 69.29 70.64 71.46 71.41 71.55 70.80
53.76 56.61 61.64 68.21 71.48 71.57 71.24 71.33 71.22 70.50 68.81 69.47 69.91 70.33 70.82 70.40 70.45 70.43 70.08 70.41 70.75 70.15 69.52 69.57 70.73 70.36 69.99 70.74 71.18 71.59 70.83 70.72 70.76 70.57 70.60 65.45 65.41 67.40 69.56 70.83 71.26 71.16 71.39
57.86 58.01 59.97 59.12 59.67 69.24 69.70 70.42 68.50 67.76 67.02 67.41 67.12 67.78 69.46 69.36 68.98 69.27 69.70 69.89 69.98 70.02 69.99 70.04 69.13 69.20 68.91 69.50 68.92 69.77 70.95 70.94 70.77 70.67 70.51 69.90 63.88 65.19 67.11 69.01 70.49 71.33 71.04
53.15 53.67 54.64 55.61 55.09 56.48 60.19 61.69 63.52 62.09 62.70 62.56 62.53 62.29 62.82 63.14 63.15 66.15 68.21 67.81 69.33 69.99 69.22 69.98 68.61 69.11 68.65 68.83 68.70 68.52 68.81 69.72 70.24 70.14 70.36 70.02 68.76 62.70 63.87 66.07 68.22 69.73 70.43
49.58 49.56 50.54 50.08 49.80 52.21 54.53 57.50 58.50 59.27 59.62 59.84 59.44 59.27 59.31 59.59 60.34 61.38 62.01 62.84 63.57 65.64 69.68 69.53 68.05 67.07 66.85 67.58 67.27 67.90 67.90 68.47 68.10 69.61 69.79 69.23 69.62 69.33 65.19 63.51 65.26 66.98 68.20
46.64 46.22 45.78 46.51 46.14 48.36 52.22 53.63 54.47 54.83 55.15 56.22 55.65 56.26 56.93 56.03 56.49 58.27 59.25 60.27 59.40 61.87 63.55 66.86 68.01 67.49 66.82 66.91 67.31 67.60 68.18 67.74 67.44 67.76 67.42 67.75 69.11 69.14 69.43 65.06 62.80 63.32 64.89
44.22 43.87 43.35 43.90 44.30 45.66 49.06 51.66 52.61 52.52 52.34 52.01 52.26 52.82 52.84 53.85 53.99 55.27 57.33 57.21 57.59 59.04 60.92 64.31 64.31 66.37 66.64 67.61 66.42 66.33 67.25 66.53 68.13 66.89 67.22 67.59 67.78 67.81 68.62 68.08 68.36 67.04 61.74
43.40 42.89 42.37 41.62 42.46 43.25 45.17 45.78 48.22 48.55 50.10 49.15 49.60 50.23 50.54 51.49 52.38 53.31 53.50 54.35 55.64 56.38 57.74 58.89 59.80 62.40 64.67 65.85 63.97 63.27 62.96 64.79 64.87 65.25 66.67 67.07 67.02 66.88 67.65 67.19 67.07 69.14 67.88
42.09 42.21 41.90 40.80 40.96 41.62 43.49 45.12 45.41 45.91 48.37 48.16 47.67 48.42 48.85 49.86 51.07 51.40 52.11 52.40 52.66 53.44 55.14 56.49 57.60 58.98 63.77 64.24 61.65 61.87 57.87 60.89 63.15 63.87 65.89 65.69 66.12 67.20 65.80 66.19 66.65 68.24 68.01
39.01 39.69 40.04 39.58 39.68 40.07 41.97 44.05 44.62 45.65 45.60 45.92 45.99 46.59 47.01 48.12 48.77 50.00 50.24 50.28 50.62 51.10 50.69 51.45 54.76 57.08 58.10 62.62 64.49 60.90 56.03 55.02 60.48 62.37 63.16 64.68 66.05 66.28 64.40 67.19 67.46 67.53 67.80
38.69 40.15 40.52 39.39 38.67 39.63 40.42 40.69 41.67 39.15 39.01 41.89 43.02 44.65 45.47 46.67 47.26 47.14 47.99 48.54 49.32 50.17 50.63 51.31 52.64 52.84 55.22 56.98 60.95 63.91 65.24 61.60 58.45 57.53 61.61 63.93 65.55 64.07 65.61 67.15 67.17 67.68 67.75
39.17 39.85 38.21 40.36 38.78 38.90 39.37 40.84 39.33 38.02 38.95 40.34 41.85 42.19 42.84 44.34 44.71 44.59 45.26 45.67 46.11 47.11 48.44 49.37 51.13 52.32 53.64 53.26 56.41 59.60 61.86 62.80 61.96 57.59 56.99 59.58 62.73 63.74 65.14 66.38 66.98 67.24 67.41
38.19 37.42 39.25 38.07 37.89 38.01 38.37 38.88 37.78 37.21 37.43 37.52 38.39 38.46 39.10 40.88 41.70 42.06 42.64 43.38 43.68 44.66 45.34 46.61 48.04 49.32 51.79 53.52 53.96 55.94 56.77 59.59 59.09 58.33 56.42 58.34 59.22 62.47 63.61 65.67 65.98 66.66 67.49